Wetterdaten: Donnerstag, 29.06.2017
Datum Zeit Temp. A. Temp. A. max Feuchte A. Luftdruck Regen Wind Richtung Richtung Sonnenschein ET UV Solar Taupunkt Windchill Windböen
29.06.2017 00:00 14,9 °C 15,0 °C 89 % 994,8 hPa 0,0 mm 12,0 km/h (2 Bft) W 265 ° 0 min 0,000 mm 0,0 UV-I 0 W/m² 13,1 °C 14,9 °C 24,1 km/h (4 Bft)
29.06.2017 00:01 14,8 °C 14,9 °C 89 % 994,8 hPa 0,0 mm 11,1 km/h (2 Bft) W-NW 297 ° 0 min 0,000 mm 0,0 UV-I 0 W/m² 13,0 °C 14,8 °C 16,1 km/h (3 Bft)
29.06.2017 00:02 14,8 °C 14,8 °C 89 % 994,9 hPa 0,0 mm 13,7 km/h (3 Bft) W 273 ° 0 min 0,000 mm 0,0 UV-I 0 W/m² 13,0 °C 14,8 °C 24,1 km/h (4 Bft)
29.06.2017 00:03 14,7 °C 14,8 °C 90 % 994,9 hPa 0,0 mm 15,4 km/h (3 Bft) W-NW 289 ° 0 min 0,000 mm 0,0 UV-I 0 W/m² 13,1 °C 14,7 °C 24,1 km/h (4 Bft)
29.06.2017 00:04 14,6 °C 14,7 °C 90 % 994,9 hPa 0,0 mm 14,6 km/h (3 Bft) NW 317 ° 0 min 0,000 mm 0,0 UV-I 0 W/m² 13,0 °C 14,6 °C 20,9 km/h (4 Bft)
29.06.2017 00:05 14,6 °C 14,6 °C 90 % 994,9 hPa 0,0 mm 9,9 km/h (2 Bft) W 278 ° 0 min 0,000 mm 0,0 UV-I 0 W/m² 13,0 °C 14,6 °C 16,1 km/h (3 Bft)
29.06.2017 00:06 14,5 °C 14,6 °C 90 % 994,9 hPa 0,0 mm 8,0 km/h (2 Bft) W-NW 284 ° 0 min 0,000 mm 0,0 UV-I 0 W/m² 12,9 °C 14,5 °C 12,9 km/h (3 Bft)
29.06.2017 00:07 14,4 °C 14,5 °C 90 % 994,9 hPa 0,0 mm 8,0 km/h (2 Bft) W 271 ° 0 min 0,000 mm 0,0 UV-I 0 W/m² 12,8 °C 14,4 °C 12,9 km/h (3 Bft)
29.06.2017 00:08 14,4 °C 14,5 °C 90 % 994,9 hPa 0,0 mm 11,1 km/h (2 Bft) W 263 ° 0 min 0,000 mm 0,0 UV-I 0 W/m² 12,8 °C 14,4 °C 22,5 km/h (4 Bft)
29.06.2017 00:09 14,4 °C 14,4 °C 90 % 994,9 hPa 0,0 mm 11,3 km/h (2 Bft) W 267 ° 0 min 0,000 mm 0,0 UV-I 0 W/m² 12,8 °C 14,4 °C 14,5 km/h (3 Bft)
29.06.2017 00:10 14,4 °C 14,4 °C 90 % 994,9 hPa 0,0 mm 7,0 km/h (2 Bft) W-NW 299 ° 0 min 0,000 mm 0,0 UV-I 0 W/m² 12,8 °C 14,4 °C 12,9 km/h (3 Bft)
29.06.2017 00:11 14,4 °C 14,4 °C 90 % 994,9 hPa 0,0 mm 5,0 km/h (1 Bft) W-NW 284 ° 0 min 0,000 mm 0,0 UV-I 0 W/m² 12,8 °C 14,4 °C 9,7 km/h (2 Bft)
29.06.2017 00:12 14,4 °C 14,4 °C 90 % 994,9 hPa 0,0 mm 5,3 km/h (1 Bft) NW 317 ° 0 min 0,000 mm 0,0 UV-I 0 W/m² 12,8 °C 14,4 °C 9,7 km/h (2 Bft)
29.06.2017 00:13 14,4 °C 14,4 °C 91 % 994,9 hPa 0,0 mm 4,1 km/h (1 Bft) W-SW 255 ° 0 min 0,000 mm 0,0 UV-I 0 W/m² 12,9 °C 14,4 °C 11,3 km/h (2 Bft)
29.06.2017 00:14 14,3 °C 14,4 °C 91 % 994,9 hPa 0,0 mm 1,5 km/h (1 Bft) W 262 ° 0 min 0,000 mm 0,0 UV-I 0 W/m² 12,8 °C 14,3 °C 3,2 km/h (1 Bft)
29.06.2017 00:15 14,3 °C 14,4 °C 90 % 994,9 hPa 0,0 mm 10,2 km/h (2 Bft) W 263 ° 0 min 0,000 mm 0,0 UV-I 0 W/m² 12,7 °C 14,3 °C 20,9 km/h (4 Bft)
29.06.2017 00:16 14,3 °C 14,4 °C 90 % 994,9 hPa 0,0 mm 10,0 km/h (2 Bft) W-NW 296 ° 0 min 0,000 mm 0,0 UV-I 0 W/m² 12,7 °C 14,3 °C 17,7 km/h (3 Bft)
29.06.2017 00:17 14,3 °C 14,3 °C 90 % 994,8 hPa 0,0 mm 14,4 km/h (3 Bft) W-NW 291 ° 0 min 0,000 mm 0,0 UV-I 0 W/m² 12,7 °C 14,3 °C 20,9 km/h (4 Bft)
29.06.2017 00:18 14,3 °C 14,3 °C 90 % 994,8 hPa 0,0 mm 9,5 km/h (2 Bft) SW 217 ° 0 min 0,000 mm 0,0 UV-I 0 W/m² 12,7 °C 14,3 °C 20,9 km/h (4 Bft)
29.06.2017 00:19 14,3 °C 14,3 °C 90 % 995,0 hPa 0,0 mm 5,8 km/h (2 Bft) W-NW 290 ° 0 min 0,000 mm 0,0 UV-I 0 W/m² 12,7 °C 14,3 °C 12,9 km/h (3 Bft)
29.06.2017 00:20 14,3 °C 14,3 °C 90 % 995,0 hPa 0,0 mm 11,8 km/h (2 Bft) W 260 ° 0 min 0,000 mm 0,0 UV-I 0 W/m² 12,7 °C 14,3 °C 16,1 km/h (3 Bft)
29.06.2017 00:21 14,2 °C 14,3 °C 90 % 995,0 hPa 0,0 mm 7,4 km/h (2 Bft) W-SW 250 ° 0 min 0,000 mm 0,0 UV-I 0 W/m² 12,6 °C 14,2 °C 12,9 km/h (3 Bft)
29.06.2017 00:22 14,2 °C 14,2 °C 90 % 995,0 hPa 0,0 mm 5,6 km/h (1 Bft) W 277 ° 0 min 0,000 mm 0,0 UV-I 0 W/m² 12,6 °C 14,2 °C 16,1 km/h (3 Bft)
29.06.2017 00:23 14,2 °C 14,2 °C 90 % 995,0 hPa 0,0 mm 6,8 km/h (2 Bft) W-NW 298 ° 0 min 0,000 mm 0,0 UV-I 0 W/m² 12,6 °C 14,2 °C 12,9 km/h (3 Bft)
29.06.2017 00:24 14,2 °C 14,2 °C 90 % 995,0 hPa 0,0 mm 13,9 km/h (3 Bft) W 261 ° 0 min 0,000 mm 0,0 UV-I 0 W/m² 12,6 °C 14,2 °C 22,5 km/h (4 Bft)
29.06.2017 00:25 14,1 °C 14,2 °C 90 % 995,0 hPa 0,0 mm 11,3 km/h (2 Bft) W 267 ° 0 min 0,000 mm 0,0 UV-I 0 W/m² 12,5 °C 14,1 °C 19,3 km/h (3 Bft)
29.06.2017 00:26 14,1 °C 14,1 °C 91 % 995,0 hPa 0,0 mm 8,6 km/h (2 Bft) W 271 ° 0 min 0,000 mm 0,0 UV-I 0 W/m² 12,7 °C 14,1 °C 16,1 km/h (3 Bft)
29.06.2017 00:27 14,1 °C 14,1 °C 91 % 995,0 hPa 0,0 mm 14,3 km/h (3 Bft) W-NW 290 ° 0 min 0,000 mm 0,0 UV-I 0 W/m² 12,7 °C 14,1 °C 20,9 km/h (4 Bft)
29.06.2017 00:28 14,1 °C 14,1 °C 91 % 994,9 hPa 0,0 mm 8,6 km/h (2 Bft) W 260 ° 0 min 0,000 mm 0,0 UV-I 0 W/m² 12,7 °C 14,1 °C 17,7 km/h (3 Bft)
29.06.2017 00:29 14,0 °C 14,1 °C 91 % 994,9 hPa 0,0 mm 7,4 km/h (2 Bft) N-NW 338 ° 0 min 0,000 mm 0,0 UV-I 0 W/m² 12,6 °C 14,0 °C 14,5 km/h (3 Bft)
29.06.2017 00:30 14,0 °C 14,1 °C 91 % 994,9 hPa 0,0 mm 6,8 km/h (2 Bft) W 271 ° 0 min 0,000 mm 0,0 UV-I 0 W/m² 12,6 °C 14,0 °C 16,1 km/h (3 Bft)
29.06.2017 00:31 14,0 °C 14,1 °C 91 % 994,9 hPa 0,0 mm 7,8 km/h (2 Bft) W-SW 243 ° 0 min 0,000 mm 0,0 UV-I 0 W/m² 12,6 °C 14,0 °C 16,1 km/h (3 Bft)
29.06.2017 00:32 14,0 °C 14,0 °C 91 % 994,9 hPa 0,0 mm 7,8 km/h (2 Bft) W-NW 285 ° 0 min 0,000 mm 0,0 UV-I 0 W/m² 12,6 °C 14,0 °C 11,3 km/h (2 Bft)
29.06.2017 00:33 14,0 °C 14,0 °C 91 % 994,9 hPa 0,2 mm 11,2 km/h (2 Bft) W 273 ° 0 min 0,000 mm 0,0 UV-I 0 W/m² 12,6 °C 14,0 °C 17,7 km/h (3 Bft)
29.06.2017 00:34 13,9 °C 14,0 °C 91 % 994,9 hPa 0,2 mm 11,8 km/h (2 Bft) W 260 ° 0 min 0,000 mm 0,0 UV-I 0 W/m² 12,5 °C 13,9 °C 16,1 km/h (3 Bft)
29.06.2017 00:35 13,9 °C 13,9 °C 91 % 994,9 hPa 0,2 mm 6,8 km/h (2 Bft) NW 315 ° 0 min 0,000 mm 0,0 UV-I 0 W/m² 12,5 °C 13,9 °C 16,1 km/h (3 Bft)
29.06.2017 00:36 13,9 °C 13,9 °C 91 % 994,9 hPa 0,4 mm 7,9 km/h (2 Bft) NW 311 ° 0 min 0,000 mm 0,0 UV-I 0 W/m² 12,5 °C 13,9 °C 14,5 km/h (3 Bft)
29.06.2017 00:37 13,8 °C 13,9 °C 92 % 994,9 hPa 0,4 mm 8,3 km/h (2 Bft) W-NW 296 ° 0 min 0,000 mm 0,0 UV-I 0 W/m² 12,5 °C 13,8 °C 16,1 km/h (3 Bft)
29.06.2017 00:38 13,8 °C 13,8 °C 92 % 994,9 hPa 0,2 mm 7,5 km/h (2 Bft) NW 306 ° 0 min 0,000 mm 0,0 UV-I 0 W/m² 12,5 °C 13,8 °C 12,9 km/h (3 Bft)
29.06.2017 00:39 13,8 °C 13,8 °C 92 % 994,9 hPa 0,2 mm 15,8 km/h (3 Bft) W 274 ° 0 min 0,000 mm 0,0 UV-I 0 W/m² 12,5 °C 13,8 °C 25,7 km/h (4 Bft)
29.06.2017 00:40 13,8 °C 13,8 °C 92 % 994,9 hPa 0,0 mm 10,2 km/h (2 Bft) W 278 ° 0 min 0,000 mm 0,0 UV-I 0 W/m² 12,5 °C 13,8 °C 17,7 km/h (3 Bft)
29.06.2017 00:41 13,7 °C 13,8 °C 92 % 994,9 hPa 0,2 mm 8,8 km/h (2 Bft) W-SW 254 ° 0 min 0,000 mm 0,0 UV-I 0 W/m² 12,4 °C 13,7 °C 16,1 km/h (3 Bft)
29.06.2017 00:42 13,7 °C 13,7 °C 92 % 994,9 hPa 0,2 mm 12,7 km/h (3 Bft) W-SW 246 ° 0 min 0,000 mm 0,0 UV-I 0 W/m² 12,4 °C 13,7 °C 19,3 km/h (3 Bft)
29.06.2017 00:43 13,7 °C 13,7 °C 92 % 995,0 hPa 0,0 mm 15,1 km/h (3 Bft) W 273 ° 0 min 0,000 mm 0,0 UV-I 0 W/m² 12,4 °C 13,7 °C 20,9 km/h (4 Bft)
29.06.2017 00:44 13,6 °C 13,7 °C 92 % 995,0 hPa 0,0 mm 12,5 km/h (3 Bft) W 272 ° 0 min 0,000 mm 0,0 UV-I 0 W/m² 12,3 °C 13,6 °C 19,3 km/h (3 Bft)
29.06.2017 00:45 13,6 °C 13,7 °C 92 % 994,9 hPa 0,2 mm 14,9 km/h (3 Bft) W-NW 283 ° 0 min 0,000 mm 0,0 UV-I 0 W/m² 12,3 °C 13,6 °C 22,5 km/h (4 Bft)
29.06.2017 00:46 13,6 °C 13,6 °C 92 % 995,0 hPa 0,0 mm 13,3 km/h (3 Bft) SW 215 ° 0 min 0,000 mm 0,0 UV-I 0 W/m² 12,3 °C 13,6 °C 19,3 km/h (3 Bft)
29.06.2017 00:47 13,6 °C 13,6 °C 92 % 995,0 hPa 0,0 mm 7,2 km/h (2 Bft) W-NW 294 ° 0 min 0,000 mm 0,0 UV-I 0 W/m² 12,3 °C 13,6 °C 11,3 km/h (2 Bft)
29.06.2017 00:48 13,6 °C 13,6 °C 92 % 995,0 hPa 0,0 mm 8,3 km/h (2 Bft) W-NW 300 ° 0 min 0,000 mm 0,0 UV-I 0 W/m² 12,3 °C 13,6 °C 14,5 km/h (3 Bft)
29.06.2017 00:49 13,6 °C 13,6 °C 92 % 995,0 hPa 0,0 mm 14,3 km/h (3 Bft) W 269 ° 0 min 0,000 mm 0,0 UV-I 0 W/m² 12,3 °C 13,6 °C 24,1 km/h (4 Bft)
29.06.2017 00:50 13,6 °C 13,6 °C 92 % 995,0 hPa 0,0 mm 14,0 km/h (3 Bft) S 178 ° 0 min 0,000 mm 0,0 UV-I 0 W/m² 12,3 °C 13,6 °C 22,5 km/h (4 Bft)
29.06.2017 00:51 13,5 °C 13,6 °C 92 % 995,0 hPa 0,0 mm 9,4 km/h (2 Bft) NW 304 ° 0 min 0,000 mm 0,0 UV-I 0 W/m² 12,2 °C 13,5 °C 16,1 km/h (3 Bft)
29.06.2017 00:52 13,5 °C 13,5 °C 92 % 994,9 hPa 0,0 mm 11,6 km/h (2 Bft) W-NW 286 ° 0 min 0,000 mm 0,0 UV-I 0 W/m² 12,2 °C 13,5 °C 17,7 km/h (3 Bft)
29.06.2017 00:53 13,5 °C 13,5 °C 92 % 994,9 hPa 0,0 mm 9,4 km/h (2 Bft) W 276 ° 0 min 0,000 mm 0,0 UV-I 0 W/m² 12,2 °C 13,5 °C 12,9 km/h (3 Bft)
29.06.2017 00:54 13,5 °C 13,5 °C 92 % 994,9 hPa 0,0 mm 15,7 km/h (3 Bft) W-SW 253 ° 0 min 0,000 mm 0,0 UV-I 0 W/m² 12,2 °C 13,5 °C 20,9 km/h (4 Bft)
29.06.2017 00:55 13,4 °C 13,5 °C 92 % 994,9 hPa 0,2 mm 9,8 km/h (2 Bft) SW 223 ° 0 min 0,000 mm 0,0 UV-I 0 W/m² 12,1 °C 13,4 °C 16,1 km/h (3 Bft)
29.06.2017 00:56 13,4 °C 13,4 °C 92 % 994,9 hPa 0,0 mm 11,5 km/h (2 Bft) W-NW 294 ° 0 min 0,000 mm 0,0 UV-I 0 W/m² 12,1 °C 13,4 °C 19,3 km/h (3 Bft)
29.06.2017 00:57 13,4 °C 13,4 °C 92 % 994,8 hPa 0,0 mm 8,6 km/h (2 Bft) W 281 ° 0 min 0,000 mm 0,0 UV-I 0 W/m² 12,1 °C 13,4 °C 14,5 km/h (3 Bft)
29.06.2017 00:58 13,4 °C 13,4 °C 92 % 994,9 hPa 0,0 mm 8,0 km/h (2 Bft) W-NW 287 ° 0 min 0,000 mm 0,0 UV-I 0 W/m² 12,1 °C 13,4 °C 12,9 km/h (3 Bft)
29.06.2017 00:59 13,3 °C 13,4 °C 92 % 994,9 hPa 0,0 mm 11,2 km/h (2 Bft) W-NW 288 ° 0 min 0,000 mm 0,0 UV-I 0 W/m² 12,0 °C 13,3 °C 22,5 km/h (4 Bft)
29.06.2017 01:00 13,3 °C 13,3 °C 92 % 995,0 hPa 0,0 mm 15,3 km/h (3 Bft) W-SW 255 ° 0 min 0,025 mm 0,0 UV-I 0 W/m² 12,0 °C 13,3 °C 22,5 km/h (4 Bft)
29.06.2017 01:01 13,3 °C 13,3 °C 92 % 994,8 hPa 0,0 mm 11,5 km/h (2 Bft) W-SW 249 ° 0 min 0,000 mm 0,0 UV-I 0 W/m² 12,0 °C 13,3 °C 22,5 km/h (4 Bft)
29.06.2017 01:02 13,3 °C 13,3 °C 92 % 994,8 hPa 0,0 mm 14,3 km/h (3 Bft) W-SW 257 ° 0 min 0,000 mm 0,0 UV-I 0 W/m² 12,0 °C 13,3 °C 24,1 km/h (4 Bft)
29.06.2017 01:03 13,3 °C 13,3 °C 92 % 994,8 hPa 0,0 mm 12,9 km/h (3 Bft) W-SW 249 ° 0 min 0,000 mm 0,0 UV-I 0 W/m² 12,0 °C 13,3 °C 22,5 km/h (4 Bft)
29.06.2017 01:04 13,3 °C 13,3 °C 92 % 994,8 hPa 0,2 mm 8,5 km/h (2 Bft) W-NW 296 ° 0 min 0,000 mm 0,0 UV-I 0 W/m² 12,0 °C 13,3 °C 22,5 km/h (4 Bft)
29.06.2017 01:05 13,3 °C 13,3 °C 92 % 994,9 hPa 0,0 mm 14,6 km/h (3 Bft) SW 229 ° 0 min 0,000 mm 0,0 UV-I 0 W/m² 12,0 °C 13,3 °C 25,7 km/h (4 Bft)
29.06.2017 01:06 13,3 °C 13,3 °C 92 % 994,9 hPa 0,0 mm 12,3 km/h (3 Bft) W 269 ° 0 min 0,000 mm 0,0 UV-I 0 W/m² 12,0 °C 13,3 °C 17,7 km/h (3 Bft)
29.06.2017 01:07 13,3 °C 13,3 °C 92 % 994,9 hPa 0,0 mm 4,8 km/h (1 Bft) SW 225 ° 0 min 0,000 mm 0,0 UV-I 0 W/m² 12,0 °C 13,3 °C 11,3 km/h (2 Bft)
29.06.2017 01:08 13,2 °C 13,3 °C 92 % 994,9 hPa 0,0 mm 6,6 km/h (2 Bft) W 271 ° 0 min 0,000 mm 0,0 UV-I 0 W/m² 11,9 °C 13,2 °C 14,5 km/h (3 Bft)
29.06.2017 01:09 13,2 °C 13,2 °C 92 % 994,9 hPa 0,2 mm 10,7 km/h (2 Bft) W 261 ° 0 min 0,000 mm 0,0 UV-I 0 W/m² 11,9 °C 13,2 °C 25,7 km/h (4 Bft)
29.06.2017 01:10 13,2 °C 13,2 °C 92 % 994,9 hPa 0,0 mm 12,3 km/h (3 Bft) W 281 ° 0 min 0,000 mm 0,0 UV-I 0 W/m² 11,9 °C 13,2 °C 22,5 km/h (4 Bft)
29.06.2017 01:11 13,2 °C 13,2 °C 92 % 994,9 hPa 0,0 mm 12,4 km/h (3 Bft) SW 227 ° 0 min 0,000 mm 0,0 UV-I 0 W/m² 11,9 °C 13,2 °C 24,1 km/h (4 Bft)
29.06.2017 01:12 13,2 °C 13,2 °C 92 % 994,9 hPa 0,2 mm 13,2 km/h (3 Bft) W 269 ° 0 min 0,000 mm 0,0 UV-I 0 W/m² 11,9 °C 13,2 °C 19,3 km/h (3 Bft)
29.06.2017 01:13 13,2 °C 13,2 °C 92 % 994,9 hPa 0,0 mm 4,8 km/h (1 Bft) W 270 ° 0 min 0,000 mm 0,0 UV-I 0 W/m² 11,9 °C 13,2 °C 11,3 km/h (2 Bft)
29.06.2017 01:14 13,2 °C 13,2 °C 92 % 995,0 hPa 0,0 mm 6,9 km/h (2 Bft) W-NW 282 ° 0 min 0,000 mm 0,0 UV-I 0 W/m² 11,9 °C 13,2 °C 11,3 km/h (2 Bft)
29.06.2017 01:15 13,2 °C 13,2 °C 93 % 995,0 hPa 0,0 mm 10,0 km/h (2 Bft) SW 231 ° 0 min 0,000 mm 0,0 UV-I 0 W/m² 12,1 °C 13,2 °C 14,5 km/h (3 Bft)
29.06.2017 01:16 13,2 °C 13,2 °C 93 % 995,0 hPa 0,0 mm 6,2 km/h (2 Bft) W-SW 252 ° 0 min 0,000 mm 0,0 UV-I 0 W/m² 12,1 °C 13,2 °C 14,5 km/h (3 Bft)
29.06.2017 01:17 13,2 °C 13,2 °C 92 % 995,0 hPa 0,2 mm 15,0 km/h (3 Bft) W-NW 296 ° 0 min 0,000 mm 0,0 UV-I 0 W/m² 11,9 °C 13,2 °C 20,9 km/h (4 Bft)
29.06.2017 01:18 13,1 °C 13,2 °C 92 % 995,0 hPa 0,0 mm 9,1 km/h (2 Bft) W-NW 288 ° 0 min 0,000 mm 0,0 UV-I 0 W/m² 11,8 °C 13,1 °C 12,9 km/h (3 Bft)
29.06.2017 01:19 13,1 °C 13,2 °C 93 % 995,1 hPa 0,0 mm 8,8 km/h (2 Bft) W-SW 258 ° 0 min 0,000 mm 0,0 UV-I 0 W/m² 12,0 °C 13,1 °C 12,9 km/h (3 Bft)
29.06.2017 01:20 13,1 °C 13,1 °C 93 % 995,1 hPa 0,0 mm 4,2 km/h (1 Bft) W-SW 258 ° 0 min 0,000 mm 0,0 UV-I 0 W/m² 12,0 °C 13,1 °C 9,7 km/h (2 Bft)
29.06.2017 01:21 13,1 °C 13,1 °C 93 % 995,1 hPa 0,0 mm 5,8 km/h (2 Bft) W 267 ° 0 min 0,000 mm 0,0 UV-I 0 W/m² 12,0 °C 13,1 °C 14,5 km/h (3 Bft)
29.06.2017 01:22 13,1 °C 13,1 °C 93 % 995,1 hPa 0,0 mm 12,8 km/h (3 Bft) W 262 ° 0 min 0,000 mm 0,0 UV-I 0 W/m² 12,0 °C 13,1 °C 19,3 km/h (3 Bft)
29.06.2017 01:23 13,1 °C 13,1 °C 93 % 995,1 hPa 0,2 mm 13,7 km/h (3 Bft) S-SW 192 ° 0 min 0,000 mm 0,0 UV-I 0 W/m² 12,0 °C 13,1 °C 20,9 km/h (4 Bft)
29.06.2017 01:24 13,1 °C 13,1 °C 93 % 995,1 hPa 0,0 mm 6,4 km/h (2 Bft) W 276 ° 0 min 0,000 mm 0,0 UV-I 0 W/m² 12,0 °C 13,1 °C 17,7 km/h (3 Bft)
29.06.2017 01:25 13,1 °C 13,1 °C 93 % 995,1 hPa 0,0 mm 13,0 km/h (3 Bft) W 275 ° 0 min 0,000 mm 0,0 UV-I 0 W/m² 12,0 °C 13,1 °C 17,7 km/h (3 Bft)
29.06.2017 01:26 13,1 °C 13,1 °C 93 % 995,1 hPa 0,2 mm 12,5 km/h (3 Bft) W 265 ° 0 min 0,000 mm 0,0 UV-I 0 W/m² 12,0 °C 13,1 °C 17,7 km/h (3 Bft)
29.06.2017 01:27 13,1 °C 13,1 °C 93 % 995,2 hPa 0,0 mm 19,9 km/h (4 Bft) NW 312 ° 0 min 0,000 mm 0,0 UV-I 0 W/m² 12,0 °C 13,1 °C 27,4 km/h (4 Bft)
29.06.2017 01:28 13,1 °C 13,1 °C 93 % 995,2 hPa 0,0 mm 14,8 km/h (3 Bft) W 264 ° 0 min 0,000 mm 0,0 UV-I 0 W/m² 12,0 °C 13,1 °C 22,5 km/h (4 Bft)
29.06.2017 01:29 13,1 °C 13,1 °C 93 % 995,2 hPa 0,2 mm 10,8 km/h (2 Bft) W-SW 252 ° 0 min 0,000 mm 0,0 UV-I 0 W/m² 12,0 °C 13,1 °C 16,1 km/h (3 Bft)
29.06.2017 01:30 13,1 °C 13,1 °C 93 % 995,2 hPa 0,0 mm 9,8 km/h (2 Bft) SW 234 ° 0 min 0,000 mm 0,0 UV-I 0 W/m² 12,0 °C 13,1 °C 16,1 km/h (3 Bft)
29.06.2017 01:31 13,1 °C 13,1 °C 93 % 995,2 hPa 0,0 mm 8,6 km/h (2 Bft) W 269 ° 0 min 0,000 mm 0,0 UV-I 0 W/m² 12,0 °C 13,1 °C 24,1 km/h (4 Bft)
29.06.2017 01:32 13,1 °C 13,1 °C 93 % 995,2 hPa 0,2 mm 15,1 km/h (3 Bft) W-SW 257 ° 0 min 0,000 mm 0,0 UV-I 0 W/m² 12,0 °C 13,1 °C 22,5 km/h (4 Bft)
29.06.2017 01:33 13,1 °C 13,1 °C 93 % 995,2 hPa 0,0 mm 9,1 km/h (2 Bft) W 270 ° 0 min 0,000 mm 0,0 UV-I 0 W/m² 12,0 °C 13,1 °C 12,9 km/h (3 Bft)
29.06.2017 01:34 13,0 °C 13,1 °C 93 % 995,2 hPa 0,0 mm 6,9 km/h (2 Bft) SW 226 ° 0 min 0,000 mm 0,0 UV-I 0 W/m² 11,9 °C 13,0 °C 12,9 km/h (3 Bft)
29.06.2017 01:35 13,0 °C 13,1 °C 93 % 995,2 hPa 0,0 mm 3,5 km/h (1 Bft) W 269 ° 0 min 0,000 mm 0,0 UV-I 0 W/m² 11,9 °C 13,0 °C 9,7 km/h (2 Bft)
29.06.2017 01:36 13,1 °C 13,1 °C 93 % 995,2 hPa 0,2 mm 7,2 km/h (2 Bft) W 269 ° 0 min 0,000 mm 0,0 UV-I 0 W/m² 12,0 °C 13,1 °C 11,3 km/h (2 Bft)
29.06.2017 01:37 13,1 °C 13,1 °C 93 % 995,2 hPa 0,0 mm 8,4 km/h (2 Bft) W-SW 257 ° 0 min 0,000 mm 0,0 UV-I 0 W/m² 12,0 °C 13,1 °C 14,5 km/h (3 Bft)
29.06.2017 01:38 13,1 °C 13,1 °C 93 % 995,2 hPa 0,2 mm 10,9 km/h (2 Bft) W-SW 248 ° 0 min 0,000 mm 0,0 UV-I 0 W/m² 12,0 °C 13,1 °C 14,5 km/h (3 Bft)
29.06.2017 01:39 13,1 °C 13,1 °C 93 % 995,2 hPa 0,0 mm 11,1 km/h (2 Bft) NW 306 ° 0 min 0,000 mm 0,0 UV-I 0 W/m² 12,0 °C 13,1 °C 19,3 km/h (3 Bft)
29.06.2017 01:40 13,0 °C 13,1 °C 93 % 995,2 hPa 0,0 mm 4,2 km/h (1 Bft) W-SW 237 ° 0 min 0,000 mm 0,0 UV-I 0 W/m² 11,9 °C 13,0 °C 11,3 km/h (2 Bft)
29.06.2017 01:41 13,0 °C 13,0 °C 93 % 995,2 hPa 0,2 mm 9,5 km/h (2 Bft) SW 236 ° 0 min 0,000 mm 0,0 UV-I 0 W/m² 11,9 °C 13,0 °C 14,5 km/h (3 Bft)
29.06.2017 01:42 13,1 °C 13,1 °C 93 % 995,2 hPa 0,0 mm 10,9 km/h (2 Bft) W 259 ° 0 min 0,000 mm 0,0 UV-I 0 W/m² 12,0 °C 13,1 °C 17,7 km/h (3 Bft)
29.06.2017 01:43 13,0 °C 13,1 °C 93 % 995,2 hPa 0,0 mm 12,3 km/h (3 Bft) W-SW 246 ° 0 min 0,000 mm 0,0 UV-I 0 W/m² 11,9 °C 13,0 °C 17,7 km/h (3 Bft)
29.06.2017 01:44 13,0 °C 13,0 °C 93 % 995,0 hPa 0,2 mm 15,1 km/h (3 Bft) W-NW 289 ° 0 min 0,000 mm 0,0 UV-I 0 W/m² 11,9 °C 13,0 °C 24,1 km/h (4 Bft)
29.06.2017 01:45 13,0 °C 13,0 °C 93 % 995,2 hPa 0,0 mm 11,4 km/h (2 Bft) W-NW 286 ° 0 min 0,000 mm 0,0 UV-I 0 W/m² 11,9 °C 13,0 °C 16,1 km/h (3 Bft)
29.06.2017 01:46 13,0 °C 13,0 °C 93 % 995,2 hPa 0,0 mm 10,1 km/h (2 Bft) W 274 ° 0 min 0,000 mm 0,0 UV-I 0 W/m² 11,9 °C 13,0 °C 17,7 km/h (3 Bft)
29.06.2017 01:47 12,9 °C 13,0 °C 93 % 995,2 hPa 0,0 mm 5,5 km/h (1 Bft) W 268 ° 0 min 0,000 mm 0,0 UV-I 0 W/m² 11,8 °C 12,9 °C 9,7 km/h (2 Bft)
29.06.2017 01:48 12,9 °C 12,9 °C 93 % 995,2 hPa 0,0 mm 8,1 km/h (2 Bft) W 269 ° 0 min 0,000 mm 0,0 UV-I 0 W/m² 11,8 °C 12,9 °C 11,3 km/h (2 Bft)
29.06.2017 01:49 12,9 °C 13,0 °C 93 % 995,2 hPa 0,2 mm 8,4 km/h (2 Bft) W-SW 257 ° 0 min 0,000 mm 0,0 UV-I 0 W/m² 11,8 °C 12,9 °C 16,1 km/h (3 Bft)
29.06.2017 01:50 12,9 °C 13,0 °C 93 % 995,2 hPa 0,0 mm 4,5 km/h (1 Bft) W-NW 283 ° 0 min 0,000 mm 0,0 UV-I 0 W/m² 11,8 °C 12,9 °C 12,9 km/h (3 Bft)
29.06.2017 01:51 12,9 °C 12,9 °C 93 % 995,2 hPa 0,0 mm 8,4 km/h (2 Bft) W 273 ° 0 min 0,000 mm 0,0 UV-I 0 W/m² 11,8 °C 12,9 °C 17,7 km/h (3 Bft)
29.06.2017 01:52 12,9 °C 12,9 °C 93 % 995,1 hPa 0,0 mm 11,7 km/h (2 Bft) S-SW 205 ° 0 min 0,000 mm 0,0 UV-I 0 W/m² 11,8 °C 12,9 °C 20,9 km/h (4 Bft)
29.06.2017 01:53 12,9 °C 12,9 °C 93 % 995,1 hPa 0,2 mm 6,6 km/h (2 Bft) W-NW 299 ° 0 min 0,000 mm 0,0 UV-I 0 W/m² 11,8 °C 12,9 °C 16,1 km/h (3 Bft)
29.06.2017 01:54 13,0 °C 13,0 °C 93 % 995,1 hPa 0,0 mm 11,9 km/h (2 Bft) NW 312 ° 0 min 0,000 mm 0,0 UV-I 0 W/m² 11,9 °C 13,0 °C 16,1 km/h (3 Bft)
29.06.2017 01:55 13,0 °C 13,0 °C 93 % 995,1 hPa 0,0 mm 13,6 km/h (3 Bft) W 263 ° 0 min 0,000 mm 0,0 UV-I 0 W/m² 11,9 °C 13,0 °C 17,7 km/h (3 Bft)
29.06.2017 01:56 12,9 °C 13,0 °C 93 % 995,1 hPa 0,2 mm 11,4 km/h (2 Bft) W 269 ° 0 min 0,000 mm 0,0 UV-I 0 W/m² 11,8 °C 12,9 °C 19,3 km/h (3 Bft)
29.06.2017 01:57 13,0 °C 13,0 °C 93 % 995,2 hPa 0,0 mm 13,7 km/h (3 Bft) W-SW 244 ° 0 min 0,000 mm 0,0 UV-I 0 W/m² 11,9 °C 13,0 °C 16,1 km/h (3 Bft)
29.06.2017 01:58 13,0 °C 13,0 °C 93 % 995,2 hPa 0,0 mm 7,6 km/h (2 Bft) W-SW 255 ° 0 min 0,000 mm 0,0 UV-I 0 W/m² 11,9 °C 13,0 °C 12,9 km/h (3 Bft)
29.06.2017 01:59 12,9 °C 13,0 °C 93 % 995,2 hPa 0,0 mm 15,7 km/h (3 Bft) W 279 ° 0 min 0,000 mm 0,0 UV-I 0 W/m² 11,8 °C 12,9 °C 22,5 km/h (4 Bft)
29.06.2017 02:00 13,0 °C 13,0 °C 93 % 995,2 hPa 0,0 mm 12,5 km/h (3 Bft) W 267 ° 0 min 0,000 mm 0,0 UV-I 0 W/m² 11,9 °C 13,0 °C 19,3 km/h (3 Bft)
29.06.2017 02:01 13,0 °C 13,0 °C 93 % 995,1 hPa 0,0 mm 10,7 km/h (2 Bft) W-NW 299 ° 0 min 0,000 mm 0,0 UV-I 0 W/m² 11,9 °C 13,0 °C 17,7 km/h (3 Bft)
29.06.2017 02:02 12,9 °C 13,0 °C 93 % 995,1 hPa 0,2 mm 10,9 km/h (2 Bft) W 278 ° 0 min 0,000 mm 0,0 UV-I 0 W/m² 11,8 °C 12,9 °C 14,5 km/h (3 Bft)
29.06.2017 02:03 13,0 °C 13,0 °C 93 % 995,1 hPa 0,0 mm 12,7 km/h (3 Bft) W-NW 283 ° 0 min 0,000 mm 0,0 UV-I 0 W/m² 11,9 °C 13,0 °C 19,3 km/h (3 Bft)
29.06.2017 02:04 13,0 °C 13,0 °C 93 % 995,1 hPa 0,0 mm 8,9 km/h (2 Bft) W 260 ° 0 min 0,000 mm 0,0 UV-I 0 W/m² 11,9 °C 13,0 °C 12,9 km/h (3 Bft)
29.06.2017 02:05 12,9 °C 13,0 °C 93 % 995,1 hPa 0,0 mm 11,3 km/h (2 Bft) W-NW 295 ° 0 min 0,000 mm 0,0 UV-I 0 W/m² 11,8 °C 12,9 °C 16,1 km/h (3 Bft)
29.06.2017 02:06 13,0 °C 13,0 °C 94 % 995,0 hPa 0,0 mm 10,9 km/h (2 Bft) W-NW 298 ° 0 min 0,000 mm 0,0 UV-I 0 W/m² 12,1 °C 13,0 °C 17,7 km/h (3 Bft)
29.06.2017 02:07 12,9 °C 13,0 °C 93 % 995,1 hPa 0,0 mm 10,3 km/h (2 Bft) W-NW 287 ° 0 min 0,000 mm 0,0 UV-I 0 W/m² 11,8 °C 12,9 °C 17,7 km/h (3 Bft)
29.06.2017 02:08 13,0 °C 13,0 °C 93 % 995,1 hPa 0,2 mm 10,0 km/h (2 Bft) W-NW 300 ° 0 min 0,000 mm 0,0 UV-I 0 W/m² 11,9 °C 13,0 °C 16,1 km/h (3 Bft)
29.06.2017 02:09 13,0 °C 13,0 °C 93 % 995,2 hPa 0,0 mm 16,6 km/h (3 Bft) SW 231 ° 0 min 0,000 mm 0,0 UV-I 0 W/m² 11,9 °C 13,0 °C 24,1 km/h (4 Bft)
29.06.2017 02:10 13,0 °C 13,0 °C 93 % 995,2 hPa 0,0 mm 9,8 km/h (2 Bft) W-NW 287 ° 0 min 0,000 mm 0,0 UV-I 0 W/m² 11,9 °C 13,0 °C 14,5 km/h (3 Bft)
29.06.2017 02:11 12,9 °C 13,0 °C 94 % 995,2 hPa 0,2 mm 13,2 km/h (3 Bft) W-SW 245 ° 0 min 0,000 mm 0,0 UV-I 0 W/m² 12,0 °C 12,9 °C 22,5 km/h (4 Bft)
29.06.2017 02:12 12,9 °C 13,0 °C 94 % 995,2 hPa 0,2 mm 9,1 km/h (2 Bft) W 263 ° 0 min 0,000 mm 0,0 UV-I 0 W/m² 12,0 °C 12,9 °C 12,9 km/h (3 Bft)
29.06.2017 02:13 12,9 °C 13,0 °C 93 % 995,2 hPa 0,0 mm 11,7 km/h (2 Bft) W-SW 248 ° 0 min 0,000 mm 0,0 UV-I 0 W/m² 11,8 °C 12,9 °C 14,5 km/h (3 Bft)
29.06.2017 02:14 12,9 °C 13,0 °C 94 % 995,2 hPa 0,0 mm 14,3 km/h (3 Bft) W 276 ° 0 min 0,000 mm 0,0 UV-I 0 W/m² 12,0 °C 12,9 °C 17,7 km/h (3 Bft)
29.06.2017 02:15 13,0 °C 13,0 °C 94 % 995,2 hPa 0,2 mm 10,1 km/h (2 Bft) W-SW 254 ° 0 min 0,000 mm 0,0 UV-I 0 W/m² 12,1 °C 13,0 °C 14,5 km/h (3 Bft)
29.06.2017 02:16 12,9 °C 13,0 °C 94 % 995,2 hPa 0,0 mm 14,5 km/h (3 Bft) NW 319 ° 0 min 0,000 mm 0,0 UV-I 0 W/m² 12,0 °C 12,9 °C 22,5 km/h (4 Bft)
29.06.2017 02:17 12,9 °C 13,0 °C 94 % 995,2 hPa 0,2 mm 9,1 km/h (2 Bft) W 270 ° 0 min 0,000 mm 0,0 UV-I 0 W/m² 12,0 °C 12,9 °C 17,7 km/h (3 Bft)
29.06.2017 02:18 13,0 °C 13,0 °C 94 % 995,2 hPa 0,0 mm 11,5 km/h (2 Bft) N-NW 336 ° 0 min 0,000 mm 0,0 UV-I 0 W/m² 12,1 °C 13,0 °C 19,3 km/h (3 Bft)
29.06.2017 02:19 13,0 °C 13,0 °C 94 % 995,2 hPa 0,0 mm 13,0 km/h (3 Bft) W 275 ° 0 min 0,000 mm 0,0 UV-I 0 W/m² 12,1 °C 13,0 °C 19,3 km/h (3 Bft)
29.06.2017 02:20 12,9 °C 13,0 °C 94 % 995,2 hPa 0,2 mm 11,8 km/h (2 Bft) W-NW 292 ° 0 min 0,000 mm 0,0 UV-I 0 W/m² 12,0 °C 12,9 °C 17,7 km/h (3 Bft)
29.06.2017 02:21 13,0 °C 13,0 °C 94 % 995,2 hPa 0,0 mm 10,8 km/h (2 Bft) W-NW 290 ° 0 min 0,000 mm 0,0 UV-I 0 W/m² 12,1 °C 13,0 °C 14,5 km/h (3 Bft)
29.06.2017 02:22 13,0 °C 13,0 °C 94 % 995,2 hPa 0,0 mm 12,9 km/h (3 Bft) W-NW 290 ° 0 min 0,000 mm 0,0 UV-I 0 W/m² 12,1 °C 13,0 °C 16,1 km/h (3 Bft)
29.06.2017 02:23 12,9 °C 13,0 °C 94 % 995,2 hPa 0,2 mm 9,5 km/h (2 Bft) W-NW 296 ° 0 min 0,000 mm 0,0 UV-I 0 W/m² 12,0 °C 12,9 °C 16,1 km/h (3 Bft)
29.06.2017 02:24 13,0 °C 13,0 °C 94 % 995,2 hPa 0,0 mm 10,7 km/h (2 Bft) W 275 ° 0 min 0,000 mm 0,0 UV-I 0 W/m² 12,1 °C 13,0 °C 14,5 km/h (3 Bft)
29.06.2017 02:25 12,9 °C 13,0 °C 94 % 995,1 hPa 0,0 mm 14,0 km/h (3 Bft) W-NW 298 ° 0 min 0,000 mm 0,0 UV-I 0 W/m² 12,0 °C 12,9 °C 19,3 km/h (3 Bft)
29.06.2017 02:26 12,9 °C 13,0 °C 94 % 995,1 hPa 0,2 mm 11,1 km/h (2 Bft) NW 311 ° 0 min 0,000 mm 0,0 UV-I 0 W/m² 12,0 °C 12,9 °C 14,5 km/h (3 Bft)
29.06.2017 02:27 13,0 °C 13,0 °C 94 % 995,1 hPa 0,0 mm 10,8 km/h (2 Bft) W-NW 292 ° 0 min 0,000 mm 0,0 UV-I 0 W/m² 12,1 °C 13,0 °C 19,3 km/h (3 Bft)
29.06.2017 02:28 12,9 °C 13,0 °C 94 % 995,2 hPa 0,0 mm 18,8 km/h (3 Bft) W 276 ° 0 min 0,000 mm 0,0 UV-I 0 W/m² 12,0 °C 12,9 °C 27,4 km/h (4 Bft)
29.06.2017 02:29 13,0 °C 13,0 °C 94 % 995,1 hPa 0,2 mm 13,9 km/h (3 Bft) W-NW 299 ° 0 min 0,000 mm 0,0 UV-I 0 W/m² 12,1 °C 13,0 °C 22,5 km/h (4 Bft)
29.06.2017 02:30 13,0 °C 13,0 °C 94 % 995,1 hPa 0,0 mm 9,9 km/h (2 Bft) W 259 ° 0 min 0,000 mm 0,0 UV-I 0 W/m² 12,1 °C 13,0 °C 17,7 km/h (3 Bft)
29.06.2017 02:31 12,9 °C 13,0 °C 94 % 995,1 hPa 0,0 mm 11,0 km/h (2 Bft) W 262 ° 0 min 0,000 mm 0,0 UV-I 0 W/m² 12,0 °C 12,9 °C 19,3 km/h (3 Bft)
29.06.2017 02:32 13,0 °C 13,0 °C 94 % 995,1 hPa 0,0 mm 16,3 km/h (3 Bft) W-NW 282 ° 0 min 0,000 mm 0,0 UV-I 0 W/m² 12,1 °C 13,0 °C 25,7 km/h (4 Bft)
29.06.2017 02:33 13,0 °C 13,0 °C 94 % 995,1 hPa 0,0 mm 8,2 km/h (2 Bft) W-NW 287 ° 0 min 0,000 mm 0,0 UV-I 0 W/m² 12,1 °C 13,0 °C 12,9 km/h (3 Bft)
29.06.2017 02:34 12,9 °C 13,0 °C 94 % 995,1 hPa 0,2 mm 10,7 km/h (2 Bft) NW 320 ° 0 min 0,000 mm 0,0 UV-I 0 W/m² 12,0 °C 12,9 °C 20,9 km/h (4 Bft)
29.06.2017 02:35 12,9 °C 13,0 °C 94 % 995,1 hPa 0,0 mm 11,6 km/h (2 Bft) W-NW 286 ° 0 min 0,000 mm 0,0 UV-I 0 W/m² 12,0 °C 12,9 °C 20,9 km/h (4 Bft)
29.06.2017 02:36 13,0 °C 13,0 °C 94 % 995,0 hPa 0,0 mm 16,8 km/h (3 Bft) W-SW 256 ° 0 min 0,000 mm 0,0 UV-I 0 W/m² 12,1 °C 13,0 °C 25,7 km/h (4 Bft)
29.06.2017 02:37 12,9 °C 13,0 °C 94 % 995,0 hPa 0,0 mm 14,1 km/h (3 Bft) W 261 ° 0 min 0,000 mm 0,0 UV-I 0 W/m² 12,0 °C 12,9 °C 22,5 km/h (4 Bft)
29.06.2017 02:38 12,9 °C 13,0 °C 94 % 995,0 hPa 0,2 mm 12,2 km/h (2 Bft) NW 317 ° 0 min 0,000 mm 0,0 UV-I 0 W/m² 12,0 °C 12,9 °C 20,9 km/h (4 Bft)
29.06.2017 02:39 12,9 °C 12,9 °C 94 % 995,1 hPa 0,0 mm 9,8 km/h (2 Bft) W 272 ° 0 min 0,000 mm 0,0 UV-I 0 W/m² 12,0 °C 12,9 °C 19,3 km/h (3 Bft)
29.06.2017 02:40 12,9 °C 13,0 °C 94 % 995,0 hPa 0,0 mm 11,3 km/h (2 Bft) W 275 ° 0 min 0,000 mm 0,0 UV-I 0 W/m² 12,0 °C 12,9 °C 16,1 km/h (3 Bft)
29.06.2017 02:41 12,9 °C 12,9 °C 94 % 995,0 hPa 0,0 mm 12,7 km/h (3 Bft) W 265 ° 0 min 0,000 mm 0,0 UV-I 0 W/m² 12,0 °C 12,9 °C 16,1 km/h (3 Bft)
29.06.2017 02:42 12,9 °C 13,0 °C 94 % 995,0 hPa 0,0 mm 10,6 km/h (2 Bft) W-NW 285 ° 0 min 0,000 mm 0,0 UV-I 0 W/m² 12,0 °C 12,9 °C 16,1 km/h (3 Bft)
29.06.2017 02:43 12,9 °C 13,0 °C 94 % 995,1 hPa 0,2 mm 5,6 km/h (1 Bft) NW 306 ° 0 min 0,000 mm 0,0 UV-I 0 W/m² 12,0 °C 12,9 °C 9,7 km/h (2 Bft)
29.06.2017 02:44 12,9 °C 12,9 °C 94 % 995,2 hPa 0,0 mm 10,2 km/h (2 Bft) W 261 ° 0 min 0,000 mm 0,0 UV-I 0 W/m² 12,0 °C 12,9 °C 17,7 km/h (3 Bft)
29.06.2017 02:45 12,9 °C 12,9 °C 94 % 995,2 hPa 0,0 mm 15,8 km/h (3 Bft) W-SW 257 ° 0 min 0,000 mm 0,0 UV-I 0 W/m² 12,0 °C 12,9 °C 24,1 km/h (4 Bft)
29.06.2017 02:46 12,9 °C 12,9 °C 94 % 995,1 hPa 0,0 mm 12,9 km/h (3 Bft) W 279 ° 0 min 0,000 mm 0,0 UV-I 0 W/m² 12,0 °C 12,9 °C 19,3 km/h (3 Bft)
29.06.2017 02:47 12,9 °C 12,9 °C 94 % 995,2 hPa 0,0 mm 4,7 km/h (1 Bft) W 261 ° 0 min 0,000 mm 0,0 UV-I 0 W/m² 12,0 °C 12,9 °C 9,7 km/h (2 Bft)
29.06.2017 02:48 12,9 °C 12,9 °C 93 % 995,1 hPa 0,0 mm 5,4 km/h (1 Bft) W-SW 253 ° 0 min 0,000 mm 0,0 UV-I 0 W/m² 11,8 °C 12,9 °C 9,7 km/h (2 Bft)
29.06.2017 02:49 12,9 °C 12,9 °C 93 % 995,1 hPa 0,0 mm 3,3 km/h (1 Bft) S-SO 147 ° 0 min 0,000 mm 0,0 UV-I 0 W/m² 11,8 °C 12,9 °C 9,7 km/h (2 Bft)
29.06.2017 02:50 12,9 °C 12,9 °C 93 % 995,2 hPa 0,2 mm 10,1 km/h (2 Bft) W-NW 290 ° 0 min 0,000 mm 0,0 UV-I 0 W/m² 11,8 °C 12,9 °C 16,1 km/h (3 Bft)
29.06.2017 02:51 12,9 °C 12,9 °C 93 % 995,2 hPa 0,0 mm 11,5 km/h (2 Bft) W 272 ° 0 min 0,000 mm 0,0 UV-I 0 W/m² 11,8 °C 12,9 °C 19,3 km/h (3 Bft)
29.06.2017 02:52 12,9 °C 12,9 °C 93 % 995,2 hPa 0,0 mm 12,1 km/h (2 Bft) W 264 ° 0 min 0,000 mm 0,0 UV-I 0 W/m² 11,8 °C 12,9 °C 19,3 km/h (3 Bft)
29.06.2017 02:53 12,9 °C 12,9 °C 93 % 995,1 hPa 0,0 mm 10,3 km/h (2 Bft) W-NW 286 ° 0 min 0,000 mm 0,0 UV-I 0 W/m² 11,8 °C 12,9 °C 14,5 km/h (3 Bft)
29.06.2017 02:54 12,8 °C 12,9 °C 93 % 995,1 hPa 0,0 mm 4,0 km/h (1 Bft) W-SW 239 ° 0 min 0,000 mm 0,0 UV-I 0 W/m² 11,7 °C 12,8 °C 11,3 km/h (2 Bft)
29.06.2017 02:55 12,8 °C 12,9 °C 93 % 995,1 hPa 0,0 mm 10,6 km/h (2 Bft) W-NW 282 ° 0 min 0,000 mm 0,0 UV-I 0 W/m² 11,7 °C 12,8 °C 17,7 km/h (3 Bft)
29.06.2017 02:56 12,8 °C 12,8 °C 93 % 995,1 hPa 0,0 mm 7,8 km/h (2 Bft) SW 222 ° 0 min 0,000 mm 0,0 UV-I 0 W/m² 11,7 °C 12,8 °C 12,9 km/h (3 Bft)
29.06.2017 02:57 12,8 °C 12,8 °C 93 % 995,1 hPa 0,0 mm 6,2 km/h (2 Bft) W 273 ° 0 min 0,000 mm 0,0 UV-I 0 W/m² 11,7 °C 12,8 °C 11,3 km/h (2 Bft)
29.06.2017 02:58 12,8 °C 12,8 °C 93 % 995,1 hPa 0,0 mm 8,7 km/h (2 Bft) W-NW 296 ° 0 min 0,000 mm 0,0 UV-I 0 W/m² 11,7 °C 12,8 °C 14,5 km/h (3 Bft)
29.06.2017 02:59 12,8 °C 12,8 °C 93 % 995,1 hPa 0,0 mm 11,2 km/h (2 Bft) W-SW 246 ° 0 min 0,000 mm 0,0 UV-I 0 W/m² 11,7 °C 12,8 °C 22,5 km/h (4 Bft)
29.06.2017 03:00 12,8 °C 12,8 °C 93 % 995,0 hPa 0,0 mm 12,6 km/h (3 Bft) W 266 ° 0 min 0,000 mm 0,0 UV-I 0 W/m² 11,7 °C 12,8 °C 19,3 km/h (3 Bft)
29.06.2017 03:01 12,8 °C 12,8 °C 93 % 995,0 hPa 0,2 mm 16,5 km/h (3 Bft) S-SW 207 ° 0 min 0,000 mm 0,0 UV-I 0 W/m² 11,7 °C 12,8 °C 29,0 km/h (5 Bft)
29.06.2017 03:02 12,7 °C 12,8 °C 93 % 995,1 hPa 0,0 mm 13,8 km/h (3 Bft) W 263 ° 0 min 0,000 mm 0,0 UV-I 0 W/m² 11,6 °C 12,7 °C 32,2 km/h (5 Bft)
29.06.2017 03:03 12,7 °C 12,8 °C 93 % 995,1 hPa 0,0 mm 15,6 km/h (3 Bft) W 265 ° 0 min 0,000 mm 0,0 UV-I 0 W/m² 11,6 °C 12,7 °C 22,5 km/h (4 Bft)
29.06.2017 03:04 12,7 °C 12,7 °C 93 % 995,1 hPa 0,0 mm 8,9 km/h (2 Bft) W 268 ° 0 min 0,000 mm 0,0 UV-I 0 W/m² 11,6 °C 12,7 °C 14,5 km/h (3 Bft)
29.06.2017 03:05 12,7 °C 12,7 °C 93 % 995,1 hPa 0,0 mm 15,8 km/h (3 Bft) W 265 ° 0 min 0,000 mm 0,0 UV-I 0 W/m² 11,6 °C 12,7 °C 22,5 km/h (4 Bft)
29.06.2017 03:06 12,7 °C 12,7 °C 93 % 995,0 hPa 0,0 mm 11,5 km/h (2 Bft) W 271 ° 0 min 0,000 mm 0,0 UV-I 0 W/m² 11,6 °C 12,7 °C 20,9 km/h (4 Bft)
29.06.2017 03:07 12,7 °C 12,7 °C 93 % 995,0 hPa 0,0 mm 11,8 km/h (2 Bft) NW 321 ° 0 min 0,000 mm 0,0 UV-I 0 W/m² 11,6 °C 12,7 °C 17,7 km/h (3 Bft)
29.06.2017 03:08 12,6 °C 12,7 °C 93 % 995,1 hPa 0,0 mm 15,7 km/h (3 Bft) W 281 ° 0 min 0,000 mm 0,0 UV-I 0 W/m² 11,5 °C 12,6 °C 22,5 km/h (4 Bft)
29.06.2017 03:09 12,6 °C 12,6 °C 93 % 995,0 hPa 0,0 mm 20,1 km/h (4 Bft) W-NW 295 ° 0 min 0,000 mm 0,0 UV-I 0 W/m² 11,5 °C 12,6 °C 29,0 km/h (5 Bft)
29.06.2017 03:10 12,6 °C 12,6 °C 93 % 995,1 hPa 0,2 mm 13,3 km/h (3 Bft) W 260 ° 0 min 0,000 mm 0,0 UV-I 0 W/m² 11,5 °C 12,6 °C 20,9 km/h (4 Bft)
29.06.2017 03:11 12,6 °C 12,6 °C 93 % 995,1 hPa 0,0 mm 16,9 km/h (3 Bft) W 273 ° 0 min 0,000 mm 0,0 UV-I 0 W/m² 11,5 °C 12,6 °C 24,1 km/h (4 Bft)
29.06.2017 03:12 12,6 °C 12,6 °C 93 % 995,0 hPa 0,0 mm 16,2 km/h (3 Bft) W 273 ° 0 min 0,000 mm 0,0 UV-I 0 W/m² 11,5 °C 12,6 °C 22,5 km/h (4 Bft)
29.06.2017 03:13 12,6 °C 12,6 °C 93 % 995,0 hPa 0,0 mm 13,6 km/h (3 Bft) W-SW 255 ° 0 min 0,000 mm 0,0 UV-I 0 W/m² 11,5 °C 12,6 °C 19,3 km/h (3 Bft)
29.06.2017 03:14 12,6 °C 12,6 °C 93 % 995,1 hPa 0,0 mm 7,1 km/h (2 Bft) W 276 ° 0 min 0,000 mm 0,0 UV-I 0 W/m² 11,5 °C 12,6 °C 17,7 km/h (3 Bft)
29.06.2017 03:15 12,5 °C 12,6 °C 93 % 995,1 hPa 0,0 mm 9,9 km/h (2 Bft) W-SW 246 ° 0 min 0,000 mm 0,0 UV-I 0 W/m² 11,4 °C 12,5 °C 17,7 km/h (3 Bft)
29.06.2017 03:16 12,5 °C 12,6 °C 93 % 995,2 hPa 0,0 mm 11,3 km/h (2 Bft) W-SW 243 ° 0 min 0,000 mm 0,0 UV-I 0 W/m² 11,4 °C 12,5 °C 17,7 km/h (3 Bft)
29.06.2017 03:17 12,5 °C 12,5 °C 93 % 995,2 hPa 0,0 mm 10,1 km/h (2 Bft) W-NW 287 ° 0 min 0,000 mm 0,0 UV-I 0 W/m² 11,4 °C 12,5 °C 14,5 km/h (3 Bft)
29.06.2017 03:18 12,5 °C 12,6 °C 93 % 995,2 hPa 0,0 mm 13,4 km/h (3 Bft) W 269 ° 0 min 0,000 mm 0,0 UV-I 0 W/m² 11,4 °C 12,5 °C 19,3 km/h (3 Bft)
29.06.2017 03:19 12,5 °C 12,5 °C 93 % 995,1 hPa 0,0 mm 13,7 km/h (3 Bft) W-NW 284 ° 0 min 0,000 mm 0,0 UV-I 0 W/m² 11,4 °C 12,5 °C 20,9 km/h (4 Bft)
29.06.2017 03:20 12,5 °C 12,5 °C 93 % 995,1 hPa 0,0 mm 7,4 km/h (2 Bft) W 273 ° 0 min 0,000 mm 0,0 UV-I 0 W/m² 11,4 °C 12,5 °C 12,9 km/h (3 Bft)
29.06.2017 03:21 12,5 °C 12,5 °C 93 % 995,1 hPa 0,0 mm 14,5 km/h (3 Bft) W 279 ° 0 min 0,000 mm 0,0 UV-I 0 W/m² 11,4 °C 12,5 °C 19,3 km/h (3 Bft)
29.06.2017 03:22 12,5 °C 12,5 °C 93 % 995,1 hPa 0,0 mm 9,3 km/h (2 Bft) SW 235 ° 0 min 0,000 mm 0,0 UV-I 0 W/m² 11,4 °C 12,5 °C 12,9 km/h (3 Bft)
29.06.2017 03:23 12,4 °C 12,5 °C 93 % 995,1 hPa 0,0 mm 8,2 km/h (2 Bft) W-NW 299 ° 0 min 0,000 mm 0,0 UV-I 0 W/m² 11,3 °C 12,4 °C 12,9 km/h (3 Bft)
29.06.2017 03:24 12,4 °C 12,5 °C 93 % 995,1 hPa 0,2 mm 9,3 km/h (2 Bft) W 259 ° 0 min 0,000 mm 0,0 UV-I 0 W/m² 11,3 °C 12,4 °C 19,3 km/h (3 Bft)
29.06.2017 03:25 12,4 °C 12,5 °C 93 % 995,1 hPa 0,0 mm 8,4 km/h (2 Bft) W 274 ° 0 min 0,000 mm 0,0 UV-I 0 W/m² 11,3 °C 12,4 °C 14,5 km/h (3 Bft)
29.06.2017 03:26 12,4 °C 12,5 °C 93 % 995,1 hPa 0,0 mm 6,6 km/h (2 Bft) W 275 ° 0 min 0,000 mm 0,0 UV-I 0 W/m² 11,3 °C 12,4 °C 11,3 km/h (2 Bft)
29.06.2017 03:27 12,4 °C 12,4 °C 93 % 995,1 hPa 0,0 mm 7,0 km/h (2 Bft) W-SW 252 ° 0 min 0,000 mm 0,0 UV-I 0 W/m² 11,3 °C 12,4 °C 11,3 km/h (2 Bft)
29.06.2017 03:28 12,4 °C 12,4 °C 93 % 995,1 hPa 0,0 mm 3,0 km/h (1 Bft) W 266 ° 0 min 0,000 mm 0,0 UV-I 0 W/m² 11,3 °C 12,4 °C 8,0 km/h (2 Bft)
29.06.2017 03:29 12,4 °C 12,4 °C 93 % 995,1 hPa 0,0 mm 5,2 km/h (1 Bft) W-SW 244 ° 0 min 0,000 mm 0,0 UV-I 0 W/m² 11,3 °C 12,4 °C 11,3 km/h (2 Bft)
29.06.2017 03:30 12,4 °C 12,4 °C 93 % 995,1 hPa 0,0 mm 2,6 km/h (1 Bft) W 273 ° 0 min 0,000 mm 0,0 UV-I 0 W/m² 11,3 °C 12,4 °C 4,8 km/h (1 Bft)
29.06.2017 03:31 12,4 °C 12,4 °C 93 % 995,2 hPa 0,0 mm 7,9 km/h (2 Bft) W 259 ° 0 min 0,000 mm 0,0 UV-I 0 W/m² 11,3 °C 12,4 °C 11,3 km/h (2 Bft)
29.06.2017 03:32 12,4 °C 12,4 °C 93 % 995,1 hPa 0,0 mm 6,7 km/h (2 Bft) W 268 ° 0 min 0,000 mm 0,0 UV-I 0 W/m² 11,3 °C 12,4 °C 11,3 km/h (2 Bft)
29.06.2017 03:33 12,3 °C 12,4 °C 93 % 995,1 hPa 0,0 mm 2,5 km/h (1 Bft) W-SW 254 ° 0 min 0,000 mm 0,0 UV-I 0 W/m² 11,2 °C 12,3 °C 4,8 km/h (1 Bft)
29.06.2017 03:34 12,4 °C 12,4 °C 94 % 995,1 hPa 0,0 mm 7,6 km/h (2 Bft) W 261 ° 0 min 0,000 mm 0,0 UV-I 0 W/m² 11,5 °C 12,4 °C 12,9 km/h (3 Bft)
29.06.2017 03:35 12,4 °C 12,4 °C 94 % 995,1 hPa 0,0 mm 10,4 km/h (2 Bft) W-NW 286 ° 0 min 0,000 mm 0,0 UV-I 0 W/m² 11,5 °C 12,4 °C 14,5 km/h (3 Bft)
29.06.2017 03:36 12,4 °C 12,4 °C 94 % 995,1 hPa 0,0 mm 6,6 km/h (2 Bft) W 276 ° 0 min 0,000 mm 0,0 UV-I 0 W/m² 11,5 °C 12,4 °C 11,3 km/h (2 Bft)
29.06.2017 03:37 12,4 °C 12,4 °C 94 % 995,0 hPa 0,0 mm 9,1 km/h (2 Bft) W 275 ° 0 min 0,000 mm 0,0 UV-I 0 W/m² 11,5 °C 12,4 °C 16,1 km/h (3 Bft)
29.06.2017 03:38 12,4 °C 12,4 °C 94 % 995,1 hPa 0,2 mm 4,4 km/h (1 Bft) W-NW 283 ° 0 min 0,000 mm 0,0 UV-I 0 W/m² 11,5 °C 12,4 °C 6,4 km/h (2 Bft)
29.06.2017 03:39 12,4 °C 12,4 °C 94 % 995,1 hPa 0,0 mm 4,2 km/h (1 Bft) W 262 ° 0 min 0,000 mm 0,0 UV-I 0 W/m² 11,5 °C 12,4 °C 6,4 km/h (2 Bft)
29.06.2017 03:40 12,4 °C 12,4 °C 94 % 995,0 hPa 0,0 mm 7,2 km/h (2 Bft) W 264 ° 0 min 0,000 mm 0,0 UV-I 0 W/m² 11,5 °C 12,4 °C 14,5 km/h (3 Bft)
29.06.2017 03:41 12,3 °C 12,4 °C 94 % 995,0 hPa 0,0 mm 12,2 km/h (2 Bft) W 263 ° 0 min 0,000 mm 0,0 UV-I 0 W/m² 11,4 °C 12,3 °C 14,5 km/h (3 Bft)
29.06.2017 03:42 12,4 °C 12,4 °C 94 % 995,1 hPa 0,0 mm 7,1 km/h (2 Bft) W 268 ° 0 min 0,000 mm 0,0 UV-I 0 W/m² 11,5 °C 12,4 °C 11,3 km/h (2 Bft)
29.06.2017 03:43 12,4 °C 12,4 °C 94 % 995,0 hPa 0,0 mm 6,6 km/h (2 Bft) SW 233 ° 0 min 0,000 mm 0,0 UV-I 0 W/m² 11,5 °C 12,4 °C 11,3 km/h (2 Bft)
29.06.2017 03:44 12,4 °C 12,4 °C 94 % 995,0 hPa 0,0 mm 3,4 km/h (1 Bft) W-SW 250 ° 0 min 0,000 mm 0,0 UV-I 0 W/m² 11,5 °C 12,4 °C 6,4 km/h (2 Bft)
29.06.2017 03:45 12,4 °C 12,4 °C 94 % 995,1 hPa 0,0 mm 6,5 km/h (2 Bft) W-SW 258 ° 0 min 0,000 mm 0,0 UV-I 0 W/m² 11,5 °C 12,4 °C 9,7 km/h (2 Bft)
29.06.2017 03:46 12,4 °C 12,4 °C 94 % 995,1 hPa 0,0 mm 8,7 km/h (2 Bft) W-NW 303 ° 0 min 0,000 mm 0,0 UV-I 0 W/m² 11,5 °C 12,4 °C 12,9 km/h (3 Bft)
29.06.2017 03:47 12,4 °C 12,4 °C 94 % 995,1 hPa 0,0 mm 7,6 km/h (2 Bft) W-SW 241 ° 0 min 0,000 mm 0,0 UV-I 0 W/m² 11,5 °C 12,4 °C 14,5 km/h (3 Bft)
29.06.2017 03:48 12,4 °C 12,4 °C 94 % 995,1 hPa 0,0 mm 8,0 km/h (2 Bft) W-SW 241 ° 0 min 0,000 mm 0,0 UV-I 0 W/m² 11,5 °C 12,4 °C 14,5 km/h (3 Bft)
29.06.2017 03:49 12,4 °C 12,4 °C 94 % 995,1 hPa 0,0 mm 8,9 km/h (2 Bft) W-SW 258 ° 0 min 0,000 mm 0,0 UV-I 0 W/m² 11,5 °C 12,4 °C 14,5 km/h (3 Bft)
29.06.2017 03:50 12,4 °C 12,4 °C 94 % 995,1 hPa 0,0 mm 4,4 km/h (1 Bft) W-NW 289 ° 0 min 0,000 mm 0,0 UV-I 0 W/m² 11,5 °C 12,4 °C 11,3 km/h (2 Bft)
29.06.2017 03:51 12,4 °C 12,4 °C 94 % 995,1 hPa 0,0 mm 10,1 km/h (2 Bft) W-SW 246 ° 0 min 0,000 mm 0,0 UV-I 0 W/m² 11,5 °C 12,4 °C 16,1 km/h (3 Bft)
29.06.2017 03:52 12,4 °C 12,4 °C 94 % 995,1 hPa 0,0 mm 6,1 km/h (2 Bft) W-NW 302 ° 0 min 0,000 mm 0,0 UV-I 0 W/m² 11,5 °C 12,4 °C 12,9 km/h (3 Bft)
29.06.2017 03:53 12,4 °C 12,4 °C 94 % 995,1 hPa 0,0 mm 3,3 km/h (1 Bft) NW 315 ° 0 min 0,000 mm 0,0 UV-I 0 W/m² 11,5 °C 12,4 °C 4,8 km/h (1 Bft)
29.06.2017 03:54 12,4 °C 12,4 °C 94 % 995,1 hPa 0,0 mm 9,7 km/h (2 Bft) SW 220 ° 0 min 0,000 mm 0,0 UV-I 0 W/m² 11,5 °C 12,4 °C 16,1 km/h (3 Bft)
29.06.2017 03:55 12,4 °C 12,4 °C 94 % 995,1 hPa 0,0 mm 5,9 km/h (2 Bft) W 264 ° 0 min 0,000 mm 0,0 UV-I 0 W/m² 11,5 °C 12,4 °C 14,5 km/h (3 Bft)
29.06.2017 03:56 12,4 °C 12,4 °C 94 % 995,1 hPa 0,0 mm 9,2 km/h (2 Bft) W-SW 246 ° 0 min 0,000 mm 0,0 UV-I 0 W/m² 11,5 °C 12,4 °C 12,9 km/h (3 Bft)
29.06.2017 03:57 12,4 °C 12,4 °C 94 % 995,1 hPa 0,0 mm 9,3 km/h (2 Bft) SW 235 ° 0 min 0,000 mm 0,0 UV-I 0 W/m² 11,5 °C 12,4 °C 12,9 km/h (3 Bft)
29.06.2017 03:58 12,4 °C 12,4 °C 94 % 995,1 hPa 0,0 mm 7,8 km/h (2 Bft) W-SW 248 ° 0 min 0,000 mm 0,0 UV-I 0 W/m² 11,5 °C 12,4 °C 19,3 km/h (3 Bft)
29.06.2017 03:59 12,4 °C 12,4 °C 94 % 995,1 hPa 0,0 mm 12,0 km/h (2 Bft) W-SW 245 ° 0 min 0,000 mm 0,0 UV-I 0 W/m² 11,5 °C 12,4 °C 19,3 km/h (3 Bft)
29.06.2017 04:00 12,4 °C 12,5 °C 94 % 995,2 hPa 0,0 mm 7,6 km/h (2 Bft) W 272 ° 0 min 0,000 mm 0,0 UV-I 0 W/m² 11,5 °C 12,4 °C 11,3 km/h (2 Bft)
29.06.2017 04:01 12,4 °C 12,5 °C 94 % 995,2 hPa 0,0 mm 7,3 km/h (2 Bft) W 267 ° 0 min 0,000 mm 0,0 UV-I 0 W/m² 11,5 °C 12,4 °C 11,3 km/h (2 Bft)
29.06.2017 04:02 12,4 °C 12,4 °C 94 % 995,2 hPa 0,0 mm 7,1 km/h (2 Bft) W 265 ° 0 min 0,000 mm 0,0 UV-I 0 W/m² 11,5 °C 12,4 °C 11,3 km/h (2 Bft)
29.06.2017 04:03 12,4 °C 12,5 °C 94 % 995,2 hPa 0,0 mm 11,0 km/h (2 Bft) W-SW 242 ° 0 min 0,000 mm 0,0 UV-I 0 W/m² 11,5 °C 12,4 °C 14,5 km/h (3 Bft)
29.06.2017 04:04 12,4 °C 12,5 °C 94 % 995,1 hPa 0,0 mm 9,4 km/h (2 Bft) W-NW 295 ° 0 min 0,000 mm 0,0 UV-I 0 W/m² 11,5 °C 12,4 °C 12,9 km/h (3 Bft)
29.06.2017 04:05 12,5 °C 12,5 °C 94 % 995,1 hPa 0,0 mm 6,6 km/h (2 Bft) W-SW 257 ° 0 min 0,000 mm 0,0 UV-I 0 W/m² 11,6 °C 12,5 °C 11,3 km/h (2 Bft)
29.06.2017 04:06 12,5 °C 12,5 °C 94 % 995,2 hPa 0,0 mm 5,6 km/h (1 Bft) W-SW 257 ° 0 min 0,000 mm 0,0 UV-I 0 W/m² 11,6 °C 12,5 °C 8,0 km/h (2 Bft)
29.06.2017 04:07 12,5 °C 12,5 °C 94 % 995,1 hPa 0,0 mm 10,1 km/h (2 Bft) W 264 ° 0 min 0,000 mm 0,0 UV-I 0 W/m² 11,6 °C 12,5 °C 14,5 km/h (3 Bft)
29.06.2017 04:08 12,4 °C 12,5 °C 94 % 995,1 hPa 0,0 mm 7,3 km/h (2 Bft) W 264 ° 0 min 0,000 mm 0,0 UV-I 0 W/m² 11,5 °C 12,4 °C 11,3 km/h (2 Bft)
29.06.2017 04:09 12,4 °C 12,5 °C 94 % 995,1 hPa 0,0 mm 10,4 km/h (2 Bft) W 263 ° 0 min 0,000 mm 0,0 UV-I 0 W/m² 11,5 °C 12,4 °C 17,7 km/h (3 Bft)
29.06.2017 04:10 12,4 °C 12,4 °C 94 % 995,1 hPa 0,0 mm 10,5 km/h (2 Bft) W-NW 283 ° 0 min 0,000 mm 0,0 UV-I 0 W/m² 11,5 °C 12,4 °C 14,5 km/h (3 Bft)
29.06.2017 04:11 12,4 °C 12,4 °C 94 % 995,1 hPa 0,0 mm 13,6 km/h (3 Bft) W 273 ° 0 min 0,000 mm 0,0 UV-I 0 W/m² 11,5 °C 12,4 °C 17,7 km/h (3 Bft)
29.06.2017 04:12 12,4 °C 12,4 °C 94 % 995,1 hPa 0,0 mm 11,0 km/h (2 Bft) W-NW 292 ° 0 min 0,000 mm 0,0 UV-I 0 W/m² 11,5 °C 12,4 °C 17,7 km/h (3 Bft)
29.06.2017 04:13 12,4 °C 12,4 °C 94 % 995,1 hPa 0,0 mm 11,5 km/h (2 Bft) W-NW 295 ° 0 min 0,000 mm 0,0 UV-I 0 W/m² 11,5 °C 12,4 °C 19,3 km/h (3 Bft)
29.06.2017 04:14 12,4 °C 12,4 °C 94 % 995,1 hPa 0,0 mm 9,3 km/h (2 Bft) W-SW 258 ° 0 min 0,000 mm 0,0 UV-I 0 W/m² 11,5 °C 12,4 °C 14,5 km/h (3 Bft)
29.06.2017 04:15 12,4 °C 12,4 °C 94 % 995,1 hPa 0,0 mm 9,5 km/h (2 Bft) W-SW 251 ° 0 min 0,000 mm 0,0 UV-I 0 W/m² 11,5 °C 12,4 °C 14,5 km/h (3 Bft)
29.06.2017 04:16 12,4 °C 12,4 °C 94 % 995,1 hPa 0,0 mm 6,8 km/h (2 Bft) W-SW 257 ° 0 min 0,000 mm 0,0 UV-I 0 W/m² 11,5 °C 12,4 °C 12,9 km/h (3 Bft)
29.06.2017 04:17 12,4 °C 12,4 °C 94 % 995,2 hPa 0,0 mm 7,8 km/h (2 Bft) W 267 ° 0 min 0,000 mm 0,0 UV-I 0 W/m² 11,5 °C 12,4 °C 12,9 km/h (3 Bft)
29.06.2017 04:18 12,4 °C 12,4 °C 94 % 995,2 hPa 0,0 mm 8,4 km/h (2 Bft) W-SW 246 ° 0 min 0,000 mm 0,0 UV-I 0 W/m² 11,5 °C 12,4 °C 12,9 km/h (3 Bft)
29.06.2017 04:19 12,4 °C 12,4 °C 94 % 995,2 hPa 0,0 mm 7,4 km/h (2 Bft) W 262 ° 0 min 0,000 mm 0,0 UV-I 0 W/m² 11,5 °C 12,4 °C 12,9 km/h (3 Bft)
29.06.2017 04:20 12,4 °C 12,4 °C 94 % 995,2 hPa 0,0 mm 3,1 km/h (1 Bft) W 271 ° 0 min 0,000 mm 0,0 UV-I 0 W/m² 11,5 °C 12,4 °C 6,4 km/h (2 Bft)
29.06.2017 04:21 12,4 °C 12,4 °C 94 % 995,2 hPa 0,0 mm 6,1 km/h (2 Bft) W-SW 252 ° 0 min 0,000 mm 0,0 UV-I 0 W/m² 11,5 °C 12,4 °C 12,9 km/h (3 Bft)
29.06.2017 04:22 12,4 °C 12,4 °C 94 % 995,2 hPa 0,0 mm 2,2 km/h (1 Bft) W-SW 252 ° 0 min 0,000 mm 0,0 UV-I 0 W/m² 11,5 °C 12,4 °C 3,2 km/h (1 Bft)
29.06.2017 04:23 12,4 °C 12,4 °C 94 % 995,2 hPa 0,0 mm 8,3 km/h (2 Bft) W 263 ° 0 min 0,000 mm 0,0 UV-I 0 W/m² 11,5 °C 12,4 °C 16,1 km/h (3 Bft)
29.06.2017 04:24 12,4 °C 12,4 °C 94 % 995,3 hPa 0,0 mm 7,3 km/h (2 Bft) W-SW 246 ° 0 min 0,000 mm 0,0 UV-I 0 W/m² 11,5 °C 12,4 °C 12,9 km/h (3 Bft)
29.06.2017 04:25 12,4 °C 12,4 °C 94 % 995,3 hPa 0,0 mm 6,2 km/h (2 Bft) W-NW 283 ° 0 min 0,000 mm 0,0 UV-I 0 W/m² 11,5 °C 12,4 °C 12,9 km/h (3 Bft)
29.06.2017 04:26 12,4 °C 12,4 °C 94 % 995,3 hPa 0,0 mm 7,6 km/h (2 Bft) W 267 ° 0 min 0,000 mm 0,0 UV-I 0 W/m² 11,5 °C 12,4 °C 12,9 km/h (3 Bft)
29.06.2017 04:27 12,4 °C 12,4 °C 94 % 995,2 hPa 0,0 mm 11,7 km/h (2 Bft) W 277 ° 0 min 0,000 mm 0,0 UV-I 0 W/m² 11,5 °C 12,4 °C 16,1 km/h (3 Bft)
29.06.2017 04:28 12,4 °C 12,4 °C 94 % 995,2 hPa 0,0 mm 7,0 km/h (2 Bft) W 260 ° 0 min 0,000 mm 0,0 UV-I 0 W/m² 11,5 °C 12,4 °C 14,5 km/h (3 Bft)
29.06.2017 04:29 12,4 °C 12,4 °C 94 % 995,3 hPa 0,0 mm 8,0 km/h (2 Bft) W-NW 284 ° 0 min 0,000 mm 0,0 UV-I 0 W/m² 11,5 °C 12,4 °C 11,3 km/h (2 Bft)
29.06.2017 04:30 12,4 °C 12,4 °C 94 % 995,3 hPa 0,0 mm 8,4 km/h (2 Bft) W-SW 249 ° 0 min 0,000 mm 0,0 UV-I 0 W/m² 11,5 °C 12,4 °C 11,3 km/h (2 Bft)
29.06.2017 04:31 12,4 °C 12,4 °C 94 % 995,3 hPa 0,0 mm 9,1 km/h (2 Bft) W 276 ° 0 min 0,000 mm 0,0 UV-I 0 W/m² 11,5 °C 12,4 °C 12,9 km/h (3 Bft)
29.06.2017 04:32 12,3 °C 12,4 °C 94 % 995,3 hPa 0,0 mm 9,6 km/h (2 Bft) W-SW 247 ° 0 min 0,000 mm 0,0 UV-I 0 W/m² 11,4 °C 12,3 °C 16,1 km/h (3 Bft)
29.06.2017 04:33 12,4 °C 12,4 °C 94 % 995,3 hPa 0,0 mm 9,7 km/h (2 Bft) SW 233 ° 0 min 0,000 mm 0,0 UV-I 0 W/m² 11,5 °C 12,4 °C 17,7 km/h (3 Bft)
29.06.2017 04:34 12,4 °C 12,4 °C 94 % 995,3 hPa 0,0 mm 8,2 km/h (2 Bft) W-NW 289 ° 0 min 0,000 mm 0,0 UV-I 0 W/m² 11,5 °C 12,4 °C 12,9 km/h (3 Bft)
29.06.2017 04:35 12,4 °C 12,4 °C 94 % 995,3 hPa 0,0 mm 3,8 km/h (1 Bft) W-NW 284 ° 0 min 0,000 mm 0,0 UV-I 0 W/m² 11,5 °C 12,4 °C 9,7 km/h (2 Bft)
29.06.2017 04:36 12,3 °C 12,4 °C 94 % 995,3 hPa 0,0 mm 5,4 km/h (1 Bft) W 267 ° 0 min 0,000 mm 0,0 UV-I 0 W/m² 11,4 °C 12,3 °C 11,3 km/h (2 Bft)
29.06.2017 04:37 12,4 °C 12,4 °C 94 % 995,3 hPa 0,0 mm 5,1 km/h (1 Bft) W 275 ° 0 min 0,000 mm 0,0 UV-I 0 W/m² 11,5 °C 12,4 °C 9,7 km/h (2 Bft)
29.06.2017 04:38 12,4 °C 12,4 °C 94 % 995,3 hPa 0,0 mm 13,5 km/h (3 Bft) W-NW 283 ° 0 min 0,000 mm 0,0 UV-I 0 W/m² 11,5 °C 12,4 °C 17,7 km/h (3 Bft)
29.06.2017 04:39 12,3 °C 12,4 °C 94 % 995,4 hPa 0,0 mm 7,7 km/h (2 Bft) W-NW 286 ° 0 min 0,000 mm 0,0 UV-I 0 W/m² 11,4 °C 12,3 °C 12,9 km/h (3 Bft)
29.06.2017 04:40 12,3 °C 12,3 °C 94 % 995,3 hPa 0,0 mm 8,5 km/h (2 Bft) W 267 ° 0 min 0,000 mm 0,0 UV-I 0 W/m² 11,4 °C 12,3 °C 12,9 km/h (3 Bft)
29.06.2017 04:41 12,3 °C 12,3 °C 94 % 995,3 hPa 0,0 mm 4,1 km/h (1 Bft) W 260 ° 0 min 0,000 mm 0,0 UV-I 0 W/m² 11,4 °C 12,3 °C 6,4 km/h (2 Bft)
29.06.2017 04:42 12,3 °C 12,3 °C 94 % 995,4 hPa 0,0 mm 6,6 km/h (2 Bft) W 266 ° 0 min 0,000 mm 0,0 UV-I 0 W/m² 11,4 °C 12,3 °C 11,3 km/h (2 Bft)
29.06.2017 04:43 12,3 °C 12,3 °C 94 % 995,4 hPa 0,0 mm 7,3 km/h (2 Bft) W-NW 302 ° 0 min 0,000 mm 0,0 UV-I 0 W/m² 11,4 °C 12,3 °C 12,9 km/h (3 Bft)
29.06.2017 04:44 12,3 °C 12,3 °C 94 % 995,4 hPa 0,0 mm 6,1 km/h (2 Bft) NW 309 ° 0 min 0,000 mm 0,0 UV-I 0 W/m² 11,4 °C 12,3 °C 11,3 km/h (2 Bft)
29.06.2017 04:45 12,3 °C 12,3 °C 94 % 995,4 hPa 0,0 mm 9,0 km/h (2 Bft) W 271 ° 0 min 0,000 mm 0,0 UV-I 0 W/m² 11,4 °C 12,3 °C 14,5 km/h (3 Bft)
29.06.2017 04:46 12,3 °C 12,3 °C 94 % 995,3 hPa 0,0 mm 9,7 km/h (2 Bft) W-SW 258 ° 0 min 0,000 mm 0,0 UV-I 0 W/m² 11,4 °C 12,3 °C 14,5 km/h (3 Bft)
29.06.2017 04:47 12,3 °C 12,3 °C 94 % 995,4 hPa 0,0 mm 5,4 km/h (1 Bft) W 281 ° 0 min 0,000 mm 0,0 UV-I 0 W/m² 11,4 °C 12,3 °C 9,7 km/h (2 Bft)
29.06.2017 04:48 12,3 °C 12,3 °C 94 % 995,4 hPa 0,0 mm 3,6 km/h (1 Bft) W 269 ° 0 min 0,000 mm 0,0 UV-I 0 W/m² 11,4 °C 12,3 °C 11,3 km/h (2 Bft)
29.06.2017 04:49 12,3 °C 12,3 °C 94 % 995,4 hPa 0,0 mm 11,6 km/h (2 Bft) W-NW 284 ° 0 min 0,000 mm 0,0 UV-I 0 W/m² 11,4 °C 12,3 °C 19,3 km/h (3 Bft)
29.06.2017 04:50 12,3 °C 12,3 °C 94 % 995,4 hPa 0,0 mm 5,2 km/h (1 Bft) W 274 ° 0 min 0,000 mm 0,0 UV-I 0 W/m² 11,4 °C 12,3 °C 12,9 km/h (3 Bft)
29.06.2017 04:51 12,3 °C 12,3 °C 94 % 995,3 hPa 0,0 mm 3,1 km/h (1 Bft) W 271 ° 0 min 0,000 mm 0,0 UV-I 0 W/m² 11,4 °C 12,3 °C 6,4 km/h (2 Bft)
29.06.2017 04:52 12,3 °C 12,3 °C 94 % 995,4 hPa 0,0 mm 3,8 km/h (1 Bft) W 261 ° 0 min 0,000 mm 0,0 UV-I 0 W/m² 11,4 °C 12,3 °C 6,4 km/h (2 Bft)
29.06.2017 04:53 12,2 °C 12,3 °C 94 % 995,4 hPa 0,0 mm 1,6 km/h (1 Bft) S-SW 194 ° 0 min 0,000 mm 0,0 UV-I 0 W/m² 11,3 °C 12,2 °C 4,8 km/h (1 Bft)
29.06.2017 04:54 12,3 °C 12,3 °C 94 % 995,4 hPa 0,0 mm 5,0 km/h (1 Bft) SW 217 ° 0 min 0,000 mm 0,0 UV-I 0 W/m² 11,4 °C 12,3 °C 12,9 km/h (3 Bft)
29.06.2017 04:55 12,3 °C 12,3 °C 94 % 995,5 hPa 0,0 mm 2,7 km/h (1 Bft) W-SW 254 ° 0 min 0,000 mm 0,0 UV-I 0 W/m² 11,4 °C 12,3 °C 6,4 km/h (2 Bft)
29.06.2017 04:56 12,2 °C 12,3 °C 94 % 995,5 hPa 0,0 mm 6,4 km/h (2 Bft) W 267 ° 0 min 0,000 mm 0,0 UV-I 0 W/m² 11,3 °C 12,2 °C 11,3 km/h (2 Bft)
29.06.2017 04:57 12,3 °C 12,3 °C 94 % 995,5 hPa 0,0 mm 4,8 km/h (1 Bft) W-SW 256 ° 0 min 0,000 mm 0,0 UV-I 0 W/m² 11,4 °C 12,3 °C 9,7 km/h (2 Bft)
29.06.2017 04:58 12,3 °C 12,3 °C 94 % 995,5 hPa 0,0 mm 6,4 km/h (2 Bft) W-SW 238 ° 0 min 0,000 mm 0,0 UV-I 0 W/m² 11,4 °C 12,3 °C 11,3 km/h (2 Bft)
29.06.2017 04:59 12,3 °C 12,3 °C 94 % 995,4 hPa 0,0 mm 6,0 km/h (2 Bft) W-NW 283 ° 0 min 0,000 mm 0,0 UV-I 0 W/m² 11,4 °C 12,3 °C 9,7 km/h (2 Bft)
29.06.2017 05:00 12,3 °C 12,3 °C 94 % 995,5 hPa 0,0 mm 5,7 km/h (1 Bft) W 259 ° 0 min 0,000 mm 0,0 UV-I 0 W/m² 11,4 °C 12,3 °C 11,3 km/h (2 Bft)
29.06.2017 05:01 12,2 °C 12,3 °C 94 % 995,5 hPa 0,0 mm 6,0 km/h (2 Bft) W-SW 244 ° 0 min 0,000 mm 0,0 UV-I 0 W/m² 11,3 °C 12,2 °C 8,0 km/h (2 Bft)
29.06.2017 05:02 12,2 °C 12,3 °C 94 % 995,5 hPa 0,0 mm 4,2 km/h (1 Bft) W-SW 251 ° 0 min 0,000 mm 0,0 UV-I 0 W/m² 11,3 °C 12,2 °C 6,4 km/h (2 Bft)
29.06.2017 05:03 12,2 °C 12,2 °C 94 % 995,5 hPa 0,0 mm 3,4 km/h (1 Bft) W-SW 251 ° 0 min 0,000 mm 0,0 UV-I 0 W/m² 11,3 °C 12,2 °C 6,4 km/h (2 Bft)
29.06.2017 05:04 12,2 °C 12,2 °C 94 % 995,5 hPa 0,0 mm 8,0 km/h (2 Bft) W-NW 282 ° 0 min 0,000 mm 0,0 UV-I 0 W/m² 11,3 °C 12,2 °C 12,9 km/h (3 Bft)
29.06.2017 05:05 12,2 °C 12,2 °C 94 % 995,5 hPa 0,0 mm 6,3 km/h (2 Bft) W 262 ° 0 min 0,000 mm 0,0 UV-I 0 W/m² 11,3 °C 12,2 °C 11,3 km/h (2 Bft)
29.06.2017 05:06 12,2 °C 12,2 °C 94 % 995,5 hPa 0,0 mm 3,2 km/h (1 Bft) W 263 ° 0 min 0,000 mm 0,0 UV-I 0 W/m² 11,3 °C 12,2 °C 4,8 km/h (1 Bft)
29.06.2017 05:07 12,2 °C 12,2 °C 94 % 995,5 hPa 0,0 mm 4,6 km/h (1 Bft) W-NW 285 ° 0 min 0,000 mm 0,0 UV-I 0 W/m² 11,3 °C 12,2 °C 6,4 km/h (2 Bft)
29.06.2017 05:08 12,2 °C 12,2 °C 94 % 995,6 hPa 0,0 mm 9,7 km/h (2 Bft) W 273 ° 0 min 0,000 mm 0,0 UV-I 0 W/m² 11,3 °C 12,2 °C 14,5 km/h (3 Bft)
29.06.2017 05:09 12,2 °C 12,2 °C 94 % 995,5 hPa 0,0 mm 3,9 km/h (1 Bft) W 278 ° 0 min 0,000 mm 0,0 UV-I 0 W/m² 11,3 °C 12,2 °C 6,4 km/h (2 Bft)
29.06.2017 05:10 12,2 °C 12,2 °C 94 % 995,6 hPa 0,0 mm 6,4 km/h (2 Bft) W 273 ° 0 min 0,000 mm 0,0 UV-I 0 W/m² 11,3 °C 12,2 °C 12,9 km/h (3 Bft)
29.06.2017 05:11 12,2 °C 12,2 °C 94 % 995,5 hPa 0,0 mm 9,7 km/h (2 Bft) W-SW 241 ° 0 min 0,000 mm 0,0 UV-I 0 W/m² 11,3 °C 12,2 °C 12,9 km/h (3 Bft)
29.06.2017 05:12 12,2 °C 12,2 °C 94 % 995,5 hPa 0,0 mm 4,8 km/h (1 Bft) SW 232 ° 0 min 0,000 mm 0,0 UV-I 0 W/m² 11,3 °C 12,2 °C 8,0 km/h (2 Bft)
29.06.2017 05:13 12,2 °C 12,2 °C 94 % 995,5 hPa 0,0 mm 5,4 km/h (1 Bft) W-NW 292 ° 0 min 0,000 mm 0,0 UV-I 0 W/m² 11,3 °C 12,2 °C 12,9 km/h (3 Bft)
29.06.2017 05:14 12,2 °C 12,2 °C 94 % 995,6 hPa 0,0 mm 9,3 km/h (2 Bft) W 262 ° 0 min 0,000 mm 0,0 UV-I 0 W/m² 11,3 °C 12,2 °C 12,9 km/h (3 Bft)
29.06.2017 05:15 12,2 °C 12,2 °C 94 % 995,6 hPa 0,0 mm 8,6 km/h (2 Bft) W-SW 248 ° 0 min 0,000 mm 0,0 UV-I 0 W/m² 11,3 °C 12,2 °C 12,9 km/h (3 Bft)
29.06.2017 05:16 12,2 °C 12,2 °C 94 % 995,6 hPa 0,0 mm 6,6 km/h (2 Bft) W 269 ° 0 min 0,000 mm 0,0 UV-I 0 W/m² 11,3 °C 12,2 °C 14,5 km/h (3 Bft)
29.06.2017 05:17 12,1 °C 12,2 °C 93 % 995,5 hPa 0,0 mm 10,8 km/h (2 Bft) W 281 ° 0 min 0,000 mm 0,0 UV-I 0 W/m² 11,0 °C 12,1 °C 14,5 km/h (3 Bft)
29.06.2017 05:18 12,2 °C 12,2 °C 93 % 995,5 hPa 0,0 mm 5,2 km/h (1 Bft) W 259 ° 0 min 0,000 mm 0,0 UV-I 0 W/m² 11,1 °C 12,2 °C 11,3 km/h (2 Bft)
29.06.2017 05:19 12,1 °C 12,2 °C 93 % 995,6 hPa 0,0 mm 7,1 km/h (2 Bft) W-SW 257 ° 0 min 0,000 mm 0,0 UV-I 0 W/m² 11,0 °C 12,1 °C 12,9 km/h (3 Bft)
29.06.2017 05:20 12,1 °C 12,2 °C 93 % 995,6 hPa 0,0 mm 3,6 km/h (1 Bft) W-SW 248 ° 0 min 0,000 mm 0,0 UV-I 0 W/m² 11,0 °C 12,1 °C 6,4 km/h (2 Bft)
29.06.2017 05:21 12,2 °C 12,2 °C 93 % 995,6 hPa 0,0 mm 3,2 km/h (1 Bft) W-SW 255 ° 0 min 0,000 mm 0,0 UV-I 0 W/m² 11,1 °C 12,2 °C 6,4 km/h (2 Bft)
29.06.2017 05:22 12,1 °C 12,2 °C 93 % 995,6 hPa 0,0 mm 6,2 km/h (2 Bft) W-SW 252 ° 0 min 0,000 mm 0,0 UV-I 0 W/m² 11,0 °C 12,1 °C 12,9 km/h (3 Bft)
29.06.2017 05:23 12,1 °C 12,2 °C 93 % 995,6 hPa 0,0 mm 7,0 km/h (2 Bft) S-SW 198 ° 0 min 0,000 mm 0,0 UV-I 0 W/m² 11,0 °C 12,1 °C 11,3 km/h (2 Bft)
29.06.2017 05:24 12,2 °C 12,2 °C 93 % 995,6 hPa 0,0 mm 5,2 km/h (1 Bft) W 263 ° 0 min 0,000 mm 0,0 UV-I 0 W/m² 11,1 °C 12,2 °C 8,0 km/h (2 Bft)
29.06.2017 05:25 12,1 °C 12,2 °C 93 % 995,6 hPa 0,0 mm 9,4 km/h (2 Bft) S-SW 205 ° 0 min 0,000 mm 0,0 UV-I 0 W/m² 11,0 °C 12,1 °C 16,1 km/h (3 Bft)
29.06.2017 05:26 12,2 °C 12,2 °C 93 % 995,7 hPa 0,0 mm 7,0 km/h (2 Bft) W 271 ° 0 min 0,000 mm 0,0 UV-I 0 W/m² 11,1 °C 12,2 °C 12,9 km/h (3 Bft)
29.06.2017 05:27 12,2 °C 12,2 °C 93 % 995,6 hPa 0,0 mm 9,0 km/h (2 Bft) W 259 ° 0 min 0,000 mm 0,0 UV-I 0 W/m² 11,1 °C 12,2 °C 14,5 km/h (3 Bft)
29.06.2017 05:28 12,2 °C 12,2 °C 93 % 995,6 hPa 0,0 mm 5,0 km/h (1 Bft) W-SW 256 ° 0 min 0,000 mm 0,0 UV-I 0 W/m² 11,1 °C 12,2 °C 9,7 km/h (2 Bft)
29.06.2017 05:29 12,2 °C 12,2 °C 93 % 995,6 hPa 0,0 mm 3,2 km/h (1 Bft) W-SW 255 ° 0 min 0,000 mm 0,0 UV-I 0 W/m² 11,1 °C 12,2 °C 8,0 km/h (2 Bft)
29.06.2017 05:30 12,1 °C 12,2 °C 93 % 995,7 hPa 0,0 mm 3,9 km/h (1 Bft) W 264 ° 0 min 0,000 mm 0,0 UV-I 0 W/m² 11,0 °C 12,1 °C 6,4 km/h (2 Bft)
29.06.2017 05:31 12,1 °C 12,1 °C 93 % 995,7 hPa 0,0 mm 6,9 km/h (2 Bft) W 264 ° 0 min 0,000 mm 0,0 UV-I 0 W/m² 11,0 °C 12,1 °C 11,3 km/h (2 Bft)
29.06.2017 05:32 12,1 °C 12,1 °C 93 % 995,7 hPa 0,0 mm 4,5 km/h (1 Bft) W-SW 250 ° 0 min 0,000 mm 0,0 UV-I 0 W/m² 11,0 °C 12,1 °C 6,4 km/h (2 Bft)
29.06.2017 05:33 12,1 °C 12,1 °C 93 % 995,7 hPa 0,0 mm 5,9 km/h (2 Bft) W-SW 241 ° 0 min 0,000 mm 0,0 UV-I 0 W/m² 11,0 °C 12,1 °C 11,3 km/h (2 Bft)
29.06.2017 05:34 12,1 °C 12,1 °C 93 % 995,7 hPa 0,0 mm 6,8 km/h (2 Bft) W-SW 257 ° 0 min 0,000 mm 0,0 UV-I 0 W/m² 11,0 °C 12,1 °C 11,3 km/h (2 Bft)
29.06.2017 05:35 12,1 °C 12,1 °C 93 % 995,7 hPa 0,0 mm 5,0 km/h (1 Bft) W-SW 250 ° 0 min 0,000 mm 0,0 UV-I 0 W/m² 11,0 °C 12,1 °C 11,3 km/h (2 Bft)
29.06.2017 05:36 12,1 °C 12,2 °C 93 % 995,7 hPa 0,0 mm 4,6 km/h (1 Bft) W 265 ° 0 min 0,000 mm 0,0 UV-I 0 W/m² 11,0 °C 12,1 °C 6,4 km/h (2 Bft)
29.06.2017 05:37 12,1 °C 12,1 °C 93 % 995,7 hPa 0,0 mm 6,7 km/h (2 Bft) W 278 ° 0 min 0,000 mm 0,0 UV-I 0 W/m² 11,0 °C 12,1 °C 14,5 km/h (3 Bft)
29.06.2017 05:38 12,1 °C 12,1 °C 93 % 995,7 hPa 0,0 mm 6,8 km/h (2 Bft) SW 229 ° 0 min 0,000 mm 0,0 UV-I 5 W/m² 11,0 °C 12,1 °C 11,3 km/h (2 Bft)
29.06.2017 05:39 12,1 °C 12,1 °C 93 % 995,7 hPa 0,0 mm 4,6 km/h (1 Bft) W-SW 253 ° 0 min 0,000 mm 0,0 UV-I 5 W/m² 11,0 °C 12,1 °C 6,4 km/h (2 Bft)
29.06.2017 05:40 12,1 °C 12,1 °C 93 % 995,7 hPa 0,0 mm 4,3 km/h (1 Bft) SW 234 ° 0 min 0,000 mm 0,0 UV-I 5 W/m² 11,0 °C 12,1 °C 6,4 km/h (2 Bft)
29.06.2017 05:41 12,1 °C 12,1 °C 93 % 995,7 hPa 0,0 mm 3,9 km/h (1 Bft) W 259 ° 0 min 0,000 mm 0,0 UV-I 5 W/m² 11,0 °C 12,1 °C 4,8 km/h (1 Bft)
29.06.2017 05:42 12,1 °C 12,1 °C 92 % 995,8 hPa 0,0 mm 5,6 km/h (1 Bft) W-SW 256 ° 0 min 0,000 mm 0,0 UV-I 5 W/m² 10,8 °C 12,1 °C 9,7 km/h (2 Bft)
29.06.2017 05:43 12,0 °C 12,1 °C 93 % 995,7 hPa 0,0 mm 3,8 km/h (1 Bft) W-NW 285 ° 0 min 0,000 mm 0,0 UV-I 5 W/m² 10,9 °C 12,0 °C 6,4 km/h (2 Bft)
29.06.2017 05:44 12,1 °C 12,1 °C 93 % 995,7 hPa 0,0 mm 5,3 km/h (1 Bft) W 260 ° 0 min 0,000 mm 0,0 UV-I 5 W/m² 11,0 °C 12,1 °C 9,7 km/h (2 Bft)
29.06.2017 05:45 12,0 °C 12,1 °C 93 % 995,8 hPa 0,0 mm 5,0 km/h (1 Bft) W-SW 237 ° 0 min 0,000 mm 0,0 UV-I 5 W/m² 10,9 °C 12,0 °C 6,4 km/h (2 Bft)
29.06.2017 05:46 12,0 °C 12,1 °C 93 % 995,9 hPa 0,0 mm 3,2 km/h (1 Bft) W 270 ° 0 min 0,000 mm 0,0 UV-I 5 W/m² 10,9 °C 12,0 °C 4,8 km/h (1 Bft)
29.06.2017 05:47 12,0 °C 12,0 °C 93 % 995,8 hPa 0,0 mm 4,3 km/h (1 Bft) SW 226 ° 0 min 0,000 mm 0,0 UV-I 5 W/m² 10,9 °C 12,0 °C 6,4 km/h (2 Bft)
29.06.2017 05:48 12,0 °C 12,1 °C 92 % 995,9 hPa 0,0 mm 9,0 km/h (2 Bft) W-SW 255 ° 0 min 0,000 mm 0,0 UV-I 5 W/m² 10,7 °C 12,0 °C 14,5 km/h (3 Bft)
29.06.2017 05:49 12,1 °C 12,1 °C 93 % 995,9 hPa 0,0 mm 5,2 km/h (1 Bft) W-SW 255 ° 0 min 0,000 mm 0,0 UV-I 5 W/m² 11,0 °C 12,1 °C 8,0 km/h (2 Bft)
29.06.2017 05:50 12,1 °C 12,1 °C 93 % 995,8 hPa 0,0 mm 2,9 km/h (1 Bft) W-SW 255 ° 0 min 0,000 mm 0,0 UV-I 5 W/m² 11,0 °C 12,1 °C 4,8 km/h (1 Bft)
29.06.2017 05:51 12,1 °C 12,1 °C 93 % 995,8 hPa 0,0 mm 2,6 km/h (1 Bft) W-SW 253 ° 0 min 0,000 mm 0,0 UV-I 7 W/m² 11,0 °C 12,1 °C 6,4 km/h (2 Bft)
29.06.2017 05:52 12,1 °C 12,1 °C 93 % 995,9 hPa 0,0 mm 6,7 km/h (2 Bft) W-SW 249 ° 0 min 0,000 mm 0,0 UV-I 7 W/m² 11,0 °C 12,1 °C 11,3 km/h (2 Bft)
29.06.2017 05:53 12,0 °C 12,1 °C 93 % 995,9 hPa 0,0 mm 1,6 km/h (1 Bft) W-SW 248 ° 0 min 0,000 mm 0,0 UV-I 7 W/m² 10,9 °C 12,0 °C 4,8 km/h (1 Bft)
29.06.2017 05:54 12,0 °C 12,1 °C 93 % 995,9 hPa 0,0 mm 4,2 km/h (1 Bft) W 263 ° 0 min 0,000 mm 0,0 UV-I 7 W/m² 10,9 °C 12,0 °C 9,7 km/h (2 Bft)
29.06.2017 05:55 11,9 °C 12,0 °C 93 % 995,8 hPa 0,0 mm 6,2 km/h (2 Bft) W 273 ° 0 min 0,000 mm 0,0 UV-I 7 W/m² 10,8 °C 11,9 °C 12,9 km/h (3 Bft)
29.06.2017 05:56 12,0 °C 12,0 °C 93 % 995,9 hPa 0,0 mm 5,8 km/h (2 Bft) W 267 ° 0 min 0,000 mm 0,0 UV-I 7 W/m² 10,9 °C 12,0 °C 9,7 km/h (2 Bft)
29.06.2017 05:57 12,0 °C 12,0 °C 93 % 995,9 hPa 0,0 mm 7,9 km/h (2 Bft) W 275 ° 0 min 0,000 mm 0,0 UV-I 7 W/m² 10,9 °C 12,0 °C 16,1 km/h (3 Bft)
29.06.2017 05:58 12,0 °C 12,0 °C 93 % 995,9 hPa 0,0 mm 3,8 km/h (1 Bft) W-SW 257 ° 0 min 0,000 mm 0,0 UV-I 7 W/m² 10,9 °C 12,0 °C 6,4 km/h (2 Bft)
29.06.2017 05:59 12,0 °C 12,0 °C 93 % 995,9 hPa 0,0 mm 5,7 km/h (1 Bft) W-NW 286 ° 0 min 0,000 mm 0,0 UV-I 7 W/m² 10,9 °C 12,0 °C 11,3 km/h (2 Bft)
29.06.2017 06:00 11,9 °C 12,0 °C 93 % 995,9 hPa 0,0 mm 4,8 km/h (1 Bft) W 260 ° 0 min 0,000 mm 0,0 UV-I 7 W/m² 10,8 °C 11,9 °C 9,7 km/h (2 Bft)
29.06.2017 06:01 12,0 °C 12,0 °C 93 % 995,9 hPa 0,0 mm 2,5 km/h (1 Bft) W 264 ° 0 min 0,000 mm 0,0 UV-I 7 W/m² 10,9 °C 12,0 °C 6,4 km/h (2 Bft)
29.06.2017 06:02 11,9 °C 12,0 °C 93 % 995,8 hPa 0,0 mm 2,0 km/h (1 Bft) W 264 ° 0 min 0,000 mm 0,0 UV-I 7 W/m² 10,8 °C 11,9 °C 4,8 km/h (1 Bft)
29.06.2017 06:03 12,0 °C 12,0 °C 92 % 995,8 hPa 0,0 mm 4,7 km/h (1 Bft) W-SW 250 ° 0 min 0,000 mm 0,0 UV-I 7 W/m² 10,7 °C 12,0 °C 9,7 km/h (2 Bft)
29.06.2017 06:04 11,9 °C 12,0 °C 92 % 995,9 hPa 0,0 mm 9,9 km/h (2 Bft) W 273 ° 0 min 0,000 mm 0,0 UV-I 7 W/m² 10,6 °C 11,9 °C 16,1 km/h (3 Bft)
29.06.2017 06:05 11,9 °C 12,0 °C 92 % 995,9 hPa 0,0 mm 4,4 km/h (1 Bft) W-SW 248 ° 0 min 0,000 mm 0,0 UV-I 7 W/m² 10,6 °C 11,9 °C 8,0 km/h (2 Bft)
29.06.2017 06:06 11,9 °C 11,9 °C 92 % 995,9 hPa 0,0 mm 3,2 km/h (1 Bft) W 269 ° 0 min 0,000 mm 0,0 UV-I 9 W/m² 10,6 °C 11,9 °C 4,8 km/h (1 Bft)
29.06.2017 06:07 11,9 °C 12,0 °C 92 % 996,0 hPa 0,0 mm 5,5 km/h (1 Bft) W 263 ° 0 min 0,000 mm 0,0 UV-I 9 W/m² 10,6 °C 11,9 °C 9,7 km/h (2 Bft)
29.06.2017 06:08 12,0 °C 12,0 °C 92 % 996,0 hPa 0,0 mm 9,4 km/h (2 Bft) W-NW 300 ° 0 min 0,000 mm 0,0 UV-I 9 W/m² 10,7 °C 12,0 °C 17,7 km/h (3 Bft)
29.06.2017 06:09 12,0 °C 12,0 °C 92 % 995,9 hPa 0,0 mm 9,1 km/h (2 Bft) W-SW 247 ° 0 min 0,000 mm 0,0 UV-I 9 W/m² 10,7 °C 12,0 °C 14,5 km/h (3 Bft)
29.06.2017 06:10 11,9 °C 12,0 °C 92 % 995,9 hPa 0,0 mm 4,2 km/h (1 Bft) W-SW 238 ° 0 min 0,000 mm 0,0 UV-I 9 W/m² 10,6 °C 11,9 °C 8,0 km/h (2 Bft)
29.06.2017 06:11 12,0 °C 12,0 °C 92 % 996,0 hPa 0,0 mm 7,3 km/h (2 Bft) W 277 ° 0 min 0,000 mm 0,0 UV-I 11 W/m² 10,7 °C 12,0 °C 12,9 km/h (3 Bft)
29.06.2017 06:12 12,0 °C 12,0 °C 92 % 996,0 hPa 0,0 mm 11,3 km/h (2 Bft) S 190 ° 0 min 0,000 mm 0,0 UV-I 11 W/m² 10,7 °C 12,0 °C 17,7 km/h (3 Bft)
29.06.2017 06:13 12,0 °C 12,0 °C 92 % 996,1 hPa 0,0 mm 9,2 km/h (2 Bft) W-SW 252 ° 0 min 0,000 mm 0,0 UV-I 11 W/m² 10,7 °C 12,0 °C 12,9 km/h (3 Bft)
29.06.2017 06:14 12,0 °C 12,0 °C 92 % 996,0 hPa 0,0 mm 6,8 km/h (2 Bft) W 262 ° 0 min 0,000 mm 0,0 UV-I 11 W/m² 10,7 °C 12,0 °C 11,3 km/h (2 Bft)
29.06.2017 06:15 12,0 °C 12,0 °C 92 % 996,1 hPa 0,0 mm 6,4 km/h (2 Bft) SW 221 ° 0 min 0,000 mm 0,0 UV-I 11 W/m² 10,7 °C 12,0 °C 12,9 km/h (3 Bft)
29.06.2017 06:16 12,1 °C 12,1 °C 92 % 996,1 hPa 0,0 mm 3,0 km/h (1 Bft) W 259 ° 0 min 0,000 mm 0,0 UV-I 11 W/m² 10,8 °C 12,1 °C 6,4 km/h (2 Bft)
29.06.2017 06:17 12,0 °C 12,1 °C 92 % 996,1 hPa 0,0 mm 1,9 km/h (1 Bft) W 259 ° 0 min 0,000 mm 0,0 UV-I 11 W/m² 10,7 °C 12,0 °C 3,2 km/h (1 Bft)
29.06.2017 06:18 12,1 °C 12,1 °C 92 % 996,1 hPa 0,0 mm 3,0 km/h (1 Bft) W-SW 256 ° 0 min 0,000 mm 0,0 UV-I 11 W/m² 10,8 °C 12,1 °C 4,8 km/h (1 Bft)
29.06.2017 06:19 12,0 °C 12,1 °C 92 % 996,1 hPa 0,0 mm 3,5 km/h (1 Bft) SW 227 ° 0 min 0,000 mm 0,0 UV-I 11 W/m² 10,7 °C 12,0 °C 6,4 km/h (2 Bft)
29.06.2017 06:20 12,0 °C 12,0 °C 92 % 996,1 hPa 0,0 mm 4,4 km/h (1 Bft) W 261 ° 0 min 0,000 mm 0,0 UV-I 11 W/m² 10,7 °C 12,0 °C 9,7 km/h (2 Bft)
29.06.2017 06:21 12,0 °C 12,0 °C 92 % 996,1 hPa 0,0 mm 4,6 km/h (1 Bft) W-SW 242 ° 0 min 0,000 mm 0,0 UV-I 12 W/m² 10,7 °C 12,0 °C 6,4 km/h (2 Bft)
29.06.2017 06:22 12,0 °C 12,0 °C 92 % 996,2 hPa 0,0 mm 4,3 km/h (1 Bft) W-NW 286 ° 0 min 0,000 mm 0,0 UV-I 12 W/m² 10,7 °C 12,0 °C 6,4 km/h (2 Bft)
29.06.2017 06:23 12,0 °C 12,0 °C 92 % 996,2 hPa 0,0 mm 7,9 km/h (2 Bft) W 267 ° 0 min 0,000 mm 0,0 UV-I 12 W/m² 10,7 °C 12,0 °C 12,9 km/h (3 Bft)
29.06.2017 06:24 12,1 °C 12,1 °C 92 % 996,2 hPa 0,0 mm 8,7 km/h (2 Bft) W 273 ° 0 min 0,000 mm 0,0 UV-I 12 W/m² 10,8 °C 12,1 °C 11,3 km/h (2 Bft)
29.06.2017 06:25 12,0 °C 12,1 °C 92 % 996,1 hPa 0,0 mm 5,6 km/h (1 Bft) W-SW 245 ° 0 min 0,000 mm 0,0 UV-I 14 W/m² 10,7 °C 12,0 °C 17,7 km/h (3 Bft)
29.06.2017 06:26 12,0 °C 12,1 °C 92 % 996,1 hPa 0,0 mm 4,1 km/h (1 Bft) W-NW 298 ° 0 min 0,000 mm 0,0 UV-I 14 W/m² 10,7 °C 12,0 °C 9,7 km/h (2 Bft)
29.06.2017 06:27 12,0 °C 12,1 °C 92 % 996,1 hPa 0,0 mm 4,9 km/h (1 Bft) W 271 ° 0 min 0,000 mm 0,0 UV-I 14 W/m² 10,7 °C 12,0 °C 9,7 km/h (2 Bft)
29.06.2017 06:28 12,0 °C 12,1 °C 92 % 996,2 hPa 0,0 mm 9,5 km/h (2 Bft) W-SW 242 ° 0 min 0,000 mm 0,0 UV-I 16 W/m² 10,7 °C 12,0 °C 14,5 km/h (3 Bft)
29.06.2017 06:29 12,1 °C 12,1 °C 92 % 996,2 hPa 0,0 mm 3,4 km/h (1 Bft) W-SW 258 ° 0 min 0,000 mm 0,0 UV-I 16 W/m² 10,8 °C 12,1 °C 6,4 km/h (2 Bft)
29.06.2017 06:30 12,1 °C 12,1 °C 91 % 996,2 hPa 0,0 mm 2,3 km/h (1 Bft) W-SW 258 ° 0 min 0,000 mm 0,0 UV-I 16 W/m² 10,7 °C 12,1 °C 4,8 km/h (1 Bft)
29.06.2017 06:31 12,1 °C 12,1 °C 92 % 996,2 hPa 0,0 mm 5,6 km/h (1 Bft) W 271 ° 0 min 0,000 mm 0,0 UV-I 19 W/m² 10,8 °C 12,1 °C 8,0 km/h (2 Bft)
29.06.2017 06:32 12,1 °C 12,1 °C 92 % 996,2 hPa 0,0 mm 3,1 km/h (1 Bft) W 259 ° 0 min 0,000 mm 0,0 UV-I 19 W/m² 10,8 °C 12,1 °C 6,4 km/h (2 Bft)
29.06.2017 06:33 12,1 °C 12,1 °C 92 % 996,2 hPa 0,0 mm 10,4 km/h (2 Bft) W 262 ° 0 min 0,000 mm 0,0 UV-I 21 W/m² 10,8 °C 12,1 °C 20,9 km/h (4 Bft)
29.06.2017 06:34 12,1 °C 12,1 °C 92 % 996,2 hPa 0,0 mm 7,6 km/h (2 Bft) W 271 ° 0 min 0,000 mm 0,0 UV-I 21 W/m² 10,8 °C 12,1 °C 12,9 km/h (3 Bft)
29.06.2017 06:35 12,1 °C 12,1 °C 91 % 996,2 hPa 0,0 mm 8,8 km/h (2 Bft) W-SW 253 ° 0 min 0,000 mm 0,0 UV-I 21 W/m² 10,7 °C 12,1 °C 14,5 km/h (3 Bft)
29.06.2017 06:36 12,1 °C 12,1 °C 91 % 996,2 hPa 0,0 mm 7,4 km/h (2 Bft) W-SW 257 ° 0 min 0,000 mm 0,0 UV-I 23 W/m² 10,7 °C 12,1 °C 12,9 km/h (3 Bft)
29.06.2017 06:37 12,1 °C 12,1 °C 91 % 996,2 hPa 0,0 mm 6,1 km/h (2 Bft) W 279 ° 0 min 0,000 mm 0,0 UV-I 25 W/m² 10,7 °C 12,1 °C 9,7 km/h (2 Bft)
29.06.2017 06:38 12,1 °C 12,1 °C 91 % 996,2 hPa 0,0 mm 7,0 km/h (2 Bft) W-SW 248 ° 0 min 0,000 mm 0,0 UV-I 25 W/m² 10,7 °C 12,1 °C 11,3 km/h (2 Bft)
29.06.2017 06:39 12,1 °C 12,1 °C 91 % 996,2 hPa 0,0 mm 5,8 km/h (2 Bft) W 275 ° 0 min 0,000 mm 0,0 UV-I 25 W/m² 10,7 °C 12,1 °C 9,7 km/h (2 Bft)
29.06.2017 06:40 12,1 °C 12,1 °C 91 % 996,2 hPa 0,0 mm 8,0 km/h (2 Bft) W-SW 250 ° 0 min 0,000 mm 0,0 UV-I 25 W/m² 10,7 °C 12,1 °C 14,5 km/h (3 Bft)
29.06.2017 06:41 12,1 °C 12,1 °C 91 % 996,2 hPa 0,0 mm 5,0 km/h (1 Bft) W 275 ° 0 min 0,000 mm 0,0 UV-I 26 W/m² 10,7 °C 12,1 °C 9,7 km/h (2 Bft)
29.06.2017 06:42 12,1 °C 12,1 °C 91 % 996,2 hPa 0,0 mm 5,9 km/h (2 Bft) W-SW 256 ° 0 min 0,000 mm 0,0 UV-I 26 W/m² 10,7 °C 12,1 °C 11,3 km/h (2 Bft)
29.06.2017 06:43 12,1 °C 12,1 °C 91 % 996,2 hPa 0,0 mm 5,1 km/h (1 Bft) W 268 ° 0 min 0,000 mm 0,0 UV-I 28 W/m² 10,7 °C 12,1 °C 11,3 km/h (2 Bft)
29.06.2017 06:44 12,1 °C 12,1 °C 91 % 996,3 hPa 0,0 mm 5,1 km/h (1 Bft) W-SW 247 ° 0 min 0,000 mm 0,0 UV-I 28 W/m² 10,7 °C 12,1 °C 6,4 km/h (2 Bft)
29.06.2017 06:45 12,0 °C 12,1 °C 91 % 996,3 hPa 0,2 mm 5,1 km/h (1 Bft) W 261 ° 0 min 0,000 mm 0,0 UV-I 28 W/m² 10,6 °C 12,0 °C 11,3 km/h (2 Bft)
29.06.2017 06:46 12,0 °C 12,0 °C 91 % 996,3 hPa 0,0 mm 9,7 km/h (2 Bft) W 271 ° 0 min 0,000 mm 0,0 UV-I 30 W/m² 10,6 °C 12,0 °C 14,5 km/h (3 Bft)
29.06.2017 06:47 12,0 °C 12,1 °C 91 % 996,3 hPa 0,0 mm 6,4 km/h (2 Bft) W 268 ° 0 min 0,000 mm 0,0 UV-I 32 W/m² 10,6 °C 12,0 °C 11,3 km/h (2 Bft)
29.06.2017 06:48 12,1 °C 12,1 °C 91 % 996,2 hPa 0,0 mm 6,6 km/h (2 Bft) W-SW 257 ° 0 min 0,000 mm 0,0 UV-I 33 W/m² 10,7 °C 12,1 °C 12,9 km/h (3 Bft)
29.06.2017 06:49 12,1 °C 12,1 °C 91 % 996,3 hPa 0,0 mm 5,2 km/h (1 Bft) W 263 ° 0 min 0,000 mm 0,0 UV-I 33 W/m² 10,7 °C 12,1 °C 9,7 km/h (2 Bft)
29.06.2017 06:50 12,1 °C 12,1 °C 91 % 996,3 hPa 0,0 mm 7,0 km/h (2 Bft) W 261 ° 0 min 0,000 mm 0,0 UV-I 33 W/m² 10,7 °C 12,1 °C 12,9 km/h (3 Bft)
29.06.2017 06:51 12,1 °C 12,1 °C 91 % 996,3 hPa 0,0 mm 10,8 km/h (2 Bft) W-SW 252 ° 0 min 0,000 mm 0,0 UV-I 33 W/m² 10,7 °C 12,1 °C 19,3 km/h (3 Bft)
29.06.2017 06:52 12,1 °C 12,1 °C 91 % 996,3 hPa 0,0 mm 3,6 km/h (1 Bft) W-NW 286 ° 0 min 0,000 mm 0,0 UV-I 33 W/m² 10,7 °C 12,1 °C 4,8 km/h (1 Bft)
29.06.2017 06:53 12,0 °C 12,1 °C 91 % 996,4 hPa 0,0 mm 4,2 km/h (1 Bft) W-SW 246 ° 0 min 0,000 mm 0,0 UV-I 33 W/m² 10,6 °C 12,0 °C 14,5 km/h (3 Bft)
29.06.2017 06:54 12,0 °C 12,0 °C 91 % 996,4 hPa 0,0 mm 6,2 km/h (2 Bft) W-SW 255 ° 0 min 0,000 mm 0,0 UV-I 35 W/m² 10,6 °C 12,0 °C 11,3 km/h (2 Bft)
29.06.2017 06:55 12,1 °C 12,1 °C 91 % 996,4 hPa 0,0 mm 5,6 km/h (1 Bft) W 262 ° 0 min 0,000 mm 0,0 UV-I 35 W/m² 10,7 °C 12,1 °C 9,7 km/h (2 Bft)
29.06.2017 06:56 12,0 °C 12,1 °C 91 % 996,4 hPa 0,0 mm 4,6 km/h (1 Bft) W 269 ° 0 min 0,000 mm 0,0 UV-I 37 W/m² 10,6 °C 12,0 °C 6,4 km/h (2 Bft)
29.06.2017 06:57 12,0 °C 12,0 °C 91 % 996,4 hPa 0,0 mm 5,6 km/h (1 Bft) W-SW 242 ° 0 min 0,000 mm 0,0 UV-I 39 W/m² 10,6 °C 12,0 °C 11,3 km/h (2 Bft)
29.06.2017 06:58 11,9 °C 12,0 °C 91 % 996,4 hPa 0,0 mm 6,1 km/h (2 Bft) W 265 ° 0 min 0,000 mm 0,0 UV-I 40 W/m² 10,5 °C 11,9 °C 12,9 km/h (3 Bft)
29.06.2017 06:59 11,9 °C 12,0 °C 91 % 996,4 hPa 0,0 mm 3,9 km/h (1 Bft) S-SW 194 ° 0 min 0,000 mm 0,0 UV-I 40 W/m² 10,5 °C 11,9 °C 6,4 km/h (2 Bft)
29.06.2017 07:00 11,9 °C 12,0 °C 91 % 996,4 hPa 0,0 mm 2,3 km/h (1 Bft) W 261 ° 0 min 0,000 mm 0,0 UV-I 42 W/m² 10,5 °C 11,9 °C 6,4 km/h (2 Bft)
29.06.2017 07:01 11,9 °C 12,0 °C 92 % 996,4 hPa 0,0 mm 4,2 km/h (1 Bft) W-SW 246 ° 0 min 0,026 mm 0,0 UV-I 46 W/m² 10,6 °C 11,9 °C 6,4 km/h (2 Bft)
29.06.2017 07:02 12,0 °C 12,0 °C 91 % 996,4 hPa 0,0 mm 5,7 km/h (1 Bft) W 266 ° 0 min 0,000 mm 0,0 UV-I 47 W/m² 10,6 °C 12,0 °C 9,7 km/h (2 Bft)
29.06.2017 07:03 12,0 °C 12,0 °C 92 % 996,4 hPa 0,0 mm 1,9 km/h (1 Bft) W 266 ° 0 min 0,000 mm 0,0 UV-I 46 W/m² 10,7 °C 12,0 °C 3,2 km/h (1 Bft)
29.06.2017 07:04 12,0 °C 12,0 °C 91 % 996,4 hPa 0,0 mm 4,7 km/h (1 Bft) SW 236 ° 0 min 0,000 mm 0,0 UV-I 49 W/m² 10,6 °C 12,0 °C 8,0 km/h (2 Bft)
29.06.2017 07:05 12,0 °C 12,0 °C 92 % 996,4 hPa 0,2 mm 4,8 km/h (1 Bft) W-NW 294 ° 0 min 0,000 mm 0,0 UV-I 51 W/m² 10,7 °C 12,0 °C 9,7 km/h (2 Bft)
29.06.2017 07:06 12,0 °C 12,0 °C 92 % 996,4 hPa 0,0 mm 3,6 km/h (1 Bft) W 267 ° 0 min 0,000 mm 0,0 UV-I 54 W/m² 10,7 °C 12,0 °C 6,4 km/h (2 Bft)
29.06.2017 07:07 12,0 °C 12,0 °C 92 % 996,4 hPa 0,0 mm 2,8 km/h (1 Bft) W-SW 254 ° 0 min 0,000 mm 0,0 UV-I 58 W/m² 10,7 °C 12,0 °C 4,8 km/h (1 Bft)
29.06.2017 07:08 11,9 °C 12,0 °C 91 % 996,4 hPa 0,0 mm 1,6 km/h (1 Bft) W-NW 288 ° 0 min 0,000 mm 0,0 UV-I 58 W/m² 10,5 °C 11,9 °C 4,8 km/h (1 Bft)
29.06.2017 07:09 11,9 °C 11,9 °C 91 % 996,4 hPa 0,0 mm 2,5 km/h (1 Bft) W-SW 252 ° 0 min 0,000 mm 0,0 UV-I 58 W/m² 10,5 °C 11,9 °C 4,8 km/h (1 Bft)
29.06.2017 07:10 11,9 °C 12,0 °C 92 % 996,5 hPa 0,0 mm 2,7 km/h (1 Bft) W 260 ° 0 min 0,000 mm 0,0 UV-I 62 W/m² 10,6 °C 11,9 °C 6,4 km/h (2 Bft)
29.06.2017 07:11 12,0 °C 12,0 °C 92 % 996,5 hPa 0,0 mm 2,0 km/h (1 Bft) W 260 ° 0 min 0,000 mm 0,0 UV-I 62 W/m² 10,7 °C 12,0 °C 4,8 km/h (1 Bft)
29.06.2017 07:12 12,1 °C 12,1 °C 92 % 996,4 hPa 0,0 mm 4,6 km/h (1 Bft) W 265 ° 0 min 0,000 mm 0,0 UV-I 58 W/m² 10,8 °C 12,1 °C 11,3 km/h (2 Bft)
29.06.2017 07:13 12,1 °C 12,1 °C 92 % 996,5 hPa 0,0 mm 5,4 km/h (1 Bft) W 263 ° 0 min 0,000 mm 0,0 UV-I 62 W/m² 10,8 °C 12,1 °C 11,3 km/h (2 Bft)
29.06.2017 07:14 12,1 °C 12,1 °C 92 % 996,5 hPa 0,0 mm 5,2 km/h (1 Bft) W-SW 253 ° 0 min 0,000 mm 0,0 UV-I 65 W/m² 10,8 °C 12,1 °C 9,7 km/h (2 Bft)
29.06.2017 07:15 12,1 °C 12,1 °C 92 % 996,4 hPa 0,0 mm 3,9 km/h (1 Bft) W 264 ° 0 min 0,000 mm 0,0 UV-I 67 W/m² 10,8 °C 12,1 °C 9,7 km/h (2 Bft)
29.06.2017 07:16 12,1 °C 12,1 °C 91 % 996,4 hPa 0,0 mm 5,0 km/h (1 Bft) SW 230 ° 0 min 0,000 mm 0,0 UV-I 69 W/m² 10,7 °C 12,1 °C 6,4 km/h (2 Bft)
29.06.2017 07:17 12,1 °C 12,1 °C 91 % 996,5 hPa 0,0 mm 3,2 km/h (1 Bft) W 269 ° 0 min 0,000 mm 0,0 UV-I 69 W/m² 10,7 °C 12,1 °C 12,9 km/h (3 Bft)
29.06.2017 07:18 12,1 °C 12,1 °C 91 % 996,6 hPa 0,0 mm 7,6 km/h (2 Bft) W-SW 257 ° 0 min 0,000 mm 0,0 UV-I 69 W/m² 10,7 °C 12,1 °C 11,3 km/h (2 Bft)
29.06.2017 07:19 12,1 °C 12,2 °C 91 % 996,6 hPa 0,0 mm 5,0 km/h (1 Bft) W 273 ° 0 min 0,000 mm 0,0 UV-I 69 W/m² 10,7 °C 12,1 °C 8,0 km/h (2 Bft)
29.06.2017 07:20 12,2 °C 12,2 °C 91 % 996,6 hPa 0,0 mm 5,3 km/h (1 Bft) W 268 ° 0 min 0,000 mm 0,0 UV-I 69 W/m² 10,8 °C 12,2 °C 6,4 km/h (2 Bft)
29.06.2017 07:21 12,2 °C 12,2 °C 91 % 996,6 hPa 0,0 mm 5,8 km/h (2 Bft) W-SW 244 ° 0 min 0,000 mm 0,5 UV-I 69 W/m² 10,8 °C 12,2 °C 8,0 km/h (2 Bft)
29.06.2017 07:22 12,2 °C 12,2 °C 91 % 996,6 hPa 0,0 mm 3,2 km/h (1 Bft) W-NW 284 ° 0 min 0,000 mm 0,5 UV-I 69 W/m² 10,8 °C 12,2 °C 4,8 km/h (1 Bft)
29.06.2017 07:23 12,2 °C 12,2 °C 91 % 996,7 hPa 0,0 mm 3,9 km/h (1 Bft) W-SW 258 ° 0 min 0,000 mm 0,0 UV-I 69 W/m² 10,8 °C 12,2 °C 6,4 km/h (2 Bft)
29.06.2017 07:24 12,3 °C 12,3 °C 91 % 996,7 hPa 0,0 mm 2,4 km/h (1 Bft) W 263 ° 0 min 0,000 mm 0,0 UV-I 60 W/m² 10,9 °C 12,3 °C 4,8 km/h (1 Bft)
29.06.2017 07:25 12,3 °C 12,3 °C 91 % 996,7 hPa 0,0 mm 1,7 km/h (1 Bft) W 267 ° 0 min 0,000 mm 0,0 UV-I 54 W/m² 10,9 °C 12,3 °C 4,8 km/h (1 Bft)
29.06.2017 07:26 12,3 °C 12,3 °C 91 % 996,8 hPa 0,0 mm 1,4 km/h (1 Bft) W 267 ° 0 min 0,000 mm 0,0 UV-I 54 W/m² 10,9 °C 12,3 °C 3,2 km/h (1 Bft)
29.06.2017 07:27 12,3 °C 12,3 °C 91 % 996,8 hPa 0,0 mm 3,5 km/h (1 Bft) W-SW 258 ° 0 min 0,000 mm 0,0 UV-I 56 W/m² 10,9 °C 12,3 °C 6,4 km/h (2 Bft)
29.06.2017 07:28 12,3 °C 12,3 °C 91 % 996,8 hPa 0,0 mm 6,0 km/h (2 Bft) W 267 ° 0 min 0,000 mm 0,0 UV-I 58 W/m² 10,9 °C 12,3 °C 9,7 km/h (2 Bft)
29.06.2017 07:29 12,3 °C 12,3 °C 91 % 996,8 hPa 0,0 mm 3,6 km/h (1 Bft) W 270 ° 0 min 0,000 mm 0,0 UV-I 63 W/m² 10,9 °C 12,3 °C 9,7 km/h (2 Bft)
29.06.2017 07:30 12,3 °C 12,3 °C 91 % 996,8 hPa 0,0 mm 1,2 km/h (1 Bft) W 271 ° 0 min 0,000 mm 0,5 UV-I 74 W/m² 10,9 °C 12,3 °C 3,2 km/h (1 Bft)
29.06.2017 07:31 12,3 °C 12,3 °C 91 % 996,8 hPa 0,0 mm 4,0 km/h (1 Bft) W 275 ° 0 min 0,000 mm 0,5 UV-I 77 W/m² 10,9 °C 12,3 °C 6,4 km/h (2 Bft)
29.06.2017 07:32 12,3 °C 12,3 °C 91 % 996,8 hPa 0,0 mm 4,1 km/h (1 Bft) W-NW 287 ° 0 min 0,000 mm 0,5 UV-I 77 W/m² 10,9 °C 12,3 °C 6,4 km/h (2 Bft)
29.06.2017 07:33 12,3 °C 12,3 °C 91 % 996,9 hPa 0,0 mm 2,6 km/h (1 Bft) SW 219 ° 0 min 0,000 mm 0,6 UV-I 81 W/m² 10,9 °C 12,3 °C 4,8 km/h (1 Bft)
29.06.2017 07:34 12,3 °C 12,3 °C 91 % 996,9 hPa 0,0 mm 3,8 km/h (1 Bft) W 267 ° 0 min 0,000 mm 0,6 UV-I 81 W/m² 10,9 °C 12,3 °C 9,7 km/h (2 Bft)
29.06.2017 07:35 12,4 °C 12,4 °C 91 % 996,9 hPa 0,0 mm 5,8 km/h (2 Bft) W 265 ° 0 min 0,000 mm 0,5 UV-I 79 W/m² 11,0 °C 12,4 °C 9,7 km/h (2 Bft)
29.06.2017 07:36 12,4 °C 12,4 °C 90 % 996,9 hPa 0,0 mm 3,4 km/h (1 Bft) W 263 ° 0 min 0,000 mm 0,6 UV-I 84 W/m² 10,8 °C 12,4 °C 4,8 km/h (1 Bft)
29.06.2017 07:37 12,4 °C 12,4 °C 90 % 996,9 hPa 0,0 mm 3,8 km/h (1 Bft) W 268 ° 0 min 0,000 mm 0,6 UV-I 88 W/m² 10,8 °C 12,4 °C 6,4 km/h (2 Bft)
29.06.2017 07:38 12,4 °C 12,4 °C 90 % 996,9 hPa 0,0 mm 5,2 km/h (1 Bft) W 269 ° 0 min 0,000 mm 0,6 UV-I 91 W/m² 10,8 °C 12,4 °C 9,7 km/h (2 Bft)
29.06.2017 07:39 12,4 °C 12,4 °C 90 % 996,9 hPa 0,0 mm 3,0 km/h (1 Bft) W-SW 241 ° 0 min 0,000 mm 0,6 UV-I 91 W/m² 10,8 °C 12,4 °C 4,8 km/h (1 Bft)
29.06.2017 07:40 12,4 °C 12,4 °C 91 % 997,0 hPa 0,0 mm 1,9 km/h (1 Bft) W-SW 257 ° 0 min 0,000 mm 0,6 UV-I 90 W/m² 11,0 °C 12,4 °C 4,8 km/h (1 Bft)
29.06.2017 07:41 12,5 °C 12,5 °C 91 % 997,0 hPa 0,0 mm 4,6 km/h (1 Bft) W-SW 250 ° 0 min 0,000 mm 0,6 UV-I 86 W/m² 11,1 °C 12,5 °C 8,0 km/h (2 Bft)
29.06.2017 07:42 12,5 °C 12,5 °C 91 % 997,0 hPa 0,0 mm 8,5 km/h (2 Bft) SW 215 ° 0 min 0,000 mm 0,7 UV-I 98 W/m² 11,1 °C 12,5 °C 11,3 km/h (2 Bft)
29.06.2017 07:43 12,5 °C 12,6 °C 91 % 997,0 hPa 0,0 mm 3,3 km/h (1 Bft) W-SW 246 ° 0 min 0,000 mm 0,7 UV-I 102 W/m² 11,1 °C 12,5 °C 4,8 km/h (1 Bft)
29.06.2017 07:44 12,5 °C 12,5 °C 91 % 997,0 hPa 0,0 mm 2,5 km/h (1 Bft) SW 229 ° 0 min 0,000 mm 0,8 UV-I 104 W/m² 11,1 °C 12,5 °C 4,8 km/h (1 Bft)
29.06.2017 07:45 12,5 °C 12,6 °C 91 % 997,0 hPa 0,0 mm 4,2 km/h (1 Bft) SW 222 ° 0 min 0,000 mm 0,8 UV-I 105 W/m² 11,1 °C 12,5 °C 11,3 km/h (2 Bft)
29.06.2017 07:46 12,6 °C 12,6 °C 91 % 997,1 hPa 0,0 mm 4,3 km/h (1 Bft) W-SW 244 ° 0 min 0,000 mm 0,8 UV-I 105 W/m² 11,2 °C 12,6 °C 6,4 km/h (2 Bft)
29.06.2017 07:47 12,6 °C 12,6 °C 91 % 997,1 hPa 0,0 mm 3,7 km/h (1 Bft) W-SW 256 ° 0 min 0,000 mm 0,7 UV-I 98 W/m² 11,2 °C 12,6 °C 6,4 km/h (2 Bft)
29.06.2017 07:48 12,6 °C 12,6 °C 91 % 997,1 hPa 0,0 mm 4,8 km/h (1 Bft) W-SW 252 ° 0 min 0,000 mm 0,7 UV-I 97 W/m² 11,2 °C 12,6 °C 9,7 km/h (2 Bft)
29.06.2017 07:49 12,6 °C 12,6 °C 91 % 997,1 hPa 0,0 mm 2,7 km/h (1 Bft) W-SW 250 ° 0 min 0,000 mm 0,7 UV-I 98 W/m² 11,2 °C 12,6 °C 6,4 km/h (2 Bft)
29.06.2017 07:50 12,6 °C 12,6 °C 91 % 997,1 hPa 0,0 mm 3,8 km/h (1 Bft) W 271 ° 0 min 0,000 mm 0,7 UV-I 104 W/m² 11,2 °C 12,6 °C 6,4 km/h (2 Bft)
29.06.2017 07:51 12,6 °C 12,6 °C 91 % 997,2 hPa 0,0 mm 2,9 km/h (1 Bft) W-NW 289 ° 0 min 0,000 mm 0,7 UV-I 107 W/m² 11,2 °C 12,6 °C 4,8 km/h (1 Bft)
29.06.2017 07:52 12,6 °C 12,7 °C 91 % 997,2 hPa 0,0 mm 4,0 km/h (1 Bft) W-SW 242 ° 0 min 0,000 mm 0,7 UV-I 111 W/m² 11,2 °C 12,6 °C 11,3 km/h (2 Bft)
29.06.2017 07:53 12,7 °C 12,7 °C 90 % 997,2 hPa 0,0 mm 3,4 km/h (1 Bft) W-SW 255 ° 0 min 0,000 mm 0,7 UV-I 104 W/m² 11,1 °C 12,7 °C 6,4 km/h (2 Bft)
29.06.2017 07:54 12,7 °C 12,7 °C 91 % 997,2 hPa 0,0 mm 5,7 km/h (1 Bft) W 263 ° 0 min 0,000 mm 0,7 UV-I 86 W/m² 11,3 °C 12,7 °C 9,7 km/h (2 Bft)
29.06.2017 07:55 12,7 °C 12,7 °C 91 % 997,3 hPa 0,0 mm 4,9 km/h (1 Bft) W 273 ° 0 min 0,000 mm 0,5 UV-I 79 W/m² 11,3 °C 12,7 °C 8,0 km/h (2 Bft)
29.06.2017 07:56 12,7 °C 12,7 °C 90 % 997,3 hPa 0,0 mm 9,7 km/h (2 Bft) W 267 ° 0 min 0,000 mm 0,5 UV-I 83 W/m² 11,1 °C 12,7 °C 17,7 km/h (3 Bft)
29.06.2017 07:57 12,7 °C 12,7 °C 90 % 997,3 hPa 0,0 mm 9,8 km/h (2 Bft) W-NW 301 ° 0 min 0,000 mm 0,5 UV-I 84 W/m² 11,1 °C 12,7 °C 14,5 km/h (3 Bft)
29.06.2017 07:58 12,7 °C 12,7 °C 91 % 997,3 hPa 0,0 mm 9,4 km/h (2 Bft) W 259 ° 0 min 0,000 mm 0,0 UV-I 72 W/m² 11,3 °C 12,7 °C 12,9 km/h (3 Bft)
29.06.2017 07:59 12,7 °C 12,7 °C 90 % 997,3 hPa 0,0 mm 6,2 km/h (2 Bft) W-SW 257 ° 0 min 0,000 mm 0,0 UV-I 74 W/m² 11,1 °C 12,7 °C 11,3 km/h (2 Bft)
29.06.2017 08:00 12,7 °C 12,7 °C 91 % 997,3 hPa 0,0 mm 7,6 km/h (2 Bft) W-SW 257 ° 0 min 0,051 mm 0,5 UV-I 77 W/m² 11,3 °C 12,7 °C 11,3 km/h (2 Bft)
29.06.2017 08:01 12,7 °C 12,7 °C 91 % 997,3 hPa 0,0 mm 5,3 km/h (1 Bft) W 271 ° 0 min 0,000 mm 0,5 UV-I 86 W/m² 11,3 °C 12,7 °C 11,3 km/h (2 Bft)
29.06.2017 08:02 12,7 °C 12,7 °C 91 % 997,3 hPa 0,0 mm 8,0 km/h (2 Bft) W 268 ° 0 min 0,000 mm 0,6 UV-I 91 W/m² 11,3 °C 12,7 °C 12,9 km/h (3 Bft)
29.06.2017 08:03 12,7 °C 12,7 °C 91 % 997,4 hPa 0,0 mm 4,6 km/h (1 Bft) W-NW 284 ° 0 min 0,000 mm 0,6 UV-I 100 W/m² 11,3 °C 12,7 °C 9,7 km/h (2 Bft)
29.06.2017 08:04 12,7 °C 12,7 °C 91 % 997,4 hPa 0,0 mm 5,6 km/h (1 Bft) W-SW 252 ° 0 min 0,000 mm 0,6 UV-I 95 W/m² 11,3 °C 12,7 °C 9,7 km/h (2 Bft)
29.06.2017 08:05 12,7 °C 12,7 °C 91 % 997,4 hPa 0,0 mm 5,2 km/h (1 Bft) W-SW 246 ° 0 min 0,000 mm 0,6 UV-I 114 W/m² 11,3 °C 12,7 °C 11,3 km/h (2 Bft)
29.06.2017 08:06 12,7 °C 12,8 °C 91 % 997,4 hPa 0,0 mm 5,0 km/h (1 Bft) W-SW 258 ° 0 min 0,000 mm 0,9 UV-I 132 W/m² 11,3 °C 12,7 °C 9,7 km/h (2 Bft)
29.06.2017 08:07 12,8 °C 12,8 °C 92 % 997,4 hPa 0,0 mm 5,6 km/h (1 Bft) W-SW 256 ° 0 min 0,000 mm 0,9 UV-I 141 W/m² 11,5 °C 12,8 °C 9,7 km/h (2 Bft)
29.06.2017 08:08 12,8 °C 12,8 °C 91 % 997,4 hPa 0,0 mm 6,8 km/h (2 Bft) W 259 ° 0 min 0,000 mm 0,9 UV-I 144 W/m² 11,4 °C 12,8 °C 9,7 km/h (2 Bft)
29.06.2017 08:09 12,8 °C 12,8 °C 91 % 997,4 hPa 0,0 mm 6,4 km/h (2 Bft) W 267 ° 0 min 0,000 mm 0,9 UV-I 144 W/m² 11,4 °C 12,8 °C 11,3 km/h (2 Bft)
29.06.2017 08:10 12,8 °C 12,8 °C 92 % 997,4 hPa 0,0 mm 5,1 km/h (1 Bft) W-SW 251 ° 0 min 0,000 mm 0,9 UV-I 146 W/m² 11,5 °C 12,8 °C 6,4 km/h (2 Bft)
29.06.2017 08:11 12,8 °C 12,8 °C 91 % 997,4 hPa 0,0 mm 5,0 km/h (1 Bft) W-NW 284 ° 0 min 0,000 mm 0,9 UV-I 132 W/m² 11,4 °C 12,8 °C 6,4 km/h (2 Bft)
29.06.2017 08:12 12,9 °C 12,9 °C 91 % 997,4 hPa 0,0 mm 5,4 km/h (1 Bft) W-SW 250 ° 0 min 0,000 mm 0,8 UV-I 125 W/m² 11,5 °C 12,9 °C 8,0 km/h (2 Bft)
29.06.2017 08:13 12,9 °C 12,9 °C 92 % 997,5 hPa 0,0 mm 4,6 km/h (1 Bft) SW 227 ° 0 min 0,000 mm 0,8 UV-I 123 W/m² 11,6 °C 12,9 °C 8,0 km/h (2 Bft)
29.06.2017 08:14 12,9 °C 12,9 °C 92 % 997,5 hPa 0,0 mm 7,1 km/h (2 Bft) W-SW 242 ° 0 min 0,000 mm 0,8 UV-I 123 W/m² 11,6 °C 12,9 °C 12,9 km/h (3 Bft)
29.06.2017 08:15 12,9 °C 12,9 °C 91 % 997,5 hPa 0,0 mm 2,6 km/h (1 Bft) W 277 ° 0 min 0,000 mm 0,8 UV-I 125 W/m² 11,5 °C 12,9 °C 9,7 km/h (2 Bft)
29.06.2017 08:16 12,9 °C 12,9 °C 91 % 997,5 hPa 0,0 mm 9,2 km/h (2 Bft) W 265 ° 0 min 0,000 mm 0,8 UV-I 125 W/m² 11,5 °C 12,9 °C 14,5 km/h (3 Bft)
29.06.2017 08:17 12,9 °C 12,9 °C 91 % 997,5 hPa 0,0 mm 6,1 km/h (2 Bft) W-SW 244 ° 0 min 0,000 mm 0,8 UV-I 125 W/m² 11,5 °C 12,9 °C 11,3 km/h (2 Bft)
29.06.2017 08:18 12,8 °C 12,9 °C 91 % 997,6 hPa 0,0 mm 7,2 km/h (2 Bft) W 262 ° 0 min 0,000 mm 0,8 UV-I 121 W/m² 11,4 °C 12,8 °C 11,3 km/h (2 Bft)
29.06.2017 08:19 12,8 °C 12,8 °C 91 % 997,6 hPa 0,0 mm 6,9 km/h (2 Bft) SW 220 ° 0 min 0,000 mm 0,8 UV-I 123 W/m² 11,4 °C 12,8 °C 11,3 km/h (2 Bft)
29.06.2017 08:20 12,8 °C 12,8 °C 91 % 997,6 hPa 0,0 mm 7,4 km/h (2 Bft) W 268 ° 0 min 0,000 mm 0,8 UV-I 125 W/m² 11,4 °C 12,8 °C 11,3 km/h (2 Bft)
29.06.2017 08:21 12,8 °C 12,8 °C 91 % 997,6 hPa 0,0 mm 7,4 km/h (2 Bft) W-SW 247 ° 0 min 0,000 mm 0,8 UV-I 123 W/m² 11,4 °C 12,8 °C 11,3 km/h (2 Bft)
29.06.2017 08:22 12,8 °C 12,8 °C 91 % 997,6 hPa 0,0 mm 6,9 km/h (2 Bft) W-SW 243 ° 0 min 0,000 mm 0,8 UV-I 123 W/m² 11,4 °C 12,8 °C 11,3 km/h (2 Bft)
29.06.2017 08:23 12,8 °C 12,8 °C 91 % 997,6 hPa 0,0 mm 6,2 km/h (2 Bft) W 263 ° 0 min 0,000 mm 0,8 UV-I 121 W/m² 11,4 °C 12,8 °C 11,3 km/h (2 Bft)
29.06.2017 08:24 12,8 °C 12,8 °C 91 % 997,6 hPa 0,0 mm 5,3 km/h (1 Bft) W 274 ° 0 min 0,000 mm 0,8 UV-I 121 W/m² 11,4 °C 12,8 °C 9,7 km/h (2 Bft)
29.06.2017 08:25 12,8 °C 12,8 °C 91 % 997,6 hPa 0,0 mm 6,4 km/h (2 Bft) W-SW 237 ° 0 min 0,000 mm 0,8 UV-I 120 W/m² 11,4 °C 12,8 °C 11,3 km/h (2 Bft)
29.06.2017 08:26 12,8 °C 12,8 °C 92 % 997,6 hPa 0,0 mm 4,4 km/h (1 Bft) W 259 ° 0 min 0,000 mm 0,8 UV-I 118 W/m² 11,5 °C 12,8 °C 8,0 km/h (2 Bft)
29.06.2017 08:27 12,8 °C 12,8 °C 92 % 997,6 hPa 0,0 mm 4,2 km/h (1 Bft) W-SW 258 ° 0 min 0,000 mm 0,8 UV-I 116 W/m² 11,5 °C 12,8 °C 6,4 km/h (2 Bft)
29.06.2017 08:28 12,8 °C 12,8 °C 92 % 997,6 hPa 0,0 mm 3,7 km/h (1 Bft) W 273 ° 0 min 0,000 mm 0,8 UV-I 111 W/m² 11,5 °C 12,8 °C 9,7 km/h (2 Bft)
29.06.2017 08:29 12,8 °C 12,8 °C 92 % 997,6 hPa 0,0 mm 5,2 km/h (1 Bft) W-SW 251 ° 0 min 0,000 mm 0,8 UV-I 104 W/m² 11,5 °C 12,8 °C 9,7 km/h (2 Bft)
29.06.2017 08:30 12,8 °C 12,8 °C 91 % 997,6 hPa 0,2 mm 2,2 km/h (1 Bft) W 261 ° 0 min 0,000 mm 0,6 UV-I 90 W/m² 11,4 °C 12,8 °C 6,4 km/h (2 Bft)
29.06.2017 08:31 12,8 °C 12,8 °C 92 % 997,6 hPa 0,0 mm 7,2 km/h (2 Bft) W-NW 299 ° 0 min 0,000 mm 0,5 UV-I 76 W/m² 11,5 °C 12,8 °C 16,1 km/h (3 Bft)
29.06.2017 08:32 12,8 °C 12,8 °C 92 % 997,7 hPa 0,0 mm 9,9 km/h (2 Bft) W-SW 241 ° 0 min 0,000 mm 0,5 UV-I 69 W/m² 11,5 °C 12,8 °C 14,5 km/h (3 Bft)
29.06.2017 08:33 12,7 °C 12,8 °C 92 % 997,7 hPa 0,0 mm 7,2 km/h (2 Bft) W-NW 284 ° 0 min 0,000 mm 0,0 UV-I 65 W/m² 11,4 °C 12,7 °C 11,3 km/h (2 Bft)
29.06.2017 08:34 12,7 °C 12,8 °C 92 % 997,8 hPa 0,0 mm 6,6 km/h (2 Bft) W 279 ° 0 min 0,000 mm 0,0 UV-I 63 W/m² 11,4 °C 12,7 °C 11,3 km/h (2 Bft)
29.06.2017 08:35 12,7 °C 12,7 °C 92 % 997,8 hPa 0,0 mm 9,5 km/h (2 Bft) SW 227 ° 0 min 0,000 mm 0,0 UV-I 58 W/m² 11,4 °C 12,7 °C 16,1 km/h (3 Bft)
29.06.2017 08:36 12,6 °C 12,7 °C 91 % 997,8 hPa 0,0 mm 4,3 km/h (1 Bft) SW 225 ° 0 min 0,000 mm 0,0 UV-I 54 W/m² 11,2 °C 12,6 °C 11,3 km/h (2 Bft)
29.06.2017 08:37 12,6 °C 12,6 °C 91 % 997,9 hPa 0,0 mm 8,6 km/h (2 Bft) W-SW 249 ° 0 min 0,000 mm 0,0 UV-I 49 W/m² 11,2 °C 12,6 °C 12,9 km/h (3 Bft)
29.06.2017 08:38 12,5 °C 12,6 °C 91 % 997,9 hPa 0,0 mm 6,7 km/h (2 Bft) W-SW 257 ° 0 min 0,000 mm 0,0 UV-I 42 W/m² 11,1 °C 12,5 °C 11,3 km/h (2 Bft)
29.06.2017 08:39 12,5 °C 12,6 °C 91 % 997,9 hPa 0,0 mm 6,8 km/h (2 Bft) W 261 ° 0 min 0,000 mm 0,0 UV-I 39 W/m² 11,1 °C 12,5 °C 9,7 km/h (2 Bft)
29.06.2017 08:40 12,5 °C 12,6 °C 92 % 997,9 hPa 0,0 mm 5,9 km/h (2 Bft) W-SW 257 ° 0 min 0,000 mm 0,0 UV-I 32 W/m² 11,2 °C 12,5 °C 9,7 km/h (2 Bft)
29.06.2017 08:41 12,5 °C 12,5 °C 92 % 997,9 hPa 0,0 mm 8,4 km/h (2 Bft) W 265 ° 0 min 0,000 mm 0,0 UV-I 35 W/m² 11,2 °C 12,5 °C 12,9 km/h (3 Bft)
29.06.2017 08:42 12,4 °C 12,5 °C 92 % 997,9 hPa 0,0 mm 9,0 km/h (2 Bft) W 281 ° 0 min 0,000 mm 0,0 UV-I 40 W/m² 11,1 °C 12,4 °C 14,5 km/h (3 Bft)
29.06.2017 08:43 12,4 °C 12,4 °C 92 % 997,9 hPa 0,0 mm 5,3 km/h (1 Bft) W-SW 250 ° 0 min 0,000 mm 0,0 UV-I 39 W/m² 11,1 °C 12,4 °C 12,9 km/h (3 Bft)
29.06.2017 08:44 12,4 °C 12,4 °C 92 % 997,9 hPa 0,0 mm 9,7 km/h (2 Bft) SW 232 ° 0 min 0,000 mm 0,0 UV-I 42 W/m² 11,1 °C 12,4 °C 16,1 km/h (3 Bft)
29.06.2017 08:45 12,4 °C 12,4 °C 93 % 997,9 hPa 0,0 mm 2,7 km/h (1 Bft) W-SW 252 ° 0 min 0,000 mm 0,0 UV-I 39 W/m² 11,3 °C 12,4 °C 4,8 km/h (1 Bft)
29.06.2017 08:46 12,3 °C 12,4 °C 93 % 998,0 hPa 0,0 mm 5,5 km/h (1 Bft) S 171 ° 0 min 0,000 mm 0,0 UV-I 30 W/m² 11,2 °C 12,3 °C 11,3 km/h (2 Bft)
29.06.2017 08:47 12,3 °C 12,4 °C 92 % 998,0 hPa 0,0 mm 4,3 km/h (1 Bft) W 268 ° 0 min 0,000 mm 0,0 UV-I 30 W/m² 11,0 °C 12,3 °C 6,4 km/h (2 Bft)
29.06.2017 08:48 12,3 °C 12,3 °C 92 % 998,0 hPa 0,2 mm 4,2 km/h (1 Bft) W-SW 246 ° 0 min 0,000 mm 0,0 UV-I 35 W/m² 11,0 °C 12,3 °C 9,7 km/h (2 Bft)
29.06.2017 08:49 12,3 °C 12,3 °C 92 % 998,1 hPa 0,0 mm 2,2 km/h (1 Bft) W-SW 246 ° 0 min 0,000 mm 0,0 UV-I 42 W/m² 11,0 °C 12,3 °C 4,8 km/h (1 Bft)
29.06.2017 08:50 12,3 °C 12,3 °C 92 % 998,2 hPa 0,0 mm 5,0 km/h (1 Bft) W 261 ° 0 min 0,000 mm 0,0 UV-I 49 W/m² 11,0 °C 12,3 °C 9,7 km/h (2 Bft)
29.06.2017 08:51 12,3 °C 12,3 °C 93 % 998,2 hPa 0,0 mm 5,2 km/h (1 Bft) W-SW 248 ° 0 min 0,000 mm 0,0 UV-I 56 W/m² 11,2 °C 12,3 °C 12,9 km/h (3 Bft)
29.06.2017 08:52 12,3 °C 12,3 °C 92 % 998,1 hPa 0,0 mm 6,4 km/h (2 Bft) SW 230 ° 0 min 0,000 mm 0,5 UV-I 70 W/m² 11,0 °C 12,3 °C 14,5 km/h (3 Bft)
29.06.2017 08:53 12,3 °C 12,3 °C 92 % 998,1 hPa 0,0 mm 6,2 km/h (2 Bft) SW 224 ° 0 min 0,000 mm 0,5 UV-I 72 W/m² 11,0 °C 12,3 °C 11,3 km/h (2 Bft)
29.06.2017 08:54 12,3 °C 12,3 °C 92 % 998,2 hPa 0,0 mm 6,3 km/h (2 Bft) W-SW 258 ° 0 min 0,000 mm 0,6 UV-I 77 W/m² 11,0 °C 12,3 °C 9,7 km/h (2 Bft)
29.06.2017 08:55 12,3 °C 12,3 °C 93 % 998,2 hPa 0,0 mm 6,3 km/h (2 Bft) W-SW 255 ° 0 min 0,000 mm 0,7 UV-I 90 W/m² 11,2 °C 12,3 °C 9,7 km/h (2 Bft)
29.06.2017 08:56 12,3 °C 12,3 °C 93 % 998,2 hPa 0,0 mm 6,1 km/h (2 Bft) W-SW 246 ° 0 min 0,000 mm 0,7 UV-I 98 W/m² 11,2 °C 12,3 °C 9,7 km/h (2 Bft)
29.06.2017 08:57 12,3 °C 12,3 °C 93 % 998,2 hPa 0,0 mm 3,6 km/h (1 Bft) W 260 ° 0 min 0,000 mm 0,8 UV-I 105 W/m² 11,2 °C 12,3 °C 6,4 km/h (2 Bft)
29.06.2017 08:58 12,3 °C 12,3 °C 93 % 998,1 hPa 0,0 mm 3,4 km/h (1 Bft) W 281 ° 0 min 0,000 mm 0,8 UV-I 118 W/m² 11,2 °C 12,3 °C 4,8 km/h (1 Bft)
29.06.2017 08:59 12,3 °C 12,3 °C 93 % 998,2 hPa 0,0 mm 6,2 km/h (2 Bft) W-SW 243 ° 0 min 0,000 mm 1,0 UV-I 128 W/m² 11,2 °C 12,3 °C 9,7 km/h (2 Bft)
29.06.2017 09:00 12,4 °C 12,4 °C 93 % 998,2 hPa 0,0 mm 2,7 km/h (1 Bft) W-SW 243 ° 0 min 0,050 mm 1,0 UV-I 139 W/m² 11,3 °C 12,4 °C 4,8 km/h (1 Bft)
29.06.2017 09:01 12,4 °C 12,4 °C 93 % 998,1 hPa 0,0 mm 3,0 km/h (1 Bft) W 268 ° 0 min 0,000 mm 1,1 UV-I 144 W/m² 11,3 °C 12,4 °C 4,8 km/h (1 Bft)
29.06.2017 09:02 12,5 °C 12,5 °C 93 % 998,1 hPa 0,0 mm 3,2 km/h (1 Bft) W-SW 253 ° 0 min 0,000 mm 1,1 UV-I 149 W/m² 11,4 °C 12,5 °C 4,8 km/h (1 Bft)
29.06.2017 09:03 12,5 °C 12,6 °C 93 % 998,1 hPa 0,0 mm 3,2 km/h (1 Bft) W-SW 257 ° 0 min 0,000 mm 1,2 UV-I 155 W/m² 11,4 °C 12,5 °C 4,8 km/h (1 Bft)
29.06.2017 09:04 12,6 °C 12,6 °C 93 % 998,1 hPa 0,0 mm 3,6 km/h (1 Bft) W-SW 254 ° 0 min 0,000 mm 1,2 UV-I 163 W/m² 11,5 °C 12,6 °C 6,4 km/h (2 Bft)
29.06.2017 09:05 12,7 °C 12,7 °C 94 % 998,1 hPa 0,0 mm 4,7 km/h (1 Bft) W 275 ° 0 min 0,000 mm 1,3 UV-I 167 W/m² 11,8 °C 12,7 °C 6,4 km/h (2 Bft)
29.06.2017 09:06 12,7 °C 12,7 °C 94 % 998,1 hPa 0,0 mm 3,4 km/h (1 Bft) W 261 ° 0 min 0,000 mm 1,3 UV-I 167 W/m² 11,8 °C 12,7 °C 4,8 km/h (1 Bft)
29.06.2017 09:07 12,7 °C 12,7 °C 93 % 998,1 hPa 0,0 mm 4,5 km/h (1 Bft) W 259 ° 0 min 0,000 mm 1,3 UV-I 169 W/m² 11,6 °C 12,7 °C 6,4 km/h (2 Bft)
29.06.2017 09:08 12,7 °C 12,7 °C 93 % 998,2 hPa 0,0 mm 4,7 km/h (1 Bft) W-NW 292 ° 0 min 0,000 mm 1,3 UV-I 169 W/m² 11,6 °C 12,7 °C 6,4 km/h (2 Bft)
29.06.2017 09:09 12,7 °C 12,7 °C 93 % 998,2 hPa 0,2 mm 5,2 km/h (1 Bft) W 259 ° 0 min 0,000 mm 1,1 UV-I 148 W/m² 11,6 °C 12,7 °C 8,0 km/h (2 Bft)
29.06.2017 09:10 12,7 °C 12,7 °C 93 % 998,2 hPa 0,0 mm 7,0 km/h (2 Bft) W 273 ° 0 min 0,000 mm 1,1 UV-I 151 W/m² 11,6 °C 12,7 °C 11,3 km/h (2 Bft)
29.06.2017 09:11 12,8 °C 12,8 °C 93 % 998,2 hPa 0,0 mm 4,2 km/h (1 Bft) W-SW 250 ° 0 min 0,000 mm 1,2 UV-I 162 W/m² 11,7 °C 12,8 °C 6,4 km/h (2 Bft)
29.06.2017 09:12 12,8 °C 12,8 °C 93 % 998,3 hPa 0,0 mm 4,3 km/h (1 Bft) W 264 ° 0 min 0,000 mm 1,3 UV-I 169 W/m² 11,7 °C 12,8 °C 6,4 km/h (2 Bft)
29.06.2017 09:13 12,8 °C 12,8 °C 93 % 998,2 hPa 0,0 mm 7,1 km/h (2 Bft) W 268 ° 0 min 0,000 mm 1,3 UV-I 167 W/m² 11,7 °C 12,8 °C 11,3 km/h (2 Bft)
29.06.2017 09:14 12,8 °C 12,9 °C 93 % 998,3 hPa 0,0 mm 5,2 km/h (1 Bft) W-NW 288 ° 0 min 0,000 mm 1,3 UV-I 176 W/m² 11,7 °C 12,8 °C 9,7 km/h (2 Bft)
29.06.2017 09:15 12,9 °C 12,9 °C 93 % 998,3 hPa 0,0 mm 7,2 km/h (2 Bft) W 265 ° 0 min 0,000 mm 1,4 UV-I 197 W/m² 11,8 °C 12,9 °C 16,1 km/h (3 Bft)
29.06.2017 09:16 12,9 °C 12,9 °C 93 % 998,3 hPa 0,0 mm 9,6 km/h (2 Bft) W 275 ° 0 min 0,000 mm 1,5 UV-I 207 W/m² 11,8 °C 12,9 °C 14,5 km/h (3 Bft)
29.06.2017 09:17 12,9 °C 12,9 °C 93 % 998,3 hPa 0,0 mm 5,8 km/h (2 Bft) W 278 ° 0 min 0,000 mm 1,6 UV-I 216 W/m² 11,8 °C 12,9 °C 9,7 km/h (2 Bft)
29.06.2017 09:18 13,0 °C 13,0 °C 93 % 998,2 hPa 0,0 mm 9,7 km/h (2 Bft) W 275 ° 0 min 0,000 mm 1,7 UV-I 225 W/m² 11,9 °C 13,0 °C 14,5 km/h (3 Bft)
29.06.2017 09:19 13,1 °C 13,1 °C 93 % 998,3 hPa 0,0 mm 5,0 km/h (1 Bft) W-NW 293 ° 0 min 0,000 mm 1,8 UV-I 237 W/m² 12,0 °C 13,1 °C 11,3 km/h (2 Bft)
29.06.2017 09:20 13,1 °C 13,1 °C 93 % 998,3 hPa 0,0 mm 6,2 km/h (2 Bft) W-SW 254 ° 0 min 0,000 mm 1,9 UV-I 265 W/m² 12,0 °C 13,1 °C 12,9 km/h (3 Bft)
29.06.2017 09:21 13,1 °C 13,1 °C 93 % 998,3 hPa 0,0 mm 10,3 km/h (2 Bft) W 275 ° 0 min 0,000 mm 1,9 UV-I 274 W/m² 12,0 °C 13,1 °C 17,7 km/h (3 Bft)
29.06.2017 09:22 13,1 °C 13,1 °C 93 % 998,3 hPa 0,0 mm 7,4 km/h (2 Bft) W-NW 292 ° 0 min 0,000 mm 1,9 UV-I 269 W/m² 12,0 °C 13,1 °C 11,3 km/h (2 Bft)
29.06.2017 09:23 13,1 °C 13,1 °C 93 % 998,3 hPa 0,0 mm 6,0 km/h (2 Bft) W-NW 282 ° 0 min 0,000 mm 1,8 UV-I 246 W/m² 12,0 °C 13,1 °C 9,7 km/h (2 Bft)
29.06.2017 09:24 13,1 °C 13,1 °C 92 % 998,3 hPa 0,0 mm 10,3 km/h (2 Bft) W 266 ° 0 min 0,000 mm 1,7 UV-I 246 W/m² 11,8 °C 13,1 °C 14,5 km/h (3 Bft)
29.06.2017 09:25 13,2 °C 13,2 °C 93 % 998,4 hPa 0,0 mm 9,8 km/h (2 Bft) W-NW 285 ° 0 min 0,000 mm 1,5 UV-I 221 W/m² 12,1 °C 13,2 °C 14,5 km/h (3 Bft)
29.06.2017 09:26 13,2 °C 13,2 °C 93 % 998,4 hPa 0,2 mm 6,0 km/h (2 Bft) W-NW 302 ° 0 min 0,000 mm 1,3 UV-I 178 W/m² 12,1 °C 13,2 °C 9,7 km/h (2 Bft)
29.06.2017 09:27 13,3 °C 13,3 °C 93 % 998,4 hPa 0,0 mm 8,2 km/h (2 Bft) W-SW 257 ° 0 min 0,000 mm 1,3 UV-I 169 W/m² 12,2 °C 13,3 °C 12,9 km/h (3 Bft)
29.06.2017 09:28 13,2 °C 13,3 °C 93 % 998,4 hPa 0,0 mm 12,7 km/h (3 Bft) NW 324 ° 0 min 0,000 mm 1,2 UV-I 156 W/m² 12,1 °C 13,2 °C 19,3 km/h (3 Bft)
29.06.2017 09:29 13,2 °C 13,2 °C 93 % 998,4 hPa 0,0 mm 14,5 km/h (3 Bft) W-NW 283 ° 0 min 0,000 mm 1,2 UV-I 155 W/m² 12,1 °C 13,2 °C 17,7 km/h (3 Bft)
29.06.2017 09:30 13,1 °C 13,2 °C 92 % 998,4 hPa 0,0 mm 10,3 km/h (2 Bft) W-SW 248 ° 0 min 0,000 mm 1,2 UV-I 156 W/m² 11,8 °C 13,1 °C 12,9 km/h (3 Bft)
29.06.2017 09:31 13,1 °C 13,1 °C 92 % 998,5 hPa 0,0 mm 9,3 km/h (2 Bft) W-SW 256 ° 0 min 0,000 mm 1,3 UV-I 156 W/m² 11,8 °C 13,1 °C 12,9 km/h (3 Bft)
29.06.2017 09:32 13,0 °C 13,1 °C 92 % 998,4 hPa 0,0 mm 6,5 km/h (2 Bft) W-SW 256 ° 0 min 0,000 mm 1,4 UV-I 167 W/m² 11,7 °C 13,0 °C 11,3 km/h (2 Bft)
29.06.2017 09:33 13,0 °C 13,1 °C 93 % 998,4 hPa 0,0 mm 5,9 km/h (2 Bft) W 267 ° 0 min 0,000 mm 1,5 UV-I 195 W/m² 11,9 °C 13,0 °C 11,3 km/h (2 Bft)
29.06.2017 09:34 13,0 °C 13,1 °C 93 % 998,5 hPa 0,0 mm 4,9 km/h (1 Bft) W-SW 254 ° 0 min 0,000 mm 1,7 UV-I 225 W/m² 11,9 °C 13,0 °C 8,0 km/h (2 Bft)
29.06.2017 09:35 13,1 °C 13,1 °C 93 % 998,5 hPa 0,0 mm 8,0 km/h (2 Bft) NW 325 ° 0 min 0,000 mm 1,7 UV-I 232 W/m² 12,0 °C 13,1 °C 20,9 km/h (4 Bft)
29.06.2017 09:36 13,1 °C 13,1 °C 93 % 998,4 hPa 0,0 mm 11,9 km/h (2 Bft) W-SW 246 ° 0 min 0,000 mm 1,7 UV-I 229 W/m² 12,0 °C 13,1 °C 20,9 km/h (4 Bft)
29.06.2017 09:37 13,1 °C 13,1 °C 93 % 998,5 hPa 0,0 mm 11,8 km/h (2 Bft) W-SW 246 ° 0 min 0,000 mm 1,6 UV-I 214 W/m² 12,0 °C 13,1 °C 16,1 km/h (3 Bft)
29.06.2017 09:38 13,1 °C 13,1 °C 93 % 998,5 hPa 0,0 mm 5,7 km/h (1 Bft) W-SW 251 ° 0 min 0,000 mm 1,5 UV-I 206 W/m² 12,0 °C 13,1 °C 11,3 km/h (2 Bft)
29.06.2017 09:39 13,1 °C 13,1 °C 93 % 998,5 hPa 0,2 mm 9,6 km/h (2 Bft) W-NW 300 ° 0 min 0,000 mm 1,5 UV-I 218 W/m² 12,0 °C 13,1 °C 14,5 km/h (3 Bft)
29.06.2017 09:40 13,0 °C 13,1 °C 92 % 998,5 hPa 0,0 mm 6,2 km/h (2 Bft) W-SW 246 ° 0 min 0,000 mm 1,8 UV-I 234 W/m² 11,7 °C 13,0 °C 12,9 km/h (3 Bft)
29.06.2017 09:41 13,1 °C 13,1 °C 93 % 998,5 hPa 0,0 mm 7,3 km/h (2 Bft) W-SW 242 ° 0 min 0,000 mm 2,0 UV-I 253 W/m² 12,0 °C 13,1 °C 12,9 km/h (3 Bft)
29.06.2017 09:42 13,1 °C 13,1 °C 93 % 998,5 hPa 0,0 mm 8,4 km/h (2 Bft) SW 234 ° 0 min 0,000 mm 2,1 UV-I 274 W/m² 12,0 °C 13,1 °C 16,1 km/h (3 Bft)
29.06.2017 09:43 13,1 °C 13,1 °C 93 % 998,5 hPa 0,0 mm 3,9 km/h (1 Bft) W-SW 246 ° 0 min 0,000 mm 2,2 UV-I 288 W/m² 12,0 °C 13,1 °C 6,4 km/h (2 Bft)
29.06.2017 09:44 13,2 °C 13,2 °C 93 % 998,6 hPa 0,0 mm 4,7 km/h (1 Bft) W-SW 244 ° 1 min 0,000 mm 2,2 UV-I 295 W/m² 12,1 °C 13,2 °C 9,7 km/h (2 Bft)
29.06.2017 09:45 13,2 °C 13,2 °C 93 % 998,6 hPa 0,0 mm 3,1 km/h (1 Bft) W-SW 258 ° 1 min 0,000 mm 2,2 UV-I 316 W/m² 12,1 °C 13,2 °C 4,8 km/h (1 Bft)
29.06.2017 09:46 13,3 °C 13,3 °C 93 % 998,6 hPa 0,0 mm 5,4 km/h (1 Bft) W 263 ° 1 min 0,000 mm 2,3 UV-I 341 W/m² 12,2 °C 13,3 °C 9,7 km/h (2 Bft)
29.06.2017 09:47 13,5 °C 13,5 °C 93 % 998,6 hPa 0,0 mm 8,6 km/h (2 Bft) W-SW 248 ° 1 min 0,000 mm 2,4 UV-I 338 W/m² 12,4 °C 13,5 °C 16,1 km/h (3 Bft)
29.06.2017 09:48 13,6 °C 13,6 °C 94 % 998,6 hPa 0,0 mm 8,4 km/h (2 Bft) W-SW 258 ° 1 min 0,000 mm 2,5 UV-I 355 W/m² 12,7 °C 13,6 °C 12,9 km/h (3 Bft)
29.06.2017 09:49 13,6 °C 13,6 °C 93 % 998,6 hPa 0,0 mm 5,2 km/h (1 Bft) W 268 ° 1 min 0,000 mm 2,8 UV-I 413 W/m² 12,5 °C 13,6 °C 11,3 km/h (2 Bft)
29.06.2017 09:50 13,7 °C 13,7 °C 93 % 998,5 hPa 0,0 mm 5,1 km/h (1 Bft) W 261 ° 1 min 0,000 mm 3,6 UV-I 492 W/m² 12,6 °C 13,7 °C 9,7 km/h (2 Bft)
29.06.2017 09:51 13,8 °C 13,8 °C 93 % 998,6 hPa 0,0 mm 5,1 km/h (1 Bft) W 259 ° 1 min 0,000 mm 3,3 UV-I 499 W/m² 12,7 °C 13,8 °C 9,7 km/h (2 Bft)
29.06.2017 09:52 14,0 °C 14,0 °C 93 % 998,6 hPa 0,0 mm 4,7 km/h (1 Bft) W-SW 248 ° 1 min 0,000 mm 3,5 UV-I 448 W/m² 12,9 °C 14,0 °C 11,3 km/h (2 Bft)
29.06.2017 09:53 14,1 °C 14,1 °C 93 % 998,6 hPa 0,0 mm 8,2 km/h (2 Bft) W-SW 254 ° 1 min 0,000 mm 3,1 UV-I 432 W/m² 13,0 °C 14,1 °C 12,9 km/h (3 Bft)
29.06.2017 09:54 14,1 °C 14,1 °C 92 % 998,6 hPa 0,0 mm 4,3 km/h (1 Bft) W-NW 298 ° 1 min 0,000 mm 2,8 UV-I 371 W/m² 12,8 °C 14,1 °C 6,4 km/h (2 Bft)
29.06.2017 09:55 14,2 °C 14,2 °C 92 % 998,5 hPa 0,0 mm 5,4 km/h (1 Bft) W 277 ° 1 min 0,000 mm 2,8 UV-I 390 W/m² 12,9 °C 14,2 °C 17,7 km/h (3 Bft)
29.06.2017 09:56 14,2 °C 14,2 °C 92 % 998,6 hPa 0,0 mm 12,0 km/h (2 Bft) W 271 ° 1 min 0,000 mm 2,8 UV-I 404 W/m² 12,9 °C 14,2 °C 17,7 km/h (3 Bft)
29.06.2017 09:57 14,2 °C 14,2 °C 91 % 998,6 hPa 0,0 mm 8,8 km/h (2 Bft) W 265 ° 1 min 0,000 mm 2,8 UV-I 332 W/m² 12,8 °C 14,2 °C 17,7 km/h (3 Bft)
29.06.2017 09:58 14,1 °C 14,2 °C 91 % 998,5 hPa 0,0 mm 7,4 km/h (2 Bft) W 276 ° 1 min 0,000 mm 2,6 UV-I 322 W/m² 12,7 °C 14,1 °C 11,3 km/h (2 Bft)
29.06.2017 09:59 14,2 °C 14,2 °C 92 % 998,5 hPa 0,0 mm 10,3 km/h (2 Bft) W-NW 285 ° 1 min 0,000 mm 2,6 UV-I 323 W/m² 12,9 °C 14,2 °C 17,7 km/h (3 Bft)
29.06.2017 10:00 14,2 °C 14,2 °C 90 % 998,5 hPa 0,0 mm 12,2 km/h (2 Bft) W 272 ° 1 min 0,000 mm 2,6 UV-I 320 W/m² 12,6 °C 14,2 °C 16,1 km/h (3 Bft)
29.06.2017 10:01 14,2 °C 14,2 °C 91 % 998,6 hPa 0,0 mm 13,0 km/h (3 Bft) W-NW 292 ° 1 min 0,127 mm 2,6 UV-I 315 W/m² 12,8 °C 14,2 °C 25,7 km/h (4 Bft)
29.06.2017 10:02 14,2 °C 14,2 °C 90 % 998,5 hPa 0,0 mm 10,4 km/h (2 Bft) W-SW 251 ° 1 min 0,000 mm 2,6 UV-I 320 W/m² 12,6 °C 14,2 °C 14,5 km/h (3 Bft)
29.06.2017 10:03 14,2 °C 14,2 °C 91 % 998,6 hPa 0,0 mm 3,6 km/h (1 Bft) S-SW 210 ° 1 min 0,000 mm 2,6 UV-I 322 W/m² 12,8 °C 14,2 °C 8,0 km/h (2 Bft)
29.06.2017 10:04 14,1 °C 14,2 °C 91 % 998,5 hPa 0,0 mm 6,4 km/h (2 Bft) W 267 ° 1 min 0,000 mm 2,6 UV-I 323 W/m² 12,7 °C 14,1 °C 9,7 km/h (2 Bft)
29.06.2017 10:05 14,2 °C 14,2 °C 91 % 998,4 hPa 0,0 mm 4,4 km/h (1 Bft) W-SW 247 ° 1 min 0,000 mm 2,6 UV-I 309 W/m² 12,8 °C 14,2 °C 6,4 km/h (2 Bft)
29.06.2017 10:06 14,2 °C 14,2 °C 91 % 998,4 hPa 0,0 mm 5,0 km/h (1 Bft) W 260 ° 1 min 0,000 mm 2,6 UV-I 325 W/m² 12,8 °C 14,2 °C 6,4 km/h (2 Bft)
29.06.2017 10:07 14,2 °C 14,2 °C 91 % 998,4 hPa 0,0 mm 8,3 km/h (2 Bft) W-NW 288 ° 1 min 0,000 mm 2,6 UV-I 322 W/m² 12,8 °C 14,2 °C 12,9 km/h (3 Bft)
29.06.2017 10:08 14,2 °C 14,2 °C 90 % 998,4 hPa 0,0 mm 6,5 km/h (2 Bft) W-SW 241 ° 1 min 0,000 mm 2,6 UV-I 320 W/m² 12,6 °C 14,2 °C 11,3 km/h (2 Bft)
29.06.2017 10:09 14,2 °C 14,2 °C 91 % 998,5 hPa 0,0 mm 16,7 km/h (3 Bft) W-NW 289 ° 1 min 0,000 mm 2,6 UV-I 315 W/m² 12,8 °C 14,2 °C 25,7 km/h (4 Bft)
29.06.2017 10:10 14,2 °C 14,2 °C 90 % 998,5 hPa 0,0 mm 16,7 km/h (3 Bft) W 265 ° 1 min 0,000 mm 2,6 UV-I 322 W/m² 12,6 °C 14,2 °C 25,7 km/h (4 Bft)
29.06.2017 10:11 14,1 °C 14,2 °C 90 % 998,5 hPa 0,0 mm 9,0 km/h (2 Bft) W 259 ° 1 min 0,000 mm 2,6 UV-I 320 W/m² 12,5 °C 14,1 °C 14,5 km/h (3 Bft)
29.06.2017 10:12 14,1 °C 14,1 °C 90 % 998,5 hPa 0,0 mm 6,2 km/h (2 Bft) W 278 ° 1 min 0,000 mm 2,6 UV-I 320 W/m² 12,5 °C 14,1 °C 12,9 km/h (3 Bft)
29.06.2017 10:13 14,1 °C 14,1 °C 90 % 998,5 hPa 0,0 mm 5,9 km/h (2 Bft) W-SW 252 ° 1 min 0,000 mm 2,6 UV-I 325 W/m² 12,5 °C 14,1 °C 14,5 km/h (3 Bft)
29.06.2017 10:14 14,2 °C 14,2 °C 91 % 998,5 hPa 0,0 mm 9,0 km/h (2 Bft) W-SW 257 ° 1 min 0,000 mm 2,6 UV-I 329 W/m² 12,8 °C 14,2 °C 14,5 km/h (3 Bft)
29.06.2017 10:15 14,1 °C 14,2 °C 91 % 998,5 hPa 0,0 mm 12,3 km/h (3 Bft) W-NW 286 ° 1 min 0,000 mm 2,7 UV-I 332 W/m² 12,7 °C 14,1 °C 19,3 km/h (3 Bft)
29.06.2017 10:16 14,2 °C 14,2 °C 90 % 998,4 hPa 0,0 mm 9,0 km/h (2 Bft) W-SW 257 ° 1 min 0,000 mm 2,7 UV-I 341 W/m² 12,6 °C 14,2 °C 12,9 km/h (3 Bft)
29.06.2017 10:17 14,2 °C 14,2 °C 90 % 998,5 hPa 0,0 mm 4,1 km/h (1 Bft) SW 222 ° 1 min 0,000 mm 2,7 UV-I 348 W/m² 12,6 °C 14,2 °C 6,4 km/h (2 Bft)
29.06.2017 10:18 14,2 °C 14,2 °C 90 % 998,5 hPa 0,0 mm 7,0 km/h (2 Bft) W 274 ° 1 min 0,000 mm 2,8 UV-I 348 W/m² 12,6 °C 14,2 °C 14,5 km/h (3 Bft)
29.06.2017 10:19 14,2 °C 14,2 °C 90 % 998,5 hPa 0,0 mm 14,4 km/h (3 Bft) W 280 ° 1 min 0,000 mm 2,8 UV-I 362 W/m² 12,6 °C 14,2 °C 19,3 km/h (3 Bft)
29.06.2017 10:20 14,2 °C 14,2 °C 90 % 998,5 hPa 0,0 mm 6,4 km/h (2 Bft) W 262 ° 1 min 0,000 mm 2,8 UV-I 371 W/m² 12,6 °C 14,2 °C 11,3 km/h (2 Bft)
29.06.2017 10:21 14,3 °C 14,3 °C 91 % 998,5 hPa 0,0 mm 4,9 km/h (1 Bft) W-NW 290 ° 1 min 0,000 mm 2,9 UV-I 373 W/m² 12,8 °C 14,3 °C 8,0 km/h (2 Bft)
29.06.2017 10:22 14,3 °C 14,4 °C 91 % 998,5 hPa 0,0 mm 3,8 km/h (1 Bft) W-SW 246 ° 1 min 0,000 mm 3,0 UV-I 366 W/m² 12,8 °C 14,3 °C 6,4 km/h (2 Bft)
29.06.2017 10:23 14,4 °C 14,4 °C 91 % 998,5 hPa 0,0 mm 8,1 km/h (2 Bft) W-NW 289 ° 1 min 0,000 mm 3,2 UV-I 396 W/m² 12,9 °C 14,4 °C 12,9 km/h (3 Bft)
29.06.2017 10:24 14,5 °C 14,5 °C 91 % 998,5 hPa 0,0 mm 8,5 km/h (2 Bft) W 269 ° 1 min 0,000 mm 3,5 UV-I 438 W/m² 13,0 °C 14,5 °C 12,9 km/h (3 Bft)
29.06.2017 10:25 14,6 °C 14,6 °C 90 % 998,4 hPa 0,0 mm 11,1 km/h (2 Bft) W 262 ° 1 min 0,000 mm 3,4 UV-I 452 W/m² 13,0 °C 14,6 °C 16,1 km/h (3 Bft)
29.06.2017 10:26 14,6 °C 14,6 °C 90 % 998,5 hPa 0,0 mm 6,6 km/h (2 Bft) W 276 ° 1 min 0,000 mm 3,3 UV-I 413 W/m² 13,0 °C 14,6 °C 16,1 km/h (3 Bft)
29.06.2017 10:27 14,6 °C 14,7 °C 90 % 998,4 hPa 0,0 mm 6,8 km/h (2 Bft) W 279 ° 1 min 0,000 mm 3,3 UV-I 406 W/m² 13,0 °C 14,6 °C 9,7 km/h (2 Bft)
29.06.2017 10:28 14,7 °C 14,7 °C 90 % 998,5 hPa 0,0 mm 5,1 km/h (1 Bft) W 266 ° 1 min 0,000 mm 3,3 UV-I 401 W/m² 13,1 °C 14,7 °C 6,4 km/h (2 Bft)
29.06.2017 10:29 14,8 °C 14,8 °C 91 % 998,5 hPa 0,0 mm 5,3 km/h (1 Bft) W-NW 295 ° 1 min 0,000 mm 3,5 UV-I 427 W/m² 13,3 °C 14,8 °C 6,4 km/h (2 Bft)
29.06.2017 10:30 14,8 °C 14,8 °C 90 % 998,4 hPa 0,0 mm 5,8 km/h (2 Bft) W 277 ° 1 min 0,000 mm 3,5 UV-I 455 W/m² 13,2 °C 14,8 °C 11,3 km/h (2 Bft)
29.06.2017 10:31 14,9 °C 14,9 °C 89 % 998,4 hPa 0,0 mm 8,2 km/h (2 Bft) W-NW 284 ° 1 min 0,000 mm 3,4 UV-I 424 W/m² 13,1 °C 14,9 °C 11,3 km/h (2 Bft)
29.06.2017 10:32 14,8 °C 14,9 °C 89 % 998,5 hPa 0,0 mm 16,0 km/h (3 Bft) W-SW 257 ° 1 min 0,000 mm 3,2 UV-I 371 W/m² 13,0 °C 14,8 °C 19,3 km/h (3 Bft)
29.06.2017 10:33 14,7 °C 14,8 °C 87 % 998,4 hPa 0,0 mm 5,6 km/h (1 Bft) W-SW 252 ° 1 min 0,000 mm 3,3 UV-I 380 W/m² 12,6 °C 14,7 °C 9,7 km/h (2 Bft)
29.06.2017 10:34 14,7 °C 14,7 °C 87 % 998,5 hPa 0,0 mm 8,6 km/h (2 Bft) W 269 ° 1 min 0,000 mm 3,3 UV-I 383 W/m² 12,6 °C 14,7 °C 14,5 km/h (3 Bft)
29.06.2017 10:35 14,7 °C 14,7 °C 88 % 998,5 hPa 0,0 mm 3,6 km/h (1 Bft) W 259 ° 1 min 0,000 mm 3,3 UV-I 380 W/m² 12,7 °C 14,7 °C 6,4 km/h (2 Bft)
29.06.2017 10:36 14,8 °C 14,8 °C 89 % 998,4 hPa 0,0 mm 8,7 km/h (2 Bft) W-NW 284 ° 1 min 0,000 mm 4,0 UV-I 455 W/m² 13,0 °C 14,8 °C 16,1 km/h (3 Bft)
29.06.2017 10:37 14,9 °C 14,9 °C 90 % 998,5 hPa 0,0 mm 5,4 km/h (1 Bft) W-SW 244 ° 1 min 0,000 mm 4,8 UV-I 455 W/m² 13,3 °C 14,9 °C 9,7 km/h (2 Bft)
29.06.2017 10:38 15,1 °C 15,1 °C 91 % 998,5 hPa 0,0 mm 6,6 km/h (2 Bft) W-SW 242 ° 1 min 0,000 mm 4,3 UV-I 455 W/m² 13,6 °C 15,1 °C 16,1 km/h (3 Bft)
29.06.2017 10:39 15,3 °C 15,3 °C 88 % 998,5 hPa 0,0 mm 12,3 km/h (3 Bft) W 279 ° 1 min 0,000 mm 3,6 UV-I 424 W/m² 13,3 °C 15,3 °C 19,3 km/h (3 Bft)
29.06.2017 10:40 15,3 °C 15,3 °C 88 % 998,6 hPa 0,0 mm 8,3 km/h (2 Bft) W-SW 237 ° 1 min 0,000 mm 3,8 UV-I 492 W/m² 13,3 °C 15,3 °C 11,3 km/h (2 Bft)
29.06.2017 10:41 15,4 °C 15,4 °C 89 % 998,6 hPa 0,0 mm 10,4 km/h (2 Bft) W 260 ° 1 min 0,000 mm 3,8 UV-I 503 W/m² 13,6 °C 15,4 °C 12,9 km/h (3 Bft)
29.06.2017 10:42 15,4 °C 15,4 °C 87 % 998,6 hPa 0,0 mm 9,7 km/h (2 Bft) S 171 ° 1 min 0,000 mm 3,4 UV-I 503 W/m² 13,2 °C 15,4 °C 14,5 km/h (3 Bft)
29.06.2017 10:43 15,3 °C 15,4 °C 86 % 998,6 hPa 0,0 mm 8,9 km/h (2 Bft) NW 306 ° 1 min 0,000 mm 3,1 UV-I 332 W/m² 13,0 °C 15,3 °C 12,9 km/h (3 Bft)
29.06.2017 10:44 15,3 °C 15,3 °C 86 % 998,6 hPa 0,0 mm 3,2 km/h (1 Bft) W-SW 239 ° 1 min 0,000 mm 3,1 UV-I 332 W/m² 13,0 °C 15,3 °C 6,4 km/h (2 Bft)
29.06.2017 10:45 15,3 °C 15,3 °C 87 % 998,6 hPa 0,0 mm 5,5 km/h (1 Bft) W-NW 301 ° 1 min 0,000 mm 3,2 UV-I 362 W/m² 13,1 °C 15,3 °C 11,3 km/h (2 Bft)
29.06.2017 10:46 15,2 °C 15,3 °C 86 % 998,5 hPa 0,0 mm 10,4 km/h (2 Bft) W-SW 257 ° 1 min 0,000 mm 3,7 UV-I 443 W/m² 12,9 °C 15,2 °C 14,5 km/h (3 Bft)
29.06.2017 10:47 15,2 °C 15,3 °C 87 % 998,6 hPa 0,0 mm 6,9 km/h (2 Bft) W 261 ° 1 min 0,000 mm 3,4 UV-I 438 W/m² 13,0 °C 15,2 °C 11,3 km/h (2 Bft)
29.06.2017 10:48 15,2 °C 15,3 °C 88 % 998,5 hPa 0,0 mm 3,6 km/h (1 Bft) NW 313 ° 1 min 0,000 mm 3,0 UV-I 438 W/m² 13,2 °C 15,2 °C 4,8 km/h (1 Bft)
29.06.2017 10:49 15,2 °C 15,2 °C 86 % 998,5 hPa 0,0 mm 6,4 km/h (2 Bft) SW 222 ° 0 min 0,000 mm 2,9 UV-I 281 W/m² 12,9 °C 15,2 °C 12,9 km/h (3 Bft)
29.06.2017 10:50 15,2 °C 15,2 °C 86 % 998,6 hPa 0,0 mm 7,5 km/h (2 Bft) W 266 ° 1 min 0,000 mm 3,1 UV-I 304 W/m² 12,9 °C 15,2 °C 14,5 km/h (3 Bft)
29.06.2017 10:51 15,2 °C 15,2 °C 86 % 998,6 hPa 0,0 mm 5,6 km/h (1 Bft) W 264 ° 1 min 0,000 mm 3,2 UV-I 383 W/m² 12,9 °C 15,2 °C 9,7 km/h (2 Bft)
29.06.2017 10:52 15,1 °C 15,2 °C 84 % 998,5 hPa 0,0 mm 5,8 km/h (2 Bft) W-SW 246 ° 1 min 0,000 mm 2,9 UV-I 383 W/m² 12,4 °C 15,1 °C 14,5 km/h (3 Bft)
29.06.2017 10:53 14,9 °C 15,1 °C 84 % 998,6 hPa 0,0 mm 3,7 km/h (1 Bft) SW 235 ° 1 min 0,000 mm 3,7 UV-I 373 W/m² 12,2 °C 14,9 °C 6,4 km/h (2 Bft)
29.06.2017 10:54 14,9 °C 15,0 °C 86 % 998,6 hPa 0,0 mm 8,2 km/h (2 Bft) W 261 ° 1 min 0,000 mm 4,0 UV-I 373 W/m² 12,6 °C 14,9 °C 12,9 km/h (3 Bft)
29.06.2017 10:55 15,0 °C 15,1 °C 85 % 998,5 hPa 0,0 mm 2,0 km/h (1 Bft) W 259 ° 1 min 0,000 mm 4,1 UV-I 455 W/m² 12,5 °C 15,0 °C 3,2 km/h (1 Bft)
29.06.2017 10:56 15,1 °C 15,1 °C 85 % 998,6 hPa 0,0 mm 3,4 km/h (1 Bft) W-SW 253 ° 1 min 0,000 mm 3,2 UV-I 455 W/m² 12,6 °C 15,1 °C 4,8 km/h (1 Bft)
29.06.2017 10:57 15,1 °C 15,1 °C 85 % 998,5 hPa 0,0 mm 3,2 km/h (1 Bft) W-SW 248 ° 1 min 0,000 mm 3,2 UV-I 316 W/m² 12,6 °C 15,1 °C 8,0 km/h (2 Bft)
29.06.2017 10:58 15,2 °C 15,2 °C 87 % 998,5 hPa 0,0 mm 2,1 km/h (1 Bft) W-SW 248 ° 1 min 0,000 mm 5,7 UV-I 316 W/m² 13,0 °C 15,2 °C 4,8 km/h (1 Bft)
29.06.2017 10:59 15,3 °C 15,3 °C 87 % 998,5 hPa 0,0 mm 0,1 km/h (0 Bft) W-SW 248 ° 1 min 0,000 mm 4,8 UV-I 800 W/m² 13,1 °C 15,3 °C 1,6 km/h (1 Bft)
29.06.2017 11:00 15,6 °C 15,6 °C 86 % 998,4 hPa 0,0 mm 7,2 km/h (2 Bft) W 280 ° 1 min 0,000 mm 5,3 UV-I 842 W/m² 13,3 °C 15,6 °C 12,9 km/h (3 Bft)
29.06.2017 11:01 15,7 °C 15,7 °C 85 % 998,4 hPa 0,0 mm 8,0 km/h (2 Bft) W 279 ° 1 min 0,229 mm 4,5 UV-I 842 W/m² 13,2 °C 15,7 °C 12,9 km/h (3 Bft)
29.06.2017 11:02 15,8 °C 15,8 °C 85 % 998,4 hPa 0,0 mm 10,5 km/h (2 Bft) W 275 ° 1 min 0,000 mm 5,8 UV-I 882 W/m² 13,3 °C 15,8 °C 16,1 km/h (3 Bft)
29.06.2017 11:03 16,0 °C 16,0 °C 84 % 998,3 hPa 0,0 mm 9,4 km/h (2 Bft) W-NW 282 ° 1 min 0,000 mm 5,8 UV-I 874 W/m² 13,3 °C 16,0 °C 11,3 km/h (2 Bft)
29.06.2017 11:04 16,1 °C 16,1 °C 84 % 998,3 hPa 0,0 mm 8,9 km/h (2 Bft) W-NW 293 ° 1 min 0,000 mm 5,7 UV-I 872 W/m² 13,4 °C 16,1 °C 16,1 km/h (3 Bft)
29.06.2017 11:05 16,3 °C 16,3 °C 85 % 998,4 hPa 0,0 mm 11,6 km/h (2 Bft) W-SW 256 ° 1 min 0,000 mm 5,7 UV-I 844 W/m² 13,8 °C 16,3 °C 14,5 km/h (3 Bft)
29.06.2017 11:06 16,4 °C 16,4 °C 79 % 998,3 hPa 0,0 mm 7,5 km/h (2 Bft) W-NW 301 ° 1 min 0,000 mm 5,8 UV-I 860 W/m² 12,7 °C 16,4 °C 12,9 km/h (3 Bft)
29.06.2017 11:07 16,6 °C 16,6 °C 83 % 998,3 hPa 0,0 mm 14,6 km/h (3 Bft) W 268 ° 1 min 0,000 mm 5,9 UV-I 879 W/m² 13,7 °C 16,6 °C 16,1 km/h (3 Bft)
29.06.2017 11:08 16,7 °C 16,7 °C 80 % 998,4 hPa 0,0 mm 20,8 km/h (4 Bft) W 277 ° 1 min 0,000 mm 5,9 UV-I 865 W/m² 13,2 °C 16,7 °C 30,6 km/h (5 Bft)
29.06.2017 11:09 16,7 °C 16,7 °C 78 % 998,4 hPa 0,0 mm 18,7 km/h (3 Bft) W 269 ° 1 min 0,000 mm 6,0 UV-I 872 W/m² 12,8 °C 16,7 °C 25,7 km/h (4 Bft)
29.06.2017 11:10 16,7 °C 16,7 °C 76 % 998,4 hPa 0,0 mm 12,3 km/h (3 Bft) W-SW 258 ° 1 min 0,000 mm 6,0 UV-I 865 W/m² 12,4 °C 16,7 °C 17,7 km/h (3 Bft)
29.06.2017 11:11 16,7 °C 16,7 °C 75 % 998,4 hPa 0,0 mm 7,5 km/h (2 Bft) W 267 ° 1 min 0,000 mm 6,0 UV-I 860 W/m² 12,2 °C 16,7 °C 16,1 km/h (3 Bft)
29.06.2017 11:12 16,7 °C 16,7 °C 77 % 998,4 hPa 0,0 mm 6,1 km/h (2 Bft) SW 223 ° 1 min 0,000 mm 6,0 UV-I 854 W/m² 12,6 °C 16,7 °C 12,9 km/h (3 Bft)
29.06.2017 11:13 16,7 °C 16,7 °C 76 % 998,4 hPa 0,0 mm 8,7 km/h (2 Bft) W-SW 251 ° 1 min 0,000 mm 6,1 UV-I 860 W/m² 12,4 °C 16,7 °C 17,7 km/h (3 Bft)
29.06.2017 11:14 16,9 °C 16,9 °C 79 % 998,4 hPa 0,0 mm 9,3 km/h (2 Bft) W-SW 256 ° 1 min 0,000 mm 6,1 UV-I 856 W/m² 13,2 °C 16,9 °C 16,1 km/h (3 Bft)
29.06.2017 11:15 16,9 °C 16,9 °C 79 % 998,5 hPa 0,0 mm 15,3 km/h (3 Bft) SW 233 ° 1 min 0,000 mm 6,2 UV-I 856 W/m² 13,2 °C 16,9 °C 25,7 km/h (4 Bft)
29.06.2017 11:16 17,0 °C 17,0 °C 75 % 998,4 hPa 0,0 mm 18,3 km/h (3 Bft) W 275 ° 1 min 0,000 mm 6,2 UV-I 874 W/m² 12,5 °C 17,0 °C 24,1 km/h (4 Bft)
29.06.2017 11:17 16,9 °C 17,0 °C 75 % 998,4 hPa 0,0 mm 18,6 km/h (3 Bft) W 265 ° 1 min 0,000 mm 6,3 UV-I 900 W/m² 12,4 °C 16,9 °C 27,4 km/h (4 Bft)
29.06.2017 11:18 16,9 °C 17,0 °C 74 % 998,4 hPa 0,0 mm 18,1 km/h (3 Bft) W 267 ° 1 min 0,000 mm 6,3 UV-I 898 W/m² 12,2 °C 16,9 °C 29,0 km/h (5 Bft)
29.06.2017 11:19 16,9 °C 16,9 °C 74 % 998,4 hPa 0,0 mm 14,6 km/h (3 Bft) W-NW 284 ° 1 min 0,000 mm 6,3 UV-I 893 W/m² 12,2 °C 16,9 °C 20,9 km/h (4 Bft)
29.06.2017 11:20 17,0 °C 17,0 °C 75 % 998,5 hPa 0,0 mm 10,2 km/h (2 Bft) W-NW 290 ° 1 min 0,000 mm 6,3 UV-I 918 W/m² 12,5 °C 17,0 °C 19,3 km/h (3 Bft)
29.06.2017 11:21 17,2 °C 17,2 °C 77 % 998,5 hPa 0,0 mm 13,2 km/h (3 Bft) W 281 ° 1 min 0,000 mm 6,4 UV-I 889 W/m² 13,1 °C 17,2 °C 20,9 km/h (4 Bft)
29.06.2017 11:22 17,3 °C 17,3 °C 76 % 998,4 hPa 0,0 mm 13,0 km/h (3 Bft) W-NW 285 ° 1 min 0,000 mm 6,4 UV-I 858 W/m² 13,0 °C 17,3 °C 17,7 km/h (3 Bft)
29.06.2017 11:23 17,3 °C 17,3 °C 77 % 998,4 hPa 0,0 mm 9,4 km/h (2 Bft) W-SW 250 ° 1 min 0,000 mm 6,4 UV-I 881 W/m² 13,2 °C 17,3 °C 12,9 km/h (3 Bft)
29.06.2017 11:24 17,4 °C 17,4 °C 77 % 998,4 hPa 0,0 mm 10,3 km/h (2 Bft) W-NW 302 ° 1 min 0,000 mm 6,0 UV-I 907 W/m² 13,3 °C 17,4 °C 14,5 km/h (3 Bft)
29.06.2017 11:25 17,5 °C 17,5 °C 75 % 998,3 hPa 0,0 mm 8,3 km/h (2 Bft) W 281 ° 1 min 0,000 mm 6,7 UV-I 907 W/m² 13,0 °C 17,5 °C 12,9 km/h (3 Bft)
29.06.2017 11:26 17,5 °C 17,5 °C 73 % 998,4 hPa 0,0 mm 13,6 km/h (3 Bft) W-SW 250 ° 1 min 0,000 mm 6,6 UV-I 907 W/m² 12,6 °C 17,5 °C 22,5 km/h (4 Bft)
29.06.2017 11:27 17,3 °C 17,5 °C 72 % 998,5 hPa 0,0 mm 20,0 km/h (4 Bft) NW 318 ° 1 min 0,000 mm 6,4 UV-I 858 W/m² 12,2 °C 17,3 °C 30,6 km/h (5 Bft)
29.06.2017 11:28 17,3 °C 17,3 °C 69 % 998,4 hPa 0,0 mm 13,6 km/h (3 Bft) W 271 ° 1 min 0,000 mm 6,6 UV-I 937 W/m² 11,6 °C 17,3 °C 17,7 km/h (3 Bft)
29.06.2017 11:29 17,3 °C 17,3 °C 74 % 998,5 hPa 0,0 mm 11,7 km/h (2 Bft) W-NW 289 ° 1 min 0,000 mm 5,9 UV-I 856 W/m² 12,6 °C 17,3 °C 16,1 km/h (3 Bft)
29.06.2017 11:30 17,3 °C 17,3 °C 75 % 998,4 hPa 0,0 mm 11,5 km/h (2 Bft) NW 311 ° 1 min 0,000 mm 6,5 UV-I 856 W/m² 12,8 °C 17,3 °C 17,7 km/h (3 Bft)
29.06.2017 11:31 17,3 °C 17,3 °C 72 % 998,4 hPa 0,0 mm 15,4 km/h (3 Bft) W 279 ° 1 min 0,000 mm 6,8 UV-I 919 W/m² 12,2 °C 17,3 °C 20,9 km/h (4 Bft)
29.06.2017 11:32 17,3 °C 17,3 °C 73 % 998,4 hPa 0,0 mm 13,7 km/h (3 Bft) NW 316 ° 1 min 0,000 mm 6,5 UV-I 881 W/m² 12,4 °C 17,3 °C 22,5 km/h (4 Bft)
29.06.2017 11:33 17,2 °C 17,3 °C 73 % 998,4 hPa 0,0 mm 12,9 km/h (3 Bft) NW 309 ° 1 min 0,000 mm 6,5 UV-I 849 W/m² 12,3 °C 17,2 °C 22,5 km/h (4 Bft)
29.06.2017 11:34 17,2 °C 17,2 °C 73 % 998,4 hPa 0,0 mm 13,0 km/h (3 Bft) W 265 ° 1 min 0,000 mm 6,3 UV-I 830 W/m² 12,3 °C 17,2 °C 25,7 km/h (4 Bft)
29.06.2017 11:35 17,3 °C 17,3 °C 75 % 998,5 hPa 0,0 mm 14,1 km/h (3 Bft) W 274 ° 1 min 0,000 mm 5,9 UV-I 830 W/m² 12,8 °C 17,3 °C 25,7 km/h (4 Bft)
29.06.2017 11:36 17,3 °C 17,3 °C 74 % 998,5 hPa 0,0 mm 14,4 km/h (3 Bft) W 270 ° 1 min 0,000 mm 6,5 UV-I 830 W/m² 12,6 °C 17,3 °C 20,9 km/h (4 Bft)
29.06.2017 11:37 17,2 °C 17,3 °C 70 % 998,5 hPa 0,0 mm 19,3 km/h (3 Bft) W-NW 290 ° 1 min 0,000 mm 6,7 UV-I 830 W/m² 11,7 °C 17,2 °C 27,4 km/h (4 Bft)
29.06.2017 11:38 17,1 °C 17,2 °C 71 % 998,5 hPa 0,0 mm 20,4 km/h (4 Bft) W 259 ° 1 min 0,000 mm 6,8 UV-I 870 W/m² 11,8 °C 17,1 °C 27,4 km/h (4 Bft)
29.06.2017 11:39 17,1 °C 17,1 °C 70 % 998,5 hPa 0,0 mm 12,0 km/h (2 Bft) NW 323 ° 1 min 0,000 mm 6,8 UV-I 868 W/m² 11,6 °C 17,1 °C 19,3 km/h (3 Bft)
29.06.2017 11:40 17,2 °C 17,2 °C 72 % 998,6 hPa 0,0 mm 17,2 km/h (3 Bft) W 259 ° 1 min 0,000 mm 6,8 UV-I 868 W/m² 12,1 °C 17,2 °C 22,5 km/h (4 Bft)
29.06.2017 11:41 17,3 °C 17,3 °C 74 % 998,6 hPa 0,0 mm 14,6 km/h (3 Bft) W-SW 251 ° 1 min 0,000 mm 6,8 UV-I 868 W/m² 12,6 °C 17,3 °C 22,5 km/h (4 Bft)
29.06.2017 11:42 17,3 °C 17,3 °C 70 % 998,6 hPa 0,0 mm 7,7 km/h (2 Bft) W 272 ° 1 min 0,000 mm 6,9 UV-I 877 W/m² 11,8 °C 17,3 °C 12,9 km/h (3 Bft)
29.06.2017 11:43 17,6 °C 17,6 °C 74 % 998,6 hPa 0,0 mm 7,5 km/h (2 Bft) W 261 ° 1 min 0,000 mm 7,0 UV-I 884 W/m² 12,9 °C 17,6 °C 11,3 km/h (2 Bft)
29.06.2017 11:44 17,7 °C 17,7 °C 74 % 998,6 hPa 0,0 mm 12,5 km/h (3 Bft) NW 312 ° 1 min 0,000 mm 7,0 UV-I 884 W/m² 13,0 °C 17,7 °C 25,7 km/h (4 Bft)
29.06.2017 11:45 17,7 °C 17,7 °C 72 % 998,6 hPa 0,0 mm 14,2 km/h (3 Bft) W-NW 288 ° 1 min 0,000 mm 7,0 UV-I 889 W/m² 12,6 °C 17,7 °C 22,5 km/h (4 Bft)
29.06.2017 11:46 17,7 °C 17,7 °C 71 % 998,6 hPa 0,0 mm 10,6 km/h (2 Bft) W 259 ° 1 min 0,000 mm 5,5 UV-I 889 W/m² 12,4 °C 17,7 °C 14,5 km/h (3 Bft)
29.06.2017 11:47 17,7 °C 17,7 °C 72 % 998,6 hPa 0,0 mm 6,9 km/h (2 Bft) W-SW 251 ° 1 min 0,000 mm 7,0 UV-I 889 W/m² 12,6 °C 17,7 °C 16,1 km/h (3 Bft)
29.06.2017 11:48 17,7 °C 17,7 °C 69 % 998,7 hPa 0,0 mm 16,0 km/h (3 Bft) W 271 ° 1 min 0,000 mm 6,9 UV-I 870 W/m² 11,9 °C 17,7 °C 20,9 km/h (4 Bft)
29.06.2017 11:49 17,6 °C 17,7 °C 67 % 998,7 hPa 0,0 mm 14,1 km/h (3 Bft) W-NW 296 ° 1 min 0,000 mm 7,0 UV-I 877 W/m² 11,4 °C 17,6 °C 20,9 km/h (4 Bft)
29.06.2017 11:50 17,7 °C 17,7 °C 70 % 998,7 hPa 0,0 mm 9,1 km/h (2 Bft) W-SW 255 ° 1 min 0,000 mm 6,7 UV-I 884 W/m² 12,2 °C 17,7 °C 16,1 km/h (3 Bft)
29.06.2017 11:51 17,8 °C 17,8 °C 72 % 998,7 hPa 0,0 mm 9,9 km/h (2 Bft) W 281 ° 1 min 0,000 mm 7,1 UV-I 896 W/m² 12,7 °C 17,8 °C 20,9 km/h (4 Bft)
29.06.2017 11:52 17,9 °C 17,9 °C 69 % 998,7 hPa 0,0 mm 9,4 km/h (2 Bft) W-NW 292 ° 1 min 0,000 mm 7,3 UV-I 928 W/m² 12,1 °C 17,9 °C 16,1 km/h (3 Bft)
29.06.2017 11:53 17,9 °C 17,9 °C 68 % 998,7 hPa 0,0 mm 13,8 km/h (3 Bft) W-NW 290 ° 1 min 0,000 mm 7,5 UV-I 1018 W/m² 11,9 °C 17,9 °C 24,1 km/h (4 Bft)
29.06.2017 11:54 17,9 °C 17,9 °C 70 % 998,6 hPa 0,0 mm 19,1 km/h (3 Bft) W-SW 250 ° 1 min 0,000 mm 7,5 UV-I 954 W/m² 12,3 °C 17,9 °C 29,0 km/h (5 Bft)
29.06.2017 11:55 17,9 °C 17,9 °C 69 % 998,7 hPa 0,0 mm 7,0 km/h (2 Bft) W 273 ° 1 min 0,000 mm 7,3 UV-I 944 W/m² 12,1 °C 17,9 °C 12,9 km/h (3 Bft)
29.06.2017 11:56 18,1 °C 18,1 °C 71 % 998,7 hPa 0,0 mm 7,6 km/h (2 Bft) W-NW 283 ° 1 min 0,000 mm 7,2 UV-I 916 W/m² 12,8 °C 18,1 °C 12,9 km/h (3 Bft)
29.06.2017 11:57 18,1 °C 18,1 °C 69 % 998,6 hPa 0,0 mm 11,1 km/h (2 Bft) W-NW 286 ° 1 min 0,000 mm 6,7 UV-I 925 W/m² 12,3 °C 18,1 °C 17,7 km/h (3 Bft)
29.06.2017 11:58 18,1 °C 18,1 °C 68 % 998,6 hPa 0,0 mm 10,9 km/h (2 Bft) W-NW 286 ° 1 min 0,000 mm 7,3 UV-I 912 W/m² 12,1 °C 18,1 °C 16,1 km/h (3 Bft)
29.06.2017 11:59 18,1 °C 18,1 °C 68 % 998,6 hPa 0,0 mm 8,8 km/h (2 Bft) W-NW 288 ° 1 min 0,000 mm 7,3 UV-I 932 W/m² 12,1 °C 18,1 °C 14,5 km/h (3 Bft)
29.06.2017 12:00 18,1 °C 18,1 °C 67 % 998,6 hPa 0,0 mm 11,3 km/h (2 Bft) W 269 ° 1 min 0,508 mm 7,4 UV-I 953 W/m² 11,9 °C 18,1 °C 20,9 km/h (4 Bft)
29.06.2017 12:01 18,1 °C 18,1 °C 68 % 998,7 hPa 0,0 mm 20,5 km/h (4 Bft) W 263 ° 1 min 0,000 mm 7,7 UV-I 990 W/m² 12,1 °C 18,1 °C 32,2 km/h (5 Bft)
29.06.2017 12:02 18,0 °C 18,1 °C 65 % 998,6 hPa 0,0 mm 13,8 km/h (3 Bft) W-NW 283 ° 1 min 0,000 mm 7,8 UV-I 1021 W/m² 11,3 °C 18,0 °C 25,7 km/h (4 Bft)
29.06.2017 12:03 18,1 °C 18,1 °C 68 % 998,6 hPa 0,0 mm 13,7 km/h (3 Bft) W-NW 288 ° 1 min 0,000 mm 4,7 UV-I 1034 W/m² 12,1 °C 18,1 °C 20,9 km/h (4 Bft)
29.06.2017 12:04 18,0 °C 18,1 °C 67 % 998,6 hPa 0,0 mm 13,9 km/h (3 Bft) W-NW 302 ° 1 min 0,000 mm 6,5 UV-I 1013 W/m² 11,8 °C 18,0 °C 17,7 km/h (3 Bft)
29.06.2017 12:05 18,0 °C 18,0 °C 68 % 998,6 hPa 0,0 mm 15,8 km/h (3 Bft) W 271 ° 1 min 0,000 mm 5,0 UV-I 1013 W/m² 12,0 °C 18,0 °C 24,1 km/h (4 Bft)
29.06.2017 12:06 17,8 °C 18,0 °C 68 % 998,5 hPa 0,0 mm 14,3 km/h (3 Bft) W-NW 286 ° 1 min 0,000 mm 7,6 UV-I 1013 W/m² 11,8 °C 17,8 °C 20,9 km/h (4 Bft)
29.06.2017 12:07 17,7 °C 17,8 °C 69 % 998,6 hPa 0,0 mm 14,9 km/h (3 Bft) W 273 ° 1 min 0,000 mm 7,5 UV-I 1013 W/m² 11,9 °C 17,7 °C 24,1 km/h (4 Bft)
29.06.2017 12:08 17,8 °C 17,8 °C 69 % 998,6 hPa 0,0 mm 13,3 km/h (3 Bft) W 269 ° 1 min 0,000 mm 7,4 UV-I 921 W/m² 12,0 °C 17,8 °C 20,9 km/h (4 Bft)
29.06.2017 12:09 17,8 °C 17,8 °C 69 % 998,6 hPa 0,0 mm 14,6 km/h (3 Bft) W-NW 300 ° 1 min 0,000 mm 7,4 UV-I 918 W/m² 12,0 °C 17,8 °C 17,7 km/h (3 Bft)
29.06.2017 12:10 17,8 °C 17,8 °C 69 % 998,5 hPa 0,0 mm 12,1 km/h (2 Bft) W 281 ° 1 min 0,000 mm 7,4 UV-I 921 W/m² 12,0 °C 17,8 °C 17,7 km/h (3 Bft)
29.06.2017 12:11 17,8 °C 17,8 °C 70 % 998,6 hPa 0,0 mm 12,9 km/h (3 Bft) W 265 ° 1 min 0,000 mm 7,4 UV-I 926 W/m² 12,3 °C 17,8 °C 19,3 km/h (3 Bft)
29.06.2017 12:12 17,8 °C 17,8 °C 68 % 998,6 hPa 0,0 mm 13,8 km/h (3 Bft) W 259 ° 1 min 0,000 mm 7,5 UV-I 926 W/m² 11,8 °C 17,8 °C 19,3 km/h (3 Bft)
29.06.2017 12:13 17,8 °C 17,8 °C 71 % 998,6 hPa 0,0 mm 14,0 km/h (3 Bft) W 265 ° 1 min 0,000 mm 7,5 UV-I 925 W/m² 12,5 °C 17,8 °C 20,9 km/h (4 Bft)
29.06.2017 12:14 17,8 °C 17,8 °C 69 % 998,6 hPa 0,0 mm 15,6 km/h (3 Bft) W 273 ° 1 min 0,000 mm 7,5 UV-I 921 W/m² 12,0 °C 17,8 °C 22,5 km/h (4 Bft)
29.06.2017 12:15 17,8 °C 17,8 °C 71 % 998,6 hPa 0,0 mm 10,1 km/h (2 Bft) NW 320 ° 1 min 0,000 mm 7,5 UV-I 921 W/m² 12,5 °C 17,8 °C 17,7 km/h (3 Bft)
29.06.2017 12:16 17,9 °C 17,9 °C 69 % 998,6 hPa 0,0 mm 12,9 km/h (3 Bft) NW 317 ° 1 min 0,000 mm 7,5 UV-I 919 W/m² 12,1 °C 17,9 °C 20,9 km/h (4 Bft)
29.06.2017 12:17 17,9 °C 17,9 °C 69 % 998,6 hPa 0,0 mm 10,1 km/h (2 Bft) W-NW 290 ° 1 min 0,000 mm 7,4 UV-I 912 W/m² 12,1 °C 17,9 °C 17,7 km/h (3 Bft)
29.06.2017 12:18 17,9 °C 17,9 °C 69 % 998,6 hPa 0,0 mm 12,3 km/h (3 Bft) W-NW 286 ° 1 min 0,000 mm 7,4 UV-I 912 W/m² 12,1 °C 17,9 °C 16,1 km/h (3 Bft)
29.06.2017 12:19 18,1 °C 18,1 °C 70 % 998,6 hPa 0,0 mm 13,6 km/h (3 Bft) W-NW 292 ° 1 min 0,000 mm 7,5 UV-I 912 W/m² 12,5 °C 18,1 °C 20,9 km/h (4 Bft)
29.06.2017 12:20 18,2 °C 18,2 °C 70 % 998,6 hPa 0,0 mm 9,4 km/h (2 Bft) W-NW 297 ° 1 min 0,000 mm 7,5 UV-I 912 W/m² 12,6 °C 18,2 °C 12,9 km/h (3 Bft)
29.06.2017 12:21 18,2 °C 18,2 °C 69 % 998,6 hPa 0,0 mm 11,4 km/h (2 Bft) W 281 ° 1 min 0,000 mm 7,5 UV-I 912 W/m² 12,4 °C 18,2 °C 19,3 km/h (3 Bft)
29.06.2017 12:22 18,3 °C 18,3 °C 69 % 998,6 hPa 0,0 mm 7,6 km/h (2 Bft) W 271 ° 1 min 0,000 mm 7,5 UV-I 914 W/m² 12,5 °C 18,3 °C 12,9 km/h (3 Bft)
29.06.2017 12:23 18,4 °C 18,4 °C 74 % 998,6 hPa 0,0 mm 8,5 km/h (2 Bft) W 280 ° 1 min 0,000 mm 7,5 UV-I 914 W/m² 13,7 °C 18,4 °C 14,5 km/h (3 Bft)
29.06.2017 12:24 18,5 °C 18,5 °C 68 % 998,7 hPa 0,0 mm 11,5 km/h (2 Bft) NW 320 ° 1 min 0,000 mm 7,5 UV-I 911 W/m² 12,5 °C 18,5 °C 20,9 km/h (4 Bft)
29.06.2017 12:25 18,5 °C 18,5 °C 69 % 998,6 hPa 0,0 mm 11,7 km/h (2 Bft) NW 319 ° 1 min 0,000 mm 7,5 UV-I 911 W/m² 12,7 °C 18,5 °C 17,7 km/h (3 Bft)
29.06.2017 12:26 18,4 °C 18,5 °C 70 % 998,6 hPa 0,0 mm 15,7 km/h (3 Bft) N-NW 337 ° 1 min 0,000 mm 7,5 UV-I 911 W/m² 12,8 °C 18,4 °C 22,5 km/h (4 Bft)
29.06.2017 12:27 18,6 °C 18,6 °C 71 % 998,7 hPa 0,0 mm 13,1 km/h (3 Bft) W-NW 299 ° 1 min 0,000 mm 7,6 UV-I 916 W/m² 13,2 °C 18,6 °C 19,3 km/h (3 Bft)
29.06.2017 12:28 18,6 °C 18,7 °C 69 % 998,7 hPa 0,0 mm 10,5 km/h (2 Bft) W-NW 288 ° 1 min 0,000 mm 7,6 UV-I 930 W/m² 12,8 °C 18,6 °C 14,5 km/h (3 Bft)
29.06.2017 12:29 18,5 °C 18,6 °C 64 % 998,7 hPa 0,0 mm 10,6 km/h (2 Bft) W-NW 300 ° 1 min 0,000 mm 7,7 UV-I 954 W/m² 11,6 °C 18,5 °C 19,3 km/h (3 Bft)
29.06.2017 12:30 18,4 °C 18,5 °C 67 % 998,8 hPa 0,0 mm 9,4 km/h (2 Bft) W 265 ° 1 min 0,000 mm 7,8 UV-I 965 W/m² 12,2 °C 18,4 °C 16,1 km/h (3 Bft)
29.06.2017 12:31 18,4 °C 18,4 °C 65 % 998,7 hPa 0,0 mm 12,0 km/h (2 Bft) W 267 ° 1 min 0,000 mm 7,8 UV-I 981 W/m² 11,7 °C 18,4 °C 20,9 km/h (4 Bft)
29.06.2017 12:32 18,4 °C 18,4 °C 66 % 998,7 hPa 0,0 mm 11,9 km/h (2 Bft) W 261 ° 1 min 0,000 mm 7,8 UV-I 963 W/m² 11,9 °C 18,4 °C 17,7 km/h (3 Bft)
29.06.2017 12:33 18,4 °C 18,4 °C 66 % 998,7 hPa 0,0 mm 9,7 km/h (2 Bft) NW 323 ° 1 min 0,000 mm 7,8 UV-I 954 W/m² 11,9 °C 18,4 °C 12,9 km/h (3 Bft)
29.06.2017 12:34 18,4 °C 18,4 °C 70 % 998,7 hPa 0,0 mm 10,3 km/h (2 Bft) W 279 ° 1 min 0,000 mm 7,8 UV-I 951 W/m² 12,8 °C 18,4 °C 17,7 km/h (3 Bft)
29.06.2017 12:35 18,6 °C 18,6 °C 70 % 998,7 hPa 0,0 mm 18,0 km/h (3 Bft) W-NW 300 ° 1 min 0,000 mm 7,8 UV-I 997 W/m² 13,0 °C 18,6 °C 27,4 km/h (4 Bft)
29.06.2017 12:36 18,5 °C 18,6 °C 63 % 998,7 hPa 0,0 mm 16,2 km/h (3 Bft) W-NW 297 ° 1 min 0,000 mm 8,0 UV-I 976 W/m² 11,3 °C 18,5 °C 24,1 km/h (4 Bft)
29.06.2017 12:37 18,4 °C 18,5 °C 65 % 998,8 hPa 0,0 mm 17,2 km/h (3 Bft) NW 309 ° 1 min 0,000 mm 8,0 UV-I 979 W/m² 11,7 °C 18,4 °C 30,6 km/h (5 Bft)
29.06.2017 12:38 18,5 °C 18,5 °C 66 % 998,7 hPa 0,0 mm 7,7 km/h (2 Bft) W-NW 298 ° 1 min 0,000 mm 8,0 UV-I 995 W/m² 12,0 °C 18,5 °C 14,5 km/h (3 Bft)
29.06.2017 12:39 18,6 °C 18,6 °C 67 % 998,7 hPa 0,0 mm 13,9 km/h (3 Bft) W-NW 286 ° 1 min 0,000 mm 8,0 UV-I 1000 W/m² 12,3 °C 18,6 °C 24,1 km/h (4 Bft)
29.06.2017 12:40 18,6 °C 18,6 °C 66 % 998,7 hPa 0,0 mm 10,8 km/h (2 Bft) W-NW 302 ° 1 min 0,000 mm 8,0 UV-I 1000 W/m² 12,1 °C 18,6 °C 19,3 km/h (3 Bft)
29.06.2017 12:41 18,5 °C 18,6 °C 64 % 998,7 hPa 0,0 mm 7,3 km/h (2 Bft) N-NW 328 ° 1 min 0,000 mm 3,3 UV-I 1000 W/m² 11,6 °C 18,5 °C 14,5 km/h (3 Bft)
29.06.2017 12:42 18,5 °C 18,5 °C 66 % 998,6 hPa 0,0 mm 7,9 km/h (2 Bft) W 273 ° 1 min 0,000 mm 3,3 UV-I 1000 W/m² 12,0 °C 18,5 °C 11,3 km/h (2 Bft)
29.06.2017 12:43 18,4 °C 18,5 °C 65 % 998,7 hPa 0,0 mm 8,7 km/h (2 Bft) W 281 ° 1 min 0,000 mm 3,3 UV-I 1000 W/m² 11,7 °C 18,4 °C 14,5 km/h (3 Bft)
29.06.2017 12:44 18,3 °C 18,4 °C 70 % 998,7 hPa 0,0 mm 6,8 km/h (2 Bft) NW 323 ° 1 min 0,000 mm 8,1 UV-I 1000 W/m² 12,7 °C 18,3 °C 12,9 km/h (3 Bft)
29.06.2017 12:45 18,4 °C 18,4 °C 69 % 998,7 hPa 0,0 mm 3,9 km/h (1 Bft) W-NW 284 ° 1 min 0,000 mm 8,0 UV-I 998 W/m² 12,6 °C 18,4 °C 6,4 km/h (2 Bft)
29.06.2017 12:46 18,5 °C 18,5 °C 65 % 998,7 hPa 0,0 mm 12,7 km/h (3 Bft) N-NW 327 ° 1 min 0,000 mm 8,1 UV-I 1014 W/m² 11,8 °C 18,5 °C 17,7 km/h (3 Bft)
29.06.2017 12:47 18,4 °C 18,5 °C 67 % 998,7 hPa 0,0 mm 11,7 km/h (2 Bft) N-NW 337 ° 1 min 0,000 mm 8,3 UV-I 1046 W/m² 12,2 °C 18,4 °C 17,7 km/h (3 Bft)
29.06.2017 12:48 18,5 °C 18,5 °C 67 % 998,7 hPa 0,0 mm 11,6 km/h (2 Bft) W-NW 301 ° 1 min 0,000 mm 5,5 UV-I 1081 W/m² 12,3 °C 18,5 °C 14,5 km/h (3 Bft)
29.06.2017 12:49 18,5 °C 18,5 °C 69 % 998,7 hPa 0,0 mm 10,9 km/h (2 Bft) W 272 ° 1 min 0,000 mm 7,3 UV-I 1081 W/m² 12,7 °C 18,5 °C 19,3 km/h (3 Bft)
29.06.2017 12:50 18,5 °C 18,5 °C 65 % 998,6 hPa 0,0 mm 12,1 km/h (2 Bft) W-NW 284 ° 1 min 0,000 mm 7,9 UV-I 1081 W/m² 11,8 °C 18,5 °C 19,3 km/h (3 Bft)
29.06.2017 12:51 18,5 °C 18,5 °C 66 % 998,7 hPa 0,0 mm 9,1 km/h (2 Bft) W-SW 246 ° 1 min 0,000 mm 8,0 UV-I 991 W/m² 12,0 °C 18,5 °C 14,5 km/h (3 Bft)
29.06.2017 12:52 18,6 °C 18,6 °C 66 % 998,6 hPa 0,0 mm 14,8 km/h (3 Bft) W-NW 285 ° 1 min 0,000 mm 7,9 UV-I 932 W/m² 12,1 °C 18,6 °C 19,3 km/h (3 Bft)
29.06.2017 12:53 18,5 °C 18,6 °C 65 % 998,7 hPa 0,0 mm 13,2 km/h (3 Bft) W 262 ° 1 min 0,000 mm 8,2 UV-I 998 W/m² 11,8 °C 18,5 °C 16,1 km/h (3 Bft)
29.06.2017 12:54 18,4 °C 18,5 °C 65 % 998,6 hPa 0,0 mm 11,4 km/h (2 Bft) W 274 ° 1 min 0,000 mm 7,2 UV-I 921 W/m² 11,7 °C 18,4 °C 16,1 km/h (3 Bft)
29.06.2017 12:55 18,5 °C 18,5 °C 67 % 998,7 hPa 0,0 mm 5,6 km/h (1 Bft) SW 236 ° 1 min 0,000 mm 7,5 UV-I 921 W/m² 12,3 °C 18,5 °C 11,3 km/h (2 Bft)
29.06.2017 12:56 18,5 °C 18,5 °C 65 % 998,7 hPa 0,0 mm 9,3 km/h (2 Bft) W-NW 283 ° 1 min 0,000 mm 7,6 UV-I 921 W/m² 11,8 °C 18,5 °C 16,1 km/h (3 Bft)
29.06.2017 12:57 18,6 °C 18,6 °C 66 % 998,7 hPa 0,0 mm 17,8 km/h (3 Bft) W-SW 253 ° 1 min 0,000 mm 8,0 UV-I 921 W/m² 12,1 °C 18,6 °C 30,6 km/h (5 Bft)
29.06.2017 12:58 18,6 °C 18,6 °C 64 % 998,7 hPa 0,0 mm 9,0 km/h (2 Bft) W 281 ° 1 min 0,000 mm 7,2 UV-I 954 W/m² 11,7 °C 18,6 °C 17,7 km/h (3 Bft)
29.06.2017 12:59 18,6 °C 18,6 °C 64 % 998,7 hPa 0,0 mm 18,7 km/h (3 Bft) W-NW 287 ° 1 min 0,000 mm 7,8 UV-I 939 W/m² 11,7 °C 18,6 °C 29,0 km/h (5 Bft)
29.06.2017 13:00 18,6 °C 18,7 °C 62 % 998,7 hPa 0,0 mm 16,3 km/h (3 Bft) W-NW 285 ° 1 min 0,000 mm 7,8 UV-I 937 W/m² 11,2 °C 18,6 °C 24,1 km/h (4 Bft)
29.06.2017 13:01 18,7 °C 18,7 °C 64 % 998,7 hPa 0,0 mm 15,8 km/h (3 Bft) W 269 ° 1 min 0,559 mm 7,7 UV-I 933 W/m² 11,7 °C 18,7 °C 20,9 km/h (4 Bft)
29.06.2017 13:02 18,7 °C 18,7 °C 65 % 998,7 hPa 0,0 mm 13,0 km/h (3 Bft) W-NW 288 ° 1 min 0,000 mm 7,8 UV-I 942 W/m² 12,0 °C 18,7 °C 17,7 km/h (3 Bft)
29.06.2017 13:03 18,7 °C 18,7 °C 63 % 998,7 hPa 0,0 mm 10,1 km/h (2 Bft) W 275 ° 1 min 0,000 mm 7,8 UV-I 944 W/m² 11,5 °C 18,7 °C 19,3 km/h (3 Bft)
29.06.2017 13:04 18,7 °C 18,7 °C 65 % 998,7 hPa 0,0 mm 8,6 km/h (2 Bft) W 275 ° 1 min 0,000 mm 7,8 UV-I 946 W/m² 12,0 °C 18,7 °C 14,5 km/h (3 Bft)
29.06.2017 13:05 18,8 °C 18,8 °C 66 % 998,7 hPa 0,0 mm 10,6 km/h (2 Bft) W-NW 289 ° 1 min 0,000 mm 7,8 UV-I 942 W/m² 12,3 °C 18,8 °C 20,9 km/h (4 Bft)
29.06.2017 13:06 18,9 °C 18,9 °C 68 % 998,7 hPa 0,0 mm 10,6 km/h (2 Bft) NW 304 ° 1 min 0,000 mm 7,9 UV-I 953 W/m² 12,9 °C 18,9 °C 12,9 km/h (3 Bft)
29.06.2017 13:07 19,2 °C 19,2 °C 65 % 998,7 hPa 0,0 mm 5,9 km/h (2 Bft) NW 311 ° 1 min 0,000 mm 6,5 UV-I 986 W/m² 12,5 °C 19,2 °C 11,3 km/h (2 Bft)
29.06.2017 13:08 19,2 °C 19,2 °C 64 % 998,6 hPa 0,0 mm 10,3 km/h (2 Bft) NW 319 ° 1 min 0,000 mm 8,0 UV-I 977 W/m² 12,2 °C 19,2 °C 14,5 km/h (3 Bft)
29.06.2017 13:09 19,2 °C 19,2 °C 64 % 998,7 hPa 0,0 mm 9,2 km/h (2 Bft) N-NW 329 ° 1 min 0,000 mm 7,8 UV-I 947 W/m² 12,2 °C 19,2 °C 14,5 km/h (3 Bft)
29.06.2017 13:10 19,1 °C 19,2 °C 62 % 998,6 hPa 0,0 mm 10,8 km/h (2 Bft) NW 305 ° 1 min 0,000 mm 6,8 UV-I 947 W/m² 11,6 °C 19,1 °C 19,3 km/h (3 Bft)
29.06.2017 13:11 19,0 °C 19,1 °C 63 % 998,6 hPa 0,0 mm 10,7 km/h (2 Bft) N-NW 333 ° 1 min 0,000 mm 7,7 UV-I 932 W/m² 11,8 °C 19,0 °C 14,5 km/h (3 Bft)
29.06.2017 13:12 19,0 °C 19,0 °C 64 % 998,6 hPa 0,0 mm 10,3 km/h (2 Bft) W-NW 290 ° 1 min 0,000 mm 7,8 UV-I 937 W/m² 12,0 °C 19,0 °C 14,5 km/h (3 Bft)
29.06.2017 13:13 19,0 °C 19,0 °C 63 % 998,6 hPa 0,0 mm 10,8 km/h (2 Bft) W-NW 296 ° 1 min 0,000 mm 8,0 UV-I 1000 W/m² 11,8 °C 19,0 °C 20,9 km/h (4 Bft)
29.06.2017 13:14 18,9 °C 19,0 °C 62 % 998,6 hPa 0,0 mm 11,5 km/h (2 Bft) W 279 ° 1 min 0,000 mm 7,9 UV-I 965 W/m² 11,5 °C 18,9 °C 17,7 km/h (3 Bft)
29.06.2017 13:15 18,8 °C 18,9 °C 64 % 998,6 hPa 0,0 mm 11,3 km/h (2 Bft) W-SW 237 ° 1 min 0,000 mm 7,9 UV-I 963 W/m² 11,8 °C 18,8 °C 19,3 km/h (3 Bft)
29.06.2017 13:16 18,8 °C 18,8 °C 61 % 998,6 hPa 0,0 mm 10,6 km/h (2 Bft) W-SW 251 ° 1 min 0,000 mm 7,9 UV-I 976 W/m² 11,1 °C 18,8 °C 17,7 km/h (3 Bft)
29.06.2017 13:17 18,7 °C 18,8 °C 65 % 998,6 hPa 0,0 mm 22,6 km/h (4 Bft) W-SW 257 ° 1 min 0,000 mm 7,8 UV-I 956 W/m² 12,0 °C 18,7 °C 29,0 km/h (5 Bft)
29.06.2017 13:18 18,7 °C 18,7 °C 62 % 998,5 hPa 0,0 mm 11,1 km/h (2 Bft) NW 308 ° 1 min 0,000 mm 7,8 UV-I 940 W/m² 11,3 °C 18,7 °C 19,3 km/h (3 Bft)
29.06.2017 13:19 18,8 °C 18,8 °C 65 % 998,5 hPa 0,0 mm 11,5 km/h (2 Bft) N-NW 333 ° 1 min 0,000 mm 7,9 UV-I 954 W/m² 12,1 °C 18,8 °C 20,9 km/h (4 Bft)
29.06.2017 13:20 18,8 °C 18,8 °C 63 % 998,5 hPa 0,0 mm 13,5 km/h (3 Bft) W-NW 286 ° 1 min 0,000 mm 8,0 UV-I 990 W/m² 11,6 °C 18,8 °C 19,3 km/h (3 Bft)
29.06.2017 13:21 18,8 °C 18,8 °C 65 % 998,6 hPa 0,0 mm 13,7 km/h (3 Bft) W 281 ° 1 min 0,000 mm 8,0 UV-I 990 W/m² 12,1 °C 18,8 °C 20,9 km/h (4 Bft)
29.06.2017 13:22 18,6 °C 18,8 °C 63 % 998,5 hPa 0,0 mm 13,0 km/h (3 Bft) W-NW 297 ° 0 min 0,000 mm 3,1 UV-I 186 W/m² 11,4 °C 18,6 °C 19,3 km/h (3 Bft)
29.06.2017 13:23 18,4 °C 18,6 °C 63 % 998,5 hPa 0,0 mm 10,8 km/h (2 Bft) NW 316 ° 1 min 0,000 mm 8,1 UV-I 1028 W/m² 11,2 °C 18,4 °C 16,1 km/h (3 Bft)
29.06.2017 13:24 18,4 °C 18,4 °C 63 % 998,5 hPa 0,0 mm 7,3 km/h (2 Bft) W 269 ° 1 min 0,000 mm 8,1 UV-I 1028 W/m² 11,2 °C 18,4 °C 12,9 km/h (3 Bft)
29.06.2017 13:25 18,4 °C 18,4 °C 64 % 998,6 hPa 0,0 mm 5,4 km/h (1 Bft) W 269 ° 1 min 0,000 mm 3,2 UV-I 380 W/m² 11,5 °C 18,4 °C 8,0 km/h (2 Bft)
29.06.2017 13:26 18,3 °C 18,4 °C 67 % 998,6 hPa 0,0 mm 5,4 km/h (1 Bft) W-NW 287 ° 1 min 0,000 mm 3,1 UV-I 380 W/m² 12,1 °C 18,3 °C 11,3 km/h (2 Bft)
29.06.2017 13:27 18,2 °C 18,3 °C 64 % 998,5 hPa 0,0 mm 4,6 km/h (1 Bft) W 281 ° 1 min 0,000 mm 3,1 UV-I 380 W/m² 11,3 °C 18,2 °C 6,4 km/h (2 Bft)
29.06.2017 13:28 18,3 °C 18,3 °C 64 % 998,6 hPa 0,0 mm 8,0 km/h (2 Bft) NW 325 ° 1 min 0,000 mm 7,7 UV-I 380 W/m² 11,4 °C 18,3 °C 14,5 km/h (3 Bft)
29.06.2017 13:29 18,4 °C 18,4 °C 65 % 998,6 hPa 0,0 mm 9,9 km/h (2 Bft) W-NW 298 ° 1 min 0,000 mm 7,6 UV-I 932 W/m² 11,7 °C 18,4 °C 12,9 km/h (3 Bft)
29.06.2017 13:30 18,7 °C 18,7 °C 66 % 998,6 hPa 0,0 mm 11,3 km/h (2 Bft) N-NW 336 ° 1 min 0,000 mm 7,6 UV-I 925 W/m² 12,2 °C 18,7 °C 20,9 km/h (4 Bft)
29.06.2017 13:31 18,8 °C 18,8 °C 64 % 998,6 hPa 0,0 mm 13,4 km/h (3 Bft) NW 323 ° 1 min 0,000 mm 7,6 UV-I 925 W/m² 11,8 °C 18,8 °C 19,3 km/h (3 Bft)
29.06.2017 13:32 19,1 °C 19,1 °C 61 % 998,6 hPa 0,0 mm 13,4 km/h (3 Bft) W-SW 250 ° 1 min 0,000 mm 7,6 UV-I 925 W/m² 11,4 °C 19,1 °C 19,3 km/h (3 Bft)
29.06.2017 13:33 19,1 °C 19,2 °C 59 % 998,6 hPa 0,0 mm 15,3 km/h (3 Bft) W-NW 301 ° 1 min 0,000 mm 7,8 UV-I 949 W/m² 10,9 °C 19,1 °C 22,5 km/h (4 Bft)
29.06.2017 13:34 19,1 °C 19,1 °C 61 % 998,6 hPa 0,0 mm 16,2 km/h (3 Bft) N-NW 330 ° 1 min 0,000 mm 7,8 UV-I 965 W/m² 11,4 °C 19,1 °C 24,1 km/h (4 Bft)
29.06.2017 13:35 19,2 °C 19,2 °C 62 % 998,6 hPa 0,0 mm 15,2 km/h (3 Bft) W 264 ° 1 min 0,000 mm 7,8 UV-I 960 W/m² 11,7 °C 19,2 °C 25,7 km/h (4 Bft)
29.06.2017 13:36 19,1 °C 19,2 °C 60 % 998,6 hPa 0,0 mm 13,4 km/h (3 Bft) W-NW 297 ° 1 min 0,000 mm 7,7 UV-I 954 W/m² 11,1 °C 19,1 °C 17,7 km/h (3 Bft)
29.06.2017 13:37 19,1 °C 19,1 °C 61 % 998,6 hPa 0,0 mm 8,8 km/h (2 Bft) W-NW 288 ° 1 min 0,000 mm 7,7 UV-I 954 W/m² 11,4 °C 19,1 °C 12,9 km/h (3 Bft)
29.06.2017 13:38 19,1 °C 19,1 °C 61 % 998,6 hPa 0,0 mm 10,4 km/h (2 Bft) W 279 ° 1 min 0,000 mm 7,7 UV-I 949 W/m² 11,4 °C 19,1 °C 14,5 km/h (3 Bft)
29.06.2017 13:39 19,1 °C 19,1 °C 60 % 998,6 hPa 0,0 mm 9,5 km/h (2 Bft) N-NW 336 ° 1 min 0,000 mm 7,7 UV-I 944 W/m² 11,1 °C 19,1 °C 14,5 km/h (3 Bft)
29.06.2017 13:40 19,1 °C 19,1 °C 61 % 998,5 hPa 0,0 mm 5,0 km/h (1 Bft) NW 311 ° 1 min 0,000 mm 7,6 UV-I 939 W/m² 11,4 °C 19,1 °C 6,4 km/h (2 Bft)
29.06.2017 13:41 19,2 °C 19,2 °C 62 % 998,5 hPa 0,0 mm 12,7 km/h (3 Bft) W-NW 296 ° 1 min 0,000 mm 7,7 UV-I 946 W/m² 11,7 °C 19,2 °C 19,3 km/h (3 Bft)
29.06.2017 13:42 19,3 °C 19,3 °C 63 % 998,6 hPa 0,0 mm 15,1 km/h (3 Bft) W-NW 289 ° 1 min 0,000 mm 5,9 UV-I 888 W/m² 12,1 °C 19,3 °C 25,7 km/h (4 Bft)
29.06.2017 13:43 19,3 °C 19,3 °C 59 % 998,6 hPa 0,0 mm 16,2 km/h (3 Bft) W-NW 293 ° 1 min 0,000 mm 7,6 UV-I 942 W/m² 11,1 °C 19,3 °C 22,5 km/h (4 Bft)
29.06.2017 13:44 19,2 °C 19,3 °C 59 % 998,6 hPa 0,0 mm 11,5 km/h (2 Bft) W 279 ° 1 min 0,000 mm 7,6 UV-I 946 W/m² 11,0 °C 19,2 °C 19,3 km/h (3 Bft)
29.06.2017 13:45 19,2 °C 19,2 °C 59 % 998,7 hPa 0,0 mm 14,4 km/h (3 Bft) NW 313 ° 1 min 0,000 mm 7,6 UV-I 940 W/m² 11,0 °C 19,2 °C 20,9 km/h (4 Bft)
29.06.2017 13:46 19,2 °C 19,2 °C 61 % 998,7 hPa 0,0 mm 10,5 km/h (2 Bft) N-NW 336 ° 1 min 0,000 mm 7,6 UV-I 939 W/m² 11,5 °C 19,2 °C 17,7 km/h (3 Bft)
29.06.2017 13:47 19,3 °C 19,3 °C 62 % 998,6 hPa 0,0 mm 15,5 km/h (3 Bft) W-NW 298 ° 1 min 0,000 mm 7,6 UV-I 935 W/m² 11,8 °C 19,3 °C 19,3 km/h (3 Bft)
29.06.2017 13:48 19,3 °C 19,3 °C 61 % 998,7 hPa 0,0 mm 11,2 km/h (2 Bft) W-NW 298 ° 1 min 0,000 mm 7,6 UV-I 932 W/m² 11,6 °C 19,3 °C 16,1 km/h (3 Bft)
29.06.2017 13:49 19,4 °C 19,4 °C 63 % 998,7 hPa 0,0 mm 12,0 km/h (2 Bft) W-NW 290 ° 1 min 0,000 mm 7,5 UV-I 930 W/m² 12,2 °C 19,4 °C 17,7 km/h (3 Bft)
29.06.2017 13:50 19,5 °C 19,5 °C 62 % 998,6 hPa 0,0 mm 9,5 km/h (2 Bft) W 263 ° 1 min 0,000 mm 7,5 UV-I 928 W/m² 12,0 °C 19,5 °C 17,7 km/h (3 Bft)
29.06.2017 13:51 19,5 °C 19,5 °C 59 % 998,6 hPa 0,0 mm 15,2 km/h (3 Bft) W-NW 296 ° 1 min 0,000 mm 7,5 UV-I 918 W/m² 11,3 °C 19,5 °C 22,5 km/h (4 Bft)
29.06.2017 13:52 19,4 °C 19,5 °C 62 % 998,6 hPa 0,0 mm 15,6 km/h (3 Bft) W-SW 252 ° 1 min 0,000 mm 7,5 UV-I 916 W/m² 11,9 °C 19,4 °C 22,5 km/h (4 Bft)
29.06.2017 13:53 19,5 °C 19,5 °C 62 % 998,6 hPa 0,0 mm 16,0 km/h (3 Bft) W 265 ° 1 min 0,000 mm 7,4 UV-I 916 W/m² 12,0 °C 19,5 °C 24,1 km/h (4 Bft)
29.06.2017 13:54 19,4 °C 19,5 °C 61 % 998,7 hPa 0,0 mm 9,5 km/h (2 Bft) SW 227 ° 1 min 0,000 mm 7,4 UV-I 918 W/m² 11,7 °C 19,4 °C 14,5 km/h (3 Bft)
29.06.2017 13:55 19,4 °C 19,4 °C 60 % 998,6 hPa 0,0 mm 9,9 km/h (2 Bft) W-SW 251 ° 1 min 0,000 mm 7,5 UV-I 928 W/m² 11,4 °C 19,4 °C 14,5 km/h (3 Bft)
29.06.2017 13:56 19,4 °C 19,4 °C 63 % 998,6 hPa 0,0 mm 7,1 km/h (2 Bft) W 260 ° 1 min 0,000 mm 7,5 UV-I 923 W/m² 12,2 °C 19,4 °C 12,9 km/h (3 Bft)
29.06.2017 13:57 19,5 °C 19,5 °C 64 % 998,6 hPa 0,0 mm 7,7 km/h (2 Bft) NW 309 ° 1 min 0,000 mm 7,5 UV-I 925 W/m² 12,5 °C 19,5 °C 17,7 km/h (3 Bft)
29.06.2017 13:58 19,7 °C 19,7 °C 64 % 998,7 hPa 0,0 mm 11,0 km/h (2 Bft) W 265 ° 1 min 0,000 mm 7,5 UV-I 926 W/m² 12,7 °C 19,7 °C 16,1 km/h (3 Bft)
29.06.2017 13:59 19,8 °C 19,8 °C 63 % 998,6 hPa 0,0 mm 10,2 km/h (2 Bft) W 265 ° 1 min 0,000 mm 7,5 UV-I 932 W/m² 12,5 °C 19,8 °C 14,5 km/h (3 Bft)
29.06.2017 14:00 19,8 °C 19,8 °C 59 % 998,7 hPa 0,0 mm 13,6 km/h (3 Bft) W-SW 237 ° 1 min 0,000 mm 7,6 UV-I 937 W/m² 11,6 °C 19,8 °C 20,9 km/h (4 Bft)
29.06.2017 14:01 19,8 °C 19,8 °C 63 % 998,6 hPa 0,0 mm 5,6 km/h (1 Bft) W 273 ° 1 min 0,559 mm 7,5 UV-I 935 W/m² 12,5 °C 19,8 °C 12,9 km/h (3 Bft)
29.06.2017 14:02 19,8 °C 19,8 °C 62 % 998,5 hPa 0,0 mm 8,9 km/h (2 Bft) S-SW 213 ° 1 min 0,000 mm 7,6 UV-I 939 W/m² 12,3 °C 19,8 °C 14,5 km/h (3 Bft)
29.06.2017 14:03 19,8 °C 19,8 °C 61 % 998,5 hPa 0,0 mm 8,0 km/h (2 Bft) W 266 ° 1 min 0,000 mm 7,5 UV-I 926 W/m² 12,1 °C 19,8 °C 12,9 km/h (3 Bft)
29.06.2017 14:04 19,8 °C 19,8 °C 61 % 998,6 hPa 0,0 mm 8,1 km/h (2 Bft) NW 320 ° 1 min 0,000 mm 7,5 UV-I 926 W/m² 12,1 °C 19,8 °C 12,9 km/h (3 Bft)
29.06.2017 14:05 19,9 °C 19,9 °C 59 % 998,5 hPa 0,0 mm 11,8 km/h (2 Bft) W-NW 285 ° 1 min 0,000 mm 7,4 UV-I 914 W/m² 11,6 °C 19,9 °C 19,3 km/h (3 Bft)
29.06.2017 14:06 19,8 °C 19,9 °C 59 % 998,5 hPa 0,0 mm 12,2 km/h (2 Bft) W-SW 256 ° 1 min 0,000 mm 7,4 UV-I 914 W/m² 11,6 °C 19,8 °C 17,7 km/h (3 Bft)
29.06.2017 14:07 19,8 °C 19,8 °C 55 % 998,6 hPa 0,0 mm 11,4 km/h (2 Bft) W 267 ° 1 min 0,000 mm 7,4 UV-I 914 W/m² 10,5 °C 19,8 °C 19,3 km/h (3 Bft)
29.06.2017 14:08 19,7 °C 19,8 °C 57 % 998,6 hPa 0,0 mm 11,5 km/h (2 Bft) W 268 ° 1 min 0,000 mm 7,4 UV-I 916 W/m² 10,9 °C 19,7 °C 17,7 km/h (3 Bft)
29.06.2017 14:09 19,7 °C 19,7 °C 58 % 998,6 hPa 0,0 mm 15,7 km/h (3 Bft) W-SW 257 ° 1 min 0,000 mm 7,4 UV-I 921 W/m² 11,2 °C 19,7 °C 20,9 km/h (4 Bft)
29.06.2017 14:10 19,6 °C 19,7 °C 57 % 998,5 hPa 0,0 mm 11,3 km/h (2 Bft) NW 320 ° 1 min 0,000 mm 7,4 UV-I 921 W/m² 10,8 °C 19,6 °C 16,1 km/h (3 Bft)
29.06.2017 14:11 19,6 °C 19,6 °C 57 % 998,5 hPa 0,0 mm 11,8 km/h (2 Bft) W-NW 289 ° 1 min 0,000 mm 7,4 UV-I 921 W/m² 10,8 °C 19,6 °C 17,7 km/h (3 Bft)
29.06.2017 14:12 19,6 °C 19,6 °C 60 % 998,6 hPa 0,0 mm 10,5 km/h (2 Bft) W 281 ° 1 min 0,000 mm 7,4 UV-I 921 W/m² 11,6 °C 19,6 °C 16,1 km/h (3 Bft)
29.06.2017 14:13 19,6 °C 19,6 °C 62 % 998,6 hPa 0,0 mm 11,8 km/h (2 Bft) W-SW 250 ° 1 min 0,000 mm 7,4 UV-I 921 W/m² 12,1 °C 19,6 °C 20,9 km/h (4 Bft)
29.06.2017 14:14 19,7 °C 19,7 °C 61 % 998,5 hPa 0,0 mm 13,5 km/h (3 Bft) W 274 ° 1 min 0,000 mm 7,4 UV-I 914 W/m² 12,0 °C 19,7 °C 19,3 km/h (3 Bft)
29.06.2017 14:15 19,8 °C 19,8 °C 61 % 998,5 hPa 0,0 mm 14,6 km/h (3 Bft) W-SW 244 ° 1 min 0,000 mm 7,4 UV-I 914 W/m² 12,1 °C 19,8 °C 22,5 km/h (4 Bft)
29.06.2017 14:16 19,8 °C 19,8 °C 60 % 998,5 hPa 0,0 mm 14,4 km/h (3 Bft) SW 232 ° 1 min 0,000 mm 7,4 UV-I 916 W/m² 11,8 °C 19,8 °C 19,3 km/h (3 Bft)
29.06.2017 14:17 19,8 °C 19,8 °C 61 % 998,5 hPa 0,0 mm 12,1 km/h (2 Bft) NW 305 ° 1 min 0,000 mm 7,4 UV-I 916 W/m² 12,1 °C 19,8 °C 16,1 km/h (3 Bft)
29.06.2017 14:18 19,8 °C 19,8 °C 60 % 998,5 hPa 0,0 mm 8,5 km/h (2 Bft) NW 317 ° 1 min 0,000 mm 7,4 UV-I 916 W/m² 11,8 °C 19,8 °C 14,5 km/h (3 Bft)
29.06.2017 14:19 19,8 °C 19,8 °C 61 % 998,5 hPa 0,0 mm 14,2 km/h (3 Bft) N 360 ° 1 min 0,000 mm 7,4 UV-I 919 W/m² 12,1 °C 19,8 °C 22,5 km/h (4 Bft)
29.06.2017 14:20 19,8 °C 19,8 °C 62 % 998,5 hPa 0,0 mm 11,4 km/h (2 Bft) W 279 ° 1 min 0,000 mm 7,4 UV-I 935 W/m² 12,3 °C 19,8 °C 19,3 km/h (3 Bft)
29.06.2017 14:21 19,7 °C 19,8 °C 59 % 998,5 hPa 0,0 mm 12,6 km/h (3 Bft) NW 307 ° 1 min 0,000 mm 7,5 UV-I 946 W/m² 11,5 °C 19,7 °C 20,9 km/h (4 Bft)
29.06.2017 14:22 19,6 °C 19,7 °C 56 % 998,5 hPa 0,0 mm 14,6 km/h (3 Bft) W-NW 290 ° 1 min 0,000 mm 7,5 UV-I 956 W/m² 10,6 °C 19,6 °C 19,3 km/h (3 Bft)
29.06.2017 14:23 19,6 °C 19,6 °C 60 % 998,5 hPa 0,0 mm 8,9 km/h (2 Bft) W-NW 285 ° 1 min 0,000 mm 7,5 UV-I 965 W/m² 11,6 °C 19,6 °C 14,5 km/h (3 Bft)
29.06.2017 14:24 19,6 °C 19,6 °C 60 % 998,5 hPa 0,0 mm 12,2 km/h (2 Bft) W 275 ° 1 min 0,000 mm 7,6 UV-I 965 W/m² 11,6 °C 19,6 °C 17,7 km/h (3 Bft)
29.06.2017 14:25 19,6 °C 19,6 °C 58 % 998,5 hPa 0,0 mm 11,9 km/h (2 Bft) NW 319 ° 1 min 0,000 mm 6,6 UV-I 965 W/m² 11,1 °C 19,6 °C 19,3 km/h (3 Bft)
29.06.2017 14:26 19,6 °C 19,6 °C 61 % 998,5 hPa 0,0 mm 13,1 km/h (3 Bft) NW 307 ° 1 min 0,000 mm 7,6 UV-I 997 W/m² 11,9 °C 19,6 °C 19,3 km/h (3 Bft)
29.06.2017 14:27 19,6 °C 19,7 °C 61 % 998,5 hPa 0,0 mm 12,8 km/h (3 Bft) N-NW 333 ° 1 min 0,000 mm 6,2 UV-I 1032 W/m² 11,9 °C 19,6 °C 19,3 km/h (3 Bft)
29.06.2017 14:28 19,8 °C 19,8 °C 63 % 998,5 hPa 0,0 mm 12,5 km/h (3 Bft) NW 309 ° 1 min 0,000 mm 6,5 UV-I 1032 W/m² 12,5 °C 19,8 °C 16,1 km/h (3 Bft)
29.06.2017 14:29 19,9 °C 19,9 °C 62 % 998,5 hPa 0,0 mm 12,9 km/h (3 Bft) W-NW 298 ° 1 min 0,000 mm 8,0 UV-I 1032 W/m² 12,4 °C 19,9 °C 17,7 km/h (3 Bft)
29.06.2017 14:30 19,9 °C 19,9 °C 58 % 998,5 hPa 0,0 mm 10,5 km/h (2 Bft) W-NW 294 ° 1 min 0,000 mm 6,7 UV-I 1032 W/m² 11,4 °C 19,9 °C 14,5 km/h (3 Bft)
29.06.2017 14:31 19,9 °C 19,9 °C 61 % 998,5 hPa 0,0 mm 13,7 km/h (3 Bft) W 279 ° 1 min 0,000 mm 6,3 UV-I 1032 W/m² 12,2 °C 19,9 °C 17,7 km/h (3 Bft)
29.06.2017 14:32 20,0 °C 20,0 °C 59 % 998,5 hPa 0,0 mm 9,9 km/h (2 Bft) NW 313 ° 1 min 0,000 mm 7,4 UV-I 1081 W/m² 11,7 °C 20,0 °C 22,5 km/h (4 Bft)
29.06.2017 14:33 20,1 °C 20,1 °C 60 % 998,5 hPa 0,0 mm 13,6 km/h (3 Bft) W-NW 290 ° 1 min 0,000 mm 7,7 UV-I 1035 W/m² 12,1 °C 20,1 °C 19,3 km/h (3 Bft)
29.06.2017 14:34 20,1 °C 20,1 °C 58 % 998,5 hPa 0,0 mm 11,5 km/h (2 Bft) W 261 ° 1 min 0,000 mm 7,7 UV-I 1025 W/m² 11,6 °C 20,1 °C 19,3 km/h (3 Bft)
29.06.2017 14:35 20,1 °C 20,1 °C 60 % 998,5 hPa 0,0 mm 14,9 km/h (3 Bft) NW 317 ° 1 min 0,000 mm 7,4 UV-I 1014 W/m² 12,1 °C 20,1 °C 17,7 km/h (3 Bft)
29.06.2017 14:36 20,1 °C 20,2 °C 62 % 998,4 hPa 0,0 mm 15,7 km/h (3 Bft) W 281 ° 1 min 0,000 mm 7,3 UV-I 1014 W/m² 12,6 °C 20,1 °C 20,9 km/h (4 Bft)
29.06.2017 14:37 20,2 °C 20,2 °C 62 % 998,4 hPa 0,0 mm 11,3 km/h (2 Bft) W-NW 296 ° 1 min 0,000 mm 7,6 UV-I 1014 W/m² 12,7 °C 20,2 °C 19,3 km/h (3 Bft)
29.06.2017 14:38 20,2 °C 20,2 °C 60 % 998,5 hPa 0,0 mm 15,2 km/h (3 Bft) W-NW 296 ° 1 min 0,000 mm 5,4 UV-I 918 W/m² 12,2 °C 20,2 °C 20,9 km/h (4 Bft)
29.06.2017 14:39 20,2 °C 20,2 °C 59 % 998,4 hPa 0,0 mm 12,9 km/h (3 Bft) W-NW 284 ° 1 min 0,000 mm 5,9 UV-I 918 W/m² 11,9 °C 20,2 °C 20,9 km/h (4 Bft)
29.06.2017 14:40 20,1 °C 20,2 °C 57 % 998,5 hPa 0,0 mm 9,7 km/h (2 Bft) NW 326 ° 1 min 0,000 mm 6,8 UV-I 796 W/m² 11,3 °C 20,1 °C 17,7 km/h (3 Bft)
29.06.2017 14:41 19,9 °C 20,1 °C 57 % 998,5 hPa 0,0 mm 11,9 km/h (2 Bft) N-NW 327 ° 1 min 0,000 mm 6,4 UV-I 828 W/m² 11,1 °C 19,9 °C 17,7 km/h (3 Bft)
29.06.2017 14:42 19,8 °C 19,9 °C 56 % 998,4 hPa 0,0 mm 12,6 km/h (3 Bft) NW 313 ° 1 min 0,000 mm 6,6 UV-I 805 W/m² 10,8 °C 19,8 °C 17,7 km/h (3 Bft)
29.06.2017 14:43 19,7 °C 19,8 °C 56 % 998,5 hPa 0,0 mm 6,6 km/h (2 Bft) W-NW 294 ° 1 min 0,000 mm 6,5 UV-I 814 W/m² 10,7 °C 19,7 °C 12,9 km/h (3 Bft)
29.06.2017 14:44 19,6 °C 19,7 °C 59 % 998,4 hPa 0,0 mm 11,5 km/h (2 Bft) W-NW 284 ° 1 min 0,000 mm 5,9 UV-I 814 W/m² 11,4 °C 19,6 °C 19,3 km/h (3 Bft)
29.06.2017 14:45 19,6 °C 19,7 °C 62 % 998,5 hPa 0,0 mm 12,3 km/h (3 Bft) N-NW 341 ° 1 min 0,000 mm 4,7 UV-I 480 W/m² 12,1 °C 19,6 °C 20,9 km/h (4 Bft)
29.06.2017 14:46 19,6 °C 19,7 °C 59 % 998,5 hPa 0,0 mm 6,6 km/h (2 Bft) W 278 ° 1 min 0,000 mm 3,7 UV-I 480 W/m² 11,4 °C 19,6 °C 14,5 km/h (3 Bft)
29.06.2017 14:47 19,4 °C 19,6 °C 60 % 998,4 hPa 0,0 mm 6,4 km/h (2 Bft) NW 318 ° 1 min 0,000 mm 3,5 UV-I 352 W/m² 11,4 °C 19,4 °C 11,3 km/h (2 Bft)
29.06.2017 14:48 19,4 °C 19,4 °C 60 % 998,4 hPa 0,0 mm 5,3 km/h (1 Bft) W-NW 301 ° 1 min 0,000 mm 2,8 UV-I 352 W/m² 11,4 °C 19,4 °C 8,0 km/h (2 Bft)
29.06.2017 14:49 19,3 °C 19,4 °C 60 % 998,4 hPa 0,0 mm 8,0 km/h (2 Bft) W 265 ° 0 min 0,000 mm 2,6 UV-I 188 W/m² 11,3 °C 19,3 °C 11,3 km/h (2 Bft)
29.06.2017 14:50 19,2 °C 19,3 °C 60 % 998,4 hPa 0,0 mm 7,7 km/h (2 Bft) NW 315 ° 0 min 0,000 mm 2,5 UV-I 183 W/m² 11,2 °C 19,2 °C 12,9 km/h (3 Bft)
29.06.2017 14:51 18,9 °C 19,2 °C 60 % 998,5 hPa 0,0 mm 5,8 km/h (2 Bft) W 264 ° 0 min 0,000 mm 2,3 UV-I 179 W/m² 11,0 °C 18,9 °C 9,7 km/h (2 Bft)
29.06.2017 14:52 18,8 °C 18,9 °C 59 % 998,5 hPa 0,0 mm 7,4 km/h (2 Bft) NW 309 ° 0 min 0,000 mm 2,2 UV-I 181 W/m² 10,6 °C 18,8 °C 11,3 km/h (2 Bft)
29.06.2017 14:53 18,7 °C 18,8 °C 60 % 998,5 hPa 0,0 mm 11,0 km/h (2 Bft) W-NW 301 ° 0 min 0,000 mm 2,2 UV-I 181 W/m² 10,8 °C 18,7 °C 14,5 km/h (3 Bft)
29.06.2017 14:54 18,5 °C 18,7 °C 60 % 998,5 hPa 0,0 mm 8,5 km/h (2 Bft) NW 315 ° 0 min 0,000 mm 2,1 UV-I 181 W/m² 10,6 °C 18,5 °C 12,9 km/h (3 Bft)
29.06.2017 14:55 18,4 °C 18,5 °C 59 % 998,5 hPa 0,0 mm 5,8 km/h (2 Bft) W-NW 292 ° 0 min 0,000 mm 2,0 UV-I 179 W/m² 10,2 °C 18,4 °C 8,0 km/h (2 Bft)
29.06.2017 14:56 18,4 °C 18,4 °C 63 % 998,5 hPa 0,0 mm 7,0 km/h (2 Bft) W 266 ° 0 min 0,000 mm 1,9 UV-I 179 W/m² 11,2 °C 18,4 °C 11,3 km/h (2 Bft)
29.06.2017 14:57 18,4 °C 18,4 °C 63 % 998,5 hPa 0,0 mm 9,0 km/h (2 Bft) W-SW 248 ° 0 min 0,000 mm 1,8 UV-I 179 W/m² 11,2 °C 18,4 °C 14,5 km/h (3 Bft)
29.06.2017 14:58 18,3 °C 18,4 °C 62 % 998,6 hPa 0,0 mm 9,8 km/h (2 Bft) W-NW 290 ° 0 min 0,000 mm 1,8 UV-I 179 W/m² 10,9 °C 18,3 °C 16,1 km/h (3 Bft)
29.06.2017 14:59 18,3 °C 18,3 °C 61 % 998,6 hPa 0,0 mm 6,2 km/h (2 Bft) W 272 ° 0 min 0,000 mm 1,8 UV-I 181 W/m² 10,6 °C 18,3 °C 9,7 km/h (2 Bft)
29.06.2017 15:00 18,3 °C 18,3 °C 61 % 998,5 hPa 0,0 mm 10,0 km/h (2 Bft) W 280 ° 0 min 0,000 mm 1,8 UV-I 181 W/m² 10,6 °C 18,3 °C 14,5 km/h (3 Bft)
29.06.2017 15:01 18,2 °C 18,3 °C 60 % 998,6 hPa 0,0 mm 10,3 km/h (2 Bft) W 261 ° 0 min 0,482 mm 1,8 UV-I 179 W/m² 10,3 °C 18,2 °C 12,9 km/h (3 Bft)
29.06.2017 15:02 18,2 °C 18,2 °C 62 % 998,6 hPa 0,0 mm 5,6 km/h (1 Bft) W 279 ° 0 min 0,000 mm 1,7 UV-I 176 W/m² 10,8 °C 18,2 °C 11,3 km/h (2 Bft)
29.06.2017 15:03 18,2 °C 18,2 °C 63 % 998,6 hPa 0,0 mm 6,1 km/h (2 Bft) W 279 ° 0 min 0,000 mm 1,6 UV-I 171 W/m² 11,0 °C 18,2 °C 12,9 km/h (3 Bft)
29.06.2017 15:04 18,1 °C 18,2 °C 63 % 998,7 hPa 0,0 mm 6,0 km/h (2 Bft) NW 305 ° 0 min 0,000 mm 1,6 UV-I 167 W/m² 10,9 °C 18,1 °C 12,9 km/h (3 Bft)
29.06.2017 15:05 18,1 °C 18,1 °C 63 % 998,6 hPa 0,0 mm 5,8 km/h (2 Bft) NW 311 ° 0 min 0,000 mm 1,6 UV-I 165 W/m² 10,9 °C 18,1 °C 9,7 km/h (2 Bft)
29.06.2017 15:06 18,1 °C 18,1 °C 62 % 998,6 hPa 0,0 mm 8,3 km/h (2 Bft) W-NW 284 ° 0 min 0,000 mm 1,5 UV-I 163 W/m² 10,7 °C 18,1 °C 12,9 km/h (3 Bft)
29.06.2017 15:07 18,1 °C 18,1 °C 64 % 998,7 hPa 0,0 mm 7,6 km/h (2 Bft) W-SW 255 ° 0 min 0,000 mm 1,5 UV-I 163 W/m² 11,2 °C 18,1 °C 12,9 km/h (3 Bft)
29.06.2017 15:08 18,1 °C 18,1 °C 63 % 998,7 hPa 0,0 mm 5,9 km/h (2 Bft) W-NW 300 ° 0 min 0,000 mm 1,5 UV-I 163 W/m² 10,9 °C 18,1 °C 11,3 km/h (2 Bft)
29.06.2017 15:09 18,0 °C 18,1 °C 63 % 998,7 hPa 0,0 mm 5,8 km/h (2 Bft) NW 304 ° 0 min 0,000 mm 1,5 UV-I 165 W/m² 10,8 °C 18,0 °C 9,7 km/h (2 Bft)
29.06.2017 15:10 18,0 °C 18,0 °C 64 % 998,7 hPa 0,0 mm 6,9 km/h (2 Bft) W 271 ° 0 min 0,000 mm 1,5 UV-I 167 W/m² 11,1 °C 18,0 °C 12,9 km/h (3 Bft)
29.06.2017 15:11 18,0 °C 18,1 °C 64 % 998,7 hPa 0,0 mm 7,4 km/h (2 Bft) NW 322 ° 0 min 0,000 mm 1,5 UV-I 167 W/m² 11,1 °C 18,0 °C 12,9 km/h (3 Bft)
29.06.2017 15:12 18,0 °C 18,1 °C 64 % 998,7 hPa 0,0 mm 6,8 km/h (2 Bft) W-SW 255 ° 0 min 0,000 mm 1,5 UV-I 167 W/m² 11,1 °C 18,0 °C 9,7 km/h (2 Bft)
29.06.2017 15:13 18,1 °C 18,1 °C 63 % 998,7 hPa 0,0 mm 6,8 km/h (2 Bft) NW 320 ° 0 min 0,000 mm 1,5 UV-I 165 W/m² 10,9 °C 18,1 °C 11,3 km/h (2 Bft)
29.06.2017 15:14 18,0 °C 18,1 °C 64 % 998,7 hPa 0,0 mm 3,9 km/h (1 Bft) W 265 ° 0 min 0,000 mm 1,4 UV-I 165 W/m² 11,1 °C 18,0 °C 6,4 km/h (2 Bft)
29.06.2017 15:15 18,0 °C 18,1 °C 63 % 998,8 hPa 0,0 mm 2,0 km/h (1 Bft) W-NW 287 ° 0 min 0,000 mm 1,5 UV-I 169 W/m² 10,8 °C 18,0 °C 4,8 km/h (1 Bft)
29.06.2017 15:16 18,0 °C 18,0 °C 64 % 998,8 hPa 0,0 mm 5,8 km/h (2 Bft) W 272 ° 0 min 0,000 mm 1,5 UV-I 174 W/m² 11,1 °C 18,0 °C 11,3 km/h (2 Bft)
29.06.2017 15:17 18,0 °C 18,0 °C 64 % 998,9 hPa 0,0 mm 8,1 km/h (2 Bft) W 265 ° 0 min 0,000 mm 1,6 UV-I 179 W/m² 11,1 °C 18,0 °C 12,9 km/h (3 Bft)
29.06.2017 15:18 17,9 °C 18,0 °C 64 % 998,9 hPa 0,0 mm 4,8 km/h (1 Bft) W 264 ° 0 min 0,000 mm 1,6 UV-I 186 W/m² 11,0 °C 17,9 °C 9,7 km/h (2 Bft)
29.06.2017 15:19 18,0 °C 18,0 °C 66 % 998,9 hPa 0,0 mm 3,7 km/h (1 Bft) SW 227 ° 0 min 0,000 mm 1,6 UV-I 188 W/m² 11,6 °C 18,0 °C 6,4 km/h (2 Bft)
29.06.2017 15:20 18,0 °C 18,0 °C 65 % 999,0 hPa 0,0 mm 2,7 km/h (1 Bft) S-SW 204 ° 0 min 0,000 mm 1,7 UV-I 188 W/m² 11,3 °C 18,0 °C 4,8 km/h (1 Bft)
29.06.2017 15:21 18,0 °C 18,1 °C 67 % 999,0 hPa 0,0 mm 8,8 km/h (2 Bft) W 265 ° 0 min 0,000 mm 1,7 UV-I 186 W/m² 11,8 °C 18,0 °C 16,1 km/h (3 Bft)
29.06.2017 15:22 17,9 °C 18,0 °C 65 % 999,0 hPa 0,0 mm 4,0 km/h (1 Bft) SW 221 ° 0 min 0,000 mm 1,7 UV-I 181 W/m² 11,2 °C 17,9 °C 9,7 km/h (2 Bft)
29.06.2017 15:23 18,0 °C 18,0 °C 69 % 999,0 hPa 0,0 mm 3,8 km/h (1 Bft) W 270 ° 0 min 0,000 mm 1,6 UV-I 174 W/m² 12,2 °C 18,0 °C 9,7 km/h (2 Bft)
29.06.2017 15:24 18,0 °C 18,0 °C 66 % 998,9 hPa 0,0 mm 9,3 km/h (2 Bft) W 261 ° 0 min 0,000 mm 1,5 UV-I 160 W/m² 11,6 °C 18,0 °C 12,9 km/h (3 Bft)
29.06.2017 15:25 18,0 °C 18,1 °C 66 % 999,0 hPa 0,0 mm 3,8 km/h (1 Bft) W-SW 246 ° 0 min 0,000 mm 1,5 UV-I 158 W/m² 11,6 °C 18,0 °C 4,8 km/h (1 Bft)
29.06.2017 15:26 18,0 °C 18,0 °C 65 % 998,8 hPa 0,0 mm 4,6 km/h (1 Bft) S-SO 151 ° 0 min 0,000 mm 1,5 UV-I 160 W/m² 11,3 °C 18,0 °C 9,7 km/h (2 Bft)
29.06.2017 15:27 17,9 °C 18,0 °C 63 % 998,9 hPa 0,0 mm 2,2 km/h (1 Bft) S-SO 151 ° 0 min 0,000 mm 1,6 UV-I 165 W/m² 10,8 °C 17,9 °C 3,2 km/h (1 Bft)
29.06.2017 15:28 17,9 °C 17,9 °C 65 % 998,8 hPa 0,0 mm 0,0 km/h (0 Bft) S-SO 151 ° 0 min 0,000 mm 1,6 UV-I 167 W/m² 11,2 °C 17,9 °C 0,0 km/h (0 Bft)
29.06.2017 15:29 17,8 °C 17,9 °C 65 % 998,9 hPa 0,0 mm 0,9 km/h (0 Bft) S-SO 151 ° 0 min 0,000 mm 1,6 UV-I 165 W/m² 11,1 °C 17,8 °C 1,6 km/h (1 Bft)
29.06.2017 15:30 17,8 °C 17,9 °C 68 % 999,0 hPa 0,0 mm 1,3 km/h (1 Bft) S-SW 213 ° 0 min 0,000 mm 1,5 UV-I 155 W/m² 11,8 °C 17,8 °C 3,2 km/h (1 Bft)
29.06.2017 15:31 17,7 °C 17,8 °C 65 % 998,9 hPa 0,0 mm 0,0 km/h (0 Bft) S-SW 213 ° 0 min 0,000 mm 1,4 UV-I 148 W/m² 11,0 °C 17,7 °C 0,0 km/h (0 Bft)
29.06.2017 15:32 17,7 °C 17,7 °C 66 % 998,9 hPa 0,0 mm 1,5 km/h (1 Bft) S-SW 213 ° 0 min 0,000 mm 1,3 UV-I 141 W/m² 11,3 °C 17,7 °C 3,2 km/h (1 Bft)
29.06.2017 15:33 17,7 °C 17,7 °C 65 % 999,0 hPa 0,0 mm 3,5 km/h (1 Bft) S 191 ° 0 min 0,000 mm 1,3 UV-I 135 W/m² 11,0 °C 17,7 °C 4,8 km/h (1 Bft)
29.06.2017 15:34 17,7 °C 17,7 °C 65 % 998,9 hPa 0,0 mm 0,9 km/h (0 Bft) S 191 ° 0 min 0,000 mm 1,3 UV-I 135 W/m² 11,0 °C 17,7 °C 3,2 km/h (1 Bft)
29.06.2017 15:35 17,7 °C 17,7 °C 65 % 999,0 hPa 0,0 mm 0,5 km/h (0 Bft) S 191 ° 0 min 0,000 mm 1,3 UV-I 139 W/m² 11,0 °C 17,7 °C 1,6 km/h (1 Bft)
29.06.2017 15:36 17,7 °C 17,7 °C 69 % 999,0 hPa 0,0 mm 1,4 km/h (1 Bft) S 191 ° 0 min 0,000 mm 1,3 UV-I 148 W/m² 11,9 °C 17,7 °C 3,2 km/h (1 Bft)
29.06.2017 15:37 17,6 °C 17,7 °C 71 % 998,9 hPa 0,0 mm 0,5 km/h (0 Bft) S 191 ° 0 min 0,000 mm 1,4 UV-I 153 W/m² 12,3 °C 17,6 °C 3,2 km/h (1 Bft)
29.06.2017 15:38 17,5 °C 17,6 °C 73 % 998,9 hPa 0,0 mm 0,0 km/h (0 Bft) S 191 ° 0 min 0,000 mm 1,4 UV-I 155 W/m² 12,6 °C 17,5 °C 0,0 km/h (0 Bft)
29.06.2017 15:39 17,3 °C 17,5 °C 73 % 998,8 hPa 0,0 mm 1,2 km/h (1 Bft) S 191 ° 0 min 0,000 mm 1,4 UV-I 156 W/m² 12,4 °C 17,3 °C 3,2 km/h (1 Bft)
29.06.2017 15:40 17,3 °C 17,3 °C 71 % 998,8 hPa 0,0 mm 2,3 km/h (1 Bft) S 191 ° 0 min 0,000 mm 1,4 UV-I 156 W/m² 12,0 °C 17,3 °C 3,2 km/h (1 Bft)
29.06.2017 15:41 17,3 °C 17,4 °C 76 % 998,8 hPa 0,0 mm 1,9 km/h (1 Bft) S 191 ° 0 min 0,000 mm 1,4 UV-I 158 W/m² 13,0 °C 17,3 °C 3,2 km/h (1 Bft)
29.06.2017 15:42 17,3 °C 17,3 °C 74 % 998,8 hPa 0,0 mm 0,8 km/h (0 Bft) S 191 ° 0 min 0,000 mm 1,5 UV-I 165 W/m² 12,6 °C 17,3 °C 1,6 km/h (1 Bft)
29.06.2017 15:43 17,3 °C 17,3 °C 77 % 998,8 hPa 0,0 mm 0,0 km/h (0 Bft) S 191 ° 0 min 0,000 mm 1,5 UV-I 171 W/m² 13,2 °C 17,3 °C 0,0 km/h (0 Bft)
29.06.2017 15:44 17,3 °C 17,3 °C 75 % 998,8 hPa 0,0 mm 0,0 km/h (0 Bft) S 191 ° 0 min 0,000 mm 1,6 UV-I 179 W/m² 12,8 °C 17,3 °C 0,0 km/h (0 Bft)
29.06.2017 15:45 17,3 °C 17,3 °C 71 % 998,8 hPa 0,0 mm 0,0 km/h (0 Bft) S 191 ° 0 min 0,000 mm 1,7 UV-I 188 W/m² 12,0 °C 17,3 °C 0,0 km/h (0 Bft)
29.06.2017 15:46 17,3 °C 17,3 °C 72 % 998,8 hPa 0,0 mm 0,0 km/h (0 Bft) S 191 ° 0 min 0,000 mm 1,8 UV-I 199 W/m² 12,2 °C 17,3 °C 0,0 km/h (0 Bft)
29.06.2017 15:47 17,4 °C 17,4 °C 71 % 998,8 hPa 0,0 mm 0,0 km/h (0 Bft) S 191 ° 0 min 0,000 mm 1,9 UV-I 211 W/m² 12,1 °C 17,4 °C 0,0 km/h (0 Bft)
29.06.2017 15:48 17,4 °C 17,4 °C 73 % 998,9 hPa 0,0 mm 0,0 km/h (0 Bft) S 191 ° 0 min 0,000 mm 2,0 UV-I 237 W/m² 12,5 °C 17,4 °C 0,0 km/h (0 Bft)
29.06.2017 15:49 17,4 °C 17,4 °C 74 % 998,8 hPa 0,0 mm 0,0 km/h (0 Bft) S 191 ° 0 min 0,000 mm 2,3 UV-I 274 W/m² 12,7 °C 17,4 °C 0,0 km/h (0 Bft)
29.06.2017 15:50 17,5 °C 17,5 °C 73 % 998,9 hPa 0,0 mm 0,0 km/h (0 Bft) S 191 ° 1 min 0,000 mm 2,4 UV-I 316 W/m² 12,6 °C 17,5 °C 0,0 km/h (0 Bft)
29.06.2017 15:51 17,6 °C 17,6 °C 71 % 998,8 hPa 0,0 mm 0,1 km/h (0 Bft) S 191 ° 1 min 0,000 mm 2,4 UV-I 290 W/m² 12,3 °C 17,6 °C 1,6 km/h (1 Bft)
29.06.2017 15:52 17,6 °C 17,7 °C 72 % 998,8 hPa 0,0 mm 0,1 km/h (0 Bft) S 191 ° 1 min 0,000 mm 2,5 UV-I 297 W/m² 12,5 °C 17,6 °C 1,6 km/h (1 Bft)
29.06.2017 15:53 17,7 °C 17,7 °C 71 % 998,8 hPa 0,0 mm 0,1 km/h (0 Bft) S 191 ° 1 min 0,000 mm 2,6 UV-I 304 W/m² 12,4 °C 17,7 °C 1,6 km/h (1 Bft)
29.06.2017 15:54 17,7 °C 17,7 °C 68 % 998,8 hPa 0,0 mm 0,0 km/h (0 Bft) S 191 ° 1 min 0,000 mm 2,7 UV-I 357 W/m² 11,7 °C 17,7 °C 0,0 km/h (0 Bft)
29.06.2017 15:55 17,8 °C 17,8 °C 65 % 998,8 hPa 0,0 mm 0,0 km/h (0 Bft) S 191 ° 1 min 0,000 mm 3,5 UV-I 457 W/m² 11,1 °C 17,8 °C 0,0 km/h (0 Bft)
29.06.2017 15:56 17,9 °C 17,9 °C 64 % 998,8 hPa 0,0 mm 1,4 km/h (1 Bft) S 191 ° 1 min 0,000 mm 4,5 UV-I 457 W/m² 11,0 °C 17,9 °C 3,2 km/h (1 Bft)
29.06.2017 15:57 18,0 °C 18,0 °C 65 % 998,8 hPa 0,0 mm 0,7 km/h (0 Bft) S 191 ° 1 min 0,000 mm 5,1 UV-I 457 W/m² 11,3 °C 18,0 °C 1,6 km/h (1 Bft)
29.06.2017 15:58 18,3 °C 18,3 °C 66 % 998,7 hPa 0,0 mm 0,5 km/h (0 Bft) S 191 ° 1 min 0,000 mm 5,1 UV-I 816 W/m² 11,8 °C 18,3 °C 1,6 km/h (1 Bft)
29.06.2017 15:59 18,6 °C 18,6 °C 68 % 998,8 hPa 0,0 mm 0,0 km/h (0 Bft) S 191 ° 1 min 0,000 mm 6,3 UV-I 967 W/m² 12,6 °C 18,6 °C 0,0 km/h (0 Bft)
29.06.2017 16:00 18,7 °C 18,7 °C 64 % 998,7 hPa 0,0 mm 0,8 km/h (0 Bft) S 191 ° 1 min 0,000 mm 6,3 UV-I 967 W/m² 11,7 °C 18,7 °C 1,6 km/h (1 Bft)
29.06.2017 16:01 18,9 °C 18,9 °C 63 % 998,8 hPa 0,0 mm 3,8 km/h (1 Bft) NO 55 ° 1 min 0,153 mm 4,1 UV-I 967 W/m² 11,7 °C 18,9 °C 6,4 km/h (2 Bft)
29.06.2017 16:02 19,0 °C 19,0 °C 63 % 998,7 hPa 0,0 mm 3,3 km/h (1 Bft) O-NO 58 ° 1 min 0,000 mm 4,2 UV-I 397 W/m² 11,8 °C 19,0 °C 4,8 km/h (1 Bft)
29.06.2017 16:03 19,1 °C 19,1 °C 61 % 998,7 hPa 0,0 mm 2,6 km/h (1 Bft) NO 49 ° 1 min 0,000 mm 4,0 UV-I 397 W/m² 11,4 °C 19,1 °C 4,8 km/h (1 Bft)
29.06.2017 16:04 19,2 °C 19,2 °C 65 % 998,7 hPa 0,0 mm 3,4 km/h (1 Bft) N-NO 32 ° 1 min 0,000 mm 3,8 UV-I 397 W/m² 12,5 °C 19,2 °C 6,4 km/h (2 Bft)
29.06.2017 16:05 19,2 °C 19,2 °C 64 % 998,7 hPa 0,0 mm 1,4 km/h (1 Bft) NO 49 ° 0 min 0,000 mm 3,0 UV-I 272 W/m² 12,2 °C 19,2 °C 4,8 km/h (1 Bft)
29.06.2017 16:06 19,1 °C 19,2 °C 63 % 998,7 hPa 0,0 mm 5,4 km/h (1 Bft) O 91 ° 0 min 0,000 mm 2,9 UV-I 279 W/m² 11,9 °C 19,1 °C 8,0 km/h (2 Bft)
29.06.2017 16:07 19,0 °C 19,1 °C 60 % 998,7 hPa 0,0 mm 5,5 km/h (1 Bft) O-SO 110 ° 0 min 0,000 mm 4,6 UV-I 279 W/m² 11,1 °C 19,0 °C 9,7 km/h (2 Bft)
29.06.2017 16:08 18,8 °C 19,0 °C 66 % 998,6 hPa 0,0 mm 3,1 km/h (1 Bft) O-SO 111 ° 0 min 0,000 mm 2,9 UV-I 279 W/m² 12,3 °C 18,8 °C 4,8 km/h (1 Bft)
29.06.2017 16:09 18,8 °C 18,8 °C 62 % 998,7 hPa 0,0 mm 2,1 km/h (1 Bft) O 84 ° 1 min 0,000 mm 3,3 UV-I 336 W/m² 11,4 °C 18,8 °C 4,8 km/h (1 Bft)
29.06.2017 16:10 18,8 °C 18,8 °C 62 % 998,7 hPa 0,0 mm 2,1 km/h (1 Bft) O 88 ° 1 min 0,000 mm 3,1 UV-I 327 W/m² 11,4 °C 18,8 °C 4,8 km/h (1 Bft)
29.06.2017 16:11 18,8 °C 18,8 °C 63 % 998,7 hPa 0,0 mm 0,5 km/h (0 Bft) O 88 ° 1 min 0,000 mm 3,1 UV-I 357 W/m² 11,6 °C 18,8 °C 1,6 km/h (1 Bft)
29.06.2017 16:12 18,9 °C 18,9 °C 63 % 998,7 hPa 0,0 mm 2,6 km/h (1 Bft) O 88 ° 0 min 0,000 mm 2,5 UV-I 227 W/m² 11,7 °C 18,9 °C 4,8 km/h (1 Bft)
29.06.2017 16:13 18,8 °C 18,9 °C 69 % 998,6 hPa 0,0 mm 4,3 km/h (1 Bft) S-SO 155 ° 0 min 0,000 mm 2,4 UV-I 225 W/m² 13,0 °C 18,8 °C 4,8 km/h (1 Bft)
29.06.2017 16:14 18,7 °C 18,8 °C 60 % 998,7 hPa 0,0 mm 2,9 km/h (1 Bft) S-SO 155 ° 0 min 0,000 mm 2,4 UV-I 181 W/m² 10,8 °C 18,7 °C 4,8 km/h (1 Bft)
29.06.2017 16:15 18,7 °C 18,7 °C 60 % 998,7 hPa 0,0 mm 2,0 km/h (1 Bft) S-SO 155 ° 0 min 0,000 mm 2,3 UV-I 181 W/m² 10,8 °C 18,7 °C 4,8 km/h (1 Bft)
29.06.2017 16:16 18,6 °C 18,7 °C 60 % 998,6 hPa 0,0 mm 1,2 km/h (1 Bft) S-SO 155 ° 0 min 0,000 mm 2,4 UV-I 185 W/m² 10,7 °C 18,6 °C 3,2 km/h (1 Bft)
29.06.2017 16:17 18,5 °C 18,6 °C 70 % 998,7 hPa 0,0 mm 0,8 km/h (0 Bft) S-SO 155 ° 0 min 0,000 mm 2,4 UV-I 229 W/m² 12,9 °C 18,5 °C 1,6 km/h (1 Bft)
29.06.2017 16:18 18,4 °C 18,5 °C 67 % 998,7 hPa 0,0 mm 1,8 km/h (1 Bft) S-SO 155 ° 0 min 0,000 mm 2,4 UV-I 243 W/m² 12,2 °C 18,4 °C 3,2 km/h (1 Bft)
29.06.2017 16:19 18,2 °C 18,4 °C 68 % 998,6 hPa 0,0 mm 5,8 km/h (2 Bft) S 175 ° 0 min 0,000 mm 2,4 UV-I 248 W/m² 12,2 °C 18,2 °C 11,3 km/h (2 Bft)
29.06.2017 16:20 18,3 °C 18,3 °C 60 % 998,6 hPa 0,0 mm 4,0 km/h (1 Bft) S 174 ° 0 min 0,000 mm 2,4 UV-I 244 W/m² 10,4 °C 18,3 °C 6,4 km/h (2 Bft)
29.06.2017 16:21 18,3 °C 18,3 °C 59 % 998,6 hPa 0,0 mm 0,8 km/h (0 Bft) S 174 ° 0 min 0,000 mm 2,4 UV-I 241 W/m² 10,1 °C 18,3 °C 3,2 km/h (1 Bft)
29.06.2017 16:22 18,3 °C 18,3 °C 62 % 998,6 hPa 0,0 mm 4,8 km/h (1 Bft) SO 142 ° 0 min 0,000 mm 2,3 UV-I 239 W/m² 10,9 °C 18,3 °C 8,0 km/h (2 Bft)
29.06.2017 16:23 18,3 °C 18,3 °C 63 % 998,6 hPa 0,0 mm 4,2 km/h (1 Bft) SO 138 ° 0 min 0,000 mm 2,4 UV-I 271 W/m² 11,1 °C 18,3 °C 6,4 km/h (2 Bft)
29.06.2017 16:24 18,2 °C 18,3 °C 68 % 998,6 hPa 0,0 mm 5,3 km/h (1 Bft) S-SO 151 ° 0 min 0,000 mm 2,6 UV-I 288 W/m² 12,2 °C 18,2 °C 8,0 km/h (2 Bft)
29.06.2017 16:25 18,1 °C 18,2 °C 64 % 998,5 hPa 0,0 mm 2,7 km/h (1 Bft) S-SO 150 ° 0 min 0,000 mm 2,6 UV-I 288 W/m² 11,2 °C 18,1 °C 4,8 km/h (1 Bft)
29.06.2017 16:26 18,2 °C 18,2 °C 67 % 998,5 hPa 0,0 mm 3,5 km/h (1 Bft) S-SO 150 ° 0 min 0,000 mm 2,5 UV-I 283 W/m² 12,0 °C 18,2 °C 4,8 km/h (1 Bft)
29.06.2017 16:27 18,3 °C 18,3 °C 67 % 998,5 hPa 0,0 mm 0,8 km/h (0 Bft) S-SO 150 ° 0 min 0,000 mm 2,5 UV-I 278 W/m² 12,1 °C 18,3 °C 3,2 km/h (1 Bft)
29.06.2017 16:28 18,4 °C 18,4 °C 67 % 998,5 hPa 0,0 mm 0,4 km/h (0 Bft) S-SO 150 ° 0 min 0,000 mm 2,4 UV-I 278 W/m² 12,2 °C 18,4 °C 1,6 km/h (1 Bft)
29.06.2017 16:29 18,4 °C 18,4 °C 67 % 998,5 hPa 0,0 mm 0,0 km/h (0 Bft) S-SO 150 ° 0 min 0,000 mm 2,3 UV-I 255 W/m² 12,2 °C 18,4 °C 0,0 km/h (0 Bft)
29.06.2017 16:30 18,5 °C 18,5 °C 63 % 998,5 hPa 0,0 mm 0,1 km/h (0 Bft) S-SO 150 ° 0 min 0,000 mm 2,2 UV-I 250 W/m² 11,3 °C 18,5 °C 1,6 km/h (1 Bft)
29.06.2017 16:31 18,6 °C 18,6 °C 63 % 998,5 hPa 0,0 mm 0,4 km/h (0 Bft) S-SO 150 ° 0 min 0,000 mm 2,1 UV-I 248 W/m² 11,4 °C 18,6 °C 3,2 km/h (1 Bft)
29.06.2017 16:32 18,7 °C 18,7 °C 66 % 998,5 hPa 0,0 mm 2,9 km/h (1 Bft) NW 309 ° 0 min 0,000 mm 2,2 UV-I 255 W/m² 12,2 °C 18,7 °C 4,8 km/h (1 Bft)
29.06.2017 16:33 18,8 °C 18,8 °C 62 % 998,5 hPa 0,0 mm 0,8 km/h (0 Bft) NW 309 ° 1 min 0,000 mm 2,4 UV-I 297 W/m² 11,4 °C 18,8 °C 1,6 km/h (1 Bft)
29.06.2017 16:34 18,9 °C 18,9 °C 62 % 998,6 hPa 0,0 mm 0,1 km/h (0 Bft) NW 309 ° 1 min 0,000 mm 2,5 UV-I 309 W/m² 11,5 °C 18,9 °C 1,6 km/h (1 Bft)
29.06.2017 16:35 18,8 °C 18,9 °C 60 % 998,6 hPa 0,0 mm 0,9 km/h (0 Bft) S-SW 209 ° 1 min 0,000 mm 2,6 UV-I 327 W/m² 10,9 °C 18,8 °C 3,2 km/h (1 Bft)
29.06.2017 16:36 18,8 °C 18,9 °C 60 % 998,5 hPa 0,0 mm 1,7 km/h (1 Bft) S-SW 209 ° 1 min 0,000 mm 2,6 UV-I 315 W/m² 10,9 °C 18,8 °C 3,2 km/h (1 Bft)
29.06.2017 16:37 18,8 °C 18,8 °C 61 % 998,6 hPa 0,0 mm 0,9 km/h (0 Bft) S-SW 209 ° 1 min 0,000 mm 2,6 UV-I 315 W/m² 11,1 °C 18,8 °C 3,2 km/h (1 Bft)
29.06.2017 16:38 18,9 °C 18,9 °C 66 % 998,5 hPa 0,0 mm 0,0 km/h (0 Bft) S-SW 209 ° 0 min 0,000 mm 2,5 UV-I 283 W/m² 12,4 °C 18,9 °C 0,0 km/h (0 Bft)
29.06.2017 16:39 18,9 °C 18,9 °C 64 % 998,5 hPa 0,0 mm 2,0 km/h (1 Bft) S-SW 208 ° 0 min 0,000 mm 2,4 UV-I 279 W/m² 11,9 °C 18,9 °C 3,2 km/h (1 Bft)
29.06.2017 16:40 18,9 °C 18,9 °C 60 % 998,5 hPa 0,0 mm 2,4 km/h (1 Bft) S-SW 200 ° 0 min 0,000 mm 2,4 UV-I 271 W/m² 11,0 °C 18,9 °C 3,2 km/h (1 Bft)
29.06.2017 16:41 18,9 °C 18,9 °C 60 % 998,6 hPa 0,0 mm 1,3 km/h (1 Bft) S-SW 200 ° 0 min 0,000 mm 2,4 UV-I 276 W/m² 11,0 °C 18,9 °C 3,2 km/h (1 Bft)
29.06.2017 16:42 18,8 °C 18,9 °C 60 % 998,5 hPa 0,0 mm 2,5 km/h (1 Bft) S-SW 200 ° 0 min 0,000 mm 2,3 UV-I 271 W/m² 10,9 °C 18,8 °C 3,2 km/h (1 Bft)
29.06.2017 16:43 18,8 °C 18,9 °C 63 % 998,6 hPa 0,0 mm 0,8 km/h (0 Bft) S-SW 200 ° 0 min 0,000 mm 2,2 UV-I 262 W/m² 11,6 °C 18,8 °C 3,2 km/h (1 Bft)
29.06.2017 16:44 18,8 °C 18,8 °C 62 % 998,5 hPa 0,0 mm 2,5 km/h (1 Bft) S-SW 199 ° 0 min 0,000 mm 2,1 UV-I 239 W/m² 11,4 °C 18,8 °C 3,2 km/h (1 Bft)
29.06.2017 16:45 18,8 °C 18,8 °C 61 % 998,5 hPa 0,0 mm 1,8 km/h (1 Bft) S-SW 199 ° 0 min 0,000 mm 1,9 UV-I 227 W/m² 11,1 °C 18,8 °C 3,2 km/h (1 Bft)
29.06.2017 16:46 18,7 °C 18,8 °C 64 % 998,5 hPa 0,0 mm 0,5 km/h (0 Bft) S-SW 199 ° 0 min 0,000 mm 1,8 UV-I 213 W/m² 11,7 °C 18,7 °C 1,6 km/h (1 Bft)
29.06.2017 16:47 18,7 °C 18,7 °C 62 % 998,5 hPa 0,0 mm 0,1 km/h (0 Bft) S-SW 199 ° 0 min 0,000 mm 1,7 UV-I 188 W/m² 11,3 °C 18,7 °C 1,6 km/h (1 Bft)
29.06.2017 16:48 18,7 °C 18,7 °C 65 % 998,6 hPa 0,0 mm 0,0 km/h (0 Bft) S-SW 199 ° 0 min 0,000 mm 1,4 UV-I 172 W/m² 12,0 °C 18,7 °C 0,0 km/h (0 Bft)
29.06.2017 16:49 18,7 °C 18,7 °C 66 % 998,7 hPa 0,0 mm 0,0 km/h (0 Bft) S-SW 199 ° 0 min 0,000 mm 1,3 UV-I 151 W/m² 12,2 °C 18,7 °C 0,0 km/h (0 Bft)
29.06.2017 16:50 18,7 °C 18,7 °C 73 % 998,7 hPa 0,0 mm 0,1 km/h (0 Bft) S-SW 199 ° 0 min 0,000 mm 1,1 UV-I 134 W/m² 13,8 °C 18,7 °C 1,6 km/h (1 Bft)
29.06.2017 16:51 18,6 °C 18,7 °C 67 % 998,7 hPa 0,0 mm 0,0 km/h (0 Bft) S-SW 199 ° 0 min 0,000 mm 1,0 UV-I 118 W/m² 12,3 °C 18,6 °C 0,0 km/h (0 Bft)
29.06.2017 16:52 18,6 °C 18,6 °C 66 % 998,7 hPa 0,0 mm 0,0 km/h (0 Bft) S-SW 199 ° 0 min 0,000 mm 0,9 UV-I 79 W/m² 12,1 °C 18,6 °C 0,0 km/h (0 Bft)
29.06.2017 16:53 18,6 °C 18,6 °C 63 % 998,7 hPa 0,0 mm 0,7 km/h (0 Bft) S-SW 199 ° 0 min 0,000 mm 0,6 UV-I 65 W/m² 11,4 °C 18,6 °C 1,6 km/h (1 Bft)
29.06.2017 16:54 18,4 °C 18,6 °C 68 % 998,7 hPa 0,0 mm 2,6 km/h (1 Bft) S 178 ° 0 min 0,000 mm 0,0 UV-I 54 W/m² 12,4 °C 18,4 °C 4,8 km/h (1 Bft)
29.06.2017 16:55 18,3 °C 18,4 °C 71 % 998,7 hPa 0,0 mm 2,1 km/h (1 Bft) W-SW 253 ° 0 min 0,000 mm 0,0 UV-I 47 W/m² 12,9 °C 18,3 °C 4,8 km/h (1 Bft)
29.06.2017 16:56 18,2 °C 18,3 °C 72 % 998,8 hPa 0,0 mm 1,5 km/h (1 Bft) SW 223 ° 0 min 0,000 mm 0,0 UV-I 42 W/m² 13,1 °C 18,2 °C 3,2 km/h (1 Bft)
29.06.2017 16:57 18,0 °C 18,2 °C 74 % 998,7 hPa 0,0 mm 0,0 km/h (0 Bft) SW 223 ° 0 min 0,000 mm 0,0 UV-I 40 W/m² 13,3 °C 18,0 °C 0,0 km/h (0 Bft)
29.06.2017 16:58 17,8 °C 18,0 °C 70 % 998,8 hPa 0,0 mm 0,0 km/h (0 Bft) SW 223 ° 0 min 0,000 mm 0,0 UV-I 35 W/m² 12,3 °C 17,8 °C 0,0 km/h (0 Bft)
29.06.2017 16:59 17,7 °C 17,8 °C 73 % 998,8 hPa 0,0 mm 4,1 km/h (1 Bft) SO 129 ° 0 min 0,000 mm 0,0 UV-I 32 W/m² 12,8 °C 17,7 °C 6,4 km/h (2 Bft)
29.06.2017 17:00 17,6 °C 17,7 °C 74 % 998,8 hPa 0,0 mm 0,8 km/h (0 Bft) O-SO 111 ° 0 min 0,000 mm 0,0 UV-I 28 W/m² 12,9 °C 17,6 °C 3,2 km/h (1 Bft)
29.06.2017 17:01 17,4 °C 17,6 °C 73 % 998,8 hPa 0,0 mm 1,2 km/h (1 Bft) O-SO 111 ° 0 min 0,152 mm 0,0 UV-I 25 W/m² 12,5 °C 17,4 °C 3,2 km/h (1 Bft)
29.06.2017 17:02 17,3 °C 17,4 °C 74 % 998,8 hPa 0,0 mm 0,0 km/h (0 Bft) O-SO 111 ° 0 min 0,000 mm 0,0 UV-I 21 W/m² 12,6 °C 17,3 °C 0,0 km/h (0 Bft)
29.06.2017 17:03 17,3 °C 17,3 °C 73 % 998,8 hPa 0,0 mm 0,0 km/h (0 Bft) O-SO 111 ° 0 min 0,000 mm 0,0 UV-I 19 W/m² 12,4 °C 17,3 °C 0,0 km/h (0 Bft)
29.06.2017 17:04 17,2 °C 17,3 °C 72 % 998,8 hPa 0,0 mm 0,0 km/h (0 Bft) O-SO 111 ° 0 min 0,000 mm 0,0 UV-I 16 W/m² 12,1 °C 17,2 °C 0,0 km/h (0 Bft)
29.06.2017 17:05 17,0 °C 17,2 °C 74 % 998,9 hPa 0,0 mm 0,0 km/h (0 Bft) O-SO 111 ° 0 min 0,000 mm 0,0 UV-I 14 W/m² 12,3 °C 17,0 °C 0,0 km/h (0 Bft)
29.06.2017 17:06 16,9 °C 17,0 °C 74 % 999,0 hPa 0,0 mm 0,0 km/h (0 Bft) O-SO 111 ° 0 min 0,000 mm 0,0 UV-I 12 W/m² 12,2 °C 16,9 °C 0,0 km/h (0 Bft)
29.06.2017 17:07 16,8 °C 16,9 °C 75 % 999,0 hPa 0,0 mm 0,1 km/h (0 Bft) O-SO 111 ° 0 min 0,000 mm 0,0 UV-I 12 W/m² 12,3 °C 16,8 °C 1,6 km/h (1 Bft)
29.06.2017 17:08 16,8 °C 16,8 °C 77 % 999,1 hPa 0,0 mm 0,2 km/h (0 Bft) O-SO 111 ° 0 min 0,000 mm 0,0 UV-I 12 W/m² 12,7 °C 16,8 °C 1,6 km/h (1 Bft)
29.06.2017 17:09 16,7 °C 16,8 °C 74 % 999,1 hPa 0,0 mm 0,0 km/h (0 Bft) O-SO 111 ° 0 min 0,000 mm 0,0 UV-I 12 W/m² 12,0 °C 16,7 °C 0,0 km/h (0 Bft)
29.06.2017 17:10 16,7 °C 16,8 °C 74 % 999,2 hPa 0,2 mm 0,7 km/h (0 Bft) W 275 ° 0 min 0,000 mm 0,0 UV-I 12 W/m² 12,0 °C 16,7 °C 3,2 km/h (1 Bft)
29.06.2017 17:11 16,6 °C 16,7 °C 77 % 999,3 hPa 0,4 mm 3,6 km/h (1 Bft) W-NW 295 ° 0 min 0,000 mm 0,0 UV-I 14 W/m² 12,5 °C 16,6 °C 6,4 km/h (2 Bft)
29.06.2017 17:12 16,4 °C 16,6 °C 77 % 999,4 hPa 0,6 mm 3,8 km/h (1 Bft) W-SW 248 ° 0 min 0,000 mm 0,0 UV-I 16 W/m² 12,4 °C 16,4 °C 6,4 km/h (2 Bft)
29.06.2017 17:13 16,2 °C 16,4 °C 80 % 999,4 hPa 0,6 mm 2,6 km/h (1 Bft) W-SW 248 ° 0 min 0,000 mm 0,0 UV-I 18 W/m² 12,7 °C 16,2 °C 3,2 km/h (1 Bft)
29.06.2017 17:14 15,9 °C 16,2 °C 81 % 999,4 hPa 0,4 mm 0,0 km/h (0 Bft) W-SW 248 ° 0 min 0,000 mm 0,0 UV-I 19 W/m² 12,6 °C 15,9 °C 0,0 km/h (0 Bft)
29.06.2017 17:15 15,6 °C 15,9 °C 82 % 999,3 hPa 0,6 mm 2,9 km/h (1 Bft) W-NW 296 ° 0 min 0,000 mm 0,0 UV-I 21 W/m² 12,5 °C 15,6 °C 4,8 km/h (1 Bft)
29.06.2017 17:16 15,3 °C 15,6 °C 84 % 999,4 hPa 0,4 mm 7,0 km/h (2 Bft) W-NW 286 ° 0 min 0,000 mm 0,0 UV-I 26 W/m² 12,6 °C 15,3 °C 9,7 km/h (2 Bft)
29.06.2017 17:17 15,2 °C 15,3 °C 84 % 999,4 hPa 0,6 mm 11,9 km/h (2 Bft) N-NW 340 ° 0 min 0,000 mm 0,0 UV-I 28 W/m² 12,5 °C 15,2 °C 17,7 km/h (3 Bft)
29.06.2017 17:18 14,9 °C 15,2 °C 84 % 999,3 hPa 0,0 mm 13,2 km/h (3 Bft) W-NW 303 ° 0 min 0,000 mm 0,0 UV-I 30 W/m² 12,2 °C 14,9 °C 17,7 km/h (3 Bft)
29.06.2017 17:19 14,8 °C 14,9 °C 85 % 999,2 hPa 0,2 mm 8,0 km/h (2 Bft) W-NW 284 ° 0 min 0,000 mm 0,0 UV-I 30 W/m² 12,3 °C 14,8 °C 14,5 km/h (3 Bft)
29.06.2017 17:20 14,6 °C 14,8 °C 85 % 999,2 hPa 0,0 mm 5,9 km/h (2 Bft) NW 321 ° 0 min 0,000 mm 0,0 UV-I 28 W/m² 12,1 °C 14,6 °C 8,0 km/h (2 Bft)
29.06.2017 17:21 14,5 °C 14,6 °C 84 % 999,1 hPa 0,0 mm 3,8 km/h (1 Bft) NW 317 ° 0 min 0,000 mm 0,0 UV-I 28 W/m² 11,8 °C 14,5 °C 12,9 km/h (3 Bft)
29.06.2017 17:22 14,4 °C 14,5 °C 85 % 999,0 hPa 0,0 mm 3,2 km/h (1 Bft) N 5 ° 0 min 0,000 mm 0,0 UV-I 30 W/m² 11,9 °C 14,4 °C 4,8 km/h (1 Bft)
29.06.2017 17:23 14,3 °C 14,4 °C 84 % 998,9 hPa 0,0 mm 6,7 km/h (2 Bft) N-NW 344 ° 0 min 0,000 mm 0,0 UV-I 32 W/m² 11,6 °C 14,3 °C 11,3 km/h (2 Bft)
29.06.2017 17:24 14,3 °C 14,3 °C 84 % 999,0 hPa 0,0 mm 6,7 km/h (2 Bft) NO 38 ° 0 min 0,000 mm 0,0 UV-I 33 W/m² 11,6 °C 14,3 °C 12,9 km/h (3 Bft)
29.06.2017 17:25 14,3 °C 14,3 °C 82 % 999,1 hPa 0,0 mm 0,7 km/h (0 Bft) NW 322 ° 0 min 0,000 mm 0,0 UV-I 37 W/m² 11,3 °C 14,3 °C 4,8 km/h (1 Bft)
29.06.2017 17:26 14,3 °C 14,3 °C 82 % 999,3 hPa 0,0 mm 2,9 km/h (1 Bft) NW 319 ° 0 min 0,000 mm 0,0 UV-I 39 W/m² 11,3 °C 14,3 °C 4,8 km/h (1 Bft)
29.06.2017 17:27 14,2 °C 14,3 °C 81 % 999,5 hPa 0,2 mm 0,6 km/h (0 Bft) W-SW 238 ° 0 min 0,000 mm 0,0 UV-I 42 W/m² 11,0 °C 14,2 °C 1,6 km/h (1 Bft)
29.06.2017 17:28 14,1 °C 14,2 °C 82 % 999,5 hPa 0,0 mm 5,5 km/h (1 Bft) S 180 ° 0 min 0,000 mm 0,0 UV-I 42 W/m² 11,1 °C 14,1 °C 8,0 km/h (2 Bft)
29.06.2017 17:29 13,8 °C 14,1 °C 84 % 999,7 hPa 0,0 mm 8,2 km/h (2 Bft) S 188 ° 0 min 0,000 mm 0,0 UV-I 40 W/m² 11,1 °C 13,8 °C 9,7 km/h (2 Bft)
29.06.2017 17:30 13,6 °C 13,8 °C 85 % 999,7 hPa 0,0 mm 5,1 km/h (1 Bft) S 188 ° 0 min 0,000 mm 0,0 UV-I 40 W/m² 11,1 °C 13,6 °C 8,0 km/h (2 Bft)
29.06.2017 17:31 13,4 °C 13,6 °C 87 % 999,8 hPa 0,0 mm 2,2 km/h (1 Bft) S 188 ° 0 min 0,000 mm 0,0 UV-I 42 W/m² 11,3 °C 13,4 °C 3,2 km/h (1 Bft)
29.06.2017 17:32 13,3 °C 13,5 °C 88 % 999,9 hPa 0,0 mm 0,5 km/h (0 Bft) S 187 ° 0 min 0,000 mm 0,0 UV-I 44 W/m² 11,4 °C 13,3 °C 1,6 km/h (1 Bft)
29.06.2017 17:33 13,1 °C 13,3 °C 88 % 999,9 hPa 0,0 mm 0,7 km/h (0 Bft) S 180 ° 0 min 0,000 mm 0,0 UV-I 49 W/m² 11,2 °C 13,1 °C 1,6 km/h (1 Bft)
29.06.2017 17:34 13,1 °C 13,2 °C 89 % 999,9 hPa 0,0 mm 2,9 km/h (1 Bft) S 178 ° 0 min 0,000 mm 0,0 UV-I 51 W/m² 11,3 °C 13,1 °C 4,8 km/h (1 Bft)
29.06.2017 17:35 13,0 °C 13,1 °C 90 % 999,8 hPa 0,0 mm 2,3 km/h (1 Bft) S 178 ° 0 min 0,000 mm 0,0 UV-I 53 W/m² 11,4 °C 13,0 °C 3,2 km/h (1 Bft)
29.06.2017 17:36 13,0 °C 13,0 °C 90 % 999,8 hPa 0,0 mm 4,2 km/h (1 Bft) O 86 ° 0 min 0,000 mm 0,0 UV-I 53 W/m² 11,4 °C 13,0 °C 6,4 km/h (2 Bft)
29.06.2017 17:37 13,0 °C 13,0 °C 91 % 999,8 hPa 0,0 mm 5,3 km/h (1 Bft) O 90 ° 0 min 0,000 mm 0,0 UV-I 54 W/m² 11,6 °C 13,0 °C 6,4 km/h (2 Bft)
29.06.2017 17:38 13,0 °C 13,1 °C 92 % 999,8 hPa 0,0 mm 3,7 km/h (1 Bft) O 94 ° 0 min 0,000 mm 0,0 UV-I 54 W/m² 11,7 °C 13,0 °C 4,8 km/h (1 Bft)
29.06.2017 17:39 13,1 °C 13,1 °C 92 % 999,8 hPa 0,0 mm 2,4 km/h (1 Bft) O 94 ° 0 min 0,000 mm 0,0 UV-I 51 W/m² 11,8 °C 13,1 °C 3,2 km/h (1 Bft)
29.06.2017 17:40 13,1 °C 13,1 °C 92 % 999,9 hPa 0,0 mm 1,6 km/h (1 Bft) O 94 ° 0 min 0,000 mm 0,0 UV-I 47 W/m² 11,8 °C 13,1 °C 3,2 km/h (1 Bft)
29.06.2017 17:41 13,1 °C 13,1 °C 92 % 999,9 hPa 0,0 mm 0,0 km/h (0 Bft) O 94 ° 0 min 0,000 mm 0,0 UV-I 46 W/m² 11,8 °C 13,1 °C 0,0 km/h (0 Bft)
29.06.2017 17:42 13,1 °C 13,1 °C 92 % 999,8 hPa 0,0 mm 0,0 km/h (0 Bft) O 94 ° 0 min 0,000 mm 0,0 UV-I 44 W/m² 11,8 °C 13,1 °C 0,0 km/h (0 Bft)
29.06.2017 17:43 13,1 °C 13,1 °C 92 % 999,8 hPa 0,0 mm 2,9 km/h (1 Bft) O 96 ° 0 min 0,000 mm 0,0 UV-I 40 W/m² 11,8 °C 13,1 °C 4,8 km/h (1 Bft)
29.06.2017 17:44 13,1 °C 13,1 °C 92 % 999,8 hPa 0,0 mm 1,7 km/h (1 Bft) O 96 ° 0 min 0,000 mm 0,0 UV-I 39 W/m² 11,8 °C 13,1 °C 3,2 km/h (1 Bft)
29.06.2017 17:45 13,1 °C 13,1 °C 92 % 999,8 hPa 0,0 mm 0,9 km/h (0 Bft) O 96 ° 0 min 0,000 mm 0,0 UV-I 33 W/m² 11,8 °C 13,1 °C 1,6 km/h (1 Bft)
29.06.2017 17:46 13,1 °C 13,1 °C 92 % 999,8 hPa 0,0 mm 0,1 km/h (0 Bft) O 96 ° 0 min 0,000 mm 0,0 UV-I 30 W/m² 11,8 °C 13,1 °C 1,6 km/h (1 Bft)
29.06.2017 17:47 13,1 °C 13,1 °C 92 % 999,8 hPa 0,0 mm 1,7 km/h (1 Bft) O 96 ° 0 min 0,000 mm 0,0 UV-I 28 W/m² 11,8 °C 13,1 °C 3,2 km/h (1 Bft)
29.06.2017 17:48 13,2 °C 13,2 °C 92 % 999,8 hPa 0,0 mm 0,0 km/h (0 Bft) O 96 ° 0 min 0,000 mm 0,0 UV-I 25 W/m² 11,9 °C 13,2 °C 0,0 km/h (0 Bft)
29.06.2017 17:49 13,2 °C 13,2 °C 93 % 999,9 hPa 0,0 mm 0,1 km/h (0 Bft) O 96 ° 0 min 0,000 mm 0,0 UV-I 25 W/m² 12,1 °C 13,2 °C 1,6 km/h (1 Bft)
29.06.2017 17:50 13,2 °C 13,2 °C 93 % 999,8 hPa 0,0 mm 0,0 km/h (0 Bft) O 96 ° 0 min 0,000 mm 0,0 UV-I 25 W/m² 12,1 °C 13,2 °C 0,0 km/h (0 Bft)
29.06.2017 17:51 13,3 °C 13,3 °C 93 % 999,8 hPa 0,0 mm 0,0 km/h (0 Bft) O 96 ° 0 min 0,000 mm 0,0 UV-I 26 W/m² 12,2 °C 13,3 °C 0,0 km/h (0 Bft)
29.06.2017 17:52 13,3 °C 13,3 °C 93 % 999,7 hPa 0,0 mm 0,0 km/h (0 Bft) O 96 ° 0 min 0,000 mm 0,0 UV-I 28 W/m² 12,2 °C 13,3 °C 0,0 km/h (0 Bft)
29.06.2017 17:53 13,3 °C 13,3 °C 93 % 999,7 hPa 0,0 mm 0,1 km/h (0 Bft) O 96 ° 0 min 0,000 mm 0,0 UV-I 28 W/m² 12,2 °C 13,3 °C 1,6 km/h (1 Bft)
29.06.2017 17:54 13,3 °C 13,3 °C 93 % 999,6 hPa 0,0 mm 3,7 km/h (1 Bft) O 96 ° 0 min 0,000 mm 0,0 UV-I 30 W/m² 12,2 °C 13,3 °C 4,8 km/h (1 Bft)
29.06.2017 17:55 13,3 °C 13,3 °C 93 % 999,6 hPa 0,0 mm 5,0 km/h (1 Bft) SO 126 ° 0 min 0,000 mm 0,0 UV-I 30 W/m² 12,2 °C 13,3 °C 6,4 km/h (2 Bft)
29.06.2017 17:56 13,2 °C 13,3 °C 93 % 999,5 hPa 0,0 mm 5,1 km/h (1 Bft) O-SO 123 ° 0 min 0,000 mm 0,0 UV-I 32 W/m² 12,1 °C 13,2 °C 6,4 km/h (2 Bft)
29.06.2017 17:57 13,2 °C 13,2 °C 93 % 999,4 hPa 0,0 mm 4,6 km/h (1 Bft) O-SO 123 ° 0 min 0,000 mm 0,0 UV-I 40 W/m² 12,1 °C 13,2 °C 4,8 km/h (1 Bft)
29.06.2017 17:58 13,2 °C 13,2 °C 93 % 999,4 hPa 0,0 mm 3,0 km/h (1 Bft) O-SO 123 ° 0 min 0,000 mm 0,0 UV-I 46 W/m² 12,1 °C 13,2 °C 4,8 km/h (1 Bft)
29.06.2017 17:59 13,2 °C 13,2 °C 93 % 999,4 hPa 0,0 mm 1,1 km/h (1 Bft) O-SO 123 ° 0 min 0,000 mm 0,0 UV-I 49 W/m² 12,1 °C 13,2 °C 3,2 km/h (1 Bft)
29.06.2017 18:00 13,2 °C 13,2 °C 93 % 999,4 hPa 0,0 mm 2,0 km/h (1 Bft) S-SO 163 ° 0 min 0,000 mm 0,0 UV-I 49 W/m² 12,1 °C 13,2 °C 3,2 km/h (1 Bft)
29.06.2017 18:01 13,3 °C 13,3 °C 94 % 999,6 hPa 0,0 mm 3,5 km/h (1 Bft) SW 231 ° 0 min 0,025 mm 0,0 UV-I 47 W/m² 12,4 °C 13,3 °C 4,8 km/h (1 Bft)
29.06.2017 18:02 13,3 °C 13,3 °C 94 % 999,7 hPa 0,0 mm 2,1 km/h (1 Bft) SW 231 ° 0 min 0,000 mm 0,0 UV-I 47 W/m² 12,4 °C 13,3 °C 3,2 km/h (1 Bft)
29.06.2017 18:03 13,3 °C 13,3 °C 93 % 999,9 hPa 0,0 mm 3,2 km/h (1 Bft) W-SW 247 ° 0 min 0,000 mm 0,0 UV-I 30 W/m² 12,2 °C 13,3 °C 9,7 km/h (2 Bft)
29.06.2017 18:04 13,4 °C 13,4 °C 93 % 1000,0 hPa 0,0 mm 6,4 km/h (2 Bft) W 270 ° 0 min 0,000 mm 0,0 UV-I 23 W/m² 12,3 °C 13,4 °C 11,3 km/h (2 Bft)
29.06.2017 18:05 13,4 °C 13,4 °C 93 % 1000,2 hPa 0,0 mm 4,8 km/h (1 Bft) W 270 ° 0 min 0,000 mm 0,0 UV-I 19 W/m² 12,3 °C 13,4 °C 6,4 km/h (2 Bft)
29.06.2017 18:06 13,4 °C 13,4 °C 93 % 1000,4 hPa 0,0 mm 8,0 km/h (2 Bft) W 270 ° 0 min 0,000 mm 0,0 UV-I 16 W/m² 12,3 °C 13,4 °C 11,3 km/h (2 Bft)
29.06.2017 18:07 13,5 °C 13,5 °C 93 % 1000,7 hPa 0,0 mm 9,7 km/h (2 Bft) W 270 ° 0 min 0,000 mm 0,0 UV-I 12 W/m² 12,4 °C 13,5 °C 12,9 km/h (3 Bft)
29.06.2017 18:08 13,6 °C 13,6 °C 93 % 1001,1 hPa 0,0 mm 19,3 km/h (3 Bft) W 270 ° 0 min 0,000 mm 0,0 UV-I 9 W/m² 12,5 °C 13,6 °C 29,0 km/h (5 Bft)
29.06.2017 18:09 13,6 °C 13,6 °C 93 % 1001,1 hPa 0,0 mm 20,9 km/h (4 Bft) W 270 ° 0 min 0,000 mm 0,0 UV-I 5 W/m² 12,5 °C 13,6 °C 29,0 km/h (5 Bft)
29.06.2017 18:10 13,4 °C 13,5 °C 93 % 1001,2 hPa 0,2 mm 22,5 km/h (4 Bft) W 270 ° 0 min 0,000 mm 0,0 UV-I 5 W/m² 12,3 °C 13,4 °C 37,0 km/h (5 Bft)
29.06.2017 18:11 13,3 °C 13,4 °C 91 % 1001,3 hPa 0,2 mm 14,5 km/h (3 Bft) W 270 ° 0 min 0,000 mm 0,0 UV-I 9 W/m² 11,9 °C 13,3 °C 38,6 km/h (5 Bft)
29.06.2017 18:12 13,2 °C 13,3 °C 90 % 1001,3 hPa 0,0 mm 16,1 km/h (3 Bft) W 270 ° 0 min 0,000 mm 0,0 UV-I 12 W/m² 11,6 °C 13,2 °C 29,0 km/h (5 Bft)
29.06.2017 18:14 12,9 °C 13,3 °C 89 % 1001,4 hPa 0,0 mm 20,9 km/h (4 Bft) W 271 ° 0 min 0,000 mm 0,0 UV-I 16 W/m² 11,1 °C 12,9 °C 32,2 km/h (5 Bft)
29.06.2017 18:15 12,8 °C 12,9 °C 89 % 1001,4 hPa 0,2 mm 25,1 km/h (4 Bft) W-SW 254 ° 0 min 0,000 mm 0,0 UV-I 16 W/m² 11,0 °C 12,8 °C 41,8 km/h (6 Bft)
29.06.2017 18:16 12,7 °C 12,8 °C 89 % 1001,3 hPa 0,0 mm 15,7 km/h (3 Bft) W-SW 240 ° 0 min 0,000 mm 0,0 UV-I 16 W/m² 10,9 °C 12,7 °C 22,5 km/h (4 Bft)
29.06.2017 18:17 12,5 °C 12,7 °C 89 % 1001,4 hPa 0,2 mm 21,4 km/h (4 Bft) W-NW 286 ° 0 min 0,000 mm 0,0 UV-I 16 W/m² 10,7 °C 12,5 °C 30,6 km/h (5 Bft)
29.06.2017 18:18 12,4 °C 12,5 °C 89 % 1001,4 hPa 0,0 mm 17,5 km/h (3 Bft) W 271 ° 0 min 0,000 mm 0,0 UV-I 18 W/m² 10,6 °C 12,4 °C 20,9 km/h (4 Bft)
29.06.2017 18:19 12,3 °C 12,4 °C 90 % 1001,3 hPa 0,0 mm 11,5 km/h (2 Bft) W 273 ° 0 min 0,000 mm 0,0 UV-I 18 W/m² 10,7 °C 12,3 °C 17,7 km/h (3 Bft)
29.06.2017 18:20 12,2 °C 12,3 °C 90 % 1001,3 hPa 0,0 mm 10,2 km/h (2 Bft) W-SW 255 ° 0 min 0,000 mm 0,0 UV-I 19 W/m² 10,6 °C 12,2 °C 14,5 km/h (3 Bft)
29.06.2017 18:21 12,2 °C 12,2 °C 91 % 1001,4 hPa 0,0 mm 12,3 km/h (3 Bft) W 267 ° 0 min 0,000 mm 0,0 UV-I 18 W/m² 10,8 °C 12,2 °C 16,1 km/h (3 Bft)
29.06.2017 18:22 12,1 °C 12,2 °C 91 % 1001,4 hPa 0,2 mm 7,0 km/h (2 Bft) W-SW 254 ° 0 min 0,000 mm 0,0 UV-I 18 W/m² 10,7 °C 12,1 °C 12,9 km/h (3 Bft)
29.06.2017 18:23 12,1 °C 12,1 °C 91 % 1001,5 hPa 0,0 mm 14,8 km/h (3 Bft) W-NW 298 ° 0 min 0,000 mm 0,0 UV-I 18 W/m² 10,7 °C 12,1 °C 24,1 km/h (4 Bft)
29.06.2017 18:24 11,9 °C 12,1 °C 91 % 1001,5 hPa 0,0 mm 17,7 km/h (3 Bft) W 261 ° 0 min 0,000 mm 0,0 UV-I 18 W/m² 10,5 °C 11,9 °C 27,4 km/h (4 Bft)
29.06.2017 18:25 11,9 °C 11,9 °C 91 % 1001,6 hPa 0,0 mm 16,4 km/h (3 Bft) W-SW 242 ° 0 min 0,000 mm 0,0 UV-I 18 W/m² 10,5 °C 11,9 °C 24,1 km/h (4 Bft)
29.06.2017 18:26 11,9 °C 11,9 °C 91 % 1001,6 hPa 0,0 mm 13,6 km/h (3 Bft) W-SW 246 ° 0 min 0,000 mm 0,0 UV-I 18 W/m² 10,5 °C 11,9 °C 24,1 km/h (4 Bft)
29.06.2017 18:27 11,8 °C 11,9 °C 92 % 1001,6 hPa 0,0 mm 16,1 km/h (3 Bft) W-NW 285 ° 0 min 0,000 mm 0,0 UV-I 18 W/m² 10,5 °C 11,8 °C 22,5 km/h (4 Bft)
29.06.2017 18:28 11,8 °C 11,9 °C 92 % 1001,6 hPa 0,0 mm 12,9 km/h (3 Bft) W 269 ° 0 min 0,000 mm 0,0 UV-I 16 W/m² 10,5 °C 11,8 °C 17,7 km/h (3 Bft)
29.06.2017 18:29 11,8 °C 11,8 °C 92 % 1001,6 hPa 0,0 mm 12,7 km/h (3 Bft) W 260 ° 0 min 0,000 mm 0,0 UV-I 16 W/m² 10,5 °C 11,8 °C 22,5 km/h (4 Bft)
29.06.2017 18:30 11,8 °C 11,8 °C 92 % 1001,7 hPa 0,0 mm 14,5 km/h (3 Bft) W-SW 249 ° 0 min 0,000 mm 0,0 UV-I 16 W/m² 10,5 °C 11,8 °C 20,9 km/h (4 Bft)
29.06.2017 18:31 11,8 °C 11,8 °C 92 % 1001,7 hPa 0,2 mm 12,5 km/h (3 Bft) W-SW 249 ° 0 min 0,000 mm 0,0 UV-I 16 W/m² 10,5 °C 11,8 °C 20,9 km/h (4 Bft)
29.06.2017 18:32 11,8 °C 11,8 °C 92 % 1001,7 hPa 0,0 mm 8,2 km/h (2 Bft) W 280 ° 0 min 0,000 mm 0,0 UV-I 18 W/m² 10,5 °C 11,8 °C 16,1 km/h (3 Bft)
29.06.2017 18:33 11,8 °C 11,8 °C 92 % 1001,8 hPa 0,0 mm 14,3 km/h (3 Bft) W-SW 253 ° 0 min 0,000 mm 0,0 UV-I 19 W/m² 10,5 °C 11,8 °C 22,5 km/h (4 Bft)
29.06.2017 18:34 11,8 °C 11,8 °C 92 % 1001,8 hPa 0,0 mm 10,9 km/h (2 Bft) W 281 ° 0 min 0,000 mm 0,0 UV-I 19 W/m² 10,5 °C 11,8 °C 16,1 km/h (3 Bft)
29.06.2017 18:35 11,8 °C 11,8 °C 92 % 1001,9 hPa 0,0 mm 14,3 km/h (3 Bft) W-NW 290 ° 0 min 0,000 mm 0,0 UV-I 21 W/m² 10,5 °C 11,8 °C 22,5 km/h (4 Bft)
29.06.2017 18:36 11,8 °C 11,8 °C 92 % 1001,9 hPa 0,2 mm 17,4 km/h (3 Bft) W-NW 283 ° 0 min 0,000 mm 0,0 UV-I 21 W/m² 10,5 °C 11,8 °C 24,1 km/h (4 Bft)
29.06.2017 18:37 11,8 °C 11,8 °C 92 % 1001,9 hPa 0,0 mm 11,4 km/h (2 Bft) W-SW 257 ° 0 min 0,000 mm 0,0 UV-I 23 W/m² 10,5 °C 11,8 °C 16,1 km/h (3 Bft)
29.06.2017 18:38 11,8 °C 11,8 °C 92 % 1002,0 hPa 0,0 mm 9,8 km/h (2 Bft) W 266 ° 0 min 0,000 mm 0,0 UV-I 26 W/m² 10,5 °C 11,8 °C 14,5 km/h (3 Bft)
29.06.2017 18:39 11,8 °C 11,8 °C 92 % 1002,0 hPa 0,0 mm 9,9 km/h (2 Bft) W-SW 250 ° 0 min 0,000 mm 0,0 UV-I 28 W/m² 10,5 °C 11,8 °C 14,5 km/h (3 Bft)
29.06.2017 18:40 11,7 °C 11,8 °C 92 % 1002,1 hPa 0,0 mm 8,4 km/h (2 Bft) W-NW 294 ° 0 min 0,000 mm 0,0 UV-I 30 W/m² 10,4 °C 11,7 °C 12,9 km/h (3 Bft)
29.06.2017 18:41 11,7 °C 11,8 °C 92 % 1002,1 hPa 0,2 mm 6,4 km/h (2 Bft) W 275 ° 0 min 0,000 mm 0,0 UV-I 33 W/m² 10,4 °C 11,7 °C 12,9 km/h (3 Bft)
29.06.2017 18:42 11,7 °C 11,8 °C 92 % 1002,1 hPa 0,0 mm 13,6 km/h (3 Bft) W 262 ° 0 min 0,000 mm 0,0 UV-I 35 W/m² 10,4 °C 11,7 °C 22,5 km/h (4 Bft)
29.06.2017 18:43 11,7 °C 11,8 °C 92 % 1002,0 hPa 0,0 mm 8,7 km/h (2 Bft) SW 218 ° 0 min 0,000 mm 0,0 UV-I 37 W/m² 10,4 °C 11,7 °C 16,1 km/h (3 Bft)
29.06.2017 18:44 11,7 °C 11,7 °C 92 % 1002,2 hPa 0,0 mm 8,2 km/h (2 Bft) W 259 ° 0 min 0,000 mm 0,0 UV-I 39 W/m² 10,4 °C 11,7 °C 19,3 km/h (3 Bft)
29.06.2017 18:45 11,8 °C 11,8 °C 92 % 1002,1 hPa 0,0 mm 14,9 km/h (3 Bft) S-SW 211 ° 0 min 0,000 mm 0,0 UV-I 40 W/m² 10,5 °C 11,8 °C 20,9 km/h (4 Bft)
29.06.2017 18:46 11,8 °C 11,8 °C 92 % 1002,1 hPa 0,0 mm 7,7 km/h (2 Bft) W-SW 251 ° 0 min 0,000 mm 0,0 UV-I 42 W/m² 10,5 °C 11,8 °C 17,7 km/h (3 Bft)
29.06.2017 18:47 11,8 °C 11,8 °C 92 % 1002,1 hPa 0,0 mm 11,1 km/h (2 Bft) S 190 ° 0 min 0,000 mm 0,0 UV-I 42 W/m² 10,5 °C 11,8 °C 16,1 km/h (3 Bft)
29.06.2017 18:48 11,7 °C 11,8 °C 92 % 1002,1 hPa 0,0 mm 7,6 km/h (2 Bft) W-SW 239 ° 0 min 0,000 mm 0,0 UV-I 42 W/m² 10,4 °C 11,7 °C 17,7 km/h (3 Bft)
29.06.2017 18:49 11,7 °C 11,8 °C 91 % 1002,2 hPa 0,0 mm 10,6 km/h (2 Bft) W-SW 238 ° 0 min 0,000 mm 0,0 UV-I 42 W/m² 10,3 °C 11,7 °C 16,1 km/h (3 Bft)
29.06.2017 18:50 11,7 °C 11,7 °C 91 % 1002,3 hPa 0,2 mm 6,7 km/h (2 Bft) W 264 ° 0 min 0,000 mm 0,0 UV-I 44 W/m² 10,3 °C 11,7 °C 11,3 km/h (2 Bft)
29.06.2017 18:51 11,8 °C 11,8 °C 91 % 1002,2 hPa 0,0 mm 8,1 km/h (2 Bft) W-SW 238 ° 0 min 0,000 mm 0,0 UV-I 44 W/m² 10,4 °C 11,8 °C 17,7 km/h (3 Bft)
29.06.2017 18:52 11,8 °C 11,8 °C 91 % 1002,2 hPa 0,0 mm 7,4 km/h (2 Bft) W 279 ° 0 min 0,000 mm 0,0 UV-I 44 W/m² 10,4 °C 11,8 °C 14,5 km/h (3 Bft)
29.06.2017 18:53 11,8 °C 11,8 °C 92 % 1002,3 hPa 0,0 mm 10,9 km/h (2 Bft) W 281 ° 0 min 0,000 mm 0,0 UV-I 44 W/m² 10,5 °C 11,8 °C 19,3 km/h (3 Bft)
29.06.2017 18:54 11,8 °C 11,8 °C 91 % 1002,3 hPa 0,0 mm 6,4 km/h (2 Bft) W-SW 249 ° 0 min 0,000 mm 0,0 UV-I 46 W/m² 10,4 °C 11,8 °C 12,9 km/h (3 Bft)
29.06.2017 18:55 11,8 °C 11,8 °C 91 % 1002,3 hPa 0,2 mm 6,4 km/h (2 Bft) W 271 ° 0 min 0,000 mm 0,0 UV-I 49 W/m² 10,4 °C 11,8 °C 11,3 km/h (2 Bft)
29.06.2017 18:56 11,7 °C 11,8 °C 92 % 1002,3 hPa 0,0 mm 7,3 km/h (2 Bft) S 180 ° 0 min 0,000 mm 0,0 UV-I 56 W/m² 10,4 °C 11,7 °C 12,9 km/h (3 Bft)
29.06.2017 18:57 11,7 °C 11,8 °C 91 % 1002,3 hPa 0,0 mm 6,2 km/h (2 Bft) W-SW 252 ° 0 min 0,000 mm 0,0 UV-I 91 W/m² 10,3 °C 11,7 °C 11,3 km/h (2 Bft)
29.06.2017 18:58 11,7 °C 11,8 °C 91 % 1002,2 hPa 0,0 mm 3,2 km/h (1 Bft) W 271 ° 0 min 0,000 mm 0,0 UV-I 53 W/m² 10,3 °C 11,7 °C 6,4 km/h (2 Bft)
29.06.2017 18:59 11,8 °C 11,8 °C 92 % 1002,2 hPa 0,0 mm 7,2 km/h (2 Bft) W-NW 294 ° 0 min 0,000 mm 0,0 UV-I 53 W/m² 10,5 °C 11,8 °C 9,7 km/h (2 Bft)
29.06.2017 19:00 11,8 °C 11,8 °C 91 % 1002,2 hPa 0,0 mm 7,6 km/h (2 Bft) S-SW 209 ° 0 min 0,026 mm 0,0 UV-I 54 W/m² 10,4 °C 11,8 °C 12,9 km/h (3 Bft)
29.06.2017 19:01 11,8 °C 11,8 °C 91 % 1002,3 hPa 0,0 mm 5,4 km/h (1 Bft) S-SW 192 ° 0 min 0,000 mm 0,0 UV-I 58 W/m² 10,4 °C 11,8 °C 12,9 km/h (3 Bft)
29.06.2017 19:02 11,8 °C 11,8 °C 91 % 1002,3 hPa 0,0 mm 3,1 km/h (1 Bft) W-NW 283 ° 0 min 0,000 mm 0,0 UV-I 54 W/m² 10,4 °C 11,8 °C 6,4 km/h (2 Bft)
29.06.2017 19:03 11,8 °C 11,8 °C 90 % 1002,3 hPa 0,0 mm 10,8 km/h (2 Bft) W-NW 284 ° 0 min 0,000 mm 0,0 UV-I 53 W/m² 10,2 °C 11,8 °C 14,5 km/h (3 Bft)
29.06.2017 19:04 11,8 °C 11,8 °C 91 % 1002,3 hPa 0,0 mm 5,8 km/h (2 Bft) W 259 ° 0 min 0,000 mm 0,0 UV-I 49 W/m² 10,4 °C 11,8 °C 9,7 km/h (2 Bft)
29.06.2017 19:05 11,9 °C 11,9 °C 91 % 1002,3 hPa 0,0 mm 6,8 km/h (2 Bft) W 261 ° 0 min 0,000 mm 0,0 UV-I 46 W/m² 10,5 °C 11,9 °C 11,3 km/h (2 Bft)
29.06.2017 19:06 11,8 °C 11,9 °C 91 % 1002,3 hPa 0,0 mm 5,6 km/h (1 Bft) W 262 ° 0 min 0,000 mm 0,0 UV-I 42 W/m² 10,4 °C 11,8 °C 9,7 km/h (2 Bft)
29.06.2017 19:07 11,8 °C 11,9 °C 91 % 1002,3 hPa 0,0 mm 4,8 km/h (1 Bft) W 273 ° 0 min 0,000 mm 0,0 UV-I 39 W/m² 10,4 °C 11,8 °C 6,4 km/h (2 Bft)
29.06.2017 19:08 11,8 °C 11,9 °C 91 % 1002,3 hPa 0,0 mm 9,4 km/h (2 Bft) W-SW 248 ° 0 min 0,000 mm 0,0 UV-I 37 W/m² 10,4 °C 11,8 °C 14,5 km/h (3 Bft)
29.06.2017 19:09 11,9 °C 11,9 °C 90 % 1002,3 hPa 0,0 mm 6,6 km/h (2 Bft) W 280 ° 0 min 0,000 mm 0,0 UV-I 37 W/m² 10,3 °C 11,9 °C 9,7 km/h (2 Bft)
29.06.2017 19:10 11,9 °C 11,9 °C 91 % 1002,3 hPa 0,0 mm 5,8 km/h (2 Bft) S-SO 147 ° 0 min 0,000 mm 0,0 UV-I 37 W/m² 10,5 °C 11,9 °C 9,7 km/h (2 Bft)
29.06.2017 19:11 11,9 °C 11,9 °C 90 % 1002,3 hPa 0,0 mm 10,1 km/h (2 Bft) S-SO 164 ° 0 min 0,000 mm 0,0 UV-I 35 W/m² 10,3 °C 11,9 °C 16,1 km/h (3 Bft)
29.06.2017 19:12 11,9 °C 11,9 °C 89 % 1002,3 hPa 0,0 mm 10,3 km/h (2 Bft) SW 233 ° 0 min 0,000 mm 0,0 UV-I 33 W/m² 10,1 °C 11,9 °C 14,5 km/h (3 Bft)
29.06.2017 19:13 11,9 °C 11,9 °C 89 % 1002,3 hPa 0,0 mm 11,5 km/h (2 Bft) W 273 ° 0 min 0,000 mm 0,0 UV-I 28 W/m² 10,1 °C 11,9 °C 20,9 km/h (4 Bft)
29.06.2017 19:14 11,9 °C 11,9 °C 89 % 1002,3 hPa 0,0 mm 6,6 km/h (2 Bft) W-SW 249 ° 0 min 0,000 mm 0,0 UV-I 25 W/m² 10,1 °C 11,9 °C 12,9 km/h (3 Bft)
29.06.2017 19:15 11,9 °C 11,9 °C 89 % 1002,3 hPa 0,0 mm 6,6 km/h (2 Bft) W-NW 296 ° 0 min 0,000 mm 0,0 UV-I 23 W/m² 10,1 °C 11,9 °C 12,9 km/h (3 Bft)
29.06.2017 19:16 11,9 °C 11,9 °C 89 % 1002,2 hPa 0,0 mm 5,3 km/h (1 Bft) W 271 ° 0 min 0,000 mm 0,0 UV-I 21 W/m² 10,1 °C 11,9 °C 9,7 km/h (2 Bft)
29.06.2017 19:17 11,9 °C 11,9 °C 89 % 1002,2 hPa 0,0 mm 6,4 km/h (2 Bft) W 266 ° 0 min 0,000 mm 0,0 UV-I 21 W/m² 10,1 °C 11,9 °C 11,3 km/h (2 Bft)
29.06.2017 19:18 11,9 °C 11,9 °C 89 % 1002,3 hPa 0,0 mm 6,9 km/h (2 Bft) W 263 ° 0 min 0,000 mm 0,0 UV-I 19 W/m² 10,1 °C 11,9 °C 11,3 km/h (2 Bft)
29.06.2017 19:19 11,9 °C 11,9 °C 89 % 1002,2 hPa 0,0 mm 9,8 km/h (2 Bft) W 278 ° 0 min 0,000 mm 0,0 UV-I 16 W/m² 10,1 °C 11,9 °C 16,1 km/h (3 Bft)
29.06.2017 19:20 11,9 °C 11,9 °C 89 % 1002,2 hPa 0,0 mm 6,0 km/h (2 Bft) W 262 ° 0 min 0,000 mm 0,0 UV-I 16 W/m² 10,1 °C 11,9 °C 11,3 km/h (2 Bft)
29.06.2017 19:21 11,8 °C 11,9 °C 89 % 1002,3 hPa 0,0 mm 4,6 km/h (1 Bft) S-SW 208 ° 0 min 0,000 mm 0,0 UV-I 16 W/m² 10,0 °C 11,8 °C 9,7 km/h (2 Bft)
29.06.2017 19:22 11,8 °C 11,8 °C 89 % 1002,3 hPa 0,0 mm 4,4 km/h (1 Bft) SW 225 ° 0 min 0,000 mm 0,0 UV-I 14 W/m² 10,0 °C 11,8 °C 8,0 km/h (2 Bft)
29.06.2017 19:23 11,7 °C 11,8 °C 89 % 1002,3 hPa 0,0 mm 3,1 km/h (1 Bft) S-SW 209 ° 0 min 0,000 mm 0,0 UV-I 14 W/m² 9,9 °C 11,7 °C 4,8 km/h (1 Bft)
29.06.2017 19:24 11,7 °C 11,8 °C 89 % 1002,4 hPa 0,0 mm 3,0 km/h (1 Bft) SW 235 ° 0 min 0,000 mm 0,0 UV-I 14 W/m² 9,9 °C 11,7 °C 6,4 km/h (2 Bft)
29.06.2017 19:25 11,7 °C 11,7 °C 89 % 1002,4 hPa 0,0 mm 5,8 km/h (2 Bft) W 269 ° 0 min 0,000 mm 0,0 UV-I 12 W/m² 9,9 °C 11,7 °C 11,3 km/h (2 Bft)
29.06.2017 19:26 11,7 °C 11,7 °C 89 % 1002,4 hPa 0,0 mm 1,5 km/h (1 Bft) W 269 ° 0 min 0,000 mm 0,0 UV-I 12 W/m² 9,9 °C 11,7 °C 3,2 km/h (1 Bft)
29.06.2017 19:27 11,6 °C 11,7 °C 90 % 1002,3 hPa 0,0 mm 6,3 km/h (2 Bft) S-SO 150 ° 0 min 0,000 mm 0,0 UV-I 12 W/m² 10,0 °C 11,6 °C 14,5 km/h (3 Bft)
29.06.2017 19:28 11,6 °C 11,6 °C 88 % 1002,3 hPa 0,0 mm 4,4 km/h (1 Bft) W-NW 289 ° 0 min 0,000 mm 0,0 UV-I 12 W/m² 9,7 °C 11,6 °C 6,4 km/h (2 Bft)
29.06.2017 19:29 11,6 °C 11,6 °C 88 % 1002,3 hPa 0,0 mm 4,5 km/h (1 Bft) W-SW 253 ° 0 min 0,000 mm 0,0 UV-I 14 W/m² 9,7 °C 11,6 °C 9,7 km/h (2 Bft)
29.06.2017 19:30 11,6 °C 11,6 °C 88 % 1002,3 hPa 0,0 mm 6,0 km/h (2 Bft) W-SW 238 ° 0 min 0,000 mm 0,0 UV-I 14 W/m² 9,7 °C 11,6 °C 8,0 km/h (2 Bft)
29.06.2017 19:31 11,6 °C 11,6 °C 88 % 1002,3 hPa 0,0 mm 2,7 km/h (1 Bft) SW 224 ° 0 min 0,000 mm 0,0 UV-I 16 W/m² 9,7 °C 11,6 °C 4,8 km/h (1 Bft)
29.06.2017 19:32 11,6 °C 11,6 °C 89 % 1002,2 hPa 0,0 mm 5,2 km/h (1 Bft) W 259 ° 0 min 0,000 mm 0,0 UV-I 16 W/m² 9,8 °C 11,6 °C 9,7 km/h (2 Bft)
29.06.2017 19:33 11,6 °C 11,6 °C 88 % 1002,2 hPa 0,0 mm 7,0 km/h (2 Bft) W 279 ° 0 min 0,000 mm 0,0 UV-I 16 W/m² 9,7 °C 11,6 °C 11,3 km/h (2 Bft)
29.06.2017 19:34 11,6 °C 11,6 °C 88 % 1002,2 hPa 0,0 mm 7,2 km/h (2 Bft) S 190 ° 0 min 0,000 mm 0,0 UV-I 18 W/m² 9,7 °C 11,6 °C 12,9 km/h (3 Bft)
29.06.2017 19:35 11,6 °C 11,6 °C 88 % 1002,2 hPa 0,2 mm 3,0 km/h (1 Bft) W 268 ° 0 min 0,000 mm 0,0 UV-I 18 W/m² 9,7 °C 11,6 °C 6,4 km/h (2 Bft)
29.06.2017 19:36 11,5 °C 11,6 °C 88 % 1002,2 hPa 0,0 mm 1,3 km/h (1 Bft) W 268 ° 0 min 0,000 mm 0,0 UV-I 18 W/m² 9,6 °C 11,5 °C 1,6 km/h (1 Bft)
29.06.2017 19:37 11,6 °C 11,6 °C 88 % 1002,2 hPa 0,0 mm 0,8 km/h (0 Bft) W 268 ° 0 min 0,000 mm 0,0 UV-I 18 W/m² 9,7 °C 11,6 °C 3,2 km/h (1 Bft)
29.06.2017 19:38 11,6 °C 11,6 °C 87 % 1002,2 hPa 0,0 mm 4,3 km/h (1 Bft) W-SW 240 ° 0 min 0,000 mm 0,0 UV-I 19 W/m² 9,5 °C 11,6 °C 6,4 km/h (2 Bft)
29.06.2017 19:39 11,6 °C 11,6 °C 88 % 1002,1 hPa 0,0 mm 4,6 km/h (1 Bft) W-SW 257 ° 0 min 0,000 mm 0,0 UV-I 19 W/m² 9,7 °C 11,6 °C 9,7 km/h (2 Bft)
29.06.2017 19:40 11,6 °C 11,6 °C 87 % 1002,2 hPa 0,0 mm 2,0 km/h (1 Bft) S 177 ° 0 min 0,000 mm 0,0 UV-I 18 W/m² 9,5 °C 11,6 °C 4,8 km/h (1 Bft)
29.06.2017 19:41 11,6 °C 11,6 °C 87 % 1002,1 hPa 0,0 mm 2,5 km/h (1 Bft) W-SW 254 ° 0 min 0,000 mm 0,0 UV-I 19 W/m² 9,5 °C 11,6 °C 4,8 km/h (1 Bft)
29.06.2017 19:42 11,6 °C 11,6 °C 87 % 1002,1 hPa 0,0 mm 3,2 km/h (1 Bft) S-SW 206 ° 0 min 0,000 mm 0,0 UV-I 19 W/m² 9,5 °C 11,6 °C 8,0 km/h (2 Bft)
29.06.2017 19:43 11,6 °C 11,6 °C 87 % 1002,1 hPa 0,0 mm 3,3 km/h (1 Bft) W-SW 257 ° 0 min 0,000 mm 0,0 UV-I 19 W/m² 9,5 °C 11,6 °C 6,4 km/h (2 Bft)
29.06.2017 19:44 11,6 °C 11,6 °C 88 % 1002,2 hPa 0,0 mm 3,4 km/h (1 Bft) S-SW 200 ° 0 min 0,000 mm 0,0 UV-I 19 W/m² 9,7 °C 11,6 °C 6,4 km/h (2 Bft)
29.06.2017 19:45 11,6 °C 11,6 °C 88 % 1002,2 hPa 0,0 mm 0,7 km/h (0 Bft) S-SW 200 ° 0 min 0,000 mm 0,0 UV-I 19 W/m² 9,7 °C 11,6 °C 3,2 km/h (1 Bft)
29.06.2017 19:46 11,6 °C 11,6 °C 88 % 1002,2 hPa 0,0 mm 2,7 km/h (1 Bft) W 259 ° 0 min 0,000 mm 0,0 UV-I 19 W/m² 9,7 °C 11,6 °C 4,8 km/h (1 Bft)
29.06.2017 19:47 11,5 °C 11,6 °C 88 % 1002,2 hPa 0,0 mm 3,1 km/h (1 Bft) W 277 ° 0 min 0,000 mm 0,0 UV-I 19 W/m² 9,6 °C 11,5 °C 6,4 km/h (2 Bft)
29.06.2017 19:48 11,5 °C 11,5 °C 89 % 1002,2 hPa 0,0 mm 2,3 km/h (1 Bft) W 277 ° 0 min 0,000 mm 0,0 UV-I 21 W/m² 9,8 °C 11,5 °C 3,2 km/h (1 Bft)
29.06.2017 19:49 11,5 °C 11,5 °C 89 % 1002,2 hPa 0,0 mm 2,3 km/h (1 Bft) W 277 ° 0 min 0,000 mm 0,0 UV-I 21 W/m² 9,8 °C 11,5 °C 4,8 km/h (1 Bft)
29.06.2017 19:50 11,4 °C 11,5 °C 89 % 1002,3 hPa 0,0 mm 4,4 km/h (1 Bft) W 281 ° 0 min 0,000 mm 0,0 UV-I 21 W/m² 9,7 °C 11,4 °C 6,4 km/h (2 Bft)
29.06.2017 19:51 11,5 °C 11,5 °C 89 % 1002,3 hPa 0,0 mm 2,5 km/h (1 Bft) W 279 ° 0 min 0,000 mm 0,0 UV-I 23 W/m² 9,8 °C 11,5 °C 3,2 km/h (1 Bft)
29.06.2017 19:52 11,4 °C 11,5 °C 89 % 1002,3 hPa 0,2 mm 0,5 km/h (0 Bft) W 279 ° 0 min 0,000 mm 0,0 UV-I 23 W/m² 9,7 °C 11,4 °C 1,6 km/h (1 Bft)
29.06.2017 19:53 11,4 °C 11,4 °C 89 % 1002,3 hPa 0,0 mm 0,2 km/h (0 Bft) W 279 ° 0 min 0,000 mm 0,0 UV-I 25 W/m² 9,7 °C 11,4 °C 3,2 km/h (1 Bft)
29.06.2017 19:54 11,3 °C 11,4 °C 90 % 1002,3 hPa 0,0 mm 1,9 km/h (1 Bft) W 277 ° 0 min 0,000 mm 0,0 UV-I 25 W/m² 9,7 °C 11,3 °C 3,2 km/h (1 Bft)
29.06.2017 19:55 11,2 °C 11,3 °C 90 % 1002,3 hPa 0,0 mm 1,1 km/h (1 Bft) W 277 ° 0 min 0,000 mm 0,0 UV-I 25 W/m² 9,6 °C 11,2 °C 3,2 km/h (1 Bft)
29.06.2017 19:56 11,2 °C 11,2 °C 90 % 1002,2 hPa 0,0 mm 1,0 km/h (0 Bft) W 277 ° 0 min 0,000 mm 0,0 UV-I 25 W/m² 9,6 °C 11,2 °C 3,2 km/h (1 Bft)
29.06.2017 19:57 11,1 °C 11,2 °C 91 % 1002,2 hPa 0,0 mm 0,8 km/h (0 Bft) W 264 ° 0 min 0,000 mm 0,0 UV-I 25 W/m² 9,7 °C 11,1 °C 1,6 km/h (1 Bft)
29.06.2017 19:58 11,0 °C 11,1 °C 91 % 1002,2 hPa 0,0 mm 0,2 km/h (0 Bft) S-SW 208 ° 0 min 0,000 mm 0,0 UV-I 25 W/m² 9,6 °C 11,0 °C 3,2 km/h (1 Bft)
29.06.2017 19:59 10,9 °C 11,0 °C 91 % 1002,2 hPa 0,0 mm 2,1 km/h (1 Bft) S 178 ° 0 min 0,000 mm 0,0 UV-I 23 W/m² 9,5 °C 10,9 °C 4,8 km/h (1 Bft)
29.06.2017 20:00 11,0 °C 11,0 °C 92 % 1002,2 hPa 0,0 mm 0,0 km/h (0 Bft) S 178 ° 0 min 0,025 mm 0,0 UV-I 21 W/m² 9,8 °C 11,0 °C 0,0 km/h (0 Bft)
29.06.2017 20:01 10,9 °C 11,0 °C 92 % 1002,2 hPa 0,2 mm 0,1 km/h (0 Bft) S 178 ° 0 min 0,000 mm 0,0 UV-I 19 W/m² 9,7 °C 10,9 °C 1,6 km/h (1 Bft)
29.06.2017 20:02 10,9 °C 10,9 °C 92 % 1002,2 hPa 0,0 mm 1,2 km/h (1 Bft) S-SW 202 ° 0 min 0,000 mm 0,0 UV-I 19 W/m² 9,7 °C 10,9 °C 1,6 km/h (1 Bft)
29.06.2017 20:03 10,9 °C 10,9 °C 92 % 1002,2 hPa 0,0 mm 0,1 km/h (0 Bft) S-SW 202 ° 0 min 0,000 mm 0,0 UV-I 18 W/m² 9,7 °C 10,9 °C 1,6 km/h (1 Bft)
29.06.2017 20:04 10,8 °C 10,9 °C 92 % 1002,2 hPa 0,0 mm 0,7 km/h (0 Bft) S-SW 196 ° 0 min 0,000 mm 0,0 UV-I 18 W/m² 9,6 °C 10,8 °C 4,8 km/h (1 Bft)
29.06.2017 20:05 10,8 °C 10,9 °C 92 % 1002,2 hPa 0,0 mm 0,5 km/h (0 Bft) S-SW 196 ° 0 min 0,000 mm 0,0 UV-I 16 W/m² 9,6 °C 10,8 °C 1,6 km/h (1 Bft)
29.06.2017 20:06 10,8 °C 10,8 °C 92 % 1002,2 hPa 0,0 mm 0,0 km/h (0 Bft) S-SW 196 ° 0 min 0,000 mm 0,0 UV-I 16 W/m² 9,6 °C 10,8 °C 0,0 km/h (0 Bft)
29.06.2017 20:07 10,8 °C 10,8 °C 92 % 1002,2 hPa 0,0 mm 0,0 km/h (0 Bft) S-SW 197 ° 0 min 0,000 mm 0,0 UV-I 16 W/m² 9,6 °C 10,8 °C 0,0 km/h (0 Bft)
29.06.2017 20:08 10,8 °C 10,8 °C 92 % 1002,3 hPa 0,0 mm 1,9 km/h (1 Bft) W-NW 287 ° 0 min 0,000 mm 0,0 UV-I 16 W/m² 9,6 °C 10,8 °C 4,8 km/h (1 Bft)
29.06.2017 20:09 10,8 °C 10,8 °C 93 % 1002,3 hPa 0,2 mm 2,5 km/h (1 Bft) W 259 ° 0 min 0,000 mm 0,0 UV-I 16 W/m² 9,7 °C 10,8 °C 3,2 km/h (1 Bft)
29.06.2017 20:10 10,8 °C 10,8 °C 93 % 1002,3 hPa 0,0 mm 0,9 km/h (0 Bft) W 259 ° 0 min 0,000 mm 0,0 UV-I 16 W/m² 9,7 °C 10,8 °C 1,6 km/h (1 Bft)
29.06.2017 20:11 10,9 °C 10,9 °C 93 % 1002,3 hPa 0,0 mm 2,0 km/h (1 Bft) SW 217 ° 0 min 0,000 mm 0,0 UV-I 16 W/m² 9,8 °C 10,9 °C 3,2 km/h (1 Bft)
29.06.2017 20:12 10,9 °C 10,9 °C 92 % 1002,3 hPa 0,0 mm 1,6 km/h (1 Bft) S-SW 198 ° 0 min 0,000 mm 0,0 UV-I 14 W/m² 9,7 °C 10,9 °C 3,2 km/h (1 Bft)
29.06.2017 20:13 10,9 °C 10,9 °C 92 % 1002,3 hPa 0,0 mm 1,2 km/h (1 Bft) SW 223 ° 0 min 0,000 mm 0,0 UV-I 14 W/m² 9,7 °C 10,9 °C 3,2 km/h (1 Bft)
29.06.2017 20:14 10,9 °C 10,9 °C 92 % 1002,3 hPa 0,0 mm 2,4 km/h (1 Bft) W-SW 251 ° 0 min 0,000 mm 0,0 UV-I 14 W/m² 9,7 °C 10,9 °C 3,2 km/h (1 Bft)
29.06.2017 20:15 10,9 °C 10,9 °C 92 % 1002,3 hPa 0,0 mm 2,1 km/h (1 Bft) W 261 ° 0 min 0,000 mm 0,0 UV-I 14 W/m² 9,7 °C 10,9 °C 4,8 km/h (1 Bft)
29.06.2017 20:16 10,9 °C 10,9 °C 92 % 1002,3 hPa 0,0 mm 1,9 km/h (1 Bft) W 261 ° 0 min 0,000 mm 0,0 UV-I 14 W/m² 9,7 °C 10,9 °C 4,8 km/h (1 Bft)
29.06.2017 20:17 10,9 °C 10,9 °C 92 % 1002,3 hPa 0,0 mm 0,5 km/h (0 Bft) W 261 ° 0 min 0,000 mm 0,0 UV-I 12 W/m² 9,7 °C 10,9 °C 1,6 km/h (1 Bft)
29.06.2017 20:18 10,9 °C 10,9 °C 92 % 1002,3 hPa 0,0 mm 0,1 km/h (0 Bft) W 261 ° 0 min 0,000 mm 0,0 UV-I 12 W/m² 9,7 °C 10,9 °C 1,6 km/h (1 Bft)
29.06.2017 20:19 10,9 °C 10,9 °C 92 % 1002,4 hPa 0,0 mm 0,9 km/h (0 Bft) W 261 ° 0 min 0,000 mm 0,0 UV-I 11 W/m² 9,7 °C 10,9 °C 3,2 km/h (1 Bft)
29.06.2017 20:20 10,9 °C 10,9 °C 92 % 1002,4 hPa 0,0 mm 3,1 km/h (1 Bft) S 170 ° 0 min 0,000 mm 0,0 UV-I 11 W/m² 9,7 °C 10,9 °C 8,0 km/h (2 Bft)
29.06.2017 20:21 10,9 °C 10,9 °C 92 % 1002,4 hPa 0,0 mm 3,1 km/h (1 Bft) SW 234 ° 0 min 0,000 mm 0,0 UV-I 9 W/m² 9,7 °C 10,9 °C 9,7 km/h (2 Bft)
29.06.2017 20:22 10,9 °C 10,9 °C 92 % 1002,4 hPa 0,0 mm 0,7 km/h (0 Bft) SW 234 ° 0 min 0,000 mm 0,0 UV-I 9 W/m² 9,7 °C 10,9 °C 1,6 km/h (1 Bft)
29.06.2017 20:23 10,9 °C 10,9 °C 92 % 1002,4 hPa 0,0 mm 1,0 km/h (0 Bft) SW 234 ° 0 min 0,000 mm 0,0 UV-I 9 W/m² 9,7 °C 10,9 °C 3,2 km/h (1 Bft)
29.06.2017 20:24 10,9 °C 10,9 °C 92 % 1002,4 hPa 0,0 mm 0,5 km/h (0 Bft) SW 233 ° 0 min 0,000 mm 0,0 UV-I 9 W/m² 9,7 °C 10,9 °C 1,6 km/h (1 Bft)
29.06.2017 20:25 10,8 °C 10,9 °C 92 % 1002,4 hPa 0,0 mm 0,0 km/h (0 Bft) SW 233 ° 0 min 0,000 mm 0,0 UV-I 9 W/m² 9,6 °C 10,8 °C 0,0 km/h (0 Bft)
29.06.2017 20:26 10,8 °C 10,8 °C 92 % 1002,4 hPa 0,0 mm 0,6 km/h (0 Bft) SW 233 ° 0 min 0,000 mm 0,0 UV-I 9 W/m² 9,6 °C 10,8 °C 1,6 km/h (1 Bft)
29.06.2017 20:27 10,7 °C 10,8 °C 93 % 1002,4 hPa 0,0 mm 1,5 km/h (1 Bft) SW 233 ° 0 min 0,000 mm 0,0 UV-I 9 W/m² 9,6 °C 10,7 °C 3,2 km/h (1 Bft)
29.06.2017 20:28 10,7 °C 10,7 °C 93 % 1002,4 hPa 0,0 mm 0,1 km/h (0 Bft) SW 233 ° 0 min 0,000 mm 0,0 UV-I 9 W/m² 9,6 °C 10,7 °C 1,6 km/h (1 Bft)
29.06.2017 20:29 10,7 °C 10,7 °C 93 % 1002,4 hPa 0,0 mm 0,0 km/h (0 Bft) SW 233 ° 0 min 0,000 mm 0,0 UV-I 9 W/m² 9,6 °C 10,7 °C 0,0 km/h (0 Bft)
29.06.2017 20:30 10,7 °C 10,7 °C 93 % 1002,4 hPa 0,0 mm 1,3 km/h (1 Bft) SW 236 ° 0 min 0,000 mm 0,0 UV-I 9 W/m² 9,6 °C 10,7 °C 4,8 km/h (1 Bft)
29.06.2017 20:31 10,7 °C 10,7 °C 93 % 1002,4 hPa 0,0 mm 1,7 km/h (1 Bft) SW 224 ° 0 min 0,000 mm 0,0 UV-I 9 W/m² 9,6 °C 10,7 °C 3,2 km/h (1 Bft)
29.06.2017 20:32 10,7 °C 10,7 °C 93 % 1002,4 hPa 0,0 mm 2,0 km/h (1 Bft) SW 224 ° 0 min 0,000 mm 0,0 UV-I 9 W/m² 9,6 °C 10,7 °C 3,2 km/h (1 Bft)
29.06.2017 20:33 10,7 °C 10,7 °C 93 % 1002,5 hPa 0,0 mm 0,9 km/h (0 Bft) SW 224 ° 0 min 0,000 mm 0,0 UV-I 9 W/m² 9,6 °C 10,7 °C 1,6 km/h (1 Bft)
29.06.2017 20:34 10,8 °C 10,8 °C 93 % 1002,5 hPa 0,0 mm 0,5 km/h (0 Bft) SW 224 ° 0 min 0,000 mm 0,0 UV-I 9 W/m² 9,7 °C 10,8 °C 1,6 km/h (1 Bft)
29.06.2017 20:35 10,8 °C 10,8 °C 93 % 1002,5 hPa 0,0 mm 0,0 km/h (0 Bft) SW 224 ° 0 min 0,000 mm 0,0 UV-I 7 W/m² 9,7 °C 10,8 °C 0,0 km/h (0 Bft)
29.06.2017 20:36 10,8 °C 10,8 °C 93 % 1002,6 hPa 0,0 mm 1,1 km/h (1 Bft) S-SW 192 ° 0 min 0,000 mm 0,0 UV-I 7 W/m² 9,7 °C 10,8 °C 6,4 km/h (2 Bft)
29.06.2017 20:37 10,8 °C 10,8 °C 93 % 1002,5 hPa 0,0 mm 0,5 km/h (0 Bft) S-SW 193 ° 0 min 0,000 mm 0,0 UV-I 7 W/m² 9,7 °C 10,8 °C 1,6 km/h (1 Bft)
29.06.2017 20:38 10,7 °C 10,8 °C 93 % 1002,6 hPa 0,0 mm 1,4 km/h (1 Bft) S 184 ° 0 min 0,000 mm 0,0 UV-I 7 W/m² 9,6 °C 10,7 °C 3,2 km/h (1 Bft)
29.06.2017 20:39 10,8 °C 10,8 °C 93 % 1002,6 hPa 0,0 mm 1,0 km/h (0 Bft) S 184 ° 0 min 0,000 mm 0,0 UV-I 5 W/m² 9,7 °C 10,8 °C 1,6 km/h (1 Bft)
29.06.2017 20:40 10,7 °C 10,8 °C 93 % 1002,6 hPa 0,0 mm 1,4 km/h (1 Bft) S-SW 209 ° 0 min 0,000 mm 0,0 UV-I 5 W/m² 9,6 °C 10,7 °C 4,8 km/h (1 Bft)
29.06.2017 20:41 10,7 °C 10,7 °C 93 % 1002,6 hPa 0,0 mm 1,5 km/h (1 Bft) S-SW 209 ° 0 min 0,000 mm 0,0 UV-I 5 W/m² 9,6 °C 10,7 °C 3,2 km/h (1 Bft)
29.06.2017 20:42 10,8 °C 10,8 °C 93 % 1002,7 hPa 0,0 mm 2,5 km/h (1 Bft) W-SW 253 ° 0 min 0,000 mm 0,0 UV-I 5 W/m² 9,7 °C 10,8 °C 4,8 km/h (1 Bft)
29.06.2017 20:43 10,8 °C 10,8 °C 93 % 1002,7 hPa 0,0 mm 0,9 km/h (0 Bft) SW 223 ° 0 min 0,000 mm 0,0 UV-I 5 W/m² 9,7 °C 10,8 °C 3,2 km/h (1 Bft)
29.06.2017 20:44 10,8 °C 10,8 °C 93 % 1002,7 hPa 0,2 mm 2,4 km/h (1 Bft) S 181 ° 0 min 0,000 mm 0,0 UV-I 0 W/m² 9,7 °C 10,8 °C 3,2 km/h (1 Bft)
29.06.2017 20:45 10,8 °C 10,8 °C 93 % 1002,8 hPa 0,0 mm 2,2 km/h (1 Bft) W-SW 244 ° 0 min 0,000 mm 0,0 UV-I 0 W/m² 9,7 °C 10,8 °C 4,8 km/h (1 Bft)
29.06.2017 20:46 10,8 °C 10,8 °C 93 % 1002,8 hPa 0,0 mm 0,6 km/h (0 Bft) W-SW 244 ° 0 min 0,000 mm 0,0 UV-I 0 W/m² 9,7 °C 10,8 °C 1,6 km/h (1 Bft)
29.06.2017 20:47 10,7 °C 10,8 °C 93 % 1002,8 hPa 0,0 mm 0,5 km/h (0 Bft) W-SW 243 ° 0 min 0,000 mm 0,0 UV-I 0 W/m² 9,6 °C 10,7 °C 1,6 km/h (1 Bft)
29.06.2017 20:48 10,8 °C 10,8 °C 93 % 1002,8 hPa 0,0 mm 0,0 km/h (0 Bft) W-SW 243 ° 0 min 0,000 mm 0,0 UV-I 0 W/m² 9,7 °C 10,8 °C 0,0 km/h (0 Bft)
29.06.2017 20:49 10,7 °C 10,8 °C 93 % 1002,8 hPa 0,0 mm 0,1 km/h (0 Bft) W-SW 243 ° 0 min 0,000 mm 0,0 UV-I 0 W/m² 9,6 °C 10,7 °C 1,6 km/h (1 Bft)
29.06.2017 20:50 10,7 °C 10,7 °C 93 % 1002,9 hPa 0,0 mm 0,0 km/h (0 Bft) W-SW 243 ° 0 min 0,000 mm 0,0 UV-I 0 W/m² 9,6 °C 10,7 °C 0,0 km/h (0 Bft)
29.06.2017 20:51 10,7 °C 10,7 °C 93 % 1003,0 hPa 0,0 mm 0,0 km/h (0 Bft) W-SW 243 ° 0 min 0,000 mm 0,0 UV-I 0 W/m² 9,6 °C 10,7 °C 0,0 km/h (0 Bft)
29.06.2017 20:52 10,7 °C 10,7 °C 93 % 1003,0 hPa 0,0 mm 0,2 km/h (0 Bft) W-SW 243 ° 0 min 0,000 mm 0,0 UV-I 0 W/m² 9,6 °C 10,7 °C 1,6 km/h (1 Bft)
29.06.2017 20:53 10,7 °C 10,7 °C 93 % 1003,0 hPa 0,0 mm 1,3 km/h (1 Bft) W-SW 243 ° 0 min 0,000 mm 0,0 UV-I 0 W/m² 9,6 °C 10,7 °C 3,2 km/h (1 Bft)
29.06.2017 20:54 10,7 °C 10,7 °C 93 % 1003,0 hPa 0,0 mm 0,3 km/h (0 Bft) W-SW 243 ° 0 min 0,000 mm 0,0 UV-I 0 W/m² 9,6 °C 10,7 °C 1,6 km/h (1 Bft)
29.06.2017 20:55 10,7 °C 10,7 °C 93 % 1003,0 hPa 0,0 mm 0,3 km/h (0 Bft) W-SW 243 ° 0 min 0,000 mm 0,0 UV-I 0 W/m² 9,6 °C 10,7 °C 1,6 km/h (1 Bft)
29.06.2017 20:56 10,7 °C 10,7 °C 93 % 1003,0 hPa 0,0 mm 0,9 km/h (0 Bft) SW 218 ° 0 min 0,000 mm 0,0 UV-I 0 W/m² 9,6 °C 10,7 °C 3,2 km/h (1 Bft)
29.06.2017 20:57 10,7 °C 10,7 °C 93 % 1003,0 hPa 0,0 mm 0,8 km/h (0 Bft) SW 221 ° 0 min 0,000 mm 0,0 UV-I 0 W/m² 9,6 °C 10,7 °C 1,6 km/h (1 Bft)
29.06.2017 20:58 10,7 °C 10,7 °C 93 % 1003,1 hPa 0,2 mm 0,4 km/h (0 Bft) SW 220 ° 0 min 0,000 mm 0,0 UV-I 0 W/m² 9,6 °C 10,7 °C 1,6 km/h (1 Bft)
29.06.2017 20:59 10,7 °C 10,7 °C 93 % 1003,1 hPa 0,0 mm 0,0 km/h (0 Bft) SW 220 ° 0 min 0,000 mm 0,0 UV-I 0 W/m² 9,6 °C 10,7 °C 0,0 km/h (0 Bft)
29.06.2017 21:00 10,8 °C 10,8 °C 93 % 1003,1 hPa 0,0 mm 1,2 km/h (1 Bft) S-SW 213 ° 0 min 0,000 mm 0,0 UV-I 0 W/m² 9,7 °C 10,8 °C 3,2 km/h (1 Bft)
29.06.2017 21:01 10,8 °C 10,8 °C 92 % 1003,1 hPa 0,0 mm 0,6 km/h (0 Bft) SW 214 ° 0 min 0,000 mm 0,0 UV-I 0 W/m² 9,6 °C 10,8 °C 1,6 km/h (1 Bft)
29.06.2017 21:02 10,8 °C 10,9 °C 92 % 1003,1 hPa 0,0 mm 1,0 km/h (0 Bft) SW 214 ° 0 min 0,000 mm 0,0 UV-I 0 W/m² 9,6 °C 10,8 °C 3,2 km/h (1 Bft)
29.06.2017 21:03 10,8 °C 10,8 °C 92 % 1003,1 hPa 0,0 mm 1,0 km/h (0 Bft) SW 214 ° 0 min 0,000 mm 0,0 UV-I 0 W/m² 9,6 °C 10,8 °C 3,2 km/h (1 Bft)
29.06.2017 21:04 10,8 °C 10,8 °C 92 % 1003,2 hPa 0,0 mm 0,3 km/h (0 Bft) SW 214 ° 0 min 0,000 mm 0,0 UV-I 0 W/m² 9,6 °C 10,8 °C 1,6 km/h (1 Bft)
29.06.2017 21:05 10,7 °C 10,8 °C 93 % 1003,2 hPa 0,2 mm 0,0 km/h (0 Bft) SW 214 ° 0 min 0,000 mm 0,0 UV-I 0 W/m² 9,6 °C 10,7 °C 0,0 km/h (0 Bft)
29.06.2017 21:06 10,7 °C 10,7 °C 93 % 1003,2 hPa 0,0 mm 0,7 km/h (0 Bft) SW 219 ° 0 min 0,000 mm 0,0 UV-I 0 W/m² 9,6 °C 10,7 °C 3,2 km/h (1 Bft)
29.06.2017 21:07 10,7 °C 10,7 °C 93 % 1003,2 hPa 0,0 mm 0,7 km/h (0 Bft) SW 219 ° 0 min 0,000 mm 0,0 UV-I 0 W/m² 9,6 °C 10,7 °C 1,6 km/h (1 Bft)
29.06.2017 21:08 10,7 °C 10,7 °C 93 % 1003,2 hPa 0,0 mm 0,0 km/h (0 Bft) SW 219 ° 0 min 0,000 mm 0,0 UV-I 0 W/m² 9,6 °C 10,7 °C 0,0 km/h (0 Bft)
29.06.2017 21:09 10,7 °C 10,7 °C 93 % 1003,2 hPa 0,0 mm 0,0 km/h (0 Bft) SW 219 ° 0 min 0,000 mm 0,0 UV-I 0 W/m² 9,6 °C 10,7 °C 0,0 km/h (0 Bft)
29.06.2017 21:10 10,7 °C 10,7 °C 93 % 1003,2 hPa 0,0 mm 1,8 km/h (1 Bft) SW 219 ° 0 min 0,000 mm 0,0 UV-I 0 W/m² 9,6 °C 10,7 °C 3,2 km/h (1 Bft)
29.06.2017 21:11 10,7 °C 10,7 °C 93 % 1003,2 hPa 0,0 mm 0,3 km/h (0 Bft) SW 219 ° 0 min 0,000 mm 0,0 UV-I 0 W/m² 9,6 °C 10,7 °C 1,6 km/h (1 Bft)
29.06.2017 21:12 10,6 °C 10,7 °C 93 % 1003,2 hPa 0,0 mm 0,0 km/h (0 Bft) SW 219 ° 0 min 0,000 mm 0,0 UV-I 0 W/m² 9,5 °C 10,6 °C 0,0 km/h (0 Bft)
29.06.2017 21:13 10,6 °C 10,6 °C 93 % 1003,1 hPa 0,0 mm 0,0 km/h (0 Bft) SW 219 ° 0 min 0,000 mm 0,0 UV-I 0 W/m² 9,5 °C 10,6 °C 0,0 km/h (0 Bft)
29.06.2017 21:14 10,6 °C 10,6 °C 93 % 1003,1 hPa 0,0 mm 0,4 km/h (0 Bft) SW 219 ° 0 min 0,000 mm 0,0 UV-I 0 W/m² 9,5 °C 10,6 °C 1,6 km/h (1 Bft)
29.06.2017 21:15 10,6 °C 10,6 °C 93 % 1003,2 hPa 0,2 mm 1,0 km/h (0 Bft) SW 219 ° 0 min 0,000 mm 0,0 UV-I 0 W/m² 9,5 °C 10,6 °C 1,6 km/h (1 Bft)
29.06.2017 21:16 10,6 °C 10,6 °C 93 % 1003,2 hPa 0,0 mm 0,6 km/h (0 Bft) SW 219 ° 0 min 0,000 mm 0,0 UV-I 0 W/m² 9,5 °C 10,6 °C 1,6 km/h (1 Bft)
29.06.2017 21:17 10,6 °C 10,6 °C 93 % 1003,3 hPa 0,0 mm 0,0 km/h (0 Bft) SW 219 ° 0 min 0,000 mm 0,0 UV-I 0 W/m² 9,5 °C 10,6 °C 0,0 km/h (0 Bft)
29.06.2017 21:18 10,6 °C 10,6 °C 94 % 1003,3 hPa 0,0 mm 0,0 km/h (0 Bft) SW 219 ° 0 min 0,000 mm 0,0 UV-I 0 W/m² 9,7 °C 10,6 °C 0,0 km/h (0 Bft)
29.06.2017 21:19 10,7 °C 10,7 °C 93 % 1003,3 hPa 0,0 mm 1,4 km/h (1 Bft) SW 219 ° 0 min 0,000 mm 0,0 UV-I 0 W/m² 9,6 °C 10,7 °C 3,2 km/h (1 Bft)
29.06.2017 21:20 10,7 °C 10,7 °C 93 % 1003,2 hPa 0,0 mm 0,7 km/h (0 Bft) SW 219 ° 0 min 0,000 mm 0,0 UV-I 0 W/m² 9,6 °C 10,7 °C 1,6 km/h (1 Bft)
29.06.2017 21:21 10,6 °C 10,7 °C 93 % 1003,2 hPa 0,0 mm 2,0 km/h (1 Bft) SW 219 ° 0 min 0,000 mm 0,0 UV-I 0 W/m² 9,5 °C 10,6 °C 3,2 km/h (1 Bft)
29.06.2017 21:22 10,6 °C 10,6 °C 93 % 1003,2 hPa 0,0 mm 0,5 km/h (0 Bft) SW 219 ° 0 min 0,000 mm 0,0 UV-I 0 W/m² 9,5 °C 10,6 °C 1,6 km/h (1 Bft)
29.06.2017 21:23 10,6 °C 10,6 °C 93 % 1003,2 hPa 0,0 mm 1,0 km/h (0 Bft) SW 219 ° 0 min 0,000 mm 0,0 UV-I 0 W/m² 9,5 °C 10,6 °C 1,6 km/h (1 Bft)
29.06.2017 21:24 10,6 °C 10,6 °C 94 % 1003,2 hPa 0,0 mm 1,5 km/h (1 Bft) SW 219 ° 0 min 0,000 mm 0,0 UV-I 0 W/m² 9,7 °C 10,6 °C 3,2 km/h (1 Bft)
29.06.2017 21:25 10,6 °C 10,6 °C 94 % 1003,2 hPa 0,0 mm 0,1 km/h (0 Bft) SW 219 ° 0 min 0,000 mm 0,0 UV-I 0 W/m² 9,7 °C 10,6 °C 1,6 km/h (1 Bft)
29.06.2017 21:26 10,6 °C 10,6 °C 94 % 1003,2 hPa 0,0 mm 0,0 km/h (0 Bft) SW 219 ° 0 min 0,000 mm 0,0 UV-I 0 W/m² 9,7 °C 10,6 °C 0,0 km/h (0 Bft)
29.06.2017 21:27 10,6 °C 10,6 °C 94 % 1003,2 hPa 0,0 mm 0,0 km/h (0 Bft) SW 219 ° 0 min 0,000 mm 0,0 UV-I 0 W/m² 9,7 °C 10,6 °C 0,0 km/h (0 Bft)
29.06.2017 21:28 10,6 °C 10,6 °C 94 % 1003,2 hPa 0,0 mm 0,7 km/h (0 Bft) W 273 ° 0 min 0,000 mm 0,0 UV-I 0 W/m² 9,7 °C 10,6 °C 3,2 km/h (1 Bft)
29.06.2017 21:29 10,6 °C 10,6 °C 94 % 1003,2 hPa 0,0 mm 0,5 km/h (0 Bft) W 273 ° 0 min 0,000 mm 0,0 UV-I 0 W/m² 9,7 °C 10,6 °C 1,6 km/h (1 Bft)
29.06.2017 21:30 10,6 °C 10,6 °C 94 % 1003,2 hPa 0,0 mm 0,0 km/h (0 Bft) W 273 ° 0 min 0,000 mm 0,0 UV-I 0 W/m² 9,7 °C 10,6 °C 0,0 km/h (0 Bft)
29.06.2017 21:31 10,6 °C 10,6 °C 94 % 1003,2 hPa 0,0 mm 0,4 km/h (0 Bft) W 273 ° 0 min 0,000 mm 0,0 UV-I 0 W/m² 9,7 °C 10,6 °C 3,2 km/h (1 Bft)
29.06.2017 21:32 10,6 °C 10,6 °C 94 % 1003,2 hPa 0,0 mm 1,6 km/h (1 Bft) W 261 ° 0 min 0,000 mm 0,0 UV-I 0 W/m² 9,7 °C 10,6 °C 3,2 km/h (1 Bft)
29.06.2017 21:33 10,6 °C 10,6 °C 94 % 1003,2 hPa 0,0 mm 0,3 km/h (0 Bft) W 261 ° 0 min 0,000 mm 0,0 UV-I 0 W/m² 9,7 °C 10,6 °C 1,6 km/h (1 Bft)
29.06.2017 21:34 10,6 °C 10,6 °C 94 % 1003,2 hPa 0,0 mm 0,3 km/h (0 Bft) W 261 ° 0 min 0,000 mm 0,0 UV-I 0 W/m² 9,7 °C 10,6 °C 1,6 km/h (1 Bft)
29.06.2017 21:35 10,5 °C 10,6 °C 94 % 1003,2 hPa 0,0 mm 0,0 km/h (0 Bft) W 261 ° 0 min 0,000 mm 0,0 UV-I 0 W/m² 9,6 °C 10,5 °C 0,0 km/h (0 Bft)
29.06.2017 21:36 10,6 °C 10,6 °C 94 % 1003,2 hPa 0,0 mm 0,0 km/h (0 Bft) W 261 ° 0 min 0,000 mm 0,0 UV-I 0 W/m² 9,7 °C 10,6 °C 0,0 km/h (0 Bft)
29.06.2017 21:37 10,6 °C 10,6 °C 94 % 1003,2 hPa 0,0 mm 0,0 km/h (0 Bft) W 261 ° 0 min 0,000 mm 0,0 UV-I 0 W/m² 9,7 °C 10,6 °C 0,0 km/h (0 Bft)
29.06.2017 21:38 10,5 °C 10,6 °C 94 % 1003,2 hPa 0,0 mm 0,0 km/h (0 Bft) W 261 ° 0 min 0,000 mm 0,0 UV-I 0 W/m² 9,6 °C 10,5 °C 0,0 km/h (0 Bft)
29.06.2017 21:39 10,6 °C 10,6 °C 94 % 1003,2 hPa 0,0 mm 0,0 km/h (0 Bft) W 261 ° 0 min 0,000 mm 0,0 UV-I 0 W/m² 9,7 °C 10,6 °C 0,0 km/h (0 Bft)
29.06.2017 21:40 10,5 °C 10,6 °C 94 % 1003,2 hPa 0,0 mm 0,0 km/h (0 Bft) W 261 ° 0 min 0,000 mm 0,0 UV-I 0 W/m² 9,6 °C 10,5 °C 0,0 km/h (0 Bft)
29.06.2017 21:41 10,4 °C 10,5 °C 94 % 1003,2 hPa 0,0 mm 0,0 km/h (0 Bft) W 261 ° 0 min 0,000 mm 0,0 UV-I 0 W/m² 9,5 °C 10,4 °C 0,0 km/h (0 Bft)
29.06.2017 21:42 10,5 °C 10,5 °C 94 % 1003,1 hPa 0,2 mm 0,0 km/h (0 Bft) W 261 ° 0 min 0,000 mm 0,0 UV-I 0 W/m² 9,6 °C 10,5 °C 0,0 km/h (0 Bft)
29.06.2017 21:43 10,5 °C 10,6 °C 94 % 1003,1 hPa 0,0 mm 0,0 km/h (0 Bft) W 261 ° 0 min 0,000 mm 0,0 UV-I 0 W/m² 9,6 °C 10,5 °C 0,0 km/h (0 Bft)
29.06.2017 21:44 10,5 °C 10,5 °C 94 % 1003,2 hPa 0,0 mm 0,0 km/h (0 Bft) W 261 ° 0 min 0,000 mm 0,0 UV-I 0 W/m² 9,6 °C 10,5 °C 0,0 km/h (0 Bft)
29.06.2017 21:45 10,5 °C 10,5 °C 94 % 1003,2 hPa 0,0 mm 0,0 km/h (0 Bft) W 261 ° 0 min 0,000 mm 0,0 UV-I 0 W/m² 9,6 °C 10,5 °C 0,0 km/h (0 Bft)
29.06.2017 21:46 10,5 °C 10,5 °C 94 % 1003,1 hPa 0,0 mm 0,0 km/h (0 Bft) W 261 ° 0 min 0,000 mm 0,0 UV-I 0 W/m² 9,6 °C 10,5 °C 0,0 km/h (0 Bft)
29.06.2017 21:47 10,5 °C 10,5 °C 94 % 1003,1 hPa 0,0 mm 0,0 km/h (0 Bft) W 261 ° 0 min 0,000 mm 0,0 UV-I 0 W/m² 9,6 °C 10,5 °C 0,0 km/h (0 Bft)
29.06.2017 21:48 10,5 °C 10,5 °C 94 % 1003,2 hPa 0,0 mm 0,0 km/h (0 Bft) W 261 ° 0 min 0,000 mm 0,0 UV-I 0 W/m² 9,6 °C 10,5 °C 0,0 km/h (0 Bft)
29.06.2017 21:49 10,5 °C 10,5 °C 94 % 1003,2 hPa 0,0 mm 0,0 km/h (0 Bft) W 261 ° 0 min 0,000 mm 0,0 UV-I 0 W/m² 9,6 °C 10,5 °C 0,0 km/h (0 Bft)
29.06.2017 21:50 10,5 °C 10,5 °C 94 % 1003,2 hPa 0,0 mm 0,0 km/h (0 Bft) W 261 ° 0 min 0,000 mm 0,0 UV-I 0 W/m² 9,6 °C 10,5 °C 0,0 km/h (0 Bft)
29.06.2017 21:51 10,5 °C 10,5 °C 94 % 1003,2 hPa 0,0 mm 0,0 km/h (0 Bft) W 261 ° 0 min 0,000 mm 0,0 UV-I 0 W/m² 9,6 °C 10,5 °C 0,0 km/h (0 Bft)
29.06.2017 21:52 10,4 °C 10,5 °C 94 % 1003,2 hPa 0,0 mm 0,0 km/h (0 Bft) W 261 ° 0 min 0,000 mm 0,0 UV-I 0 W/m² 9,5 °C 10,4 °C 0,0 km/h (0 Bft)
29.06.2017 21:53 10,4 °C 10,4 °C 94 % 1003,1 hPa 0,0 mm 0,0 km/h (0 Bft) W 261 ° 0 min 0,000 mm 0,0 UV-I 0 W/m² 9,5 °C 10,4 °C 0,0 km/h (0 Bft)
29.06.2017 21:54 10,4 °C 10,4 °C 94 % 1003,2 hPa 0,0 mm 0,0 km/h (0 Bft) W 261 ° 0 min 0,000 mm 0,0 UV-I 0 W/m² 9,5 °C 10,4 °C 0,0 km/h (0 Bft)
29.06.2017 21:55 10,4 °C 10,4 °C 94 % 1003,2 hPa 0,0 mm 0,0 km/h (0 Bft) W 261 ° 0 min 0,000 mm 0,0 UV-I 0 W/m² 9,5 °C 10,4 °C 0,0 km/h (0 Bft)
29.06.2017 21:56 10,4 °C 10,4 °C 94 % 1003,3 hPa 0,0 mm 0,0 km/h (0 Bft) W 261 ° 0 min 0,000 mm 0,0 UV-I 0 W/m² 9,5 °C 10,4 °C 0,0 km/h (0 Bft)
29.06.2017 21:57 10,4 °C 10,4 °C 94 % 1003,3 hPa 0,0 mm 0,0 km/h (0 Bft) W 261 ° 0 min 0,000 mm 0,0 UV-I 0 W/m² 9,5 °C 10,4 °C 0,0 km/h (0 Bft)
29.06.2017 21:58 10,4 °C 10,4 °C 94 % 1003,2 hPa 0,0 mm 0,0 km/h (0 Bft) W 261 ° 0 min 0,000 mm 0,0 UV-I 0 W/m² 9,5 °C 10,4 °C 0,0 km/h (0 Bft)
29.06.2017 21:59 10,4 °C 10,4 °C 94 % 1003,3 hPa 0,0 mm 0,0 km/h (0 Bft) W 261 ° 0 min 0,000 mm 0,0 UV-I 0 W/m² 9,5 °C 10,4 °C 0,0 km/h (0 Bft)
29.06.2017 22:00 10,4 °C 10,4 °C 94 % 1003,3 hPa 0,0 mm 0,0 km/h (0 Bft) W 261 ° 0 min 0,000 mm 0,0 UV-I 0 W/m² 9,5 °C 10,4 °C 0,0 km/h (0 Bft)
29.06.2017 22:01 10,3 °C 10,4 °C 94 % 1003,4 hPa 0,0 mm 0,0 km/h (0 Bft) W 261 ° 0 min 0,000 mm 0,0 UV-I 0 W/m² 9,4 °C 10,3 °C 0,0 km/h (0 Bft)
29.06.2017 22:02 10,3 °C 10,4 °C 94 % 1003,4 hPa 0,0 mm 0,0 km/h (0 Bft) W 261 ° 0 min 0,000 mm 0,0 UV-I 0 W/m² 9,4 °C 10,3 °C 0,0 km/h (0 Bft)
29.06.2017 22:03 10,3 °C 10,3 °C 94 % 1003,4 hPa 0,0 mm 0,0 km/h (0 Bft) W 261 ° 0 min 0,000 mm 0,0 UV-I 0 W/m² 9,4 °C 10,3 °C 0,0 km/h (0 Bft)
29.06.2017 22:04 10,3 °C 10,3 °C 94 % 1003,5 hPa 0,0 mm 0,0 km/h (0 Bft) W 261 ° 0 min 0,000 mm 0,0 UV-I 0 W/m² 9,4 °C 10,3 °C 0,0 km/h (0 Bft)
29.06.2017 22:05 10,3 °C 10,3 °C 94 % 1003,5 hPa 0,0 mm 0,0 km/h (0 Bft) W 261 ° 0 min 0,000 mm 0,0 UV-I 0 W/m² 9,4 °C 10,3 °C 0,0 km/h (0 Bft)
29.06.2017 22:06 10,3 °C 10,3 °C 94 % 1003,5 hPa 0,0 mm 0,0 km/h (0 Bft) W 261 ° 0 min 0,000 mm 0,0 UV-I 0 W/m² 9,4 °C 10,3 °C 0,0 km/h (0 Bft)
29.06.2017 22:07 10,3 °C 10,3 °C 94 % 1003,6 hPa 0,0 mm 0,0 km/h (0 Bft) W 261 ° 0 min 0,000 mm 0,0 UV-I 0 W/m² 9,4 °C 10,3 °C 0,0 km/h (0 Bft)
29.06.2017 22:08 10,3 °C 10,3 °C 94 % 1003,6 hPa 0,0 mm 0,0 km/h (0 Bft) W 261 ° 0 min 0,000 mm 0,0 UV-I 0 W/m² 9,4 °C 10,3 °C 0,0 km/h (0 Bft)
29.06.2017 22:09 10,3 °C 10,3 °C 94 % 1003,6 hPa 0,0 mm 0,0 km/h (0 Bft) W 261 ° 0 min 0,000 mm 0,0 UV-I 0 W/m² 9,4 °C 10,3 °C 0,0 km/h (0 Bft)
29.06.2017 22:10 10,3 °C 10,3 °C 94 % 1003,7 hPa 0,0 mm 0,0 km/h (0 Bft) W 261 ° 0 min 0,000 mm 0,0 UV-I 0 W/m² 9,4 °C 10,3 °C 0,0 km/h (0 Bft)
29.06.2017 22:11 10,3 °C 10,3 °C 94 % 1003,7 hPa 0,0 mm 0,0 km/h (0 Bft) W 261 ° 0 min 0,000 mm 0,0 UV-I 0 W/m² 9,4 °C 10,3 °C 0,0 km/h (0 Bft)
29.06.2017 22:12 10,3 °C 10,3 °C 94 % 1003,7 hPa 0,0 mm 0,0 km/h (0 Bft) W 261 ° 0 min 0,000 mm 0,0 UV-I 0 W/m² 9,4 °C 10,3 °C 0,0 km/h (0 Bft)
29.06.2017 22:13 10,2 °C 10,3 °C 94 % 1003,7 hPa 0,0 mm 0,0 km/h (0 Bft) W 261 ° 0 min 0,000 mm 0,0 UV-I 0 W/m² 9,3 °C 10,2 °C 0,0 km/h (0 Bft)
29.06.2017 22:14 10,2 °C 10,3 °C 94 % 1003,7 hPa 0,0 mm 0,0 km/h (0 Bft) W 261 ° 0 min 0,000 mm 0,0 UV-I 0 W/m² 9,3 °C 10,2 °C 0,0 km/h (0 Bft)
29.06.2017 22:15 10,2 °C 10,3 °C 94 % 1003,7 hPa 0,0 mm 0,0 km/h (0 Bft) W 261 ° 0 min 0,000 mm 0,0 UV-I 0 W/m² 9,3 °C 10,2 °C 0,0 km/h (0 Bft)
29.06.2017 22:16 10,3 °C 10,3 °C 94 % 1003,7 hPa 0,0 mm 0,0 km/h (0 Bft) W 261 ° 0 min 0,000 mm 0,0 UV-I 0 W/m² 9,4 °C 10,3 °C 0,0 km/h (0 Bft)
29.06.2017 22:17 10,3 °C 10,3 °C 94 % 1003,7 hPa 0,0 mm 0,0 km/h (0 Bft) W 261 ° 0 min 0,000 mm 0,0 UV-I 0 W/m² 9,4 °C 10,3 °C 0,0 km/h (0 Bft)
29.06.2017 22:18 10,3 °C 10,3 °C 95 % 1003,6 hPa 0,0 mm 0,0 km/h (0 Bft) W 261 ° 0 min 0,000 mm 0,0 UV-I 0 W/m² 9,5 °C 10,3 °C 0,0 km/h (0 Bft)
29.06.2017 22:19 10,2 °C 10,3 °C 94 % 1003,6 hPa 0,0 mm 0,0 km/h (0 Bft) W 261 ° 0 min 0,000 mm 0,0 UV-I 0 W/m² 9,3 °C 10,2 °C 0,0 km/h (0 Bft)
29.06.2017 22:20 10,3 °C 10,3 °C 94 % 1003,8 hPa 0,0 mm 0,0 km/h (0 Bft) W 261 ° 0 min 0,000 mm 0,0 UV-I 0 W/m² 9,4 °C 10,3 °C 0,0 km/h (0 Bft)
29.06.2017 22:21 10,2 °C 10,3 °C 94 % 1003,8 hPa 0,0 mm 0,0 km/h (0 Bft) W 261 ° 0 min 0,000 mm 0,0 UV-I 0 W/m² 9,3 °C 10,2 °C 0,0 km/h (0 Bft)
29.06.2017 22:22 10,2 °C 10,3 °C 94 % 1003,7 hPa 0,0 mm 0,0 km/h (0 Bft) W 261 ° 0 min 0,000 mm 0,0 UV-I 0 W/m² 9,3 °C 10,2 °C 0,0 km/h (0 Bft)
29.06.2017 22:23 10,3 °C 10,3 °C 94 % 1003,8 hPa 0,0 mm 1,5 km/h (1 Bft) S-SW 203 ° 0 min 0,000 mm 0,0 UV-I 0 W/m² 9,4 °C 10,3 °C 3,2 km/h (1 Bft)
29.06.2017 22:24 10,3 °C 10,3 °C 95 % 1003,8 hPa 0,0 mm 0,0 km/h (0 Bft) S-SW 203 ° 0 min 0,000 mm 0,0 UV-I 0 W/m² 9,5 °C 10,3 °C 0,0 km/h (0 Bft)
29.06.2017 22:25 10,3 °C 10,3 °C 95 % 1003,8 hPa 0,0 mm 0,0 km/h (0 Bft) S-SW 203 ° 0 min 0,000 mm 0,0 UV-I 0 W/m² 9,5 °C 10,3 °C 0,0 km/h (0 Bft)
29.06.2017 22:26 10,3 °C 10,3 °C 95 % 1003,8 hPa 0,0 mm 0,0 km/h (0 Bft) S-SW 203 ° 0 min 0,000 mm 0,0 UV-I 0 W/m² 9,5 °C 10,3 °C 0,0 km/h (0 Bft)
29.06.2017 22:27 10,3 °C 10,3 °C 95 % 1003,8 hPa 0,0 mm 0,0 km/h (0 Bft) S-SW 203 ° 0 min 0,000 mm 0,0 UV-I 0 W/m² 9,5 °C 10,3 °C 0,0 km/h (0 Bft)
29.06.2017 22:28 10,3 °C 10,3 °C 95 % 1003,8 hPa 0,0 mm 0,0 km/h (0 Bft) S-SW 203 ° 0 min 0,000 mm 0,0 UV-I 0 W/m² 9,5 °C 10,3 °C 0,0 km/h (0 Bft)
29.06.2017 22:29 10,3 °C 10,3 °C 95 % 1003,8 hPa 0,0 mm 0,0 km/h (0 Bft) S-SW 203 ° 0 min 0,000 mm 0,0 UV-I 0 W/m² 9,5 °C 10,3 °C 0,0 km/h (0 Bft)
29.06.2017 22:30 10,3 °C 10,3 °C 95 % 1003,8 hPa 0,0 mm 0,0 km/h (0 Bft) S-SW 203 ° 0 min 0,000 mm 0,0 UV-I 0 W/m² 9,5 °C 10,3 °C 0,0 km/h (0 Bft)
29.06.2017 22:31 10,3 °C 10,3 °C 95 % 1003,8 hPa 0,0 mm 0,5 km/h (0 Bft) S-SW 203 ° 0 min 0,000 mm 0,0 UV-I 0 W/m² 9,5 °C 10,3 °C 1,6 km/h (1 Bft)
29.06.2017 22:32 10,3 °C 10,3 °C 95 % 1003,8 hPa 0,0 mm 0,0 km/h (0 Bft) S-SW 203 ° 0 min 0,000 mm 0,0 UV-I 0 W/m² 9,5 °C 10,3 °C 0,0 km/h (0 Bft)
29.06.2017 22:33 10,3 °C 10,3 °C 95 % 1003,9 hPa 0,0 mm 0,0 km/h (0 Bft) S-SW 203 ° 0 min 0,000 mm 0,0 UV-I 0 W/m² 9,5 °C 10,3 °C 0,0 km/h (0 Bft)
29.06.2017 22:34 10,3 °C 10,3 °C 95 % 1003,9 hPa 0,0 mm 0,0 km/h (0 Bft) S-SW 203 ° 0 min 0,000 mm 0,0 UV-I 0 W/m² 9,5 °C 10,3 °C 0,0 km/h (0 Bft)
29.06.2017 22:35 10,3 °C 10,3 °C 95 % 1003,9 hPa 0,0 mm 0,0 km/h (0 Bft) S-SW 203 ° 0 min 0,000 mm 0,0 UV-I 0 W/m² 9,5 °C 10,3 °C 0,0 km/h (0 Bft)
29.06.2017 22:36 10,3 °C 10,3 °C 95 % 1003,9 hPa 0,0 mm 0,0 km/h (0 Bft) S-SW 203 ° 0 min 0,000 mm 0,0 UV-I 0 W/m² 9,5 °C 10,3 °C 0,0 km/h (0 Bft)
29.06.2017 22:37 10,3 °C 10,4 °C 95 % 1003,9 hPa 0,0 mm 0,2 km/h (0 Bft) S-SW 203 ° 0 min 0,000 mm 0,0 UV-I 0 W/m² 9,5 °C 10,3 °C 1,6 km/h (1 Bft)
29.06.2017 22:38 10,3 °C 10,3 °C 95 % 1003,9 hPa 0,0 mm 0,0 km/h (0 Bft) S-SW 203 ° 0 min 0,000 mm 0,0 UV-I 0 W/m² 9,5 °C 10,3 °C 0,0 km/h (0 Bft)
29.06.2017 22:39 10,3 °C 10,3 °C 95 % 1003,9 hPa 0,0 mm 0,0 km/h (0 Bft) S-SW 203 ° 0 min 0,000 mm 0,0 UV-I 0 W/m² 9,5 °C 10,3 °C 0,0 km/h (0 Bft)
29.06.2017 22:40 10,3 °C 10,3 °C 95 % 1003,9 hPa 0,0 mm 0,0 km/h (0 Bft) S-SW 203 ° 0 min 0,000 mm 0,0 UV-I 0 W/m² 9,5 °C 10,3 °C 0,0 km/h (0 Bft)
29.06.2017 22:41 10,3 °C 10,3 °C 95 % 1004,0 hPa 0,0 mm 0,0 km/h (0 Bft) S-SW 203 ° 0 min 0,000 mm 0,0 UV-I 0 W/m² 9,5 °C 10,3 °C 0,0 km/h (0 Bft)
29.06.2017 22:42 10,3 °C 10,3 °C 95 % 1003,9 hPa 0,0 mm 0,0 km/h (0 Bft) S-SW 203 ° 0 min 0,000 mm 0,0 UV-I 0 W/m² 9,5 °C 10,3 °C 0,0 km/h (0 Bft)
29.06.2017 22:43 10,3 °C 10,3 °C 95 % 1003,9 hPa 0,0 mm 0,0 km/h (0 Bft) S-SW 203 ° 0 min 0,000 mm 0,0 UV-I 0 W/m² 9,5 °C 10,3 °C 0,0 km/h (0 Bft)
29.06.2017 22:44 10,3 °C 10,3 °C 95 % 1004,0 hPa 0,0 mm 0,0 km/h (0 Bft) S-SW 203 ° 0 min 0,000 mm 0,0 UV-I 0 W/m² 9,5 °C 10,3 °C 0,0 km/h (0 Bft)
29.06.2017 22:45 10,3 °C 10,3 °C 95 % 1004,0 hPa 0,0 mm 0,0 km/h (0 Bft) S-SW 203 ° 0 min 0,000 mm 0,0 UV-I 0 W/m² 9,5 °C 10,3 °C 0,0 km/h (0 Bft)
29.06.2017 22:46 10,3 °C 10,3 °C 95 % 1004,0 hPa 0,0 mm 0,0 km/h (0 Bft) S-SW 203 ° 0 min 0,000 mm 0,0 UV-I 0 W/m² 9,5 °C 10,3 °C 0,0 km/h (0 Bft)
29.06.2017 22:47 10,3 °C 10,3 °C 95 % 1004,1 hPa 0,0 mm 0,0 km/h (0 Bft) S-SW 203 ° 0 min 0,000 mm 0,0 UV-I 0 W/m² 9,5 °C 10,3 °C 0,0 km/h (0 Bft)
29.06.2017 22:48 10,3 °C 10,3 °C 95 % 1004,1 hPa 0,0 mm 1,3 km/h (1 Bft) S-SW 203 ° 0 min 0,000 mm 0,0 UV-I 0 W/m² 9,5 °C 10,3 °C 3,2 km/h (1 Bft)
29.06.2017 22:49 10,3 °C 10,3 °C 95 % 1004,0 hPa 0,0 mm 1,4 km/h (1 Bft) S-SW 203 ° 0 min 0,000 mm 0,0 UV-I 0 W/m² 9,5 °C 10,3 °C 3,2 km/h (1 Bft)
29.06.2017 22:50 10,3 °C 10,3 °C 95 % 1004,0 hPa 0,0 mm 0,1 km/h (0 Bft) S-SW 203 ° 0 min 0,000 mm 0,0 UV-I 0 W/m² 9,5 °C 10,3 °C 1,6 km/h (1 Bft)
29.06.2017 22:51 10,3 °C 10,3 °C 95 % 1004,1 hPa 0,0 mm 0,7 km/h (0 Bft) S-SW 203 ° 0 min 0,000 mm 0,0 UV-I 0 W/m² 9,5 °C 10,3 °C 1,6 km/h (1 Bft)
29.06.2017 22:52 10,3 °C 10,3 °C 95 % 1004,0 hPa 0,0 mm 0,3 km/h (0 Bft) S-SW 203 ° 0 min 0,000 mm 0,0 UV-I 0 W/m² 9,5 °C 10,3 °C 1,6 km/h (1 Bft)
29.06.2017 22:53 10,3 °C 10,3 °C 95 % 1004,1 hPa 0,0 mm 0,0 km/h (0 Bft) S-SW 203 ° 0 min 0,000 mm 0,0 UV-I 0 W/m² 9,5 °C 10,3 °C 0,0 km/h (0 Bft)
29.06.2017 22:54 10,4 °C 10,4 °C 95 % 1004,2 hPa 0,0 mm 0,0 km/h (0 Bft) S-SW 203 ° 0 min 0,000 mm 0,0 UV-I 0 W/m² 9,6 °C 10,4 °C 0,0 km/h (0 Bft)
29.06.2017 22:55 10,4 °C 10,4 °C 95 % 1004,2 hPa 0,0 mm 0,0 km/h (0 Bft) S-SW 203 ° 0 min 0,000 mm 0,0 UV-I 0 W/m² 9,6 °C 10,4 °C 0,0 km/h (0 Bft)
29.06.2017 22:56 10,4 °C 10,4 °C 95 % 1004,2 hPa 0,0 mm 0,0 km/h (0 Bft) S-SW 203 ° 0 min 0,000 mm 0,0 UV-I 0 W/m² 9,6 °C 10,4 °C 0,0 km/h (0 Bft)
29.06.2017 22:57 10,3 °C 10,4 °C 95 % 1004,2 hPa 0,0 mm 0,0 km/h (0 Bft) S-SW 203 ° 0 min 0,000 mm 0,0 UV-I 0 W/m² 9,5 °C 10,3 °C 0,0 km/h (0 Bft)
29.06.2017 22:58 10,3 °C 10,4 °C 95 % 1004,2 hPa 0,0 mm 0,0 km/h (0 Bft) S-SW 203 ° 0 min 0,000 mm 0,0 UV-I 0 W/m² 9,5 °C 10,3 °C 0,0 km/h (0 Bft)
29.06.2017 22:59 10,3 °C 10,3 °C 95 % 1004,2 hPa 0,0 mm 0,0 km/h (0 Bft) S-SW 203 ° 0 min 0,000 mm 0,0 UV-I 0 W/m² 9,5 °C 10,3 °C 0,0 km/h (0 Bft)
29.06.2017 23:00 10,3 °C 10,3 °C 95 % 1004,2 hPa 0,0 mm 0,0 km/h (0 Bft) S-SW 203 ° 0 min 0,000 mm 0,0 UV-I 0 W/m² 9,5 °C 10,3 °C 0,0 km/h (0 Bft)
29.06.2017 23:01 10,3 °C 10,3 °C 95 % 1004,2 hPa 0,0 mm 0,4 km/h (0 Bft) S-SW 203 ° 0 min 0,000 mm 0,0 UV-I 0 W/m² 9,5 °C 10,3 °C 1,6 km/h (1 Bft)
29.06.2017 23:02 10,3 °C 10,3 °C 95 % 1004,2 hPa 0,0 mm 0,1 km/h (0 Bft) S-SW 203 ° 0 min 0,000 mm 0,0 UV-I 0 W/m² 9,5 °C 10,3 °C 1,6 km/h (1 Bft)
29.06.2017 23:03 10,3 °C 10,3 °C 95 % 1004,2 hPa 0,0 mm 0,0 km/h (0 Bft) S-SW 203 ° 0 min 0,000 mm 0,0 UV-I 0 W/m² 9,5 °C 10,3 °C 0,0 km/h (0 Bft)
29.06.2017 23:04 10,3 °C 10,3 °C 95 % 1004,3 hPa 0,0 mm 0,0 km/h (0 Bft) S-SW 203 ° 0 min 0,000 mm 0,0 UV-I 0 W/m² 9,5 °C 10,3 °C 0,0 km/h (0 Bft)
29.06.2017 23:05 10,3 °C 10,3 °C 95 % 1004,2 hPa 0,0 mm 0,0 km/h (0 Bft) S-SW 203 ° 0 min 0,000 mm 0,0 UV-I 0 W/m² 9,5 °C 10,3 °C 0,0 km/h (0 Bft)
29.06.2017 23:06 10,3 °C 10,3 °C 95 % 1004,2 hPa 0,0 mm 0,0 km/h (0 Bft) S-SW 203 ° 0 min 0,000 mm 0,0 UV-I 0 W/m² 9,5 °C 10,3 °C 0,0 km/h (0 Bft)
29.06.2017 23:07 10,3 °C 10,4 °C 95 % 1004,3 hPa 0,0 mm 0,0 km/h (0 Bft) S-SW 203 ° 0 min 0,000 mm 0,0 UV-I 0 W/m² 9,5 °C 10,3 °C 0,0 km/h (0 Bft)
29.06.2017 23:08 10,3 °C 10,3 °C 95 % 1004,3 hPa 0,0 mm 0,0 km/h (0 Bft) S-SW 203 ° 0 min 0,000 mm 0,0 UV-I 0 W/m² 9,5 °C 10,3 °C 0,0 km/h (0 Bft)
29.06.2017 23:09 10,3 °C 10,3 °C 95 % 1004,4 hPa 0,0 mm 0,0 km/h (0 Bft) S-SW 203 ° 0 min 0,000 mm 0,0 UV-I 0 W/m² 9,5 °C 10,3 °C 0,0 km/h (0 Bft)
29.06.2017 23:10 10,4 °C 10,4 °C 95 % 1004,4 hPa 0,0 mm 0,0 km/h (0 Bft) S-SW 203 ° 0 min 0,000 mm 0,0 UV-I 0 W/m² 9,6 °C 10,4 °C 0,0 km/h (0 Bft)
29.06.2017 23:11 10,3 °C 10,4 °C 95 % 1004,4 hPa 0,0 mm 0,0 km/h (0 Bft) S-SW 203 ° 0 min 0,000 mm 0,0 UV-I 0 W/m² 9,5 °C 10,3 °C 0,0 km/h (0 Bft)
29.06.2017 23:12 10,3 °C 10,4 °C 95 % 1004,4 hPa 0,0 mm 0,0 km/h (0 Bft) S-SW 203 ° 0 min 0,000 mm 0,0 UV-I 0 W/m² 9,5 °C 10,3 °C 0,0 km/h (0 Bft)
29.06.2017 23:13 10,3 °C 10,3 °C 95 % 1004,4 hPa 0,0 mm 0,0 km/h (0 Bft) S-SW 203 ° 0 min 0,000 mm 0,0 UV-I 0 W/m² 9,5 °C 10,3 °C 0,0 km/h (0 Bft)
29.06.2017 23:14 10,3 °C 10,3 °C 95 % 1004,3 hPa 0,0 mm 0,0 km/h (0 Bft) S-SW 203 ° 0 min 0,000 mm 0,0 UV-I 0 W/m² 9,5 °C 10,3 °C 0,0 km/h (0 Bft)
29.06.2017 23:15 10,3 °C 10,3 °C 95 % 1004,3 hPa 0,0 mm 0,0 km/h (0 Bft) S-SW 203 ° 0 min 0,000 mm 0,0 UV-I 0 W/m² 9,5 °C 10,3 °C 0,0 km/h (0 Bft)
29.06.2017 23:16 10,3 °C 10,3 °C 95 % 1004,3 hPa 0,0 mm 0,0 km/h (0 Bft) S-SW 203 ° 0 min 0,000 mm 0,0 UV-I 0 W/m² 9,5 °C 10,3 °C 0,0 km/h (0 Bft)
29.06.2017 23:17 10,3 °C 10,3 °C 95 % 1004,3 hPa 0,0 mm 0,0 km/h (0 Bft) S-SW 203 ° 0 min 0,000 mm 0,0 UV-I 0 W/m² 9,5 °C 10,3 °C 0,0 km/h (0 Bft)
29.06.2017 23:18 10,3 °C 10,4 °C 95 % 1004,2 hPa 0,0 mm 0,0 km/h (0 Bft) S-SW 203 ° 0 min 0,000 mm 0,0 UV-I 0 W/m² 9,5 °C 10,3 °C 0,0 km/h (0 Bft)
29.06.2017 23:19 10,4 °C 10,4 °C 95 % 1004,2 hPa 0,0 mm 1,1 km/h (1 Bft) S-SW 203 ° 0 min 0,000 mm 0,0 UV-I 0 W/m² 9,6 °C 10,4 °C 3,2 km/h (1 Bft)
29.06.2017 23:20 10,4 °C 10,4 °C 95 % 1004,2 hPa 0,0 mm 1,0 km/h (0 Bft) S-SW 203 ° 0 min 0,000 mm 0,0 UV-I 0 W/m² 9,6 °C 10,4 °C 3,2 km/h (1 Bft)
29.06.2017 23:21 10,3 °C 10,4 °C 95 % 1004,2 hPa 0,0 mm 1,5 km/h (1 Bft) S-SW 203 ° 0 min 0,000 mm 0,0 UV-I 0 W/m² 9,5 °C 10,3 °C 4,8 km/h (1 Bft)
29.06.2017 23:22 10,3 °C 10,3 °C 95 % 1004,2 hPa 0,0 mm 2,4 km/h (1 Bft) S-SW 203 ° 0 min 0,000 mm 0,0 UV-I 0 W/m² 9,5 °C 10,3 °C 4,8 km/h (1 Bft)
29.06.2017 23:23 10,4 °C 10,4 °C 95 % 1004,2 hPa 0,0 mm 5,0 km/h (1 Bft) S-SO 167 ° 0 min 0,000 mm 0,0 UV-I 0 W/m² 9,6 °C 10,4 °C 6,4 km/h (2 Bft)
29.06.2017 23:24 10,3 °C 10,4 °C 95 % 1004,3 hPa 0,0 mm 2,7 km/h (1 Bft) S-SO 167 ° 0 min 0,000 mm 0,0 UV-I 0 W/m² 9,5 °C 10,3 °C 4,8 km/h (1 Bft)
29.06.2017 23:25 10,3 °C 10,4 °C 95 % 1004,3 hPa 0,0 mm 0,4 km/h (0 Bft) S-SO 167 ° 0 min 0,000 mm 0,0 UV-I 0 W/m² 9,5 °C 10,3 °C 1,6 km/h (1 Bft)
29.06.2017 23:26 10,3 °C 10,3 °C 95 % 1004,3 hPa 0,0 mm 0,0 km/h (0 Bft) S-SO 167 ° 0 min 0,000 mm 0,0 UV-I 0 W/m² 9,5 °C 10,3 °C 0,0 km/h (0 Bft)
29.06.2017 23:27 10,3 °C 10,4 °C 95 % 1004,2 hPa 0,0 mm 0,7 km/h (0 Bft) S-SO 167 ° 0 min 0,000 mm 0,0 UV-I 0 W/m² 9,5 °C 10,3 °C 4,8 km/h (1 Bft)
29.06.2017 23:28 10,3 °C 10,4 °C 95 % 1004,2 hPa 0,0 mm 0,0 km/h (0 Bft) S-SO 167 ° 0 min 0,000 mm 0,0 UV-I 0 W/m² 9,5 °C 10,3 °C 0,0 km/h (0 Bft)
29.06.2017 23:29 10,3 °C 10,4 °C 95 % 1004,3 hPa 0,0 mm 0,0 km/h (0 Bft) S-SO 167 ° 0 min 0,000 mm 0,0 UV-I 0 W/m² 9,5 °C 10,3 °C 0,0 km/h (0 Bft)
29.06.2017 23:30 10,3 °C 10,3 °C 95 % 1004,2 hPa 0,0 mm 0,0 km/h (0 Bft) S-SO 167 ° 0 min 0,000 mm 0,0 UV-I 0 W/m² 9,5 °C 10,3 °C 0,0 km/h (0 Bft)
29.06.2017 23:31 10,3 °C 10,3 °C 95 % 1004,2 hPa 0,0 mm 0,0 km/h (0 Bft) S-SO 167 ° 0 min 0,000 mm 0,0 UV-I 0 W/m² 9,5 °C 10,3 °C 0,0 km/h (0 Bft)
29.06.2017 23:32 10,3 °C 10,3 °C 95 % 1004,3 hPa 0,0 mm 0,0 km/h (0 Bft) S-SO 167 ° 0 min 0,000 mm 0,0 UV-I 0 W/m² 9,5 °C 10,3 °C 0,0 km/h (0 Bft)
29.06.2017 23:33 10,3 °C 10,3 °C 95 % 1004,3 hPa 0,0 mm 0,1 km/h (0 Bft) S-SO 167 ° 0 min 0,000 mm 0,0 UV-I 0 W/m² 9,5 °C 10,3 °C 1,6 km/h (1 Bft)
29.06.2017 23:34 10,3 °C 10,3 °C 95 % 1004,3 hPa 0,0 mm 0,0 km/h (0 Bft) S-SO 167 ° 0 min 0,000 mm 0,0 UV-I 0 W/m² 9,5 °C 10,3 °C 0,0 km/h (0 Bft)
29.06.2017 23:35 10,3 °C 10,3 °C 95 % 1004,3 hPa 0,0 mm 0,0 km/h (0 Bft) S-SO 167 ° 0 min 0,000 mm 0,0 UV-I 0 W/m² 9,5 °C 10,3 °C 0,0 km/h (0 Bft)
29.06.2017 23:36 10,2 °C 10,3 °C 95 % 1004,3 hPa 0,0 mm 0,0 km/h (0 Bft) S-SO 167 ° 0 min 0,000 mm 0,0 UV-I 0 W/m² 9,4 °C 10,2 °C 0,0 km/h (0 Bft)
29.06.2017 23:37 10,3 °C 10,3 °C 94 % 1004,3 hPa 0,0 mm 0,0 km/h (0 Bft) S-SO 167 ° 0 min 0,000 mm 0,0 UV-I 0 W/m² 9,4 °C 10,3 °C 0,0 km/h (0 Bft)
29.06.2017 23:38 10,3 °C 10,3 °C 94 % 1004,3 hPa 0,0 mm 0,0 km/h (0 Bft) S-SO 167 ° 0 min 0,000 mm 0,0 UV-I 0 W/m² 9,4 °C 10,3 °C 0,0 km/h (0 Bft)
29.06.2017 23:39 10,2 °C 10,3 °C 95 % 1004,3 hPa 0,0 mm 0,3 km/h (0 Bft) S-SO 167 ° 0 min 0,000 mm 0,0 UV-I 0 W/m² 9,4 °C 10,2 °C 1,6 km/h (1 Bft)
29.06.2017 23:40 10,2 °C 10,3 °C 95 % 1004,3 hPa 0,0 mm 0,4 km/h (0 Bft) S-SO 167 ° 0 min 0,000 mm 0,0 UV-I 0 W/m² 9,4 °C 10,2 °C 1,6 km/h (1 Bft)
29.06.2017 23:41 10,2 °C 10,3 °C 95 % 1004,3 hPa 0,0 mm 0,1 km/h (0 Bft) S-SO 167 ° 0 min 0,000 mm 0,0 UV-I 0 W/m² 9,4 °C 10,2 °C 1,6 km/h (1 Bft)
29.06.2017 23:42 10,2 °C 10,2 °C 95 % 1004,4 hPa 0,0 mm 0,0 km/h (0 Bft) S-SO 167 ° 0 min 0,000 mm 0,0 UV-I 0 W/m² 9,4 °C 10,2 °C 0,0 km/h (0 Bft)
29.06.2017 23:43 10,3 °C 10,3 °C 95 % 1004,4 hPa 0,0 mm 0,0 km/h (0 Bft) S-SO 167 ° 0 min 0,000 mm 0,0 UV-I 0 W/m² 9,5 °C 10,3 °C 0,0 km/h (0 Bft)
29.06.2017 23:44 10,3 °C 10,3 °C 95 % 1004,4 hPa 0,0 mm 2,5 km/h (1 Bft) S-SW 192 ° 0 min 0,000 mm 0,0 UV-I 0 W/m² 9,5 °C 10,3 °C 6,4 km/h (2 Bft)
29.06.2017 23:45 10,3 °C 10,3 °C 95 % 1004,5 hPa 0,0 mm 2,3 km/h (1 Bft) S-SW 192 ° 0 min 0,000 mm 0,0 UV-I 0 W/m² 9,5 °C 10,3 °C 4,8 km/h (1 Bft)
29.06.2017 23:46 10,3 °C 10,3 °C 94 % 1004,4 hPa 0,0 mm 1,7 km/h (1 Bft) S 191 ° 0 min 0,000 mm 0,0 UV-I 0 W/m² 9,4 °C 10,3 °C 3,2 km/h (1 Bft)
29.06.2017 23:47 10,4 °C 10,4 °C 94 % 1004,5 hPa 0,0 mm 5,8 km/h (2 Bft) SW 236 ° 0 min 0,000 mm 0,0 UV-I 0 W/m² 9,5 °C 10,4 °C 9,7 km/h (2 Bft)
29.06.2017 23:48 10,4 °C 10,4 °C 94 % 1004,5 hPa 0,0 mm 6,2 km/h (2 Bft) SW 224 ° 0 min 0,000 mm 0,0 UV-I 0 W/m² 9,5 °C 10,4 °C 11,3 km/h (2 Bft)
29.06.2017 23:49 10,5 °C 10,5 °C 94 % 1004,6 hPa 0,0 mm 4,9 km/h (1 Bft) W 270 ° 0 min 0,000 mm 0,0 UV-I 0 W/m² 9,6 °C 10,5 °C 9,7 km/h (2 Bft)
29.06.2017 23:50 10,6 °C 10,6 °C 94 % 1004,6 hPa 0,0 mm 10,8 km/h (2 Bft) W 266 ° 0 min 0,000 mm 0,0 UV-I 0 W/m² 9,7 °C 10,6 °C 17,7 km/h (3 Bft)
29.06.2017 23:51 10,8 °C 10,8 °C 93 % 1004,8 hPa 0,0 mm 11,6 km/h (2 Bft) W-NW 285 ° 0 min 0,000 mm 0,0 UV-I 0 W/m² 9,7 °C 10,8 °C 14,5 km/h (3 Bft)
29.06.2017 23:52 10,9 °C 10,9 °C 92 % 1004,8 hPa 0,0 mm 13,4 km/h (3 Bft) W-NW 290 ° 0 min 0,000 mm 0,0 UV-I 0 W/m² 9,7 °C 10,9 °C 19,3 km/h (3 Bft)
29.06.2017 23:53 10,9 °C 10,9 °C 92 % 1004,9 hPa 0,0 mm 7,5 km/h (2 Bft) SW 233 ° 0 min 0,000 mm 0,0 UV-I 0 W/m² 9,7 °C 10,9 °C 14,5 km/h (3 Bft)
29.06.2017 23:54 11,0 °C 11,0 °C 92 % 1004,9 hPa 0,0 mm 10,0 km/h (2 Bft) W 268 ° 0 min 0,000 mm 0,0 UV-I 0 W/m² 9,8 °C 11,0 °C 14,5 km/h (3 Bft)
29.06.2017 23:55 11,1 °C 11,1 °C 91 % 1004,9 hPa 0,0 mm 8,4 km/h (2 Bft) W 269 ° 0 min 0,000 mm 0,0 UV-I 0 W/m² 9,7 °C 11,1 °C 12,9 km/h (3 Bft)
29.06.2017 23:56 11,1 °C 11,1 °C 91 % 1004,9 hPa 0,0 mm 9,6 km/h (2 Bft) W-NW 288 ° 0 min 0,000 mm 0,0 UV-I 0 W/m² 9,7 °C 11,1 °C 12,9 km/h (3 Bft)
29.06.2017 23:57 11,1 °C 11,1 °C 91 % 1005,0 hPa 0,0 mm 8,5 km/h (2 Bft) W-SW 254 ° 0 min 0,000 mm 0,0 UV-I 0 W/m² 9,7 °C 11,1 °C 11,3 km/h (2 Bft)
29.06.2017 23:58 11,1 °C 11,1 °C 91 % 1005,0 hPa 0,0 mm 9,5 km/h (2 Bft) SW 235 ° 0 min 0,000 mm 0,0 UV-I 0 W/m² 9,7 °C 11,1 °C 12,9 km/h (3 Bft)
29.06.2017 23:59 11,1 °C 11,1 °C 91 % 1005,0 hPa 0,0 mm 6,4 km/h (2 Bft) W-SW 257 ° 0 min 0,000 mm 0,0 UV-I 0 W/m² 9,7 °C 11,1 °C 16,1 km/h (3 Bft)
_ Min-Zeit 23:42 23:42 14:07 01:04 - 23:43 - - - - - - 22:22 23:42 23:43
Minimum _ 10,2 °C 10,2 °C 55 % 994,8 hPa - 0,0 km/h (0 Bft) - - - - - - 9,3 °C 10,2 °C 0,0 km/h (0 Bft)
_ Max-Zeit 14:39 14:40 23:45 23:59 17:17 18:15 - - 16:37 14:01 12:47 14:32 11:05 14:39 18:15
Maximum _ 20,2 °C 20,2 °C 95 % 1005,0 hPa 0,6 mm 25,1 km/h
W-SW (4 Bft)
- - 1 min 0,559 mm 8,3 UV-I 1081 W/m² 13,8 °C 20,2 °C 41,8 km/h
W-SW (6 Bft)
Durchschnitt _ 13,9 °C 13,9 °C 85 % 998,7 hPa #18,6 mm 6,6 km/h (2 Bft) W - #5:26 h #2,997 mm 4,1 UV-I 204 W/m² 11,3 °C 13,9 °C 10,9 km/h (2 Bft)